<?xml version='1.0' encoding='UTF-8'?><gpx version="1.1" creator="JPX - https://github.com/jenetics/jpx" xmlns="http://www.topografix.com/GPX/1/1"><trk><trkseg><trkpt lat="44.0407981277982" lon="10.858806652222842"><ele>704.0</ele><time>2026-04-04T06:43:21.007Z</time></trkpt><trkpt lat="44.040789336553615" lon="10.858718318981849"><ele>704.0</ele><time>2026-04-04T06:45:34Z</time></trkpt><trkpt lat="44.04085541274277" lon="10.858655387588021"><ele>704.0</ele><time>2026-04-04T06:46:44Z</time></trkpt><trkpt lat="44.040929902185816" lon="10.858656758300286"><ele>704.0</ele><time>2026-04-04T06:46:45Z</time></trkpt><trkpt lat="44.040995197139566" lon="10.858629593056254"><ele>704.0</ele><time>2026-04-04T06:46:46Z</time></trkpt><trkpt lat="44.04107150129215" lon="10.858612226355632"><ele>704.0</ele><time>2026-04-04T06:46:47Z</time></trkpt><trkpt lat="44.04115277666067" lon="10.85855687045982"><ele>705.4000000000001</ele><time>2026-04-04T06:46:48Z</time></trkpt><trkpt lat="44.04123547740371" lon="10.858523471866775"><ele>706.8</ele><time>2026-04-04T06:46:49Z</time></trkpt><trkpt lat="44.04134138323161" lon="10.858477482582432"><ele>708.2</ele><time>2026-04-04T06:46:50Z</time></trkpt><trkpt lat="44.04144846871423" lon="10.858428310772373"><ele>709.5999999999999</ele><time>2026-04-04T06:46:51Z</time></trkpt><trkpt lat="44.041535864810996" lon="10.858368725712376"><ele>711.0</ele><time>2026-04-04T06:46:52Z</time></trkpt><trkpt lat="44.041602063295514" lon="10.858331198286203"><ele>713.0</ele><time>2026-04-04T06:46:53Z</time></trkpt><trkpt lat="44.04173676596512" lon="10.858309437792084"><ele>715.0</ele><time>2026-04-04T06:46:55Z</time></trkpt><trkpt lat="44.04180764186054" lon="10.858271342350136"><ele>717.0</ele><time>2026-04-04T06:46:56Z</time></trkpt><trkpt lat="44.041895569519745" lon="10.858219923542476"><ele>719.0</ele><time>2026-04-04T06:46:58Z</time></trkpt><trkpt lat="44.04201782894501" lon="10.858177234753532"><ele>721.0</ele><time>2026-04-04T06:47:00Z</time></trkpt><trkpt lat="44.04210283864673" lon="10.858168819711244"><ele>721.0</ele><time>2026-04-04T06:47:01Z</time></trkpt><trkpt lat="44.04220591006025" lon="10.858149184198194"><ele>721.0</ele><time>2026-04-04T06:47:02Z</time></trkpt><trkpt lat="44.04230144817305" lon="10.858147263747178"><ele>721.0</ele><time>2026-04-04T06:47:03Z</time></trkpt><trkpt lat="44.04238963693431" lon="10.858149813138976"><ele>721.0</ele><time>2026-04-04T06:47:04Z</time></trkpt><trkpt lat="44.04246770139611" lon="10.858152257997421"><ele>721.0</ele><time>2026-04-04T06:47:05Z</time></trkpt><trkpt lat="44.04253236178801" lon="10.858115392741686"><ele>721.0</ele><time>2026-04-04T06:47:06Z</time></trkpt><trkpt lat="44.042645168027676" lon="10.858052472812554"><ele>720.5999999999999</ele><time>2026-04-04T06:47:08Z</time></trkpt><trkpt lat="44.04271255761011" lon="10.857938755362516"><ele>720.2</ele><time>2026-04-04T06:47:09Z</time></trkpt><trkpt lat="44.04277270749525" lon="10.857793663695679"><ele>719.8</ele><time>2026-04-04T06:47:09.999Z</time></trkpt><trkpt lat="44.0428438853176" lon="10.857672502251026"><ele>719.4000000000001</ele><time>2026-04-04T06:47:10.999Z</time></trkpt><trkpt lat="44.04292097193502" lon="10.857570334036163"><ele>719.0</ele><time>2026-04-04T06:47:12Z</time></trkpt><trkpt lat="44.04299435289709" lon="10.857470935716947"><ele>721.25</ele><time>2026-04-04T06:47:12.999Z</time></trkpt><trkpt lat="44.04306837063731" lon="10.85736194033784"><ele>723.5</ele><time>2026-04-04T06:47:13.999Z</time></trkpt><trkpt lat="44.04315189836119" lon="10.85723835670683"><ele>725.75</ele><time>2026-04-04T06:47:15Z</time></trkpt><trkpt lat="44.04323927088849" lon="10.857134137260214"><ele>728.0</ele><time>2026-04-04T06:47:15.999Z</time></trkpt><trkpt lat="44.043340816199894" lon="10.857050366737452"><ele>728.0</ele><time>2026-04-04T06:47:16.999Z</time></trkpt><trkpt lat="44.043447984087756" lon="10.856969977097553"><ele>728.0</ele><time>2026-04-04T06:47:18Z</time></trkpt><trkpt lat="44.043568843887385" lon="10.856921468411013"><ele>728.0</ele><time>2026-04-04T06:47:18.999Z</time></trkpt><trkpt lat="44.04368998139234" lon="10.856889453402792"><ele>728.0</ele><time>2026-04-04T06:47:19.999Z</time></trkpt><trkpt lat="44.0438049906827" lon="10.856848376000215"><ele>728.0</ele><time>2026-04-04T06:47:21Z</time></trkpt><trkpt lat="44.043899084847595" lon="10.856802500451163"><ele>728.0</ele><time>2026-04-04T06:47:22Z</time></trkpt><trkpt lat="44.04398248363784" lon="10.856757205081482"><ele>728.0</ele><time>2026-04-04T06:47:23Z</time></trkpt><trkpt lat="44.0440833631925" lon="10.856705241461034"><ele>728.0</ele><time>2026-04-04T06:47:24Z</time></trkpt><trkpt lat="44.04418472115073" lon="10.856618200210132"><ele>728.0</ele><time>2026-04-04T06:47:25Z</time></trkpt><trkpt lat="44.04430333413038" lon="10.856522128436945"><ele>728.4</ele><time>2026-04-04T06:47:26Z</time></trkpt><trkpt lat="44.04438160446671" lon="10.856450547678785"><ele>728.8</ele><time>2026-04-04T06:47:27Z</time></trkpt><trkpt lat="44.044471020863156" lon="10.856367979354197"><ele>729.2</ele><time>2026-04-04T06:47:28Z</time></trkpt><trkpt lat="44.0445574301713" lon="10.856297368780462"><ele>729.6</ele><time>2026-04-04T06:47:29Z</time></trkpt><trkpt lat="44.044651317273235" lon="10.856210443693415"><ele>730.0</ele><time>2026-04-04T06:47:30Z</time></trkpt><trkpt lat="44.044755295049335" lon="10.856118259273925"><ele>730.0</ele><time>2026-04-04T06:47:31Z</time></trkpt><trkpt lat="44.04486604249231" lon="10.856016436336361"><ele>730.0</ele><time>2026-04-04T06:47:32Z</time></trkpt><trkpt lat="44.04497588647302" lon="10.855919845046683"><ele>730.0</ele><time>2026-04-04T06:47:33Z</time></trkpt><trkpt lat="44.045074284118904" lon="10.855858252742157"><ele>730.0</ele><time>2026-04-04T06:47:34Z</time></trkpt><trkpt lat="44.04516584962445" lon="10.85578807960633"><ele>730.8</ele><time>2026-04-04T06:47:35Z</time></trkpt><trkpt lat="44.045242772250084" lon="10.855701757262096"><ele>731.6</ele><time>2026-04-04T06:47:36Z</time></trkpt><trkpt lat="44.04532210553368" lon="10.855635027085224"><ele>732.4000000000001</ele><time>2026-04-04T06:47:37Z</time></trkpt><trkpt lat="44.0454072062938" lon="10.855580291161903"><ele>733.2</ele><time>2026-04-04T06:47:38Z</time></trkpt><trkpt lat="44.04549329983517" lon="10.85555100796584"><ele>734.0</ele><time>2026-04-04T06:47:39Z</time></trkpt><trkpt lat="44.045576425039684" lon="10.85553633722143"><ele>734.0</ele><time>2026-04-04T06:47:40Z</time></trkpt><trkpt lat="44.04565756282501" lon="10.855541169694815"><ele>734.0</ele><time>2026-04-04T06:47:41Z</time></trkpt><trkpt lat="44.0457611759484" lon="10.855598683596867"><ele>734.0</ele><time>2026-04-04T06:47:42Z</time></trkpt><trkpt lat="44.04586013722086" lon="10.855606587046971"><ele>734.0</ele><time>2026-04-04T06:47:43Z</time></trkpt><trkpt lat="44.04596405497187" lon="10.855586840473388"><ele>734.0</ele><time>2026-04-04T06:47:44Z</time></trkpt><trkpt lat="44.04605317644125" lon="10.855516736999018"><ele>734.5</ele><time>2026-04-04T06:47:45Z</time></trkpt><trkpt lat="44.04612727203858" lon="10.855390434773627"><ele>735.0</ele><time>2026-04-04T06:47:46Z</time></trkpt><trkpt lat="44.04620127105855" lon="10.85529295182723"><ele>735.5</ele><time>2026-04-04T06:47:47Z</time></trkpt><trkpt lat="44.046289945806514" lon="10.855157006211787"><ele>736.0</ele><time>2026-04-04T06:47:48Z</time></trkpt><trkpt lat="44.0463773072629" lon="10.85502233695731"><ele>736.75</ele><time>2026-04-04T06:47:49Z</time></trkpt><trkpt lat="44.04644651900447" lon="10.854887637172089"><ele>737.5</ele><time>2026-04-04T06:47:50Z</time></trkpt><trkpt lat="44.04652669659182" lon="10.854762849731067"><ele>738.25</ele><time>2026-04-04T06:47:51Z</time></trkpt><trkpt lat="44.046618087985756" lon="10.854671097097647"><ele>739.0</ele><time>2026-04-04T06:47:52Z</time></trkpt><trkpt lat="44.04672679772395" lon="10.854583439068222"><ele>739.25</ele><time>2026-04-04T06:47:53Z</time></trkpt><trkpt lat="44.046855524148754" lon="10.854517817532136"><ele>739.5</ele><time>2026-04-04T06:47:54Z</time></trkpt><trkpt lat="44.04699344971743" lon="10.85448022185722"><ele>739.75</ele><time>2026-04-04T06:47:55Z</time></trkpt><trkpt lat="44.04712401214914" lon="10.854436659782925"><ele>740.0</ele><time>2026-04-04T06:47:56Z</time></trkpt><trkpt lat="44.047260655065664" lon="10.854383628171902"><ele>740.0</ele><time>2026-04-04T06:47:57Z</time></trkpt><trkpt lat="44.04738839530584" lon="10.85430767593136"><ele>740.0</ele><time>2026-04-04T06:47:58Z</time></trkpt><trkpt lat="44.0475029405046" lon="10.854228425159436"><ele>740.0</ele><time>2026-04-04T06:47:59Z</time></trkpt><trkpt lat="44.0476028374056" lon="10.854162684566095"><ele>740.0</ele><time>2026-04-04T06:48:00Z</time></trkpt><trkpt lat="44.04771271214928" lon="10.854088793831146"><ele>742.0</ele><time>2026-04-04T06:48:01Z</time></trkpt><trkpt lat="44.04783894590934" lon="10.854004334881802"><ele>744.0</ele><time>2026-04-04T06:48:02Z</time></trkpt><trkpt lat="44.04795032980465" lon="10.853919944079644"><ele>746.0</ele><time>2026-04-04T06:48:03Z</time></trkpt><trkpt lat="44.04807704921563" lon="10.853833465527908"><ele>748.0</ele><time>2026-04-04T06:48:04Z</time></trkpt><trkpt lat="44.04819105909303" lon="10.85372598075903"><ele>749.25</ele><time>2026-04-04T06:48:05Z</time></trkpt><trkpt lat="44.04830006554857" lon="10.85361966067759"><ele>750.5</ele><time>2026-04-04T06:48:06Z</time></trkpt><trkpt lat="44.04841615443651" lon="10.853532746364793"><ele>751.75</ele><time>2026-04-04T06:48:07Z</time></trkpt><trkpt lat="44.04853616506969" lon="10.853446600584693"><ele>753.0</ele><time>2026-04-04T06:48:08Z</time></trkpt><trkpt lat="44.04864617729951" lon="10.853350550639753"><ele>753.0</ele><time>2026-04-04T06:48:09Z</time></trkpt><trkpt lat="44.04875180602385" lon="10.853262347538223"><ele>753.0</ele><time>2026-04-04T06:48:10Z</time></trkpt><trkpt lat="44.048855398015895" lon="10.853181297716167"><ele>753.0</ele><time>2026-04-04T06:48:11Z</time></trkpt><trkpt lat="44.0489655146625" lon="10.853091017137507"><ele>753.0</ele><time>2026-04-04T06:48:12Z</time></trkpt><trkpt lat="44.049089039032985" lon="10.853000333209064"><ele>755.0</ele><time>2026-04-04T06:48:13Z</time></trkpt><trkpt lat="44.04921050747898" lon="10.852895380377023"><ele>757.0</ele><time>2026-04-04T06:48:14Z</time></trkpt><trkpt lat="44.049334389034" lon="10.85278647196798"><ele>759.0</ele><time>2026-04-04T06:48:15Z</time></trkpt><trkpt lat="44.04945609734872" lon="10.852682028333824"><ele>761.0</ele><time>2026-04-04T06:48:16Z</time></trkpt><trkpt lat="44.04958132271039" lon="10.852582750106151"><ele>761.0</ele><time>2026-04-04T06:48:17Z</time></trkpt><trkpt lat="44.04971286189665" lon="10.852486149639859"><ele>761.0</ele><time>2026-04-04T06:48:18Z</time></trkpt><trkpt lat="44.04982794113958" lon="10.85238771106748"><ele>761.0</ele><time>2026-04-04T06:48:19Z</time></trkpt><trkpt lat="44.049941851072205" lon="10.852309161202124"><ele>761.0</ele><time>2026-04-04T06:48:20Z</time></trkpt><trkpt lat="44.05004376137813" lon="10.852233085576374"><ele>763.5999999999999</ele><time>2026-04-04T06:48:21Z</time></trkpt><trkpt lat="44.05013783321174" lon="10.852162502569584"><ele>766.2</ele><time>2026-04-04T06:48:22Z</time></trkpt><trkpt lat="44.05022166483418" lon="10.85209755470156"><ele>768.8</ele><time>2026-04-04T06:48:23Z</time></trkpt><trkpt lat="44.05028718075479" lon="10.852036703264922"><ele>771.4000000000001</ele><time>2026-04-04T06:48:24Z</time></trkpt><trkpt lat="44.050341426889034" lon="10.851983916452673"><ele>774.0</ele><time>2026-04-04T06:48:25Z</time></trkpt><trkpt lat="44.05043866398199" lon="10.851908678617018"><ele>774.0</ele><time>2026-04-04T06:48:27Z</time></trkpt><trkpt lat="44.050468740073846" lon="10.851796572242637"><ele>774.0</ele><time>2026-04-04T06:48:29Z</time></trkpt><trkpt lat="44.05047060123934" lon="10.851604240471557"><ele>774.0</ele><time>2026-04-04T06:48:31Z</time></trkpt><trkpt lat="44.05046067344785" lon="10.851457224546788"><ele>774.0</ele><time>2026-04-04T06:48:32Z</time></trkpt><trkpt lat="44.05045948772836" lon="10.851276507168363"><ele>772.75</ele><time>2026-04-04T06:48:33Z</time></trkpt><trkpt lat="44.0504512637842" lon="10.851083482971267"><ele>771.5</ele><time>2026-04-04T06:48:34Z</time></trkpt><trkpt lat="44.05044211789512" lon="10.85088296451722"><ele>770.25</ele><time>2026-04-04T06:48:35Z</time></trkpt><trkpt lat="44.05043856860341" lon="10.85068108767893"><ele>769.0</ele><time>2026-04-04T06:48:36Z</time></trkpt><trkpt lat="44.05042692653062" lon="10.850480923679848"><ele>768.0</ele><time>2026-04-04T06:48:37Z</time></trkpt><trkpt lat="44.05041745089021" lon="10.850263624898654"><ele>767.0</ele><time>2026-04-04T06:48:38Z</time></trkpt><trkpt lat="44.05042134265713" lon="10.85004671730498"><ele>766.0</ele><time>2026-04-04T06:48:39Z</time></trkpt><trkpt lat="44.05040986197414" lon="10.8498272184968"><ele>765.6666666666667</ele><time>2026-04-04T06:48:40Z</time></trkpt><trkpt lat="44.05040158584733" lon="10.849596328329394"><ele>765.3333333333334</ele><time>2026-04-04T06:48:41Z</time></trkpt><trkpt lat="44.05039387545684" lon="10.849371176465342"><ele>765.0</ele><time>2026-04-04T06:48:42Z</time></trkpt><trkpt lat="44.050386571033705" lon="10.849154919665779"><ele>765.5</ele><time>2026-04-04T06:48:43Z</time></trkpt><trkpt lat="44.05038071277656" lon="10.848947154907739"><ele>766.0</ele><time>2026-04-04T06:48:44Z</time></trkpt><trkpt lat="44.050375159670864" lon="10.848769051439495"><ele>766.5</ele><time>2026-04-04T06:48:44.999Z</time></trkpt><trkpt lat="44.05038487616263" lon="10.848577798365826"><ele>767.0</ele><time>2026-04-04T06:48:45.999Z</time></trkpt><trkpt lat="44.05039579961932" lon="10.848382904321884"><ele>770.3333333333333</ele><time>2026-04-04T06:48:46.999Z</time></trkpt><trkpt lat="44.05043904669478" lon="10.848184457726395"><ele>773.6666666666666</ele><time>2026-04-04T06:48:47.999Z</time></trkpt><trkpt lat="44.050496824147096" lon="10.8479828719393"><ele>777.0</ele><time>2026-04-04T06:48:48.999Z</time></trkpt><trkpt lat="44.050586141305054" lon="10.847810002873691"><ele>777.0</ele><time>2026-04-04T06:48:49.999Z</time></trkpt><trkpt lat="44.050712187812216" lon="10.84765801168364"><ele>777.0</ele><time>2026-04-04T06:48:50.999Z</time></trkpt><trkpt lat="44.05084943132026" lon="10.847524431419309"><ele>777.0</ele><time>2026-04-04T06:48:51.999Z</time></trkpt><trkpt lat="44.05098333589351" lon="10.84740077671093"><ele>782.0</ele><time>2026-04-04T06:48:52.999Z</time></trkpt><trkpt lat="44.051123674626886" lon="10.847286415523465"><ele>787.0</ele><time>2026-04-04T06:48:53.999Z</time></trkpt><trkpt lat="44.051276432856035" lon="10.847146596541645"><ele>792.0</ele><time>2026-04-04T06:48:54.999Z</time></trkpt><trkpt lat="44.051428285611856" lon="10.84701732965157"><ele>792.0</ele><time>2026-04-04T06:48:55.999Z</time></trkpt><trkpt lat="44.05156866904434" lon="10.846908866937255"><ele>792.0</ele><time>2026-04-04T06:48:56.999Z</time></trkpt><trkpt lat="44.0517095538048" lon="10.846793248804142"><ele>792.0</ele><time>2026-04-04T06:48:57.999Z</time></trkpt><trkpt lat="44.051842408482116" lon="10.846662926806806"><ele>795.0</ele><time>2026-04-04T06:48:58.999Z</time></trkpt><trkpt lat="44.05195544155251" lon="10.84650841320918"><ele>798.0</ele><time>2026-04-04T06:48:59.999Z</time></trkpt><trkpt lat="44.052073344102745" lon="10.846329459838381"><ele>801.0</ele><time>2026-04-04T06:49:00.999Z</time></trkpt><trkpt lat="44.05216829283465" lon="10.846138553936669"><ele>801.0</ele><time>2026-04-04T06:49:01.999Z</time></trkpt><trkpt lat="44.052259988029206" lon="10.845972000620808"><ele>801.0</ele><time>2026-04-04T06:49:02.999Z</time></trkpt><trkpt lat="44.05232509889207" lon="10.84578520444133"><ele>801.0</ele><time>2026-04-04T06:49:03.999Z</time></trkpt><trkpt lat="44.052387855487396" lon="10.845581424613318"><ele>809.6666666666667</ele><time>2026-04-04T06:49:04.999Z</time></trkpt><trkpt lat="44.05243137404752" lon="10.845379507591453"><ele>818.3333333333334</ele><time>2026-04-04T06:49:05.999Z</time></trkpt><trkpt lat="44.05244210589597" lon="10.845176409037046"><ele>827.0</ele><time>2026-04-04T06:49:06.999Z</time></trkpt><trkpt lat="44.052418043130444" lon="10.844937127319609"><ele>829.0</ele><time>2026-04-04T06:49:07.999Z</time></trkpt><trkpt lat="44.052399684529796" lon="10.844694022044948"><ele>831.0</ele><time>2026-04-04T06:49:08.999Z</time></trkpt><trkpt lat="44.052360625634066" lon="10.844478078424741"><ele>833.0</ele><time>2026-04-04T06:49:09.999Z</time></trkpt><trkpt lat="44.05232435179237" lon="10.844273825188479"><ele>833.0</ele><time>2026-04-04T06:49:10.999Z</time></trkpt><trkpt lat="44.05229813904482" lon="10.844094308523356"><ele>833.0</ele><time>2026-04-04T06:49:12Z</time></trkpt><trkpt lat="44.052217582159095" lon="10.843927967264388"><ele>833.0</ele><time>2026-04-04T06:49:13Z</time></trkpt><trkpt lat="44.052118978904716" lon="10.843755142989075"><ele>833.0</ele><time>2026-04-04T06:49:14Z</time></trkpt><trkpt lat="44.05202192290822" lon="10.843596376495237"><ele>831.0</ele><time>2026-04-04T06:49:15Z</time></trkpt><trkpt lat="44.05191344063149" lon="10.84342479530464"><ele>829.0</ele><time>2026-04-04T06:49:16Z</time></trkpt><trkpt lat="44.051801679935835" lon="10.843253059208442"><ele>827.0</ele><time>2026-04-04T06:49:17Z</time></trkpt><trkpt lat="44.05169437663593" lon="10.843082124230902"><ele>833.75</ele><time>2026-04-04T06:49:18Z</time></trkpt><trkpt lat="44.05159110247084" lon="10.842911619783541"><ele>840.5</ele><time>2026-04-04T06:49:19Z</time></trkpt><trkpt lat="44.051495205193426" lon="10.842747433085206"><ele>847.25</ele><time>2026-04-04T06:49:20Z</time></trkpt><trkpt lat="44.05142745978629" lon="10.842589272624775"><ele>854.0</ele><time>2026-04-04T06:49:21Z</time></trkpt><trkpt lat="44.05136147845942" lon="10.842413017725082"><ele>854.0</ele><time>2026-04-04T06:49:22Z</time></trkpt><trkpt lat="44.05131533634489" lon="10.842209867756711"><ele>854.0</ele><time>2026-04-04T06:49:23Z</time></trkpt><trkpt lat="44.051299910966534" lon="10.842008811038843"><ele>854.0</ele><time>2026-04-04T06:49:24Z</time></trkpt><trkpt lat="44.0513085719923" lon="10.84182222535856"><ele>854.0</ele><time>2026-04-04T06:49:25Z</time></trkpt><trkpt lat="44.05136194162962" lon="10.84162719308269"><ele>851.0</ele><time>2026-04-04T06:49:26Z</time></trkpt><trkpt lat="44.051444316941904" lon="10.841422019651931"><ele>848.0</ele><time>2026-04-04T06:49:27Z</time></trkpt><trkpt lat="44.051468131652435" lon="10.841252031296126"><ele>845.0</ele><time>2026-04-04T06:49:28Z</time></trkpt><trkpt lat="44.05148166018277" lon="10.841096409762235"><ele>842.0</ele><time>2026-04-04T06:49:29Z</time></trkpt><trkpt lat="44.05147306880761" lon="10.840943948695484"><ele>840.75</ele><time>2026-04-04T06:49:30Z</time></trkpt><trkpt lat="44.0514261292161" lon="10.840804866482863"><ele>839.5</ele><time>2026-04-04T06:49:31Z</time></trkpt><trkpt lat="44.05136723244566" lon="10.84067187634518"><ele>838.25</ele><time>2026-04-04T06:49:32Z</time></trkpt><trkpt lat="44.05127460918039" lon="10.840580953369596"><ele>837.0</ele><time>2026-04-04T06:49:33Z</time></trkpt><trkpt lat="44.05116288805766" lon="10.840504726545463"><ele>837.0</ele><time>2026-04-04T06:49:34Z</time></trkpt><trkpt lat="44.051043133021864" lon="10.840474639180623"><ele>837.0</ele><time>2026-04-04T06:49:35Z</time></trkpt><trkpt lat="44.050911674972646" lon="10.840479894418127"><ele>837.0</ele><time>2026-04-04T06:49:36Z</time></trkpt><trkpt lat="44.050784193137915" lon="10.840491151045319"><ele>837.0</ele><time>2026-04-04T06:49:37Z</time></trkpt><trkpt lat="44.05067397582479" lon="10.840511311926575"><ele>843.0</ele><time>2026-04-04T06:49:38Z</time></trkpt><trkpt lat="44.05055336968129" lon="10.840536303373355"><ele>849.0</ele><time>2026-04-04T06:49:39Z</time></trkpt><trkpt lat="44.050442085620894" lon="10.840549011214982"><ele>855.0</ele><time>2026-04-04T06:49:40Z</time></trkpt><trkpt lat="44.050328236891595" lon="10.840509669371311"><ele>861.0</ele><time>2026-04-04T06:49:41Z</time></trkpt><trkpt lat="44.050241679105355" lon="10.84041518722196"><ele>861.0</ele><time>2026-04-04T06:49:42Z</time></trkpt><trkpt lat="44.05015015641808" lon="10.840294692948346"><ele>861.0</ele><time>2026-04-04T06:49:43Z</time></trkpt><trkpt lat="44.05007515282949" lon="10.8401662918632"><ele>861.0</ele><time>2026-04-04T06:49:44Z</time></trkpt><trkpt lat="44.050001854735314" lon="10.840015223090816"><ele>861.0</ele><time>2026-04-04T06:49:45Z</time></trkpt><trkpt lat="44.04992521364053" lon="10.839871820450497"><ele>860.25</ele><time>2026-04-04T06:49:46Z</time></trkpt><trkpt lat="44.049863208091686" lon="10.839702832762987"><ele>859.5</ele><time>2026-04-04T06:49:47Z</time></trkpt><trkpt lat="44.04979335967595" lon="10.83953856110666"><ele>858.75</ele><time>2026-04-04T06:49:48Z</time></trkpt><trkpt lat="44.04971612453638" lon="10.839371646971824"><ele>858.0</ele><time>2026-04-04T06:49:49Z</time></trkpt><trkpt lat="44.049646854759224" lon="10.839208611600803"><ele>858.0</ele><time>2026-04-04T06:49:50Z</time></trkpt><trkpt lat="44.049574510159886" lon="10.83904633777854"><ele>858.0</ele><time>2026-04-04T06:49:51Z</time></trkpt><trkpt lat="44.049530387977384" lon="10.83889871098779"><ele>858.0</ele><time>2026-04-04T06:49:52Z</time></trkpt><trkpt lat="44.049497133554944" lon="10.838756498767127"><ele>858.0</ele><time>2026-04-04T06:49:53Z</time></trkpt><trkpt lat="44.04946452138902" lon="10.838614761972204"><ele>858.0</ele><time>2026-04-04T06:49:54Z</time></trkpt><trkpt lat="44.04944893470121" lon="10.838509138530481"><ele>858.0</ele><time>2026-04-04T06:49:55Z</time></trkpt><trkpt lat="44.0494398457292" lon="10.838420957775108"><ele>858.0</ele><time>2026-04-04T06:49:56Z</time></trkpt><trkpt lat="44.04943885899757" lon="10.838273640615345"><ele>858.0</ele><time>2026-04-04T06:49:58Z</time></trkpt><trkpt lat="44.04940963999016" lon="10.838158084209141"><ele>858.0</ele><time>2026-04-04T06:50:00Z</time></trkpt><trkpt lat="44.049211541197806" lon="10.838100086265486"><ele>857.1666666666666</ele><time>2026-04-04T06:50:04Z</time></trkpt><trkpt lat="44.049139128128594" lon="10.838132342828763"><ele>856.3333333333333</ele><time>2026-04-04T06:50:05Z</time></trkpt><trkpt lat="44.04905095883564" lon="10.838166491540463"><ele>855.5</ele><time>2026-04-04T06:50:06Z</time></trkpt><trkpt lat="44.048968933633596" lon="10.838193816311138"><ele>854.6666666666666</ele><time>2026-04-04T06:50:07Z</time></trkpt><trkpt lat="44.04888869672903" lon="10.838201974489612"><ele>853.8333333333333</ele><time>2026-04-04T06:50:08Z</time></trkpt><trkpt lat="44.04879549355488" lon="10.838189657668199"><ele>853.0</ele><time>2026-04-04T06:50:09Z</time></trkpt><trkpt lat="44.048696321791" lon="10.8381582605692"><ele>852.0</ele><time>2026-04-04T06:50:10Z</time></trkpt><trkpt lat="44.04859205501067" lon="10.838138402786678"><ele>851.0</ele><time>2026-04-04T06:50:11Z</time></trkpt><trkpt lat="44.04849914464495" lon="10.838136322230234"><ele>850.0</ele><time>2026-04-04T06:50:12Z</time></trkpt><trkpt lat="44.04840450439191" lon="10.838163058950519"><ele>849.0</ele><time>2026-04-04T06:50:13Z</time></trkpt><trkpt lat="44.048313668113614" lon="10.838235026657179"><ele>848.0</ele><time>2026-04-04T06:50:14Z</time></trkpt><trkpt lat="44.04820620785405" lon="10.83830685508907"><ele>847.75</ele><time>2026-04-04T06:50:15Z</time></trkpt><trkpt lat="44.04809391146497" lon="10.838432057642109"><ele>847.5</ele><time>2026-04-04T06:50:16Z</time></trkpt><trkpt lat="44.048003856457655" lon="10.838577513939583"><ele>847.25</ele><time>2026-04-04T06:50:17Z</time></trkpt><trkpt lat="44.047889121342074" lon="10.838697696896451"><ele>847.0</ele><time>2026-04-04T06:50:18Z</time></trkpt><trkpt lat="44.047787111675355" lon="10.83882563599168"><ele>847.0</ele><time>2026-04-04T06:50:19Z</time></trkpt><trkpt lat="44.04769097211348" lon="10.838947747048884"><ele>847.0</ele><time>2026-04-04T06:50:20Z</time></trkpt><trkpt lat="44.04758935509671" lon="10.839075804016732"><ele>847.0</ele><time>2026-04-04T06:50:21Z</time></trkpt><trkpt lat="44.04749954404483" lon="10.83919175604546"><ele>847.0</ele><time>2026-04-04T06:50:22Z</time></trkpt><trkpt lat="44.04739548182337" lon="10.839296931315099"><ele>846.0</ele><time>2026-04-04T06:50:23Z</time></trkpt><trkpt lat="44.047301558487376" lon="10.839381116590467"><ele>845.0</ele><time>2026-04-04T06:50:24Z</time></trkpt><trkpt lat="44.04720281508703" lon="10.839452839960583"><ele>844.0</ele><time>2026-04-04T06:50:25Z</time></trkpt><trkpt lat="44.04710316259523" lon="10.839516759488403"><ele>843.0</ele><time>2026-04-04T06:50:26Z</time></trkpt><trkpt lat="44.04700959773098" lon="10.839559407860392"><ele>842.0</ele><time>2026-04-04T06:50:27Z</time></trkpt><trkpt lat="44.046911358610686" lon="10.839576123809074"><ele>842.0</ele><time>2026-04-04T06:50:28Z</time></trkpt><trkpt lat="44.046826360718285" lon="10.839556973610089"><ele>842.0</ele><time>2026-04-04T06:50:29Z</time></trkpt><trkpt lat="44.04674255427243" lon="10.839494713672462"><ele>842.0</ele><time>2026-04-04T06:50:30Z</time></trkpt><trkpt lat="44.04667533622278" lon="10.839374069034324"><ele>842.0</ele><time>2026-04-04T06:50:31Z</time></trkpt><trkpt lat="44.04659293621396" lon="10.839268315383341"><ele>842.0</ele><time>2026-04-04T06:50:32Z</time></trkpt><trkpt lat="44.04650028897889" lon="10.839163960450417"><ele>841.8</ele><time>2026-04-04T06:50:33Z</time></trkpt><trkpt lat="44.04640073211641" lon="10.839110882742432"><ele>841.6</ele><time>2026-04-04T06:50:34Z</time></trkpt><trkpt lat="44.04632080349858" lon="10.839050904527628"><ele>841.4</ele><time>2026-04-04T06:50:35Z</time></trkpt><trkpt lat="44.04620810641277" lon="10.839018188103658"><ele>841.1999999999999</ele><time>2026-04-04T06:50:36Z</time></trkpt><trkpt lat="44.04608423542311" lon="10.839010046767118"><ele>841.0</ele><time>2026-04-04T06:50:37Z</time></trkpt><trkpt lat="44.04594333781268" lon="10.839028637585363"><ele>840.0</ele><time>2026-04-04T06:50:38Z</time></trkpt><trkpt lat="44.045793421805286" lon="10.839051422175618"><ele>839.0</ele><time>2026-04-04T06:50:39Z</time></trkpt><trkpt lat="44.04564663850727" lon="10.83904701632875"><ele>838.0</ele><time>2026-04-04T06:50:40Z</time></trkpt><trkpt lat="44.04552387625414" lon="10.839051846803123"><ele>837.0</ele><time>2026-04-04T06:50:41Z</time></trkpt><trkpt lat="44.04540293268792" lon="10.839053708953042"><ele>837.0</ele><time>2026-04-04T06:50:42Z</time></trkpt><trkpt lat="44.045294124996985" lon="10.839045929578345"><ele>837.0</ele><time>2026-04-04T06:50:43Z</time></trkpt><trkpt lat="44.045181792370975" lon="10.839018414591026"><ele>837.0</ele><time>2026-04-04T06:50:44Z</time></trkpt><trkpt lat="44.04505730478827" lon="10.838962928934233"><ele>837.0</ele><time>2026-04-04T06:50:45Z</time></trkpt><trkpt lat="44.04492634206682" lon="10.838887572215304"><ele>834.5</ele><time>2026-04-04T06:50:46Z</time></trkpt><trkpt lat="44.044796702728874" lon="10.838816035482624"><ele>832.0</ele><time>2026-04-04T06:50:47Z</time></trkpt><trkpt lat="44.04467980846237" lon="10.838735587014458"><ele>829.5</ele><time>2026-04-04T06:50:48Z</time></trkpt><trkpt lat="44.044564472119966" lon="10.838660597726792"><ele>827.0</ele><time>2026-04-04T06:50:49Z</time></trkpt><trkpt lat="44.04446100677389" lon="10.838546340674485"><ele>827.0</ele><time>2026-04-04T06:50:50Z</time></trkpt><trkpt lat="44.044345957246826" lon="10.838432587372072"><ele>827.0</ele><time>2026-04-04T06:50:51Z</time></trkpt><trkpt lat="44.04424373389237" lon="10.838320337296066"><ele>827.0</ele><time>2026-04-04T06:50:52Z</time></trkpt><trkpt lat="44.044147083432726" lon="10.838203989219412"><ele>827.0</ele><time>2026-04-04T06:50:53Z</time></trkpt><trkpt lat="44.04405694552415" lon="10.838069779193441"><ele>826.75</ele><time>2026-04-04T06:50:54Z</time></trkpt><trkpt lat="44.04397094811481" lon="10.837939746079138"><ele>826.5</ele><time>2026-04-04T06:50:55Z</time></trkpt><trkpt lat="44.0438824097062" lon="10.83780807885502"><ele>826.25</ele><time>2026-04-04T06:50:56Z</time></trkpt><trkpt lat="44.04378549280366" lon="10.837696193148709"><ele>826.0</ele><time>2026-04-04T06:50:57Z</time></trkpt><trkpt lat="44.04371484327108" lon="10.837576953144863"><ele>826.0</ele><time>2026-04-04T06:50:58Z</time></trkpt><trkpt lat="44.04364889819227" lon="10.837469972253798"><ele>826.0</ele><time>2026-04-04T06:50:59Z</time></trkpt><trkpt lat="44.04358049895435" lon="10.837368762169293"><ele>826.0</ele><time>2026-04-04T06:51:00Z</time></trkpt><trkpt lat="44.043457153825806" lon="10.837169589856124"><ele>826.0</ele><time>2026-04-04T06:51:02Z</time></trkpt><trkpt lat="44.04340438436448" lon="10.837068648197993"><ele>826.0</ele><time>2026-04-04T06:51:03Z</time></trkpt><trkpt lat="44.043356768835466" lon="10.836949999971086"><ele>826.0</ele><time>2026-04-04T06:51:04Z</time></trkpt><trkpt lat="44.04331519992663" lon="10.836831184051634"><ele>826.0</ele><time>2026-04-04T06:51:05Z</time></trkpt><trkpt lat="44.043286641489324" lon="10.83670225238179"><ele>826.0</ele><time>2026-04-04T06:51:06Z</time></trkpt><trkpt lat="44.043260193107805" lon="10.836575182707938"><ele>826.0</ele><time>2026-04-04T06:51:07Z</time></trkpt><trkpt lat="44.04323806595746" lon="10.836459074528548"><ele>825.6666666666666</ele><time>2026-04-04T06:51:08Z</time></trkpt><trkpt lat="44.04322264086915" lon="10.836354200971286"><ele>825.3333333333333</ele><time>2026-04-04T06:51:09Z</time></trkpt><trkpt lat="44.04319741165472" lon="10.836246712956548"><ele>825.0</ele><time>2026-04-04T06:51:10Z</time></trkpt><trkpt lat="44.04316747211602" lon="10.836155072994298"><ele>824.6666666666667</ele><time>2026-04-04T06:51:11Z</time></trkpt><trkpt lat="44.043107029200705" lon="10.836040780190759"><ele>824.3333333333334</ele><time>2026-04-04T06:51:13Z</time></trkpt><trkpt lat="44.043052485219775" lon="10.835975879697104"><ele>824.0</ele><time>2026-04-04T06:51:16Z</time></trkpt><trkpt lat="44.04298586966952" lon="10.835984167913795"><ele>824.0000000000001</ele><time>2026-04-04T06:51:21Z</time></trkpt><trkpt lat="44.042944599823485" lon="10.836081026576794"><ele>824.0</ele><time>2026-04-04T06:51:23Z</time></trkpt><trkpt lat="44.042912655782395" lon="10.836205610761573"><ele>824.0</ele><time>2026-04-04T06:51:24Z</time></trkpt><trkpt lat="44.042877535960166" lon="10.83633197421429"><ele>824.0</ele><time>2026-04-04T06:51:25Z</time></trkpt><trkpt lat="44.04283448623902" lon="10.836436169771734"><ele>824.0000000000001</ele><time>2026-04-04T06:51:26Z</time></trkpt><trkpt lat="44.04277817810115" lon="10.836527490695087"><ele>824.0</ele><time>2026-04-04T06:51:27Z</time></trkpt><trkpt lat="44.04270583530872" lon="10.836634225992944"><ele>824.0</ele><time>2026-04-04T06:51:28Z</time></trkpt><trkpt lat="44.042647524677975" lon="10.836753765929783"><ele>824.0</ele><time>2026-04-04T06:51:29Z</time></trkpt><trkpt lat="44.04260051956298" lon="10.836896013750462"><ele>824.0</ele><time>2026-04-04T06:51:30Z</time></trkpt><trkpt lat="44.04257491449553" lon="10.837062253221955"><ele>824.0</ele><time>2026-04-04T06:51:31Z</time></trkpt><trkpt lat="44.042551208373126" lon="10.837253641848175"><ele>822.75</ele><time>2026-04-04T06:51:32Z</time></trkpt><trkpt lat="44.04254844120966" lon="10.837447117420918"><ele>821.5</ele><time>2026-04-04T06:51:33Z</time></trkpt><trkpt lat="44.042548303151115" lon="10.837623554554309"><ele>820.25</ele><time>2026-04-04T06:51:34Z</time></trkpt><trkpt lat="44.042557143634504" lon="10.837789742607844"><ele>819.0</ele><time>2026-04-04T06:51:35Z</time></trkpt><trkpt lat="44.042572006329195" lon="10.837945685742842"><ele>817.4000000000001</ele><time>2026-04-04T06:51:36Z</time></trkpt><trkpt lat="44.042583169798036" lon="10.83808390282982"><ele>815.8</ele><time>2026-04-04T06:51:37Z</time></trkpt><trkpt lat="44.04257887593832" lon="10.838228172525403"><ele>814.2</ele><time>2026-04-04T06:51:38Z</time></trkpt><trkpt lat="44.042554241298845" lon="10.838364490012973"><ele>812.5999999999999</ele><time>2026-04-04T06:51:39Z</time></trkpt><trkpt lat="44.04249304970105" lon="10.838486882315578"><ele>811.0</ele><time>2026-04-04T06:51:40Z</time></trkpt><trkpt lat="44.042392642287844" lon="10.838611778387309"><ele>807.1999999999999</ele><time>2026-04-04T06:51:41Z</time></trkpt><trkpt lat="44.042295470683655" lon="10.838740084000255"><ele>803.4</ele><time>2026-04-04T06:51:42Z</time></trkpt><trkpt lat="44.04222463281557" lon="10.838847777815218"><ele>799.6</ele><time>2026-04-04T06:51:43Z</time></trkpt><trkpt lat="44.04217032881798" lon="10.838949028203633"><ele>795.8</ele><time>2026-04-04T06:51:44Z</time></trkpt><trkpt lat="44.04215257336428" lon="10.839058846647033"><ele>792.0</ele><time>2026-04-04T06:51:45Z</time></trkpt><trkpt lat="44.0421765471518" lon="10.839180022892263"><ele>792.0</ele><time>2026-04-04T06:51:46Z</time></trkpt><trkpt lat="44.042256277339696" lon="10.839292839070634"><ele>792.0</ele><time>2026-04-04T06:51:47Z</time></trkpt><trkpt lat="44.04233184198625" lon="10.839365227656668"><ele>792.0</ele><time>2026-04-04T06:51:48Z</time></trkpt><trkpt lat="44.042447926446776" lon="10.839365405500082"><ele>792.0</ele><time>2026-04-04T06:51:49Z</time></trkpt><trkpt lat="44.042574889018326" lon="10.839391032255577"><ele>791.25</ele><time>2026-04-04T06:51:50Z</time></trkpt><trkpt lat="44.04271179586749" lon="10.839422002955766"><ele>790.5</ele><time>2026-04-04T06:51:51Z</time></trkpt><trkpt lat="44.04284085047503" lon="10.839477419858163"><ele>789.75</ele><time>2026-04-04T06:51:52Z</time></trkpt><trkpt lat="44.04291961322044" lon="10.839541470864688"><ele>789.0</ele><time>2026-04-04T06:51:53Z</time></trkpt><trkpt lat="44.04299517054279" lon="10.839629883887202"><ele>789.0</ele><time>2026-04-04T06:51:54Z</time></trkpt><trkpt lat="44.04305064235889" lon="10.83975740114447"><ele>789.0</ele><time>2026-04-04T06:51:55Z</time></trkpt><trkpt lat="44.04306719505235" lon="10.839919875396317"><ele>789.0</ele><time>2026-04-04T06:51:56Z</time></trkpt><trkpt lat="44.04308303540989" lon="10.840101563051924"><ele>789.0</ele><time>2026-04-04T06:51:57Z</time></trkpt><trkpt lat="44.04307583845091" lon="10.840291634008151"><ele>787.5</ele><time>2026-04-04T06:51:58Z</time></trkpt><trkpt lat="44.0430211095179" lon="10.840481810541593"><ele>786.0</ele><time>2026-04-04T06:51:59Z</time></trkpt><trkpt lat="44.04294631113296" lon="10.840652015938893"><ele>784.5</ele><time>2026-04-04T06:52:00Z</time></trkpt><trkpt lat="44.04287689282229" lon="10.840818376543895"><ele>783.0</ele><time>2026-04-04T06:52:01Z</time></trkpt><trkpt lat="44.042856353838786" lon="10.840999296482599"><ele>782.75</ele><time>2026-04-04T06:52:02Z</time></trkpt><trkpt lat="44.042829776633624" lon="10.84118096368497"><ele>782.5</ele><time>2026-04-04T06:52:03Z</time></trkpt><trkpt lat="44.04281592221005" lon="10.84134132747828"><ele>782.25</ele><time>2026-04-04T06:52:04Z</time></trkpt><trkpt lat="44.04280883990069" lon="10.841500122425009"><ele>782.0</ele><time>2026-04-04T06:52:05Z</time></trkpt><trkpt lat="44.042863300981" lon="10.841645235454294"><ele>778.0</ele><time>2026-04-04T06:52:06Z</time></trkpt><trkpt lat="44.04293222900803" lon="10.841815511750413"><ele>774.0</ele><time>2026-04-04T06:52:07Z</time></trkpt><trkpt lat="44.043007162797686" lon="10.842030618085639"><ele>770.0</ele><time>2026-04-04T06:52:08Z</time></trkpt><trkpt lat="44.04307979492672" lon="10.842202594001352"><ele>770.0</ele><time>2026-04-04T06:52:09Z</time></trkpt><trkpt lat="44.04314807725275" lon="10.842354975571109"><ele>770.0</ele><time>2026-04-04T06:52:10Z</time></trkpt><trkpt lat="44.04322910312486" lon="10.84249189950637"><ele>770.0</ele><time>2026-04-04T06:52:11Z</time></trkpt><trkpt lat="44.04333440550273" lon="10.842585263785454"><ele>770.0</ele><time>2026-04-04T06:52:12Z</time></trkpt><trkpt lat="44.04344720510038" lon="10.842673244723061"><ele>771.4</ele><time>2026-04-04T06:52:13Z</time></trkpt><trkpt lat="44.043548257128165" lon="10.842744178246125"><ele>772.8</ele><time>2026-04-04T06:52:14Z</time></trkpt><trkpt lat="44.0436531746411" lon="10.842791564142257"><ele>774.2</ele><time>2026-04-04T06:52:15Z</time></trkpt><trkpt lat="44.04374005206593" lon="10.842810295615484"><ele>775.6</ele><time>2026-04-04T06:52:16Z</time></trkpt><trkpt lat="44.04381346418092" lon="10.842845078131774"><ele>777.0</ele><time>2026-04-04T06:52:17Z</time></trkpt><trkpt lat="44.04387517286289" lon="10.842911410214088"><ele>777.0</ele><time>2026-04-04T06:52:18Z</time></trkpt><trkpt lat="44.0438933109936" lon="10.843001673400952"><ele>777.0</ele><time>2026-04-04T06:52:19Z</time></trkpt><trkpt lat="44.043871586301236" lon="10.843099146382418"><ele>777.0</ele><time>2026-04-04T06:52:20Z</time></trkpt><trkpt lat="44.043808805228565" lon="10.843180016545045"><ele>777.0</ele><time>2026-04-04T06:52:21Z</time></trkpt><trkpt lat="44.043713526754715" lon="10.843208040586626"><ele>777.0</ele><time>2026-04-04T06:52:22Z</time></trkpt><trkpt lat="44.043597740572125" lon="10.84328215749489"><ele>777.0</ele><time>2026-04-04T06:52:23Z</time></trkpt><trkpt lat="44.04345884394463" lon="10.843338660368927"><ele>777.0</ele><time>2026-04-04T06:52:24Z</time></trkpt><trkpt lat="44.04331422320429" lon="10.843403643578329"><ele>777.0</ele><time>2026-04-04T06:52:25Z</time></trkpt><trkpt lat="44.04316857976229" lon="10.843496019050535"><ele>773.3333333333334</ele><time>2026-04-04T06:52:26Z</time></trkpt><trkpt lat="44.04303282941183" lon="10.843616105564482"><ele>769.6666666666667</ele><time>2026-04-04T06:52:27Z</time></trkpt><trkpt lat="44.042908792209985" lon="10.843744151261127"><ele>766.0</ele><time>2026-04-04T06:52:28Z</time></trkpt><trkpt lat="44.04277214541617" lon="10.843857104992225"><ele>766.0</ele><time>2026-04-04T06:52:29Z</time></trkpt><trkpt lat="44.042628749271245" lon="10.84394635190859"><ele>766.0</ele><time>2026-04-04T06:52:30Z</time></trkpt><trkpt lat="44.04248608857497" lon="10.844039696473393"><ele>766.0</ele><time>2026-04-04T06:52:31Z</time></trkpt><trkpt lat="44.042358281294874" lon="10.84412496203963"><ele>763.5</ele><time>2026-04-04T06:52:32Z</time></trkpt><trkpt lat="44.042236437314195" lon="10.844220987629264"><ele>761.0</ele><time>2026-04-04T06:52:33Z</time></trkpt><trkpt lat="44.04212510728377" lon="10.844305667659908"><ele>758.5</ele><time>2026-04-04T06:52:34Z</time></trkpt><trkpt lat="44.042048642895566" lon="10.84445475230495"><ele>756.0</ele><time>2026-04-04T06:52:35Z</time></trkpt><trkpt lat="44.04197397904002" lon="10.844615560654844"><ele>756.0</ele><time>2026-04-04T06:52:36Z</time></trkpt><trkpt lat="44.04190296498773" lon="10.844780908218336"><ele>756.0</ele><time>2026-04-04T06:52:37Z</time></trkpt><trkpt lat="44.041835366767636" lon="10.844944415212161"><ele>756.0</ele><time>2026-04-04T06:52:38Z</time></trkpt><trkpt lat="44.0417646644025" lon="10.845125436590093"><ele>756.0</ele><time>2026-04-04T06:52:39Z</time></trkpt><trkpt lat="44.04166880072568" lon="10.845253557774354"><ele>752.75</ele><time>2026-04-04T06:52:40Z</time></trkpt><trkpt lat="44.04155272173299" lon="10.845377624227964"><ele>749.5</ele><time>2026-04-04T06:52:41Z</time></trkpt><trkpt lat="44.04143525860764" lon="10.845495123487593"><ele>746.25</ele><time>2026-04-04T06:52:42Z</time></trkpt><trkpt lat="44.041327717235916" lon="10.84561061048029"><ele>743.0</ele><time>2026-04-04T06:52:43Z</time></trkpt><trkpt lat="44.041230239484484" lon="10.845729981745574"><ele>743.0</ele><time>2026-04-04T06:52:44Z</time></trkpt><trkpt lat="44.041156152387956" lon="10.84587233035481"><ele>743.0</ele><time>2026-04-04T06:52:45Z</time></trkpt><trkpt lat="44.041114313597525" lon="10.846027484284093"><ele>743.0</ele><time>2026-04-04T06:52:46Z</time></trkpt><trkpt lat="44.04106230979191" lon="10.846165853363269"><ele>743.0</ele><time>2026-04-04T06:52:47Z</time></trkpt><trkpt lat="44.04101749563008" lon="10.846292315155152"><ele>744.2</ele><time>2026-04-04T06:52:48Z</time></trkpt><trkpt lat="44.040964886228295" lon="10.846378584388038"><ele>745.4</ele><time>2026-04-04T06:52:49Z</time></trkpt><trkpt lat="44.04089284501745" lon="10.846445783190076"><ele>746.6</ele><time>2026-04-04T06:52:50Z</time></trkpt><trkpt lat="44.04079255410444" lon="10.846416617583031"><ele>747.8000000000001</ele><time>2026-04-04T06:52:51Z</time></trkpt><trkpt lat="44.040679544847926" lon="10.846400020597486"><ele>749.0</ele><time>2026-04-04T06:52:52Z</time></trkpt><trkpt lat="44.040564333315025" lon="10.846418081408082"><ele>747.4000000000001</ele><time>2026-04-04T06:52:53Z</time></trkpt><trkpt lat="44.04047131125363" lon="10.846462841539855"><ele>745.8</ele><time>2026-04-04T06:52:54Z</time></trkpt><trkpt lat="44.04040416532873" lon="10.846557790588113"><ele>744.2</ele><time>2026-04-04T06:52:55Z</time></trkpt><trkpt lat="44.04036795757087" lon="10.846689047415971"><ele>742.5999999999999</ele><time>2026-04-04T06:52:56Z</time></trkpt><trkpt lat="44.04034032553851" lon="10.846811077114122"><ele>741.0</ele><time>2026-04-04T06:52:57Z</time></trkpt><trkpt lat="44.04030924322484" lon="10.846909258323864"><ele>741.0</ele><time>2026-04-04T06:52:58Z</time></trkpt><trkpt lat="44.040259263048306" lon="10.846994812374511"><ele>741.0</ele><time>2026-04-04T06:52:59Z</time></trkpt><trkpt lat="44.04017847741728" lon="10.847040576044867"><ele>741.0</ele><time>2026-04-04T06:53:00Z</time></trkpt><trkpt lat="44.04006466099804" lon="10.847024013886095"><ele>741.0</ele><time>2026-04-04T06:53:01Z</time></trkpt><trkpt lat="44.03995006386971" lon="10.847032059488145"><ele>741.0</ele><time>2026-04-04T06:53:02Z</time></trkpt><trkpt lat="44.039840484815024" lon="10.847031971638073"><ele>737.75</ele><time>2026-04-04T06:53:03Z</time></trkpt><trkpt lat="44.039737122573186" lon="10.847057183672728"><ele>734.5</ele><time>2026-04-04T06:53:04Z</time></trkpt><trkpt lat="44.03963794236947" lon="10.847126701334442"><ele>731.25</ele><time>2026-04-04T06:53:05Z</time></trkpt><trkpt lat="44.03953887808603" lon="10.847226541405032"><ele>728.0</ele><time>2026-04-04T06:53:06Z</time></trkpt><trkpt lat="44.03942379851627" lon="10.847341441049503"><ele>728.0</ele><time>2026-04-04T06:53:07Z</time></trkpt><trkpt lat="44.03931708219891" lon="10.847446126997042"><ele>728.0</ele><time>2026-04-04T06:53:08Z</time></trkpt><trkpt lat="44.039208935901705" lon="10.84755308962887"><ele>728.0</ele><time>2026-04-04T06:53:09Z</time></trkpt><trkpt lat="44.03910224311526" lon="10.847662757742441"><ele>728.0</ele><time>2026-04-04T06:53:10Z</time></trkpt><trkpt lat="44.038996552668664" lon="10.847800804340082"><ele>725.0</ele><time>2026-04-04T06:53:11Z</time></trkpt><trkpt lat="44.038905931398055" lon="10.84795136800081"><ele>722.0</ele><time>2026-04-04T06:53:12Z</time></trkpt><trkpt lat="44.03881460594146" lon="10.848132559424876"><ele>719.0</ele><time>2026-04-04T06:53:13Z</time></trkpt><trkpt lat="44.03872179654698" lon="10.84833131164912"><ele>720.3333333333333</ele><time>2026-04-04T06:53:14Z</time></trkpt><trkpt lat="44.03862737579151" lon="10.848529616942052"><ele>721.6666666666666</ele><time>2026-04-04T06:53:15Z</time></trkpt><trkpt lat="44.03852454678839" lon="10.8487330491622"><ele>723.0</ele><time>2026-04-04T06:53:16Z</time></trkpt><trkpt lat="44.03841947325937" lon="10.848938652242262"><ele>723.0</ele><time>2026-04-04T06:53:17Z</time></trkpt><trkpt lat="44.03831012106775" lon="10.84914395044717"><ele>723.0</ele><time>2026-04-04T06:53:18Z</time></trkpt><trkpt lat="44.03820817620406" lon="10.849342088195204"><ele>723.0</ele><time>2026-04-04T06:53:19Z</time></trkpt><trkpt lat="44.038111163524114" lon="10.849533404229286"><ele>719.6666666666666</ele><time>2026-04-04T06:53:20Z</time></trkpt><trkpt lat="44.03801939664534" lon="10.849717762479603"><ele>716.3333333333333</ele><time>2026-04-04T06:53:21Z</time></trkpt><trkpt lat="44.03793050872764" lon="10.849901817874075"><ele>713.0</ele><time>2026-04-04T06:53:22Z</time></trkpt><trkpt lat="44.03785600398796" lon="10.850106049267122"><ele>713.0</ele><time>2026-04-04T06:53:23Z</time></trkpt><trkpt lat="44.03779039459166" lon="10.85032623626977"><ele>713.0</ele><time>2026-04-04T06:53:24Z</time></trkpt><trkpt lat="44.0377336409262" lon="10.850535450490835"><ele>713.0</ele><time>2026-04-04T06:53:25Z</time></trkpt><trkpt lat="44.03767888874695" lon="10.850733060163872"><ele>713.0</ele><time>2026-04-04T06:53:25.999Z</time></trkpt><trkpt lat="44.03762998475754" lon="10.850911199627893"><ele>713.0</ele><time>2026-04-04T06:53:27Z</time></trkpt><trkpt lat="44.037586456430674" lon="10.851069505729614"><ele>713.0</ele><time>2026-04-04T06:53:28Z</time></trkpt><trkpt lat="44.03755884110064" lon="10.851226053171956"><ele>713.0</ele><time>2026-04-04T06:53:29Z</time></trkpt><trkpt lat="44.03755313730974" lon="10.851379091927688"><ele>712.75</ele><time>2026-04-04T06:53:30Z</time></trkpt><trkpt lat="44.037575449752694" lon="10.851538712568068"><ele>712.5</ele><time>2026-04-04T06:53:31Z</time></trkpt><trkpt lat="44.037612275233684" lon="10.851713193862398"><ele>712.25</ele><time>2026-04-04T06:53:32Z</time></trkpt><trkpt lat="44.03764919997411" lon="10.851908078902163"><ele>712.0</ele><time>2026-04-04T06:53:33Z</time></trkpt><trkpt lat="44.03768896017416" lon="10.852104102380299"><ele>712.0</ele><time>2026-04-04T06:53:34Z</time></trkpt><trkpt lat="44.037727866362125" lon="10.852305309039016"><ele>712.0</ele><time>2026-04-04T06:53:35Z</time></trkpt><trkpt lat="44.03776484551755" lon="10.852506956021568"><ele>712.0</ele><time>2026-04-04T06:53:36Z</time></trkpt><trkpt lat="44.037791376193546" lon="10.85268350103778"><ele>712.0</ele><time>2026-04-04T06:53:37Z</time></trkpt><trkpt lat="44.037805703729475" lon="10.852842690271885"><ele>711.2</ele><time>2026-04-04T06:53:38Z</time></trkpt><trkpt lat="44.037781196491586" lon="10.852996052475353"><ele>710.4000000000001</ele><time>2026-04-04T06:53:39Z</time></trkpt><trkpt lat="44.037744004909314" lon="10.853118451119062"><ele>709.5999999999999</ele><time>2026-04-04T06:53:40Z</time></trkpt><trkpt lat="44.03768145616349" lon="10.853225353381639"><ele>708.8</ele><time>2026-04-04T06:53:41Z</time></trkpt><trkpt lat="44.03760571688623" lon="10.853296941899627"><ele>708.0</ele><time>2026-04-04T06:53:42Z</time></trkpt><trkpt lat="44.03752263878332" lon="10.853373909245908"><ele>707.8</ele><time>2026-04-04T06:53:43Z</time></trkpt><trkpt lat="44.037443690096765" lon="10.853452217242573"><ele>707.5999999999999</ele><time>2026-04-04T06:53:44Z</time></trkpt><trkpt lat="44.03738508105917" lon="10.853600327567586"><ele>707.4000000000001</ele><time>2026-04-04T06:53:45Z</time></trkpt><trkpt lat="44.037353955706145" lon="10.853747152533717"><ele>707.2</ele><time>2026-04-04T06:53:46Z</time></trkpt><trkpt lat="44.037339021519045" lon="10.853901471813252"><ele>707.0</ele><time>2026-04-04T06:53:47Z</time></trkpt><trkpt lat="44.03735283618987" lon="10.854041617611898"><ele>708.5</ele><time>2026-04-04T06:53:48Z</time></trkpt><trkpt lat="44.0374112787965" lon="10.854182975518563"><ele>710.0</ele><time>2026-04-04T06:53:49Z</time></trkpt><trkpt lat="44.03745900873079" lon="10.854340021784676"><ele>711.5</ele><time>2026-04-04T06:53:50Z</time></trkpt><trkpt lat="44.03752568805417" lon="10.854485311524055"><ele>713.0</ele><time>2026-04-04T06:53:51Z</time></trkpt><trkpt lat="44.037603451579706" lon="10.854638684544254"><ele>713.0</ele><time>2026-04-04T06:53:52Z</time></trkpt><trkpt lat="44.037683059786126" lon="10.854769636137252"><ele>713.0</ele><time>2026-04-04T06:53:53Z</time></trkpt><trkpt lat="44.037714934552326" lon="10.854935216124435"><ele>713.0</ele><time>2026-04-04T06:53:54Z</time></trkpt><trkpt lat="44.03773545381493" lon="10.855109817142061"><ele>713.0</ele><time>2026-04-04T06:53:55Z</time></trkpt><trkpt lat="44.03775169540828" lon="10.855311453973624"><ele>713.6666666666666</ele><time>2026-04-04T06:53:56Z</time></trkpt><trkpt lat="44.03776675502946" lon="10.855527750758421"><ele>714.3333333333334</ele><time>2026-04-04T06:53:57Z</time></trkpt><trkpt lat="44.03778127008564" lon="10.855736225961124"><ele>715.0</ele><time>2026-04-04T06:53:58Z</time></trkpt><trkpt lat="44.037796756755306" lon="10.855958656376"><ele>715.0</ele><time>2026-04-04T06:53:59Z</time></trkpt><trkpt lat="44.03781316766957" lon="10.85618082908377"><ele>715.0</ele><time>2026-04-04T06:54:00Z</time></trkpt><trkpt lat="44.03782887100998" lon="10.856384972532549"><ele>715.0</ele><time>2026-04-04T06:54:01Z</time></trkpt><trkpt lat="44.03785782854022" lon="10.85656443423902"><ele>715.0</ele><time>2026-04-04T06:54:02Z</time></trkpt><trkpt lat="44.03786222783728" lon="10.856736294158344"><ele>715.4</ele><time>2026-04-04T06:54:03Z</time></trkpt><trkpt lat="44.03789109986629" lon="10.856874447345422"><ele>715.8</ele><time>2026-04-04T06:54:04Z</time></trkpt><trkpt lat="44.037941598130196" lon="10.856987042341919"><ele>716.2</ele><time>2026-04-04T06:54:05Z</time></trkpt><trkpt lat="44.03801555986153" lon="10.857079011373816"><ele>716.6</ele><time>2026-04-04T06:54:06Z</time></trkpt><trkpt lat="44.038109393396184" lon="10.85714807938938"><ele>717.0</ele><time>2026-04-04T06:54:07Z</time></trkpt><trkpt lat="44.038204435139306" lon="10.857221179133003"><ele>717.0</ele><time>2026-04-04T06:54:08Z</time></trkpt><trkpt lat="44.03829158599671" lon="10.857298619336959"><ele>717.0</ele><time>2026-04-04T06:54:09Z</time></trkpt><trkpt lat="44.03835601903286" lon="10.857412646183626"><ele>717.0</ele><time>2026-04-04T06:54:10Z</time></trkpt><trkpt lat="44.03840074780333" lon="10.857557043407514"><ele>717.0</ele><time>2026-04-04T06:54:11Z</time></trkpt><trkpt lat="44.038441516619955" lon="10.857732482159854"><ele>714.0</ele><time>2026-04-04T06:54:12Z</time></trkpt><trkpt lat="44.03848360766507" lon="10.857932274391896"><ele>711.0</ele><time>2026-04-04T06:54:13Z</time></trkpt><trkpt lat="44.03852125557782" lon="10.858132797628912"><ele>708.0</ele><time>2026-04-04T06:54:14Z</time></trkpt><trkpt lat="44.03856813083941" lon="10.858344304309304"><ele>708.3333333333334</ele><time>2026-04-04T06:54:15Z</time></trkpt><trkpt lat="44.0386073345833" lon="10.858557900285682"><ele>708.6666666666667</ele><time>2026-04-04T06:54:16Z</time></trkpt><trkpt lat="44.03865447079165" lon="10.858782045384142"><ele>709.0</ele><time>2026-04-04T06:54:17Z</time></trkpt><trkpt lat="44.03870355434218" lon="10.859009915415912"><ele>709.0</ele><time>2026-04-04T06:54:18Z</time></trkpt><trkpt lat="44.03874305977665" lon="10.8592379395646"><ele>709.0</ele><time>2026-04-04T06:54:19Z</time></trkpt><trkpt lat="44.038773282788554" lon="10.859457535171867"><ele>709.0</ele><time>2026-04-04T06:54:20Z</time></trkpt><trkpt lat="44.038763714927505" lon="10.859670131265219"><ele>706.75</ele><time>2026-04-04T06:54:21Z</time></trkpt><trkpt lat="44.03876056469911" lon="10.859874730244103"><ele>704.5</ele><time>2026-04-04T06:54:22Z</time></trkpt><trkpt lat="44.03877532927173" lon="10.860071987127514"><ele>702.25</ele><time>2026-04-04T06:54:23Z</time></trkpt><trkpt lat="44.03877025051856" lon="10.86024395313376"><ele>700.0</ele><time>2026-04-04T06:54:24Z</time></trkpt><trkpt lat="44.038792628412295" lon="10.860408945194651"><ele>698.6</ele><time>2026-04-04T06:54:25Z</time></trkpt><trkpt lat="44.03884976167669" lon="10.860554569426835"><ele>697.2</ele><time>2026-04-04T06:54:26Z</time></trkpt><trkpt lat="44.03888042828066" lon="10.860687049391673"><ele>695.8</ele><time>2026-04-04T06:54:27Z</time></trkpt><trkpt lat="44.03889872293428" lon="10.860820326995453"><ele>694.4</ele><time>2026-04-04T06:54:28Z</time></trkpt><trkpt lat="44.03889048775391" lon="10.860965660819549"><ele>693.0</ele><time>2026-04-04T06:54:29Z</time></trkpt><trkpt lat="44.0388505427827" lon="10.861118331067361"><ele>693.0</ele><time>2026-04-04T06:54:30Z</time></trkpt><trkpt lat="44.038791981161985" lon="10.861257181149838"><ele>693.0</ele><time>2026-04-04T06:54:31Z</time></trkpt><trkpt lat="44.03875337994629" lon="10.861415904843701"><ele>693.0</ele><time>2026-04-04T06:54:32Z</time></trkpt><trkpt lat="44.03870237434974" lon="10.861570636738232"><ele>693.0</ele><time>2026-04-04T06:54:33Z</time></trkpt><trkpt lat="44.03865521934445" lon="10.86169953783033"><ele>693.1666666666666</ele><time>2026-04-04T06:54:34Z</time></trkpt><trkpt lat="44.038633148634084" lon="10.861829761411506"><ele>693.3333333333334</ele><time>2026-04-04T06:54:35Z</time></trkpt><trkpt lat="44.03862891453879" lon="10.861964501151144"><ele>693.5</ele><time>2026-04-04T06:54:36Z</time></trkpt><trkpt lat="44.0386332452838" lon="10.862088987392184"><ele>693.6666666666667</ele><time>2026-04-04T06:54:37Z</time></trkpt><trkpt lat="44.03864201531721" lon="10.862203189414673"><ele>693.8333333333334</ele><time>2026-04-04T06:54:38Z</time></trkpt><trkpt lat="44.03865178848182" lon="10.862299950277905"><ele>694.0</ele><time>2026-04-04T06:54:39Z</time></trkpt><trkpt lat="44.038663126664304" lon="10.862399421059342"><ele>694.0</ele><time>2026-04-04T06:54:40Z</time></trkpt><trkpt lat="44.03867584821095" lon="10.86251045299918"><ele>694.0</ele><time>2026-04-04T06:54:41Z</time></trkpt><trkpt lat="44.038691880153294" lon="10.862640576380306"><ele>694.0</ele><time>2026-04-04T06:54:42Z</time></trkpt><trkpt lat="44.03871005983521" lon="10.862793920716468"><ele>694.0</ele><time>2026-04-04T06:54:43Z</time></trkpt><trkpt lat="44.038738304731176" lon="10.862961762025158"><ele>694.0</ele><time>2026-04-04T06:54:44Z</time></trkpt><trkpt lat="44.03874270162394" lon="10.863142721551906"><ele>694.5</ele><time>2026-04-04T06:54:45Z</time></trkpt><trkpt lat="44.03872903962688" lon="10.86333837295125"><ele>695.0</ele><time>2026-04-04T06:54:46Z</time></trkpt><trkpt lat="44.03870739592217" lon="10.863529214542023"><ele>695.5</ele><time>2026-04-04T06:54:47Z</time></trkpt><trkpt lat="44.038683713554995" lon="10.863723759082658"><ele>696.0</ele><time>2026-04-04T06:54:48Z</time></trkpt><trkpt lat="44.03866247712109" lon="10.86391826137598"><ele>696.6666666666666</ele><time>2026-04-04T06:54:49Z</time></trkpt><trkpt lat="44.03864329588785" lon="10.86412506531447"><ele>697.3333333333333</ele><time>2026-04-04T06:54:50Z</time></trkpt><trkpt lat="44.03861899274082" lon="10.864336147698634"><ele>698.0</ele><time>2026-04-04T06:54:51Z</time></trkpt><trkpt lat="44.038593462080605" lon="10.86454958527822"><ele>698.0</ele><time>2026-04-04T06:54:52Z</time></trkpt><trkpt lat="44.03857241228332" lon="10.86476385562722"><ele>698.0</ele><time>2026-04-04T06:54:53Z</time></trkpt><trkpt lat="44.03852891166412" lon="10.864953897812262"><ele>698.0</ele><time>2026-04-04T06:54:54Z</time></trkpt><trkpt lat="44.038509569870314" lon="10.86515366530458"><ele>698.0</ele><time>2026-04-04T06:54:55Z</time></trkpt><trkpt lat="44.03848627368042" lon="10.865363420433678"><ele>698.0</ele><time>2026-04-04T06:54:56Z</time></trkpt><trkpt lat="44.03846211095428" lon="10.865575316788684"><ele>698.0</ele><time>2026-04-04T06:54:57Z</time></trkpt><trkpt lat="44.03844101097774" lon="10.865790028119784"><ele>698.0</ele><time>2026-04-04T06:54:58Z</time></trkpt><trkpt lat="44.03841441599945" lon="10.865999463676257"><ele>698.25</ele><time>2026-04-04T06:54:59Z</time></trkpt><trkpt lat="44.0383961326984" lon="10.866206534708882"><ele>698.5</ele><time>2026-04-04T06:55:00Z</time></trkpt><trkpt lat="44.03837286842285" lon="10.866403546674508"><ele>698.75</ele><time>2026-04-04T06:55:01Z</time></trkpt><trkpt lat="44.03835168528821" lon="10.866584019039587"><ele>699.0</ele><time>2026-04-04T06:55:02Z</time></trkpt><trkpt lat="44.03832969138066" lon="10.86675136469532"><ele>699.0</ele><time>2026-04-04T06:55:03Z</time></trkpt><trkpt lat="44.03831333317935" lon="10.866919816649197"><ele>699.0</ele><time>2026-04-04T06:55:04Z</time></trkpt><trkpt lat="44.03829371743846" lon="10.867092849130971"><ele>699.0</ele><time>2026-04-04T06:55:05Z</time></trkpt><trkpt lat="44.038277135660785" lon="10.86726624829441"><ele>699.0</ele><time>2026-04-04T06:55:06Z</time></trkpt><trkpt lat="44.03824536557377" lon="10.867456140210496"><ele>696.0</ele><time>2026-04-04T06:55:07Z</time></trkpt><trkpt lat="44.03821632077031" lon="10.867659146999081"><ele>693.0</ele><time>2026-04-04T06:55:08Z</time></trkpt><trkpt lat="44.03818865770575" lon="10.867873810874746"><ele>690.0</ele><time>2026-04-04T06:55:09Z</time></trkpt><trkpt lat="44.03816376184426" lon="10.868092636781176"><ele>690.0</ele><time>2026-04-04T06:55:10Z</time></trkpt><trkpt lat="44.038141604845684" lon="10.868303681798327"><ele>690.0</ele><time>2026-04-04T06:55:11Z</time></trkpt><trkpt lat="44.03812444417369" lon="10.868506345634785"><ele>690.0</ele><time>2026-04-04T06:55:12Z</time></trkpt><trkpt lat="44.038104677245315" lon="10.868706483484157"><ele>690.0</ele><time>2026-04-04T06:55:13Z</time></trkpt><trkpt lat="44.038078349788215" lon="10.868911258649822"><ele>688.6666666666666</ele><time>2026-04-04T06:55:14Z</time></trkpt><trkpt lat="44.038060279014715" lon="10.869118460257868"><ele>687.3333333333333</ele><time>2026-04-04T06:55:15Z</time></trkpt><trkpt lat="44.03806863285891" lon="10.869350710849384"><ele>686.0</ele><time>2026-04-04T06:55:16Z</time></trkpt><trkpt lat="44.03810206520007" lon="10.869574626061244"><ele>685.0</ele><time>2026-04-04T06:55:17Z</time></trkpt><trkpt lat="44.03812937693185" lon="10.869794281747222"><ele>684.0</ele><time>2026-04-04T06:55:18Z</time></trkpt><trkpt lat="44.03812531149308" lon="10.870015236556622"><ele>683.0</ele><time>2026-04-04T06:55:19Z</time></trkpt><trkpt lat="44.03810619692784" lon="10.870248692152481"><ele>681.6666666666666</ele><time>2026-04-04T06:55:20Z</time></trkpt><trkpt lat="44.0380848690708" lon="10.870501391900314"><ele>680.3333333333334</ele><time>2026-04-04T06:55:21Z</time></trkpt><trkpt lat="44.03805933205249" lon="10.870747307055474"><ele>679.0</ele><time>2026-04-04T06:55:22Z</time></trkpt><trkpt lat="44.03803161573801" lon="10.870993490760428"><ele>678.6666666666667</ele><time>2026-04-04T06:55:23Z</time></trkpt><trkpt lat="44.03800644626103" lon="10.871249327805518"><ele>678.3333333333334</ele><time>2026-04-04T06:55:24Z</time></trkpt><trkpt lat="44.03797589495843" lon="10.871495229463838"><ele>678.0</ele><time>2026-04-04T06:55:25Z</time></trkpt><trkpt lat="44.037951118180864" lon="10.871765614016788"><ele>678.0</ele><time>2026-04-04T06:55:26Z</time></trkpt><trkpt lat="44.03793826356793" lon="10.872033561276066"><ele>678.0</ele><time>2026-04-04T06:55:27Z</time></trkpt><trkpt lat="44.03791448516631" lon="10.872290945488412"><ele>678.0</ele><time>2026-04-04T06:55:28Z</time></trkpt><trkpt lat="44.03789774909365" lon="10.872544343200438"><ele>677.3333333333334</ele><time>2026-04-04T06:55:29Z</time></trkpt><trkpt lat="44.03788791435249" lon="10.872790160972103"><ele>676.6666666666667</ele><time>2026-04-04T06:55:30Z</time></trkpt><trkpt lat="44.03787993040099" lon="10.873016151103275"><ele>676.0</ele><time>2026-04-04T06:55:31Z</time></trkpt><trkpt lat="44.037887564563945" lon="10.873231380026173"><ele>675.6666666666667</ele><time>2026-04-04T06:55:32Z</time></trkpt><trkpt lat="44.03787092740148" lon="10.87344164268111"><ele>675.3333333333334</ele><time>2026-04-04T06:55:33Z</time></trkpt><trkpt lat="44.03788328268778" lon="10.873653934541156"><ele>675.0</ele><time>2026-04-04T06:55:34Z</time></trkpt><trkpt lat="44.03789527440467" lon="10.873864964604106"><ele>675.0</ele><time>2026-04-04T06:55:35Z</time></trkpt><trkpt lat="44.037906198468185" lon="10.87404456955475"><ele>675.0</ele><time>2026-04-04T06:55:36Z</time></trkpt><trkpt lat="44.03791865934947" lon="10.874208059053714"><ele>675.0</ele><time>2026-04-04T06:55:37Z</time></trkpt><trkpt lat="44.03793610399959" lon="10.874360803597376"><ele>675.0</ele><time>2026-04-04T06:55:38Z</time></trkpt><trkpt lat="44.03797696211311" lon="10.874503352875323"><ele>674.75</ele><time>2026-04-04T06:55:39Z</time></trkpt><trkpt lat="44.03805479276409" lon="10.87463872349174"><ele>674.5</ele><time>2026-04-04T06:55:40Z</time></trkpt><trkpt lat="44.03816474089048" lon="10.874728906424124"><ele>674.25</ele><time>2026-04-04T06:55:41Z</time></trkpt><trkpt lat="44.03828259300009" lon="10.874794988370816"><ele>674.0</ele><time>2026-04-04T06:55:42Z</time></trkpt><trkpt lat="44.03839429090135" lon="10.87489783539147"><ele>674.0</ele><time>2026-04-04T06:55:43Z</time></trkpt><trkpt lat="44.03847553065656" lon="10.875040050325273"><ele>674.0</ele><time>2026-04-04T06:55:44Z</time></trkpt><trkpt lat="44.038535329735424" lon="10.875175394221715"><ele>674.0</ele><time>2026-04-04T06:55:45Z</time></trkpt><trkpt lat="44.03856111025708" lon="10.875325816203178"><ele>674.0</ele><time>2026-04-04T06:55:46Z</time></trkpt><trkpt lat="44.03855981033482" lon="10.875486036078883"><ele>673.25</ele><time>2026-04-04T06:55:47Z</time></trkpt><trkpt lat="44.03854037709632" lon="10.875642925812315"><ele>672.5</ele><time>2026-04-04T06:55:48Z</time></trkpt><trkpt lat="44.038475491779394" lon="10.875788941918636"><ele>671.75</ele><time>2026-04-04T06:55:49Z</time></trkpt><trkpt lat="44.03837642766225" lon="10.875919144502964"><ele>671.0</ele><time>2026-04-04T06:55:50Z</time></trkpt><trkpt lat="44.03826070704408" lon="10.876028762534009"><ele>677.75</ele><time>2026-04-04T06:55:51Z</time></trkpt><trkpt lat="44.038155513013706" lon="10.876138244209706"><ele>684.5</ele><time>2026-04-04T06:55:52Z</time></trkpt><trkpt lat="44.03805559215469" lon="10.876240821863323"><ele>691.25</ele><time>2026-04-04T06:55:53Z</time></trkpt><trkpt lat="44.03798906950235" lon="10.876372028089687"><ele>698.0</ele><time>2026-04-04T06:55:54Z</time></trkpt><trkpt lat="44.03794787153984" lon="10.876536535584085"><ele>698.0</ele><time>2026-04-04T06:55:55Z</time></trkpt><trkpt lat="44.03792602892588" lon="10.876736881583378"><ele>698.0</ele><time>2026-04-04T06:55:56Z</time></trkpt><trkpt lat="44.03791335227566" lon="10.876952075609125"><ele>698.0</ele><time>2026-04-04T06:55:57Z</time></trkpt><trkpt lat="44.037903315295786" lon="10.877171190975362"><ele>697.6666666666666</ele><time>2026-04-04T06:55:58Z</time></trkpt><trkpt lat="44.037888106727685" lon="10.877399951370197"><ele>697.3333333333334</ele><time>2026-04-04T06:55:59Z</time></trkpt><trkpt lat="44.03786738964434" lon="10.877628498309814"><ele>697.0</ele><time>2026-04-04T06:56:00Z</time></trkpt><trkpt lat="44.03784805708152" lon="10.877874867105307"><ele>696.6666666666667</ele><time>2026-04-04T06:56:01Z</time></trkpt><trkpt lat="44.03782575093183" lon="10.878112580879971"><ele>696.3333333333334</ele><time>2026-04-04T06:56:02Z</time></trkpt><trkpt lat="44.03780850205154" lon="10.878351937179314"><ele>696.0</ele><time>2026-04-04T06:56:03Z</time></trkpt><trkpt lat="44.0377951857575" lon="10.878579393060766"><ele>695.25</ele><time>2026-04-04T06:56:04Z</time></trkpt><trkpt lat="44.03778432733621" lon="10.87880249120956"><ele>694.5</ele><time>2026-04-04T06:56:05Z</time></trkpt><trkpt lat="44.037773559456625" lon="10.87900735676952"><ele>693.75</ele><time>2026-04-04T06:56:06Z</time></trkpt><trkpt lat="44.037770287529696" lon="10.879203167387647"><ele>693.0</ele><time>2026-04-04T06:56:07Z</time></trkpt><trkpt lat="44.03777477345372" lon="10.879394282432251"><ele>689.75</ele><time>2026-04-04T06:56:08Z</time></trkpt><trkpt lat="44.03778861529933" lon="10.87958326788048"><ele>686.5</ele><time>2026-04-04T06:56:09Z</time></trkpt><trkpt lat="44.037809403859015" lon="10.879785657227433"><ele>683.25</ele><time>2026-04-04T06:56:10Z</time></trkpt><trkpt lat="44.03782749627781" lon="10.87998570893865"><ele>680.0</ele><time>2026-04-04T06:56:11Z</time></trkpt><trkpt lat="44.03784640407286" lon="10.880195491403834"><ele>679.75</ele><time>2026-04-04T06:56:12Z</time></trkpt><trkpt lat="44.037834828086304" lon="10.880386571035388"><ele>679.5</ele><time>2026-04-04T06:56:13Z</time></trkpt><trkpt lat="44.03785933161707" lon="10.880573905697453"><ele>679.25</ele><time>2026-04-04T06:56:14Z</time></trkpt><trkpt lat="44.03787832263949" lon="10.880759229443854"><ele>679.0</ele><time>2026-04-04T06:56:15Z</time></trkpt><trkpt lat="44.0378978707861" lon="10.880933265234361"><ele>678.5</ele><time>2026-04-04T06:56:16Z</time></trkpt><trkpt lat="44.03791525098501" lon="10.881095966627159"><ele>678.0</ele><time>2026-04-04T06:56:17Z</time></trkpt><trkpt lat="44.03793556811552" lon="10.881254417271363"><ele>677.5</ele><time>2026-04-04T06:56:18Z</time></trkpt><trkpt lat="44.037947067737015" lon="10.881413189391239"><ele>677.0</ele><time>2026-04-04T06:56:19Z</time></trkpt><trkpt lat="44.03796792102011" lon="10.881587791312192"><ele>677.0</ele><time>2026-04-04T06:56:20Z</time></trkpt><trkpt lat="44.03798342897487" lon="10.881745626434201"><ele>677.0</ele><time>2026-04-04T06:56:21Z</time></trkpt><trkpt lat="44.03800144205494" lon="10.881894784274888"><ele>677.0</ele><time>2026-04-04T06:56:22Z</time></trkpt><trkpt lat="44.038011504686644" lon="10.882027467485154"><ele>677.0</ele><time>2026-04-04T06:56:23Z</time></trkpt><trkpt lat="44.03802571213458" lon="10.882157367736696"><ele>677.0</ele><time>2026-04-04T06:56:24Z</time></trkpt><trkpt lat="44.03803811585401" lon="10.882279382612282"><ele>674.8</ele><time>2026-04-04T06:56:25Z</time></trkpt><trkpt lat="44.03804863490158" lon="10.88238256319686"><ele>672.6</ele><time>2026-04-04T06:56:26Z</time></trkpt><trkpt lat="44.03805287709785" lon="10.882474183834024"><ele>670.4</ele><time>2026-04-04T06:56:27Z</time></trkpt><trkpt lat="44.03802818356103" lon="10.882634627919872"><ele>668.1999999999999</ele><time>2026-04-04T06:56:29Z</time></trkpt><trkpt lat="44.03793480571757" lon="10.88271482557494"><ele>666.0</ele><time>2026-04-04T06:56:31Z</time></trkpt><trkpt lat="44.03780299776108" lon="10.882660777612879"><ele>666.0</ele><time>2026-04-04T06:56:33Z</time></trkpt><trkpt lat="44.03772379225885" lon="10.882594668538445"><ele>666.0</ele><time>2026-04-04T06:56:34Z</time></trkpt><trkpt lat="44.03762149363234" lon="10.882512171700652"><ele>666.0</ele><time>2026-04-04T06:56:35Z</time></trkpt><trkpt lat="44.03751313363008" lon="10.88238606691946"><ele>666.0</ele><time>2026-04-04T06:56:36Z</time></trkpt><trkpt lat="44.03742401731619" lon="10.882218035795093"><ele>666.6666666666666</ele><time>2026-04-04T06:56:37Z</time></trkpt><trkpt lat="44.03731833961953" lon="10.882051700522446"><ele>667.3333333333333</ele><time>2026-04-04T06:56:38Z</time></trkpt><trkpt lat="44.03720524106211" lon="10.881847666790728"><ele>668.0</ele><time>2026-04-04T06:56:39Z</time></trkpt><trkpt lat="44.03710344252577" lon="10.881637065038257"><ele>668.0</ele><time>2026-04-04T06:56:40Z</time></trkpt><trkpt lat="44.037014867535426" lon="10.881424595656947"><ele>668.0</ele><time>2026-04-04T06:56:41Z</time></trkpt><trkpt lat="44.03694235625935" lon="10.881185484481371"><ele>668.0</ele><time>2026-04-04T06:56:42Z</time></trkpt><trkpt lat="44.036875145998174" lon="10.880969567917642"><ele>668.6666666666666</ele><time>2026-04-04T06:56:43Z</time></trkpt><trkpt lat="44.036821822062805" lon="10.880754254433349"><ele>669.3333333333334</ele><time>2026-04-04T06:56:44Z</time></trkpt><trkpt lat="44.03680452944363" lon="10.880539741667231"><ele>670.0</ele><time>2026-04-04T06:56:45Z</time></trkpt><trkpt lat="44.036794475779985" lon="10.880326381823346"><ele>670.0</ele><time>2026-04-04T06:56:46Z</time></trkpt><trkpt lat="44.0367781224362" lon="10.880127232996173"><ele>670.0</ele><time>2026-04-04T06:56:47Z</time></trkpt><trkpt lat="44.03673272054056" lon="10.879937688359982"><ele>670.0</ele><time>2026-04-04T06:56:48Z</time></trkpt><trkpt lat="44.03664973220075" lon="10.879757775989505"><ele>670.0</ele><time>2026-04-04T06:56:49Z</time></trkpt><trkpt lat="44.03654651717189" lon="10.879571444521247"><ele>670.0</ele><time>2026-04-04T06:56:50Z</time></trkpt><trkpt lat="44.03643169378077" lon="10.879374137007177"><ele>670.0</ele><time>2026-04-04T06:56:51Z</time></trkpt><trkpt lat="44.03630926146448" lon="10.879173147729484"><ele>670.0</ele><time>2026-04-04T06:56:52Z</time></trkpt><trkpt lat="44.03616998806391" lon="10.878986074037313"><ele>670.0</ele><time>2026-04-04T06:56:53Z</time></trkpt><trkpt lat="44.03602122812051" lon="10.87880063848556"><ele>670.0</ele><time>2026-04-04T06:56:54Z</time></trkpt><trkpt lat="44.03587316503955" lon="10.878609014369166"><ele>670.0</ele><time>2026-04-04T06:56:55Z</time></trkpt><trkpt lat="44.03572541445512" lon="10.878427173444232"><ele>669.3333333333334</ele><time>2026-04-04T06:56:56Z</time></trkpt><trkpt lat="44.035575606827464" lon="10.878254696820445"><ele>668.6666666666666</ele><time>2026-04-04T06:56:57Z</time></trkpt><trkpt lat="44.03540427597245" lon="10.878108953053355"><ele>668.0</ele><time>2026-04-04T06:56:58Z</time></trkpt><trkpt lat="44.0352284753529" lon="10.877964078222018"><ele>668.0</ele><time>2026-04-04T06:56:59Z</time></trkpt><trkpt lat="44.03504638723824" lon="10.87781823753328"><ele>668.0</ele><time>2026-04-04T06:57:00Z</time></trkpt><trkpt lat="44.03485740798118" lon="10.87767301726061"><ele>668.0</ele><time>2026-04-04T06:57:01Z</time></trkpt><trkpt lat="44.03468760935714" lon="10.877521230387687"><ele>668.3333333333333</ele><time>2026-04-04T06:57:02Z</time></trkpt><trkpt lat="44.034511648111646" lon="10.8773809166983"><ele>668.6666666666666</ele><time>2026-04-04T06:57:03Z</time></trkpt><trkpt lat="44.03435288534229" lon="10.87724116652424"><ele>669.0</ele><time>2026-04-04T06:57:04Z</time></trkpt><trkpt lat="44.034205347953765" lon="10.877090906839767"><ele>670.3333333333334</ele><time>2026-04-04T06:57:05Z</time></trkpt><trkpt lat="44.034066645974065" lon="10.87690832989018"><ele>671.6666666666667</ele><time>2026-04-04T06:57:06Z</time></trkpt><trkpt lat="44.033927839504976" lon="10.87670269714732"><ele>673.0</ele><time>2026-04-04T06:57:07Z</time></trkpt><trkpt lat="44.033795284375365" lon="10.876492514985953"><ele>673.0</ele><time>2026-04-04T06:57:08Z</time></trkpt><trkpt lat="44.03366026715531" lon="10.876291654639953"><ele>673.0</ele><time>2026-04-04T06:57:09Z</time></trkpt><trkpt lat="44.033517952064734" lon="10.876091532427557"><ele>673.0</ele><time>2026-04-04T06:57:10Z</time></trkpt><trkpt lat="44.0333710507587" lon="10.875885052557674"><ele>671.6666666666667</ele><time>2026-04-04T06:57:11Z</time></trkpt><trkpt lat="44.0332075996482" lon="10.875699166883626"><ele>670.3333333333334</ele><time>2026-04-04T06:57:12Z</time></trkpt><trkpt lat="44.0330504708462" lon="10.875497738444396"><ele>669.0</ele><time>2026-04-04T06:57:13Z</time></trkpt><trkpt lat="44.032891438265025" lon="10.875293365611494"><ele>669.3333333333334</ele><time>2026-04-04T06:57:14Z</time></trkpt><trkpt lat="44.03273361876753" lon="10.875089812893059"><ele>669.6666666666667</ele><time>2026-04-04T06:57:15Z</time></trkpt><trkpt lat="44.03257330858458" lon="10.874881951413503"><ele>670.0</ele><time>2026-04-04T06:57:16Z</time></trkpt><trkpt lat="44.03241078666873" lon="10.874667189801201"><ele>670.0</ele><time>2026-04-04T06:57:17Z</time></trkpt><trkpt lat="44.032251454916306" lon="10.874449850910622"><ele>670.0</ele><time>2026-04-04T06:57:18Z</time></trkpt><trkpt lat="44.03209440321884" lon="10.874248256657133"><ele>670.0</ele><time>2026-04-04T06:57:19Z</time></trkpt><trkpt lat="44.03193243859629" lon="10.87403633777586"><ele>670.0</ele><time>2026-04-04T06:57:20Z</time></trkpt><trkpt lat="44.03176901546618" lon="10.873818126022174"><ele>670.0</ele><time>2026-04-04T06:57:21Z</time></trkpt><trkpt lat="44.031619181066254" lon="10.873608947657923"><ele>670.0</ele><time>2026-04-04T06:57:22Z</time></trkpt><trkpt lat="44.03147374762653" lon="10.873425985878647"><ele>670.0</ele><time>2026-04-04T06:57:23Z</time></trkpt><trkpt lat="44.031346399531046" lon="10.87324795247526"><ele>670.0</ele><time>2026-04-04T06:57:24Z</time></trkpt><trkpt lat="44.031228802761625" lon="10.8730823583624"><ele>670.0</ele><time>2026-04-04T06:57:25Z</time></trkpt><trkpt lat="44.03109437371549" lon="10.87294566905279"><ele>670.0</ele><time>2026-04-04T06:57:26Z</time></trkpt><trkpt lat="44.03094008532965" lon="10.872847935162952"><ele>670.0</ele><time>2026-04-04T06:57:27Z</time></trkpt><trkpt lat="44.03077945767494" lon="10.87277094691399"><ele>670.0</ele><time>2026-04-04T06:57:28Z</time></trkpt><trkpt lat="44.03060975020761" lon="10.87271382359174"><ele>670.3333333333334</ele><time>2026-04-04T06:57:29Z</time></trkpt><trkpt lat="44.03043122602155" lon="10.872660651253405"><ele>670.6666666666666</ele><time>2026-04-04T06:57:30Z</time></trkpt><trkpt lat="44.03024244045603" lon="10.872610388553284"><ele>671.0</ele><time>2026-04-04T06:57:31Z</time></trkpt><trkpt lat="44.03004800712453" lon="10.87255419347579"><ele>671.6666666666666</ele><time>2026-04-04T06:57:32Z</time></trkpt><trkpt lat="44.029844045780685" lon="10.87248142023445"><ele>672.3333333333334</ele><time>2026-04-04T06:57:33Z</time></trkpt><trkpt lat="44.02964505916349" lon="10.872410859030175"><ele>673.0</ele><time>2026-04-04T06:57:34Z</time></trkpt><trkpt lat="44.02944240265479" lon="10.87234118793337"><ele>673.0</ele><time>2026-04-04T06:57:35Z</time></trkpt><trkpt lat="44.029237926131245" lon="10.872287413375888"><ele>673.0</ele><time>2026-04-04T06:57:36Z</time></trkpt><trkpt lat="44.02903138699482" lon="10.872218690774677"><ele>673.0</ele><time>2026-04-04T06:57:37Z</time></trkpt><trkpt lat="44.02882365019618" lon="10.87215122101007"><ele>672.6666666666667</ele><time>2026-04-04T06:57:38Z</time></trkpt><trkpt lat="44.02862010546659" lon="10.872096534319027"><ele>672.3333333333334</ele><time>2026-04-04T06:57:39Z</time></trkpt><trkpt lat="44.028435791329464" lon="10.872036900588517"><ele>672.0</ele><time>2026-04-04T06:57:40Z</time></trkpt><trkpt lat="44.02826638404555" lon="10.87196360908114"><ele>671.3333333333334</ele><time>2026-04-04T06:57:41Z</time></trkpt><trkpt lat="44.02810974407262" lon="10.87185544717629"><ele>670.6666666666667</ele><time>2026-04-04T06:57:42Z</time></trkpt><trkpt lat="44.02796299907508" lon="10.871708742250666"><ele>670.0</ele><time>2026-04-04T06:57:43Z</time></trkpt><trkpt lat="44.02782897034911" lon="10.871527206344393"><ele>671.3333333333334</ele><time>2026-04-04T06:57:44Z</time></trkpt><trkpt lat="44.02769436343401" lon="10.87133478153604"><ele>672.6666666666666</ele><time>2026-04-04T06:57:45Z</time></trkpt><trkpt lat="44.02754998659512" lon="10.871137928838277"><ele>674.0</ele><time>2026-04-04T06:57:46Z</time></trkpt><trkpt lat="44.027406081863944" lon="10.870930068948136"><ele>674.0</ele><time>2026-04-04T06:57:47Z</time></trkpt><trkpt lat="44.027262562186124" lon="10.870726809532398"><ele>674.0</ele><time>2026-04-04T06:57:48Z</time></trkpt><trkpt lat="44.02711853509274" lon="10.87052361856324"><ele>674.0</ele><time>2026-04-04T06:57:49Z</time></trkpt><trkpt lat="44.02697043364153" lon="10.870315719809268"><ele>674.0</ele><time>2026-04-04T06:57:50Z</time></trkpt><trkpt lat="44.02681484600555" lon="10.870111785627131"><ele>674.0</ele><time>2026-04-04T06:57:51Z</time></trkpt><trkpt lat="44.02666265709357" lon="10.869906943082015"><ele>674.0</ele><time>2026-04-04T06:57:52Z</time></trkpt><trkpt lat="44.02650464912479" lon="10.869697322604722"><ele>674.3333333333333</ele><time>2026-04-04T06:57:53Z</time></trkpt><trkpt lat="44.026351892284765" lon="10.869472270574207"><ele>674.6666666666666</ele><time>2026-04-04T06:57:54Z</time></trkpt><trkpt lat="44.026192552042815" lon="10.869262845619264"><ele>675.0</ele><time>2026-04-04T06:57:55Z</time></trkpt><trkpt lat="44.0260301746665" lon="10.869051087451078"><ele>675.6666666666666</ele><time>2026-04-04T06:57:56Z</time></trkpt><trkpt lat="44.02587508806665" lon="10.868827213868407"><ele>676.3333333333333</ele><time>2026-04-04T06:57:57Z</time></trkpt><trkpt lat="44.02571975936424" lon="10.868605808448711"><ele>677.0</ele><time>2026-04-04T06:57:58Z</time></trkpt><trkpt lat="44.025582255653894" lon="10.868395565879098"><ele>677.0</ele><time>2026-04-04T06:57:59Z</time></trkpt><trkpt lat="44.025449762944746" lon="10.868203938990389"><ele>677.0</ele><time>2026-04-04T06:58:00Z</time></trkpt><trkpt lat="44.02533234096238" lon="10.868025390015351"><ele>677.0</ele><time>2026-04-04T06:58:01Z</time></trkpt><trkpt lat="44.0251986156949" lon="10.86787252585695"><ele>677.0</ele><time>2026-04-04T06:58:02Z</time></trkpt><trkpt lat="44.0250460718439" lon="10.867742702799246"><ele>677.0</ele><time>2026-04-04T06:58:03Z</time></trkpt><trkpt lat="44.02487230468286" lon="10.867638761436973"><ele>677.0</ele><time>2026-04-04T06:58:04Z</time></trkpt><trkpt lat="44.024687252840565" lon="10.867549694540251"><ele>678.0</ele><time>2026-04-04T06:58:05Z</time></trkpt><trkpt lat="44.024492990209765" lon="10.867457054710293"><ele>679.0</ele><time>2026-04-04T06:58:06Z</time></trkpt><trkpt lat="44.02430194546487" lon="10.86735406850937"><ele>680.0</ele><time>2026-04-04T06:58:07Z</time></trkpt><trkpt lat="44.02410695056338" lon="10.867255438707558"><ele>681.3333333333333</ele><time>2026-04-04T06:58:08Z</time></trkpt><trkpt lat="44.023913727354895" lon="10.867153194736545"><ele>682.6666666666666</ele><time>2026-04-04T06:58:09Z</time></trkpt><trkpt lat="44.02370890908475" lon="10.86704691553041"><ele>684.0</ele><time>2026-04-04T06:58:10Z</time></trkpt><trkpt lat="44.02351124060759" lon="10.86693197335078"><ele>684.6666666666666</ele><time>2026-04-04T06:58:11Z</time></trkpt><trkpt lat="44.023310156477734" lon="10.866823691960379"><ele>685.3333333333333</ele><time>2026-04-04T06:58:12Z</time></trkpt><trkpt lat="44.02311307904369" lon="10.866714220091819"><ele>686.0</ele><time>2026-04-04T06:58:13Z</time></trkpt><trkpt lat="44.02291131079263" lon="10.866610965635042"><ele>686.0</ele><time>2026-04-04T06:58:14Z</time></trkpt><trkpt lat="44.022712832939256" lon="10.866500030378422"><ele>686.0</ele><time>2026-04-04T06:58:15Z</time></trkpt><trkpt lat="44.02251619195355" lon="10.866394385582087"><ele>686.0</ele><time>2026-04-04T06:58:16Z</time></trkpt><trkpt lat="44.02233455082512" lon="10.866293131748547"><ele>687.0</ele><time>2026-04-04T06:58:17Z</time></trkpt><trkpt lat="44.02216741051802" lon="10.86620402409767"><ele>688.0</ele><time>2026-04-04T06:58:18Z</time></trkpt><trkpt lat="44.022004626078925" lon="10.866135990033438"><ele>689.0</ele><time>2026-04-04T06:58:19Z</time></trkpt><trkpt lat="44.02185236651972" lon="10.866081231195736"><ele>689.0</ele><time>2026-04-04T06:58:20Z</time></trkpt><trkpt lat="44.02168996704073" lon="10.866063262707842"><ele>689.0</ele><time>2026-04-04T06:58:21Z</time></trkpt><trkpt lat="44.02151791477855" lon="10.866073873140184"><ele>689.0</ele><time>2026-04-04T06:58:22Z</time></trkpt><trkpt lat="44.021340207801174" lon="10.866095243210651"><ele>689.6666666666666</ele><time>2026-04-04T06:58:23Z</time></trkpt><trkpt lat="44.021153543235926" lon="10.866110076925073"><ele>690.3333333333334</ele><time>2026-04-04T06:58:24Z</time></trkpt><trkpt lat="44.020966751204696" lon="10.86612734999377"><ele>691.0</ele><time>2026-04-04T06:58:25Z</time></trkpt><trkpt lat="44.020793830628115" lon="10.866131347733829"><ele>691.0</ele><time>2026-04-04T06:58:26Z</time></trkpt><trkpt lat="44.02063113273684" lon="10.866079362053581"><ele>691.0</ele><time>2026-04-04T06:58:27Z</time></trkpt><trkpt lat="44.02045900889901" lon="10.866006967840915"><ele>691.0</ele><time>2026-04-04T06:58:28Z</time></trkpt><trkpt lat="44.0202875888035" lon="10.865922313891083"><ele>691.0</ele><time>2026-04-04T06:58:29Z</time></trkpt><trkpt lat="44.02012174496175" lon="10.865853589075051"><ele>691.0</ele><time>2026-04-04T06:58:30Z</time></trkpt><trkpt lat="44.019978451235765" lon="10.865746335737844"><ele>691.0</ele><time>2026-04-04T06:58:31Z</time></trkpt><trkpt lat="44.01984104158573" lon="10.865633345138868"><ele>692.6666666666667</ele><time>2026-04-04T06:58:32Z</time></trkpt><trkpt lat="44.01970189939543" lon="10.865465571147798"><ele>694.3333333333334</ele><time>2026-04-04T06:58:33Z</time></trkpt><trkpt lat="44.01955992801827" lon="10.865286836049547"><ele>696.0</ele><time>2026-04-04T06:58:34Z</time></trkpt><trkpt lat="44.01942162009044" lon="10.865127271707124"><ele>696.0</ele><time>2026-04-04T06:58:35Z</time></trkpt><trkpt lat="44.019291905103955" lon="10.8649255669007"><ele>696.0</ele><time>2026-04-04T06:58:36Z</time></trkpt><trkpt lat="44.01916670000612" lon="10.864728367062181"><ele>696.0</ele><time>2026-04-04T06:58:37Z</time></trkpt><trkpt lat="44.01903099701236" lon="10.864538684974834"><ele>694.3333333333334</ele><time>2026-04-04T06:58:38Z</time></trkpt><trkpt lat="44.01890798260072" lon="10.864341298742179"><ele>692.6666666666667</ele><time>2026-04-04T06:58:39Z</time></trkpt><trkpt lat="44.01876894209927" lon="10.864164511667893"><ele>691.0</ele><time>2026-04-04T06:58:40Z</time></trkpt><trkpt lat="44.018641768366685" lon="10.86401062977103"><ele>691.0</ele><time>2026-04-04T06:58:41Z</time></trkpt><trkpt lat="44.01850601814615" lon="10.863865445781768"><ele>691.0</ele><time>2026-04-04T06:58:42Z</time></trkpt><trkpt lat="44.01836520881548" lon="10.863738773332852"><ele>691.0</ele><time>2026-04-04T06:58:43Z</time></trkpt><trkpt lat="44.018192061549755" lon="10.863660771254525"><ele>691.0</ele><time>2026-04-04T06:58:44Z</time></trkpt><trkpt lat="44.01801927109357" lon="10.863574636109538"><ele>691.0</ele><time>2026-04-04T06:58:45Z</time></trkpt><trkpt lat="44.01784310638974" lon="10.863484961773649"><ele>691.0</ele><time>2026-04-04T06:58:46Z</time></trkpt><trkpt lat="44.01765513102809" lon="10.863418728196484"><ele>693.0</ele><time>2026-04-04T06:58:47Z</time></trkpt><trkpt lat="44.017482927541074" lon="10.86334249549956"><ele>695.0</ele><time>2026-04-04T06:58:48Z</time></trkpt><trkpt lat="44.017321769448984" lon="10.863248811437183"><ele>697.0</ele><time>2026-04-04T06:58:49Z</time></trkpt><trkpt lat="44.01717538874283" lon="10.863113223096617"><ele>697.0</ele><time>2026-04-04T06:58:50Z</time></trkpt><trkpt lat="44.01702781150264" lon="10.862957738317839"><ele>697.0</ele><time>2026-04-04T06:58:51Z</time></trkpt><trkpt lat="44.01688445966541" lon="10.862788776117986"><ele>697.0</ele><time>2026-04-04T06:58:52Z</time></trkpt><trkpt lat="44.01675717614743" lon="10.862608416581551"><ele>697.6666666666667</ele><time>2026-04-04T06:58:53Z</time></trkpt><trkpt lat="44.01663017571505" lon="10.862413383144718"><ele>698.3333333333334</ele><time>2026-04-04T06:58:54Z</time></trkpt><trkpt lat="44.016493213454574" lon="10.862202507158814"><ele>699.0</ele><time>2026-04-04T06:58:55Z</time></trkpt><trkpt lat="44.0163573203083" lon="10.862006169963907"><ele>699.0</ele><time>2026-04-04T06:58:56Z</time></trkpt><trkpt lat="44.016210438108146" lon="10.861811589806798"><ele>699.0</ele><time>2026-04-04T06:58:57Z</time></trkpt><trkpt lat="44.01606948494652" lon="10.861599146680854"><ele>699.0</ele><time>2026-04-04T06:58:58Z</time></trkpt><trkpt lat="44.01592611780453" lon="10.861398580438925"><ele>700.3333333333334</ele><time>2026-04-04T06:58:59Z</time></trkpt><trkpt lat="44.01578159592885" lon="10.861208076810248"><ele>701.6666666666667</ele><time>2026-04-04T06:59:00Z</time></trkpt><trkpt lat="44.01565288111393" lon="10.860991649192488"><ele>703.0</ele><time>2026-04-04T06:59:01Z</time></trkpt><trkpt lat="44.01553842129479" lon="10.860761836583968"><ele>701.3333333333334</ele><time>2026-04-04T06:59:02Z</time></trkpt><trkpt lat="44.015422352736266" lon="10.860519765132167"><ele>699.6666666666666</ele><time>2026-04-04T06:59:03Z</time></trkpt><trkpt lat="44.01530349893744" lon="10.86028463385358"><ele>698.0</ele><time>2026-04-04T06:59:04Z</time></trkpt><trkpt lat="44.01520242206437" lon="10.860056194239364"><ele>698.0</ele><time>2026-04-04T06:59:05Z</time></trkpt><trkpt lat="44.01510524808006" lon="10.859842452656117"><ele>698.0</ele><time>2026-04-04T06:59:06Z</time></trkpt><trkpt lat="44.015010239299016" lon="10.85964286861661"><ele>698.0</ele><time>2026-04-04T06:59:07Z</time></trkpt><trkpt lat="44.01490008618532" lon="10.859460077676218"><ele>697.6666666666666</ele><time>2026-04-04T06:59:08Z</time></trkpt><trkpt lat="44.01477547427182" lon="10.85928576903605"><ele>697.3333333333334</ele><time>2026-04-04T06:59:09Z</time></trkpt><trkpt lat="44.01464604970075" lon="10.859128953436276"><ele>697.0</ele><time>2026-04-04T06:59:10Z</time></trkpt><trkpt lat="44.01451186033618" lon="10.858990112685278"><ele>697.0</ele><time>2026-04-04T06:59:11Z</time></trkpt><trkpt lat="44.014367967444215" lon="10.858866135403897"><ele>697.0</ele><time>2026-04-04T06:59:12Z</time></trkpt><trkpt lat="44.01422508073687" lon="10.858748154235954"><ele>697.0</ele><time>2026-04-04T06:59:13Z</time></trkpt><trkpt lat="44.01408162661731" lon="10.858631984097618"><ele>698.0</ele><time>2026-04-04T06:59:14Z</time></trkpt><trkpt lat="44.013950138130745" lon="10.858524380984015"><ele>699.0</ele><time>2026-04-04T06:59:15Z</time></trkpt><trkpt lat="44.01382505390717" lon="10.85841473882467"><ele>700.0</ele><time>2026-04-04T06:59:16Z</time></trkpt><trkpt lat="44.01370456069727" lon="10.858289606649514"><ele>700.0</ele><time>2026-04-04T06:59:17Z</time></trkpt><trkpt lat="44.01359150125047" lon="10.858126379444183"><ele>700.0</ele><time>2026-04-04T06:59:18Z</time></trkpt><trkpt lat="44.013484203461005" lon="10.857960001619666"><ele>700.0</ele><time>2026-04-04T06:59:19Z</time></trkpt><trkpt lat="44.0133770584383" lon="10.857814574582754"><ele>699.6666666666667</ele><time>2026-04-04T06:59:20Z</time></trkpt><trkpt lat="44.013254231606766" lon="10.857675719173573"><ele>699.3333333333334</ele><time>2026-04-04T06:59:21Z</time></trkpt><trkpt lat="44.01312041882326" lon="10.85754527165564"><ele>699.0</ele><time>2026-04-04T06:59:22Z</time></trkpt><trkpt lat="44.01299432438665" lon="10.857438685862432"><ele>699.0</ele><time>2026-04-04T06:59:23Z</time></trkpt><trkpt lat="44.012865802554735" lon="10.857338804408421"><ele>699.0</ele><time>2026-04-04T06:59:24Z</time></trkpt><trkpt lat="44.0127336292328" lon="10.857242962376269"><ele>699.0</ele><time>2026-04-04T06:59:25Z</time></trkpt><trkpt lat="44.01259222642599" lon="10.857155868959603"><ele>698.6666666666666</ele><time>2026-04-04T06:59:26Z</time></trkpt><trkpt lat="44.012461415015046" lon="10.857070389354806"><ele>698.3333333333333</ele><time>2026-04-04T06:59:27Z</time></trkpt><trkpt lat="44.01232687222616" lon="10.856982143796062"><ele>698.0</ele><time>2026-04-04T06:59:28Z</time></trkpt><trkpt lat="44.01219890627314" lon="10.856846384096103"><ele>698.6666666666666</ele><time>2026-04-04T06:59:29Z</time></trkpt><trkpt lat="44.012098970316536" lon="10.856686578645775"><ele>699.3333333333334</ele><time>2026-04-04T06:59:30Z</time></trkpt><trkpt lat="44.012018886843165" lon="10.856492441492696"><ele>700.0</ele><time>2026-04-04T06:59:31Z</time></trkpt><trkpt lat="44.01194890384309" lon="10.856296698278694"><ele>700.0</ele><time>2026-04-04T06:59:32Z</time></trkpt><trkpt lat="44.01187515581135" lon="10.856082178456692"><ele>700.0</ele><time>2026-04-04T06:59:33Z</time></trkpt><trkpt lat="44.011786382474014" lon="10.855845183178236"><ele>700.0</ele><time>2026-04-04T06:59:34Z</time></trkpt><trkpt lat="44.0116776161393" lon="10.855626983514238"><ele>700.6666666666667</ele><time>2026-04-04T06:59:35Z</time></trkpt><trkpt lat="44.01158782209645" lon="10.855422303196658"><ele>701.3333333333334</ele><time>2026-04-04T06:59:36Z</time></trkpt><trkpt lat="44.01152273773135" lon="10.855210438080496"><ele>702.0</ele><time>2026-04-04T06:59:37Z</time></trkpt><trkpt lat="44.011442727266" lon="10.855015315525968"><ele>703.0</ele><time>2026-04-04T06:59:38Z</time></trkpt><trkpt lat="44.01136665299352" lon="10.854826832412135"><ele>704.0</ele><time>2026-04-04T06:59:39Z</time></trkpt><trkpt lat="44.01129358387037" lon="10.854650119411783"><ele>705.0</ele><time>2026-04-04T06:59:40Z</time></trkpt><trkpt lat="44.01122123992048" lon="10.854483716100265"><ele>706.0</ele><time>2026-04-04T06:59:41Z</time></trkpt><trkpt lat="44.0111346451308" lon="10.85432824843045"><ele>707.0</ele><time>2026-04-04T06:59:42Z</time></trkpt><trkpt lat="44.01105087568278" lon="10.854182594166542"><ele>708.0</ele><time>2026-04-04T06:59:43Z</time></trkpt><trkpt lat="44.010963909222376" lon="10.854029953614914"><ele>709.0</ele><time>2026-04-04T06:59:44Z</time></trkpt><trkpt lat="44.0108795262852" lon="10.853884700444786"><ele>710.0</ele><time>2026-04-04T06:59:45Z</time></trkpt><trkpt lat="44.01078744749382" lon="10.853733544057262"><ele>710.5</ele><time>2026-04-04T06:59:46Z</time></trkpt><trkpt lat="44.01069702441199" lon="10.853590742231368"><ele>711.0</ele><time>2026-04-04T06:59:47Z</time></trkpt><trkpt lat="44.01060991686965" lon="10.853460727038485"><ele>711.5</ele><time>2026-04-04T06:59:48Z</time></trkpt><trkpt lat="44.010521298390074" lon="10.853320475987303"><ele>712.0</ele><time>2026-04-04T06:59:49Z</time></trkpt><trkpt lat="44.01043931074451" lon="10.853172863543715"><ele>712.0</ele><time>2026-04-04T06:59:50Z</time></trkpt><trkpt lat="44.010368780802075" lon="10.853035858739517"><ele>712.0</ele><time>2026-04-04T06:59:51Z</time></trkpt><trkpt lat="44.01031992611619" lon="10.852868280926991"><ele>712.0</ele><time>2026-04-04T06:59:52Z</time></trkpt><trkpt lat="44.0102677853854" lon="10.852677129692125"><ele>712.0</ele><time>2026-04-04T06:59:53Z</time></trkpt><trkpt lat="44.010215171084035" lon="10.852478289259563"><ele>713.25</ele><time>2026-04-04T06:59:54Z</time></trkpt><trkpt lat="44.01014620069394" lon="10.852294415682335"><ele>714.5</ele><time>2026-04-04T06:59:55Z</time></trkpt><trkpt lat="44.010070490701295" lon="10.852148692105892"><ele>715.75</ele><time>2026-04-04T06:59:56Z</time></trkpt><trkpt lat="44.00998569816917" lon="10.851988102916986"><ele>717.0</ele><time>2026-04-04T06:59:57Z</time></trkpt><trkpt lat="44.00989361948172" lon="10.851828491432267"><ele>717.3333333333334</ele><time>2026-04-04T06:59:58Z</time></trkpt><trkpt lat="44.00980179005699" lon="10.851668396129813"><ele>717.6666666666667</ele><time>2026-04-04T06:59:59Z</time></trkpt><trkpt lat="44.009699973951726" lon="10.851506695327691"><ele>718.0</ele><time>2026-04-04T07:00:00Z</time></trkpt><trkpt lat="44.0095839363473" lon="10.851332886460577"><ele>718.0</ele><time>2026-04-04T07:00:01Z</time></trkpt><trkpt lat="44.00944873655417" lon="10.851148008176388"><ele>718.0</ele><time>2026-04-04T07:00:02Z</time></trkpt><trkpt lat="44.00930539194111" lon="10.850956143831048"><ele>718.0</ele><time>2026-04-04T07:00:03Z</time></trkpt><trkpt lat="44.00915984953898" lon="10.850772425481013"><ele>721.3333333333334</ele><time>2026-04-04T07:00:04Z</time></trkpt><trkpt lat="44.00901596605228" lon="10.850588260218894"><ele>724.6666666666666</ele><time>2026-04-04T07:00:05Z</time></trkpt><trkpt lat="44.00887194278178" lon="10.850402256825006"><ele>728.0</ele><time>2026-04-04T07:00:06Z</time></trkpt><trkpt lat="44.00871536243176" lon="10.850231704320997"><ele>727.3333333333333</ele><time>2026-04-04T07:00:07Z</time></trkpt><trkpt lat="44.008546681651616" lon="10.850078106978403"><ele>726.6666666666666</ele><time>2026-04-04T07:00:08Z</time></trkpt><trkpt lat="44.00836411618214" lon="10.849933776451946"><ele>726.0</ele><time>2026-04-04T07:00:09Z</time></trkpt><trkpt lat="44.00818531589025" lon="10.84978046509648"><ele>725.6666666666666</ele><time>2026-04-04T07:00:10Z</time></trkpt><trkpt lat="44.00801131175678" lon="10.849627300268232"><ele>725.3333333333333</ele><time>2026-04-04T07:00:11Z</time></trkpt><trkpt lat="44.007830753685695" lon="10.849481182978554"><ele>725.0</ele><time>2026-04-04T07:00:12Z</time></trkpt><trkpt lat="44.00765083859015" lon="10.849333192679126"><ele>725.0</ele><time>2026-04-04T07:00:13Z</time></trkpt><trkpt lat="44.00749440343569" lon="10.849185011342742"><ele>725.0</ele><time>2026-04-04T07:00:14Z</time></trkpt><trkpt lat="44.007352222590754" lon="10.849044849441295"><ele>725.0</ele><time>2026-04-04T07:00:15Z</time></trkpt><trkpt lat="44.00720725045387" lon="10.848917831739616"><ele>724.3333333333333</ele><time>2026-04-04T07:00:16Z</time></trkpt><trkpt lat="44.00706541719862" lon="10.848787672711033"><ele>723.6666666666666</ele><time>2026-04-04T07:00:17Z</time></trkpt><trkpt lat="44.00694083758656" lon="10.84864710958098"><ele>723.0</ele><time>2026-04-04T07:00:18Z</time></trkpt><trkpt lat="44.006846946629175" lon="10.848484379671664"><ele>725.0</ele><time>2026-04-04T07:00:19Z</time></trkpt><trkpt lat="44.00679943083022" lon="10.84828861487975"><ele>727.0</ele><time>2026-04-04T07:00:20Z</time></trkpt><trkpt lat="44.006749822505036" lon="10.848066738880208"><ele>729.0</ele><time>2026-04-04T07:00:21Z</time></trkpt><trkpt lat="44.006685123756554" lon="10.847829956136197"><ele>732.6666666666666</ele><time>2026-04-04T07:00:22Z</time></trkpt><trkpt lat="44.00664410698325" lon="10.847591488769732"><ele>736.3333333333333</ele><time>2026-04-04T07:00:23Z</time></trkpt><trkpt lat="44.00655792898429" lon="10.847366726020203"><ele>740.0</ele><time>2026-04-04T07:00:24Z</time></trkpt><trkpt lat="44.00645980972845" lon="10.84714883491773"><ele>740.0</ele><time>2026-04-04T07:00:25Z</time></trkpt><trkpt lat="44.006340955210675" lon="10.84695086443129"><ele>740.0</ele><time>2026-04-04T07:00:26Z</time></trkpt><trkpt lat="44.00620464513484" lon="10.846752800625966"><ele>740.0</ele><time>2026-04-04T07:00:27Z</time></trkpt><trkpt lat="44.006076517567884" lon="10.846554077577467"><ele>738.3333333333333</ele><time>2026-04-04T07:00:28Z</time></trkpt><trkpt lat="44.005984702430396" lon="10.846330242961233"><ele>736.6666666666666</ele><time>2026-04-04T07:00:29Z</time></trkpt><trkpt lat="44.00591537838527" lon="10.84608188164067"><ele>735.0</ele><time>2026-04-04T07:00:30Z</time></trkpt><trkpt lat="44.005857567571844" lon="10.845819695472706"><ele>740.0</ele><time>2026-04-04T07:00:31Z</time></trkpt><trkpt lat="44.005803895739305" lon="10.845563245264438"><ele>745.0</ele><time>2026-04-04T07:00:32Z</time></trkpt><trkpt lat="44.005768833753336" lon="10.84530997393988"><ele>750.0</ele><time>2026-04-04T07:00:33Z</time></trkpt><trkpt lat="44.00574714801309" lon="10.845047253162328"><ele>750.6666666666666</ele><time>2026-04-04T07:00:34Z</time></trkpt><trkpt lat="44.00574776380599" lon="10.844772037778672"><ele>751.3333333333333</ele><time>2026-04-04T07:00:35Z</time></trkpt><trkpt lat="44.00576025470638" lon="10.844493778970618"><ele>752.0</ele><time>2026-04-04T07:00:36Z</time></trkpt><trkpt lat="44.00577388136769" lon="10.844218976656016"><ele>747.3333333333333</ele><time>2026-04-04T07:00:37Z</time></trkpt><trkpt lat="44.005789774654694" lon="10.843942872434372"><ele>742.6666666666666</ele><time>2026-04-04T07:00:38Z</time></trkpt><trkpt lat="44.00582005324964" lon="10.843665782962255"><ele>738.0</ele><time>2026-04-04T07:00:39Z</time></trkpt><trkpt lat="44.005877750579316" lon="10.843396804339621"><ele>738.0</ele><time>2026-04-04T07:00:40Z</time></trkpt><trkpt lat="44.00595232297306" lon="10.843138841368754"><ele>738.0</ele><time>2026-04-04T07:00:41Z</time></trkpt><trkpt lat="44.00603129411204" lon="10.842880424889865"><ele>738.0</ele><time>2026-04-04T07:00:42Z</time></trkpt><trkpt lat="44.00612154228791" lon="10.842641976746714"><ele>741.0</ele><time>2026-04-04T07:00:43Z</time></trkpt><trkpt lat="44.00620632522908" lon="10.842409610853245"><ele>744.0</ele><time>2026-04-04T07:00:44Z</time></trkpt><trkpt lat="44.006273350917134" lon="10.842192349661353"><ele>747.0</ele><time>2026-04-04T07:00:45Z</time></trkpt><trkpt lat="44.006320300060786" lon="10.84195607722246"><ele>751.6666666666666</ele><time>2026-04-04T07:00:46Z</time></trkpt><trkpt lat="44.00636200398669" lon="10.841720021313822"><ele>756.3333333333333</ele><time>2026-04-04T07:00:47Z</time></trkpt><trkpt lat="44.00642577937929" lon="10.841486824256743"><ele>761.0</ele><time>2026-04-04T07:00:48Z</time></trkpt><trkpt lat="44.00649159093556" lon="10.841282584534124"><ele>761.0</ele><time>2026-04-04T07:00:49Z</time></trkpt><trkpt lat="44.00655665289985" lon="10.841086158384838"><ele>761.0</ele><time>2026-04-04T07:00:50Z</time></trkpt><trkpt lat="44.00658624957758" lon="10.840884202806539"><ele>761.0</ele><time>2026-04-04T07:00:51Z</time></trkpt><trkpt lat="44.00658782556288" lon="10.840705416784083"><ele>761.0</ele><time>2026-04-04T07:00:52Z</time></trkpt><trkpt lat="44.00655564751895" lon="10.840536570877086"><ele>761.25</ele><time>2026-04-04T07:00:53Z</time></trkpt><trkpt lat="44.00649776261555" lon="10.840396867293537"><ele>761.5</ele><time>2026-04-04T07:00:54Z</time></trkpt><trkpt lat="44.00640800750387" lon="10.840286961621873"><ele>761.75</ele><time>2026-04-04T07:00:55Z</time></trkpt><trkpt lat="44.0062976852439" lon="10.840211718378375"><ele>762.0</ele><time>2026-04-04T07:00:56Z</time></trkpt><trkpt lat="44.00616500105826" lon="10.840147742190187"><ele>759.75</ele><time>2026-04-04T07:00:57Z</time></trkpt><trkpt lat="44.00603669013759" lon="10.840070267396653"><ele>757.5</ele><time>2026-04-04T07:00:58Z</time></trkpt><trkpt lat="44.005927389023995" lon="10.840004444232124"><ele>755.25</ele><time>2026-04-04T07:00:59Z</time></trkpt><trkpt lat="44.00583694885348" lon="10.839912394816665"><ele>753.0</ele><time>2026-04-04T07:01:00Z</time></trkpt><trkpt lat="44.005763488277786" lon="10.839807928223387"><ele>760.25</ele><time>2026-04-04T07:01:01Z</time></trkpt><trkpt lat="44.005712990053006" lon="10.839665576668471"><ele>767.5</ele><time>2026-04-04T07:01:02Z</time></trkpt><trkpt lat="44.00569967981001" lon="10.839501199782847"><ele>774.75</ele><time>2026-04-04T07:01:03Z</time></trkpt><trkpt lat="44.00570863745689" lon="10.839316547279319"><ele>782.0</ele><time>2026-04-04T07:01:04Z</time></trkpt><trkpt lat="44.00574103417263" lon="10.839147301466957"><ele>782.0</ele><time>2026-04-04T07:01:05Z</time></trkpt><trkpt lat="44.00580718852249" lon="10.83896817860969"><ele>782.0</ele><time>2026-04-04T07:01:06Z</time></trkpt><trkpt lat="44.005903961478026" lon="10.83878055056792"><ele>782.0</ele><time>2026-04-04T07:01:07Z</time></trkpt><trkpt lat="44.00598851581292" lon="10.83859903191869"><ele>773.25</ele><time>2026-04-04T07:01:08Z</time></trkpt><trkpt lat="44.00606046821148" lon="10.838435682570852"><ele>764.5</ele><time>2026-04-04T07:01:09Z</time></trkpt><trkpt lat="44.00612369909861" lon="10.838283454812014"><ele>755.75</ele><time>2026-04-04T07:01:10Z</time></trkpt><trkpt lat="44.00614759789274" lon="10.838140042167437"><ele>747.0</ele><time>2026-04-04T07:01:11Z</time></trkpt><trkpt lat="44.00613373461438" lon="10.83799762899239"><ele>747.0</ele><time>2026-04-04T07:01:12Z</time></trkpt><trkpt lat="44.0060788565002" lon="10.837852270078292"><ele>747.0</ele><time>2026-04-04T07:01:13Z</time></trkpt><trkpt lat="44.006001851824834" lon="10.837722451464375"><ele>747.0</ele><time>2026-04-04T07:01:14Z</time></trkpt><trkpt lat="44.00590759318366" lon="10.837591724076082"><ele>747.0</ele><time>2026-04-04T07:01:15Z</time></trkpt><trkpt lat="44.005830526694915" lon="10.837435735819598"><ele>750.0</ele><time>2026-04-04T07:01:16Z</time></trkpt><trkpt lat="44.00580194605668" lon="10.837278295832105"><ele>753.0</ele><time>2026-04-04T07:01:17Z</time></trkpt><trkpt lat="44.005795414509166" lon="10.837092403625748"><ele>756.0</ele><time>2026-04-04T07:01:18Z</time></trkpt><trkpt lat="44.005801432834204" lon="10.836893600921487"><ele>759.0</ele><time>2026-04-04T07:01:19Z</time></trkpt><trkpt lat="44.005806914440306" lon="10.836692744435577"><ele>759.0</ele><time>2026-04-04T07:01:20Z</time></trkpt><trkpt lat="44.00581820405713" lon="10.836524067547114"><ele>759.0</ele><time>2026-04-04T07:01:21Z</time></trkpt><trkpt lat="44.00581086480755" lon="10.836386363229924"><ele>759.0</ele><time>2026-04-04T07:01:22Z</time></trkpt><trkpt lat="44.00579208878065" lon="10.836280671821669"><ele>759.0</ele><time>2026-04-04T07:01:23Z</time></trkpt><trkpt lat="44.0057279457198" lon="10.836211166770767"><ele>759.0</ele><time>2026-04-04T07:01:24Z</time></trkpt><trkpt lat="44.005642556042964" lon="10.836158813429673"><ele>759.0</ele><time>2026-04-04T07:01:25Z</time></trkpt><trkpt lat="44.005527011763235" lon="10.836128698366917"><ele>759.0</ele><time>2026-04-04T07:01:26Z</time></trkpt><trkpt lat="44.005393251182824" lon="10.836098620564238"><ele>759.0</ele><time>2026-04-04T07:01:27Z</time></trkpt><trkpt lat="44.00526688453121" lon="10.836059114594946"><ele>759.0</ele><time>2026-04-04T07:01:28Z</time></trkpt><trkpt lat="44.00512823002428" lon="10.835998490562387"><ele>755.3333333333334</ele><time>2026-04-04T07:01:29Z</time></trkpt><trkpt lat="44.004986522467775" lon="10.835929251980787"><ele>751.6666666666667</ele><time>2026-04-04T07:01:30Z</time></trkpt><trkpt lat="44.00484208031937" lon="10.835868609880393"><ele>748.0</ele><time>2026-04-04T07:01:31Z</time></trkpt><trkpt lat="44.00469932077056" lon="10.835807033418874"><ele>748.0</ele><time>2026-04-04T07:01:32Z</time></trkpt><trkpt lat="44.00455365383699" lon="10.835750299854727"><ele>748.0</ele><time>2026-04-04T07:01:33Z</time></trkpt><trkpt lat="44.004395012920114" lon="10.835702403831412"><ele>748.0</ele><time>2026-04-04T07:01:34Z</time></trkpt><trkpt lat="44.004241618962794" lon="10.83564439686012"><ele>751.6666666666667</ele><time>2026-04-04T07:01:35Z</time></trkpt><trkpt lat="44.004085010687525" lon="10.835586474623607"><ele>755.3333333333334</ele><time>2026-04-04T07:01:36Z</time></trkpt><trkpt lat="44.00393714599436" lon="10.835516461779466"><ele>759.0</ele><time>2026-04-04T07:01:37Z</time></trkpt><trkpt lat="44.003788164173635" lon="10.83544710392468"><ele>759.0</ele><time>2026-04-04T07:01:38Z</time></trkpt><trkpt lat="44.003664039584926" lon="10.835331878917536"><ele>759.0</ele><time>2026-04-04T07:01:39Z</time></trkpt><trkpt lat="44.00354461147172" lon="10.835199945447533"><ele>759.0</ele><time>2026-04-04T07:01:40Z</time></trkpt><trkpt lat="44.00341245853945" lon="10.83506750996375"><ele>759.0</ele><time>2026-04-04T07:01:41Z</time></trkpt><trkpt lat="44.003280396054635" lon="10.834909861322354"><ele>759.0</ele><time>2026-04-04T07:01:42Z</time></trkpt><trkpt lat="44.00315050904362" lon="10.834768393343687"><ele>759.0</ele><time>2026-04-04T07:01:43Z</time></trkpt><trkpt lat="44.003030748945896" lon="10.834621910077201"><ele>759.0</ele><time>2026-04-04T07:01:44Z</time></trkpt><trkpt lat="44.00290222051685" lon="10.834493409885084"><ele>759.0</ele><time>2026-04-04T07:01:45Z</time></trkpt><trkpt lat="44.00279826494547" lon="10.834370642646807"><ele>759.0</ele><time>2026-04-04T07:01:46Z</time></trkpt><trkpt lat="44.002717000524434" lon="10.834285402167469"><ele>759.0</ele><time>2026-04-04T07:01:47Z</time></trkpt><trkpt lat="44.00262639369437" lon="10.834234339864606"><ele>759.2</ele><time>2026-04-04T07:01:48Z</time></trkpt><trkpt lat="44.00253604761886" lon="10.834241313546292"><ele>759.4000000000001</ele><time>2026-04-04T07:01:49Z</time></trkpt><trkpt lat="44.002447807272816" lon="10.83429697928307"><ele>759.6</ele><time>2026-04-04T07:01:50Z</time></trkpt><trkpt lat="44.00237135025127" lon="10.834393452802484"><ele>759.8</ele><time>2026-04-04T07:01:51Z</time></trkpt><trkpt lat="44.002297931545996" lon="10.834529717977686"><ele>760.0</ele><time>2026-04-04T07:01:52Z</time></trkpt><trkpt lat="44.00223102733225" lon="10.8347121730577"><ele>757.6666666666667</ele><time>2026-04-04T07:01:53Z</time></trkpt><trkpt lat="44.00217306830739" lon="10.834887242167579"><ele>755.3333333333334</ele><time>2026-04-04T07:01:54Z</time></trkpt><trkpt lat="44.00207934614448" lon="10.835048727427564"><ele>753.0</ele><time>2026-04-04T07:01:55Z</time></trkpt><trkpt lat="44.00193759788838" lon="10.835190122086031"><ele>753.0</ele><time>2026-04-04T07:01:56Z</time></trkpt><trkpt lat="44.001802378670774" lon="10.835314166668676"><ele>753.0</ele><time>2026-04-04T07:01:57Z</time></trkpt><trkpt lat="44.001679212407545" lon="10.835418194889778"><ele>753.0</ele><time>2026-04-04T07:01:58Z</time></trkpt><trkpt lat="44.00158630831346" lon="10.83552143395299"><ele>753.0</ele><time>2026-04-04T07:01:59Z</time></trkpt><trkpt lat="44.001509028284374" lon="10.835623035586542"><ele>748.25</ele><time>2026-04-04T07:02:00Z</time></trkpt><trkpt lat="44.001429178593625" lon="10.835740871864166"><ele>743.5</ele><time>2026-04-04T07:02:01Z</time></trkpt><trkpt lat="44.00138837654533" lon="10.835892846793147"><ele>738.75</ele><time>2026-04-04T07:02:02Z</time></trkpt><trkpt lat="44.00136767034766" lon="10.836065288452692"><ele>734.0</ele><time>2026-04-04T07:02:03Z</time></trkpt><trkpt lat="44.00135604627176" lon="10.836218581314599"><ele>732.5</ele><time>2026-04-04T07:02:04Z</time></trkpt><trkpt lat="44.00137007641634" lon="10.83635474301019"><ele>731.0</ele><time>2026-04-04T07:02:05Z</time></trkpt><trkpt lat="44.00142663244445" lon="10.836489121822625"><ele>729.5</ele><time>2026-04-04T07:02:06Z</time></trkpt><trkpt lat="44.00151440696069" lon="10.83659361964486"><ele>728.0</ele><time>2026-04-04T07:02:07Z</time></trkpt><trkpt lat="44.00160206625556" lon="10.83672020966217"><ele>728.8</ele><time>2026-04-04T07:02:08Z</time></trkpt><trkpt lat="44.00165058927508" lon="10.836848749601058"><ele>729.5999999999999</ele><time>2026-04-04T07:02:09Z</time></trkpt><trkpt lat="44.001648896880155" lon="10.836970971242708"><ele>730.4000000000001</ele><time>2026-04-04T07:02:10Z</time></trkpt><trkpt lat="44.001620096907835" lon="10.837080902328431"><ele>731.2</ele><time>2026-04-04T07:02:11Z</time></trkpt><trkpt lat="44.001572032140864" lon="10.837173683888919"><ele>732.0</ele><time>2026-04-04T07:02:12Z</time></trkpt><trkpt lat="44.00148317939047" lon="10.837228668961519"><ele>732.0</ele><time>2026-04-04T07:02:13Z</time></trkpt><trkpt lat="44.001348943030386" lon="10.837237415803662"><ele>732.0</ele><time>2026-04-04T07:02:14Z</time></trkpt><trkpt lat="44.00121207833509" lon="10.837198956106242"><ele>732.0</ele><time>2026-04-04T07:02:15Z</time></trkpt><trkpt lat="44.001087204588636" lon="10.83725461822572"><ele>732.0</ele><time>2026-04-04T07:02:16Z</time></trkpt><trkpt lat="44.00095937986331" lon="10.837318502940304"><ele>732.0</ele><time>2026-04-04T07:02:17Z</time></trkpt><trkpt lat="44.000841406380786" lon="10.83744233131284"><ele>732.0</ele><time>2026-04-04T07:02:18Z</time></trkpt><trkpt lat="44.000745374260404" lon="10.837591965334164"><ele>732.0</ele><time>2026-04-04T07:02:19Z</time></trkpt><trkpt lat="44.000645769833966" lon="10.837777884971706"><ele>729.0</ele><time>2026-04-04T07:02:20Z</time></trkpt><trkpt lat="44.00055262552918" lon="10.837988631042633"><ele>726.0</ele><time>2026-04-04T07:02:21Z</time></trkpt><trkpt lat="44.00045534422032" lon="10.838171911055023"><ele>723.0</ele><time>2026-04-04T07:02:22Z</time></trkpt><trkpt lat="44.000328378564824" lon="10.838296334843744"><ele>723.0</ele><time>2026-04-04T07:02:23Z</time></trkpt><trkpt lat="44.000209077709904" lon="10.838413713843432"><ele>723.0</ele><time>2026-04-04T07:02:24Z</time></trkpt><trkpt lat="44.00008174401048" lon="10.838538186589338"><ele>723.0</ele><time>2026-04-04T07:02:25Z</time></trkpt><trkpt lat="43.99997330711997" lon="10.83869142010751"><ele>722.25</ele><time>2026-04-04T07:02:26Z</time></trkpt><trkpt lat="43.999882079817915" lon="10.83883029764039"><ele>721.5</ele><time>2026-04-04T07:02:27Z</time></trkpt><trkpt lat="43.99981169499961" lon="10.838987472162302"><ele>720.75</ele><time>2026-04-04T07:02:28Z</time></trkpt><trkpt lat="43.999788198100234" lon="10.839160214864894"><ele>720.0</ele><time>2026-04-04T07:02:29Z</time></trkpt><trkpt lat="43.99979351149671" lon="10.839309794046676"><ele>720.0</ele><time>2026-04-04T07:02:30Z</time></trkpt><trkpt lat="43.99983773422513" lon="10.839447566190303"><ele>720.0</ele><time>2026-04-04T07:02:31Z</time></trkpt><trkpt lat="43.99991234038365" lon="10.839605714444708"><ele>720.0</ele><time>2026-04-04T07:02:32Z</time></trkpt><trkpt lat="44.00001521123571" lon="10.839731155984449"><ele>720.0</ele><time>2026-04-04T07:02:33Z</time></trkpt><trkpt lat="44.00012430025067" lon="10.839840736736177"><ele>720.0</ele><time>2026-04-04T07:02:34Z</time></trkpt><trkpt lat="44.00021471936886" lon="10.839971628043477"><ele>720.0</ele><time>2026-04-04T07:02:35Z</time></trkpt><trkpt lat="44.00027327782512" lon="10.840119677843786"><ele>720.0</ele><time>2026-04-04T07:02:36Z</time></trkpt><trkpt lat="44.000268777700796" lon="10.840281037405605"><ele>720.0</ele><time>2026-04-04T07:02:37Z</time></trkpt><trkpt lat="44.00023396388021" lon="10.840426369335253"><ele>721.5</ele><time>2026-04-04T07:02:38Z</time></trkpt><trkpt lat="44.000188133750825" lon="10.840575387887048"><ele>723.0</ele><time>2026-04-04T07:02:39Z</time></trkpt><trkpt lat="44.000117544919824" lon="10.8407360924117"><ele>724.5</ele><time>2026-04-04T07:02:40Z</time></trkpt><trkpt lat="44.000037258283726" lon="10.840899103324329"><ele>726.0</ele><time>2026-04-04T07:02:41Z</time></trkpt><trkpt lat="43.99993839093389" lon="10.841071912310337"><ele>730.6666666666666</ele><time>2026-04-04T07:02:42Z</time></trkpt><trkpt lat="43.99983073841593" lon="10.84123489061078"><ele>735.3333333333333</ele><time>2026-04-04T07:02:43Z</time></trkpt><trkpt lat="43.99972023328874" lon="10.841379400747819"><ele>740.0</ele><time>2026-04-04T07:02:44Z</time></trkpt><trkpt lat="43.999607223844755" lon="10.841514944873714"><ele>740.0</ele><time>2026-04-04T07:02:45Z</time></trkpt><trkpt lat="43.999498662659754" lon="10.841632934716227"><ele>740.0</ele><time>2026-04-04T07:02:46Z</time></trkpt><trkpt lat="43.999395152701325" lon="10.84172531832208"><ele>740.0</ele><time>2026-04-04T07:02:47Z</time></trkpt><trkpt lat="43.99928476611555" lon="10.841840327117628"><ele>740.0</ele><time>2026-04-04T07:02:48Z</time></trkpt><trkpt lat="43.99920516300593" lon="10.841989381637498"><ele>741.0</ele><time>2026-04-04T07:02:49Z</time></trkpt><trkpt lat="43.99918189832659" lon="10.842186126432903"><ele>742.0</ele><time>2026-04-04T07:02:50Z</time></trkpt><trkpt lat="43.999164755333574" lon="10.842403486858114"><ele>743.0</ele><time>2026-04-04T07:02:51Z</time></trkpt><trkpt lat="43.99915786164941" lon="10.842627106643755"><ele>732.3333333333333</ele><time>2026-04-04T07:02:52Z</time></trkpt><trkpt lat="43.99915554886662" lon="10.84286743532706"><ele>721.6666666666666</ele><time>2026-04-04T07:02:53Z</time></trkpt><trkpt lat="43.99915419708357" lon="10.843084656496027"><ele>711.0</ele><time>2026-04-04T07:02:54Z</time></trkpt><trkpt lat="43.999152217613876" lon="10.843272169370707"><ele>711.0</ele><time>2026-04-04T07:02:55Z</time></trkpt><trkpt lat="43.99915051378133" lon="10.843433571439224"><ele>711.0</ele><time>2026-04-04T07:02:56Z</time></trkpt><trkpt lat="43.999147516870565" lon="10.843581613073752"><ele>711.0</ele><time>2026-04-04T07:02:57Z</time></trkpt><trkpt lat="43.99914252170541" lon="10.843721561975284"><ele>711.0</ele><time>2026-04-04T07:02:58Z</time></trkpt><trkpt lat="43.99913574528713" lon="10.84385401210329"><ele>711.0</ele><time>2026-04-04T07:02:59Z</time></trkpt><trkpt lat="43.99909129236301" lon="10.843964836511816"><ele>712.4</ele><time>2026-04-04T07:03:00Z</time></trkpt><trkpt lat="43.99901192367455" lon="10.844024395530425"><ele>713.8</ele><time>2026-04-04T07:03:01Z</time></trkpt><trkpt lat="43.99892686214608" lon="10.844046258830195"><ele>715.1999999999999</ele><time>2026-04-04T07:03:02Z</time></trkpt><trkpt lat="43.99884016514484" lon="10.84403322534427"><ele>716.5999999999999</ele><time>2026-04-04T07:03:03Z</time></trkpt><trkpt lat="43.998760133706746" lon="10.843958391572462"><ele>718.0</ele><time>2026-04-04T07:03:04Z</time></trkpt><trkpt lat="43.99870779783222" lon="10.843852350339453"><ele>718.0</ele><time>2026-04-04T07:03:05Z</time></trkpt><trkpt lat="43.998698864332226" lon="10.843717794498813"><ele>718.0</ele><time>2026-04-04T07:03:06Z</time></trkpt><trkpt lat="43.998706400236024" lon="10.843555393835619"><ele>718.0</ele><time>2026-04-04T07:03:07Z</time></trkpt><trkpt lat="43.99873430815687" lon="10.843381376223801"><ele>718.0</ele><time>2026-04-04T07:03:08Z</time></trkpt><trkpt lat="43.998779963684804" lon="10.84319766961338"><ele>718.0</ele><time>2026-04-04T07:03:09Z</time></trkpt><trkpt lat="43.99879366437191" lon="10.843000042251829"><ele>718.0</ele><time>2026-04-04T07:03:10Z</time></trkpt><trkpt lat="43.99877658245844" lon="10.842815677316326"><ele>718.0</ele><time>2026-04-04T07:03:11Z</time></trkpt><trkpt lat="43.99876252823289" lon="10.842643511427122"><ele>718.0</ele><time>2026-04-04T07:03:12Z</time></trkpt><trkpt lat="43.998735718653776" lon="10.842493558919932"><ele>718.0</ele><time>2026-04-04T07:03:13Z</time></trkpt><trkpt lat="43.9986951975937" lon="10.842377498780854"><ele>718.0</ele><time>2026-04-04T07:03:14Z</time></trkpt><trkpt lat="43.998625182253555" lon="10.842284368042154"><ele>718.0</ele><time>2026-04-04T07:03:15Z</time></trkpt><trkpt lat="43.99854424664303" lon="10.842236982023447"><ele>718.0</ele><time>2026-04-04T07:03:16Z</time></trkpt><trkpt lat="43.99844861687261" lon="10.842241955128191"><ele>718.0</ele><time>2026-04-04T07:03:17Z</time></trkpt><trkpt lat="43.99837254936742" lon="10.842301083786566"><ele>716.5999999999999</ele><time>2026-04-04T07:03:18Z</time></trkpt><trkpt lat="43.99832906601125" lon="10.842398945264993"><ele>715.1999999999999</ele><time>2026-04-04T07:03:19Z</time></trkpt><trkpt lat="43.998318180693865" lon="10.842510366814464"><ele>713.8</ele><time>2026-04-04T07:03:20Z</time></trkpt><trkpt lat="43.99833513109483" lon="10.842658185204655"><ele>712.4</ele><time>2026-04-04T07:03:21Z</time></trkpt><trkpt lat="43.99836356173565" lon="10.842841544344246"><ele>711.0</ele><time>2026-04-04T07:03:22Z</time></trkpt><trkpt lat="43.99837038925764" lon="10.843033218161745"><ele>711.0</ele><time>2026-04-04T07:03:23Z</time></trkpt><trkpt lat="43.99833485651131" lon="10.843233753932092"><ele>711.0</ele><time>2026-04-04T07:03:24Z</time></trkpt><trkpt lat="43.99827407420984" lon="10.843451260461023"><ele>711.0</ele><time>2026-04-04T07:03:25Z</time></trkpt><trkpt lat="43.99820508535534" lon="10.843667694421642"><ele>704.6666666666666</ele><time>2026-04-04T07:03:26Z</time></trkpt><trkpt lat="43.99812510929384" lon="10.843894274011099"><ele>698.3333333333333</ele><time>2026-04-04T07:03:27Z</time></trkpt><trkpt lat="43.99804539186715" lon="10.84413343877291"><ele>692.0</ele><time>2026-04-04T07:03:28Z</time></trkpt><trkpt lat="43.99795711118592" lon="10.844366989489869"><ele>692.0</ele><time>2026-04-04T07:03:29Z</time></trkpt><trkpt lat="43.997862453854104" lon="10.844601939177615"><ele>692.0</ele><time>2026-04-04T07:03:30Z</time></trkpt><trkpt lat="43.99778525473282" lon="10.844845439957083"><ele>692.0</ele><time>2026-04-04T07:03:31Z</time></trkpt><trkpt lat="43.99771016408376" lon="10.845087819355362"><ele>695.0</ele><time>2026-04-04T07:03:32Z</time></trkpt><trkpt lat="43.99763449139782" lon="10.845318540062252"><ele>698.0</ele><time>2026-04-04T07:03:33Z</time></trkpt><trkpt lat="43.99755825241336" lon="10.845540817960746"><ele>701.0</ele><time>2026-04-04T07:03:34Z</time></trkpt><trkpt lat="43.997475556361" lon="10.8457607107824"><ele>692.3333333333333</ele><time>2026-04-04T07:03:35Z</time></trkpt><trkpt lat="43.99739988620283" lon="10.84599365791882"><ele>683.6666666666666</ele><time>2026-04-04T07:03:36Z</time></trkpt><trkpt lat="43.99733897987544" lon="10.846211828411882"><ele>675.0</ele><time>2026-04-04T07:03:37Z</time></trkpt><trkpt lat="43.99729431696859" lon="10.846445045386544"><ele>675.0</ele><time>2026-04-04T07:03:38Z</time></trkpt><trkpt lat="43.99726696300903" lon="10.846678774881655"><ele>675.0</ele><time>2026-04-04T07:03:39Z</time></trkpt><trkpt lat="43.99724669504642" lon="10.846915992422321"><ele>675.0</ele><time>2026-04-04T07:03:40Z</time></trkpt><trkpt lat="43.997231761922784" lon="10.847138231859283"><ele>673.0</ele><time>2026-04-04T07:03:41Z</time></trkpt><trkpt lat="43.99720427341386" lon="10.847335317194657"><ele>671.0</ele><time>2026-04-04T07:03:42Z</time></trkpt><trkpt lat="43.997196501454816" lon="10.847538864394604"><ele>669.0</ele><time>2026-04-04T07:03:43Z</time></trkpt><trkpt lat="43.99718018666912" lon="10.847738854131665"><ele>667.0</ele><time>2026-04-04T07:03:44Z</time></trkpt><trkpt lat="43.99715812430863" lon="10.847924366212899"><ele>666.25</ele><time>2026-04-04T07:03:45Z</time></trkpt><trkpt lat="43.99711960147158" lon="10.848101845470424"><ele>665.5</ele><time>2026-04-04T07:03:46Z</time></trkpt><trkpt lat="43.9970432845218" lon="10.848259996971265"><ele>664.75</ele><time>2026-04-04T07:03:47Z</time></trkpt><trkpt lat="43.996924211384176" lon="10.84839901235901"><ele>664.0</ele><time>2026-04-04T07:03:48Z</time></trkpt><trkpt lat="43.99677964362633" lon="10.848516672691034"><ele>660.0</ele><time>2026-04-04T07:03:49Z</time></trkpt><trkpt lat="43.99663710453662" lon="10.848634550114072"><ele>656.0</ele><time>2026-04-04T07:03:50Z</time></trkpt><trkpt lat="43.99652120691084" lon="10.848738649644098"><ele>652.0</ele><time>2026-04-04T07:03:51Z</time></trkpt><trkpt lat="43.99643411917887" lon="10.848856624573385"><ele>648.0</ele><time>2026-04-04T07:03:52Z</time></trkpt><trkpt lat="43.99638513208213" lon="10.84898917765311"><ele>648.0</ele><time>2026-04-04T07:03:53Z</time></trkpt><trkpt lat="43.996368630529574" lon="10.849188996151183"><ele>648.0</ele><time>2026-04-04T07:03:54Z</time></trkpt><trkpt lat="43.996369789121154" lon="10.849426552624413"><ele>648.0</ele><time>2026-04-04T07:03:55Z</time></trkpt><trkpt lat="43.9963768559148" lon="10.849654911245016"><ele>648.0</ele><time>2026-04-04T07:03:56Z</time></trkpt><trkpt lat="43.996373948453325" lon="10.849856850131115"><ele>648.0</ele><time>2026-04-04T07:03:57Z</time></trkpt><trkpt lat="43.99635530394739" lon="10.850025193423347"><ele>648.0</ele><time>2026-04-04T07:03:58Z</time></trkpt><trkpt lat="43.9963331909195" lon="10.850190046212434"><ele>648.0</ele><time>2026-04-04T07:03:59Z</time></trkpt><trkpt lat="43.996265954020856" lon="10.850345961193584"><ele>649.25</ele><time>2026-04-04T07:04:00Z</time></trkpt><trkpt lat="43.99618123064495" lon="10.850481326778187"><ele>650.5</ele><time>2026-04-04T07:04:01Z</time></trkpt><trkpt lat="43.99606410876495" lon="10.850626770212685"><ele>651.75</ele><time>2026-04-04T07:04:02Z</time></trkpt><trkpt lat="43.995931920927426" lon="10.850738658089684"><ele>653.0</ele><time>2026-04-04T07:04:03Z</time></trkpt><trkpt lat="43.99583004702921" lon="10.850875120936351"><ele>649.25</ele><time>2026-04-04T07:04:04Z</time></trkpt><trkpt lat="43.99572314612513" lon="10.8509726516037"><ele>645.5</ele><time>2026-04-04T07:04:05Z</time></trkpt><trkpt lat="43.99564146731852" lon="10.85110718907243"><ele>641.75</ele><time>2026-04-04T07:04:06Z</time></trkpt><trkpt lat="43.995621168743966" lon="10.851274784654361"><ele>638.0</ele><time>2026-04-04T07:04:07Z</time></trkpt><trkpt lat="43.995586257692224" lon="10.851416424108574"><ele>638.0</ele><time>2026-04-04T07:04:08Z</time></trkpt><trkpt lat="43.99553623435166" lon="10.85154126287258"><ele>638.0</ele><time>2026-04-04T07:04:09Z</time></trkpt><trkpt lat="43.99547276991314" lon="10.85163236299086"><ele>638.0</ele><time>2026-04-04T07:04:10Z</time></trkpt><trkpt lat="43.995369653458255" lon="10.851674661268158"><ele>638.0</ele><time>2026-04-04T07:04:11Z</time></trkpt><trkpt lat="43.9952441292239" lon="10.85177117971251"><ele>638.0</ele><time>2026-04-04T07:04:12Z</time></trkpt><trkpt lat="43.99513618705536" lon="10.85183592428273"><ele>639.75</ele><time>2026-04-04T07:04:13Z</time></trkpt><trkpt lat="43.99503374810334" lon="10.851914103334835"><ele>641.5</ele><time>2026-04-04T07:04:14Z</time></trkpt><trkpt lat="43.99493853929015" lon="10.851996612465651"><ele>643.25</ele><time>2026-04-04T07:04:15Z</time></trkpt><trkpt lat="43.994872501008956" lon="10.852150924712092"><ele>645.0</ele><time>2026-04-04T07:04:16Z</time></trkpt><trkpt lat="43.994810796520085" lon="10.852332318822393"><ele>639.25</ele><time>2026-04-04T07:04:17Z</time></trkpt><trkpt lat="43.99474423563904" lon="10.852517759986624"><ele>633.5</ele><time>2026-04-04T07:04:18Z</time></trkpt><trkpt lat="43.994699585514965" lon="10.85267776236711"><ele>627.75</ele><time>2026-04-04T07:04:19Z</time></trkpt><trkpt lat="43.994635909913384" lon="10.852800257957872"><ele>622.0</ele><time>2026-04-04T07:04:20Z</time></trkpt><trkpt lat="43.994554908413534" lon="10.852893241968887"><ele>622.0</ele><time>2026-04-04T07:04:21Z</time></trkpt><trkpt lat="43.99446401935671" lon="10.852928652823914"><ele>622.0</ele><time>2026-04-04T07:04:22Z</time></trkpt><trkpt lat="43.994361471423595" lon="10.85294635136746"><ele>622.0</ele><time>2026-04-04T07:04:23Z</time></trkpt><trkpt lat="43.99428360049948" lon="10.852960525616089"><ele>622.0</ele><time>2026-04-04T07:04:24Z</time></trkpt><trkpt lat="43.99420903933547" lon="10.852997068329069"><ele>622.0</ele><time>2026-04-04T07:04:25Z</time></trkpt><trkpt lat="43.994154298827574" lon="10.853063955016419"><ele>622.0</ele><time>2026-04-04T07:04:26Z</time></trkpt><trkpt lat="43.99412008350067" lon="10.853179486117046"><ele>620.25</ele><time>2026-04-04T07:04:27Z</time></trkpt><trkpt lat="43.99409721769619" lon="10.853326368987936"><ele>618.5</ele><time>2026-04-04T07:04:28Z</time></trkpt><trkpt lat="43.994057787351885" lon="10.853488848987606"><ele>616.75</ele><time>2026-04-04T07:04:29Z</time></trkpt><trkpt lat="43.99401928139881" lon="10.853670231024843"><ele>615.0</ele><time>2026-04-04T07:04:30Z</time></trkpt><trkpt lat="43.9939494105362" lon="10.853818243292515"><ele>615.0</ele><time>2026-04-04T07:04:31Z</time></trkpt><trkpt lat="43.993908736027095" lon="10.853960036268303"><ele>615.0</ele><time>2026-04-04T07:04:32Z</time></trkpt><trkpt lat="43.993866198627735" lon="10.854094819066276"><ele>615.0</ele><time>2026-04-04T07:04:33Z</time></trkpt><trkpt lat="43.993795671061655" lon="10.854175155379682"><ele>615.0</ele><time>2026-04-04T07:04:34Z</time></trkpt><trkpt lat="43.99371134600387" lon="10.854193058869207"><ele>615.0</ele><time>2026-04-04T07:04:35Z</time></trkpt><trkpt lat="43.993591551307915" lon="10.85417034710316"><ele>615.0</ele><time>2026-04-04T07:04:36Z</time></trkpt><trkpt lat="43.99345127880827" lon="10.854146908317382"><ele>615.0</ele><time>2026-04-04T07:04:37Z</time></trkpt><trkpt lat="43.993299139033624" lon="10.854127294655274"><ele>615.0</ele><time>2026-04-04T07:04:38Z</time></trkpt><trkpt lat="43.99313668299666" lon="10.854139285843447"><ele>611.3333333333334</ele><time>2026-04-04T07:04:39Z</time></trkpt><trkpt lat="43.992972641670875" lon="10.85413064754769"><ele>607.6666666666667</ele><time>2026-04-04T07:04:40Z</time></trkpt><trkpt lat="43.99280331336428" lon="10.854136479743223"><ele>604.0</ele><time>2026-04-04T07:04:41Z</time></trkpt><trkpt lat="43.992617964345825" lon="10.854155009968983"><ele>601.6666666666667</ele><time>2026-04-04T07:04:42Z</time></trkpt><trkpt lat="43.992438572343" lon="10.854123169826558"><ele>599.3333333333334</ele><time>2026-04-04T07:04:43Z</time></trkpt><trkpt lat="43.99228759009356" lon="10.854128529710081"><ele>597.0</ele><time>2026-04-04T07:04:44Z</time></trkpt><trkpt lat="43.992134087950085" lon="10.854133503422082"><ele>597.0</ele><time>2026-04-04T07:04:45Z</time></trkpt><trkpt lat="43.991971069094554" lon="10.8541391550318"><ele>597.0</ele><time>2026-04-04T07:04:46Z</time></trkpt><trkpt lat="43.99182976351271" lon="10.85414421019365"><ele>597.0</ele><time>2026-04-04T07:04:47Z</time></trkpt><trkpt lat="43.99170852477848" lon="10.85413846058793"><ele>597.0</ele><time>2026-04-04T07:04:48Z</time></trkpt><trkpt lat="43.99159708026608" lon="10.854135544693241"><ele>597.0</ele><time>2026-04-04T07:04:49Z</time></trkpt><trkpt lat="43.99149821909944" lon="10.854152237616272"><ele>597.0</ele><time>2026-04-04T07:04:50Z</time></trkpt><trkpt lat="43.99142077523161" lon="10.854201402472086"><ele>597.0</ele><time>2026-04-04T07:04:51Z</time></trkpt><trkpt lat="43.9913337902328" lon="10.854312629883726"><ele>597.0</ele><time>2026-04-04T07:04:52Z</time></trkpt><trkpt lat="43.99127736783202" lon="10.854473217213172"><ele>597.0</ele><time>2026-04-04T07:04:53Z</time></trkpt><trkpt lat="43.991230651461976" lon="10.8546501767126"><ele>597.0</ele><time>2026-04-04T07:04:54Z</time></trkpt><trkpt lat="43.99115910695606" lon="10.854827746804272"><ele>597.0</ele><time>2026-04-04T07:04:55Z</time></trkpt><trkpt lat="43.99107149244113" lon="10.854983091647577"><ele>597.0</ele><time>2026-04-04T07:04:56Z</time></trkpt><trkpt lat="43.99097088468203" lon="10.855103851602399"><ele>597.0</ele><time>2026-04-04T07:04:57Z</time></trkpt><trkpt lat="43.99085523224814" lon="10.855200047910987"><ele>596.75</ele><time>2026-04-04T07:04:58Z</time></trkpt><trkpt lat="43.99072860510267" lon="10.855280829667544"><ele>596.5</ele><time>2026-04-04T07:04:59Z</time></trkpt><trkpt lat="43.990589916639806" lon="10.855324484775233"><ele>596.25</ele><time>2026-04-04T07:05:00Z</time></trkpt><trkpt lat="43.99043730486833" lon="10.855336198967462"><ele>596.0</ele><time>2026-04-04T07:05:01Z</time></trkpt><trkpt lat="43.99029074410412" lon="10.855364581149562"><ele>596.0</ele><time>2026-04-04T07:05:02Z</time></trkpt><trkpt lat="43.990156518884405" lon="10.85543703423037"><ele>596.0</ele><time>2026-04-04T07:05:03Z</time></trkpt><trkpt lat="43.9900303601239" lon="10.855540375150555"><ele>596.0</ele><time>2026-04-04T07:05:04Z</time></trkpt><trkpt lat="43.989905462088494" lon="10.855671058558421"><ele>596.0</ele><time>2026-04-04T07:05:05Z</time></trkpt><trkpt lat="43.98979546528849" lon="10.855817140106625"><ele>597.25</ele><time>2026-04-04T07:05:06Z</time></trkpt><trkpt lat="43.98968823489993" lon="10.855944388367531"><ele>598.5</ele><time>2026-04-04T07:05:07Z</time></trkpt><trkpt lat="43.98955733155197" lon="10.856049277462938"><ele>599.75</ele><time>2026-04-04T07:05:08Z</time></trkpt><trkpt lat="43.98941575302467" lon="10.856113328720975"><ele>601.0</ele><time>2026-04-04T07:05:09Z</time></trkpt><trkpt lat="43.98925386293621" lon="10.856156679305437"><ele>595.3333333333334</ele><time>2026-04-04T07:05:10Z</time></trkpt><trkpt lat="43.989084251660934" lon="10.856190641065467"><ele>589.6666666666666</ele><time>2026-04-04T07:05:11Z</time></trkpt><trkpt lat="43.988905642542775" lon="10.856210958216181"><ele>584.0</ele><time>2026-04-04T07:05:12Z</time></trkpt><trkpt lat="43.9887151218722" lon="10.85622641216146"><ele>584.0</ele><time>2026-04-04T07:05:13Z</time></trkpt><trkpt lat="43.98853375899108" lon="10.85625083144778"><ele>584.0</ele><time>2026-04-04T07:05:14Z</time></trkpt><trkpt lat="43.98835878135676" lon="10.856273850910247"><ele>584.0</ele><time>2026-04-04T07:05:15Z</time></trkpt><trkpt lat="43.98819760105209" lon="10.856309908974453"><ele>578.6666666666666</ele><time>2026-04-04T07:05:16Z</time></trkpt><trkpt lat="43.988039604491334" lon="10.856353324478345"><ele>573.3333333333334</ele><time>2026-04-04T07:05:17Z</time></trkpt><trkpt lat="43.98787749014965" lon="10.856403669994508"><ele>568.0</ele><time>2026-04-04T07:05:18Z</time></trkpt><trkpt lat="43.98773579571547" lon="10.856497019087207"><ele>568.0</ele><time>2026-04-04T07:05:19Z</time></trkpt><trkpt lat="43.98759799046601" lon="10.856573335535176"><ele>568.0</ele><time>2026-04-04T07:05:20Z</time></trkpt><trkpt lat="43.98747256831378" lon="10.856679226011838"><ele>568.0</ele><time>2026-04-04T07:05:21Z</time></trkpt><trkpt lat="43.987357087829395" lon="10.85678654734989"><ele>568.0</ele><time>2026-04-04T07:05:22Z</time></trkpt><trkpt lat="43.987259211945556" lon="10.856891726216128"><ele>569.8</ele><time>2026-04-04T07:05:23Z</time></trkpt><trkpt lat="43.98716757415256" lon="10.856950252595846"><ele>571.5999999999999</ele><time>2026-04-04T07:05:24Z</time></trkpt><trkpt lat="43.98708361126071" lon="10.856990845369815"><ele>573.4000000000001</ele><time>2026-04-04T07:05:25Z</time></trkpt><trkpt lat="43.98699113500765" lon="10.856979267838382"><ele>575.2</ele><time>2026-04-04T07:05:26Z</time></trkpt><trkpt lat="43.98692379490644" lon="10.856874190395759"><ele>577.0</ele><time>2026-04-04T07:05:27Z</time></trkpt><trkpt lat="43.98688772044605" lon="10.856718133164746"><ele>572.0</ele><time>2026-04-04T07:05:28Z</time></trkpt><trkpt lat="43.9868839075162" lon="10.856565758468875"><ele>567.0</ele><time>2026-04-04T07:05:29Z</time></trkpt><trkpt lat="43.98694435528713" lon="10.856440379494597"><ele>562.0</ele><time>2026-04-04T07:05:30Z</time></trkpt><trkpt lat="43.987039165975744" lon="10.856323786467184"><ele>557.0</ele><time>2026-04-04T07:05:31Z</time></trkpt><trkpt lat="43.987149944991884" lon="10.856218804384845"><ele>557.0</ele><time>2026-04-04T07:05:32Z</time></trkpt><trkpt lat="43.987261951376986" lon="10.856151976850686"><ele>557.0</ele><time>2026-04-04T07:05:33Z</time></trkpt><trkpt lat="43.98735695086996" lon="10.856071573904345"><ele>557.0</ele><time>2026-04-04T07:05:34Z</time></trkpt><trkpt lat="43.98744971646932" lon="10.856010125383634"><ele>557.0</ele><time>2026-04-04T07:05:35Z</time></trkpt><trkpt lat="43.9875343737124" lon="10.855932061392545"><ele>557.0</ele><time>2026-04-04T07:05:36Z</time></trkpt><trkpt lat="43.987615399660626" lon="10.855850015957502"><ele>555.4</ele><time>2026-04-04T07:05:37Z</time></trkpt><trkpt lat="43.987665414646656" lon="10.855752709299573"><ele>553.8000000000001</ele><time>2026-04-04T07:05:38Z</time></trkpt><trkpt lat="43.98768824232934" lon="10.855627865918608"><ele>552.2</ele><time>2026-04-04T07:05:39Z</time></trkpt><trkpt lat="43.98768284434191" lon="10.855485154861904"><ele>550.6</ele><time>2026-04-04T07:05:40Z</time></trkpt><trkpt lat="43.98763560232377" lon="10.8553461644165"><ele>549.0</ele><time>2026-04-04T07:05:41Z</time></trkpt><trkpt lat="43.987552775561205" lon="10.855245056076633"><ele>547.25</ele><time>2026-04-04T07:05:42Z</time></trkpt><trkpt lat="43.98746044356831" lon="10.85517787351189"><ele>545.5</ele><time>2026-04-04T07:05:43Z</time></trkpt><trkpt lat="43.98734988954331" lon="10.855162073465792"><ele>543.75</ele><time>2026-04-04T07:05:44Z</time></trkpt><trkpt lat="43.987234515993" lon="10.855155840726017"><ele>542.0</ele><time>2026-04-04T07:05:45Z</time></trkpt><trkpt lat="43.98712073154873" lon="10.855230042835661"><ele>542.0</ele><time>2026-04-04T07:05:46Z</time></trkpt><trkpt lat="43.98700026932694" lon="10.8553061348058"><ele>542.0</ele><time>2026-04-04T07:05:47Z</time></trkpt><trkpt lat="43.98691820354871" lon="10.855471688855928"><ele>542.0</ele><time>2026-04-04T07:05:48Z</time></trkpt><trkpt lat="43.98682706196774" lon="10.85561262740615"><ele>542.0</ele><time>2026-04-04T07:05:49Z</time></trkpt><trkpt lat="43.986716400477164" lon="10.855705740185115"><ele>541.6666666666666</ele><time>2026-04-04T07:05:50Z</time></trkpt><trkpt lat="43.98659398322341" lon="10.855814691429666"><ele>541.3333333333334</ele><time>2026-04-04T07:05:51Z</time></trkpt><trkpt lat="43.98645540948937" lon="10.855937460696131"><ele>541.0</ele><time>2026-04-04T07:05:52Z</time></trkpt><trkpt lat="43.98630381535026" lon="10.856071109520196"><ele>541.0</ele><time>2026-04-04T07:05:53Z</time></trkpt><trkpt lat="43.986165133685056" lon="10.856196394705169"><ele>541.0</ele><time>2026-04-04T07:05:54Z</time></trkpt><trkpt lat="43.986029665933266" lon="10.856349565170751"><ele>541.0</ele><time>2026-04-04T07:05:55Z</time></trkpt><trkpt lat="43.98591416280193" lon="10.856531304005"><ele>534.25</ele><time>2026-04-04T07:05:56Z</time></trkpt><trkpt lat="43.9858107078649" lon="10.856691401544966"><ele>527.5</ele><time>2026-04-04T07:05:57Z</time></trkpt><trkpt lat="43.98571822050207" lon="10.856843267499762"><ele>520.75</ele><time>2026-04-04T07:05:58Z</time></trkpt><trkpt lat="43.985646176870816" lon="10.856986330723268"><ele>514.0</ele><time>2026-04-04T07:05:59Z</time></trkpt><trkpt lat="43.98561739829823" lon="10.857147287325121"><ele>514.0</ele><time>2026-04-04T07:06:00Z</time></trkpt><trkpt lat="43.985600143321385" lon="10.857309340795481"><ele>514.0</ele><time>2026-04-04T07:06:01Z</time></trkpt><trkpt lat="43.98563950334296" lon="10.857494093615193"><ele>514.0</ele><time>2026-04-04T07:06:02Z</time></trkpt><trkpt lat="43.98568550472596" lon="10.85765658668233"><ele>514.0</ele><time>2026-04-04T07:06:03Z</time></trkpt><trkpt lat="43.98575262975122" lon="10.857839804369114"><ele>508.5</ele><time>2026-04-04T07:06:04Z</time></trkpt><trkpt lat="43.985824330017294" lon="10.858012376225698"><ele>503.0</ele><time>2026-04-04T07:06:05Z</time></trkpt><trkpt lat="43.98589242060674" lon="10.858158707917212"><ele>497.5</ele><time>2026-04-04T07:06:06Z</time></trkpt><trkpt lat="43.98597419937191" lon="10.858271374105772"><ele>492.0</ele><time>2026-04-04T07:06:07Z</time></trkpt><trkpt lat="43.98605868695782" lon="10.85838779661334"><ele>504.5</ele><time>2026-04-04T07:06:08Z</time></trkpt><trkpt lat="43.98611590483516" lon="10.85851217375649"><ele>517.0</ele><time>2026-04-04T07:06:09Z</time></trkpt><trkpt lat="43.9861315210255" lon="10.858687401393887"><ele>529.5</ele><time>2026-04-04T07:06:10Z</time></trkpt><trkpt lat="43.986103706458344" lon="10.858858933765648"><ele>542.0</ele><time>2026-04-04T07:06:11Z</time></trkpt><trkpt lat="43.98602291330234" lon="10.858994784611493"><ele>542.0</ele><time>2026-04-04T07:06:12Z</time></trkpt><trkpt lat="43.98591825615938" lon="10.859085361292813"><ele>542.0</ele><time>2026-04-04T07:06:13Z</time></trkpt><trkpt lat="43.98578959391068" lon="10.859139432926758"><ele>542.0</ele><time>2026-04-04T07:06:14Z</time></trkpt><trkpt lat="43.985626589880304" lon="10.859178401049821"><ele>542.0</ele><time>2026-04-04T07:06:15Z</time></trkpt><trkpt lat="43.985480130606945" lon="10.859236738234795"><ele>536.0</ele><time>2026-04-04T07:06:16Z</time></trkpt><trkpt lat="43.98535388003557" lon="10.859301929659384"><ele>530.0</ele><time>2026-04-04T07:06:17Z</time></trkpt><trkpt lat="43.98521732787419" lon="10.859404429430288"><ele>524.0</ele><time>2026-04-04T07:06:18Z</time></trkpt><trkpt lat="43.98509910391967" lon="10.859557320540272"><ele>521.25</ele><time>2026-04-04T07:06:19Z</time></trkpt><trkpt lat="43.98499289457506" lon="10.859720526023013"><ele>518.5</ele><time>2026-04-04T07:06:20Z</time></trkpt><trkpt lat="43.98489655576231" lon="10.859881912076784"><ele>515.75</ele><time>2026-04-04T07:06:21Z</time></trkpt><trkpt lat="43.98481403283666" lon="10.860029696712589"><ele>513.0</ele><time>2026-04-04T07:06:22Z</time></trkpt><trkpt lat="43.984722511123145" lon="10.860155973517697"><ele>513.0</ele><time>2026-04-04T07:06:23Z</time></trkpt><trkpt lat="43.9846147431622" lon="10.860220443393828"><ele>513.0</ele><time>2026-04-04T07:06:24Z</time></trkpt><trkpt lat="43.98449303019072" lon="10.860273463691605"><ele>513.0</ele><time>2026-04-04T07:06:25Z</time></trkpt><trkpt lat="43.98436494753259" lon="10.860333774255738"><ele>513.0</ele><time>2026-04-04T07:06:26Z</time></trkpt><trkpt lat="43.98425805920206" lon="10.860401508493535"><ele>512.25</ele><time>2026-04-04T07:06:27Z</time></trkpt><trkpt lat="43.98415584006204" lon="10.860547252226697"><ele>511.5</ele><time>2026-04-04T07:06:28Z</time></trkpt><trkpt lat="43.98409270499256" lon="10.86070488463897"><ele>510.75</ele><time>2026-04-04T07:06:29Z</time></trkpt><trkpt lat="43.984024206185104" lon="10.860882094735272"><ele>510.0</ele><time>2026-04-04T07:06:30Z</time></trkpt><trkpt lat="43.98392776456746" lon="10.861029176999784"><ele>510.0</ele><time>2026-04-04T07:06:31Z</time></trkpt><trkpt lat="43.983819234988744" lon="10.861143802982738"><ele>510.0</ele><time>2026-04-04T07:06:32Z</time></trkpt><trkpt lat="43.98368951788094" lon="10.861222811433425"><ele>510.0</ele><time>2026-04-04T07:06:33Z</time></trkpt><trkpt lat="43.98354225314916" lon="10.861280654275081"><ele>510.0</ele><time>2026-04-04T07:06:34Z</time></trkpt><trkpt lat="43.983384319521534" lon="10.861332551879306"><ele>500.0</ele><time>2026-04-04T07:06:35Z</time></trkpt><trkpt lat="43.98324652506654" lon="10.861365124336402"><ele>490.0</ele><time>2026-04-04T07:06:36Z</time></trkpt><trkpt lat="43.98314463502185" lon="10.861419781488186"><ele>480.0</ele><time>2026-04-04T07:06:37Z</time></trkpt><trkpt lat="43.98305916104949" lon="10.861516499181132"><ele>470.0</ele><time>2026-04-04T07:06:38Z</time></trkpt><trkpt lat="43.98297898860134" lon="10.861617695996351"><ele>470.0</ele><time>2026-04-04T07:06:39Z</time></trkpt><trkpt lat="43.98292915341762" lon="10.861750396380867"><ele>470.0</ele><time>2026-04-04T07:06:40Z</time></trkpt><trkpt lat="43.98292175192481" lon="10.861901500392122"><ele>470.0</ele><time>2026-04-04T07:06:41Z</time></trkpt><trkpt lat="43.98293407432682" lon="10.862033753466307"><ele>470.0</ele><time>2026-04-04T07:06:42Z</time></trkpt><trkpt lat="43.98293604686886" lon="10.862142692839244"><ele>470.0</ele><time>2026-04-04T07:06:43Z</time></trkpt><trkpt lat="43.982928511711776" lon="10.862244130326701"><ele>470.99999999999994</ele><time>2026-04-04T07:06:44Z</time></trkpt><trkpt lat="43.98290794115647" lon="10.862329206176616"><ele>472.0</ele><time>2026-04-04T07:06:45Z</time></trkpt><trkpt lat="43.982815248337744" lon="10.862420443133939"><ele>473.0</ele><time>2026-04-04T07:06:47Z</time></trkpt><trkpt lat="43.982751023065106" lon="10.862480144450261"><ele>474.0</ele><time>2026-04-04T07:06:49Z</time></trkpt><trkpt lat="43.98268604450469" lon="10.862533434676573"><ele>474.99999999999994</ele><time>2026-04-04T07:06:52Z</time></trkpt><trkpt lat="43.98262360189051" lon="10.862606584112466"><ele>476.0</ele><time>2026-04-04T07:06:59Z</time></trkpt><trkpt lat="43.98249941226091" lon="10.862678073007865"><ele>476.0</ele><time>2026-04-04T07:07:01Z</time></trkpt><trkpt lat="43.982421237803" lon="10.86274196145759"><ele>476.0</ele><time>2026-04-04T07:07:02Z</time></trkpt><trkpt lat="43.98232924883835" lon="10.86281120093475"><ele>476.0</ele><time>2026-04-04T07:07:03Z</time></trkpt><trkpt lat="43.98223158387048" lon="10.862882595990895"><ele>476.0</ele><time>2026-04-04T07:07:04Z</time></trkpt><trkpt lat="43.98212477080314" lon="10.86296327387613"><ele>476.0</ele><time>2026-04-04T07:07:05Z</time></trkpt><trkpt lat="43.98200251684482" lon="10.863046030614637"><ele>476.0</ele><time>2026-04-04T07:07:06Z</time></trkpt><trkpt lat="43.98187193273864" lon="10.863111457378318"><ele>476.0</ele><time>2026-04-04T07:07:07Z</time></trkpt><trkpt lat="43.981733300817936" lon="10.863163977518196"><ele>476.0</ele><time>2026-04-04T07:07:08Z</time></trkpt><trkpt lat="43.98160521514183" lon="10.8632250333357"><ele>476.0</ele><time>2026-04-04T07:07:09Z</time></trkpt><trkpt lat="43.9814848499072" lon="10.863299372823187"><ele>469.0</ele><time>2026-04-04T07:07:10Z</time></trkpt><trkpt lat="43.98136050658394" lon="10.86336395735395"><ele>462.0</ele><time>2026-04-04T07:07:11Z</time></trkpt><trkpt lat="43.981233378862576" lon="10.863405587321996"><ele>455.0</ele><time>2026-04-04T07:07:12Z</time></trkpt><trkpt lat="43.98108530100696" lon="10.863409912284295"><ele>448.0</ele><time>2026-04-04T07:07:13Z</time></trkpt><trkpt lat="43.98094754200615" lon="10.863429311423696"><ele>447.5</ele><time>2026-04-04T07:07:14Z</time></trkpt><trkpt lat="43.98083701701912" lon="10.863475837169746"><ele>447.0</ele><time>2026-04-04T07:07:15Z</time></trkpt><trkpt lat="43.980713729696454" lon="10.863542865187043"><ele>446.5</ele><time>2026-04-04T07:07:16Z</time></trkpt><trkpt lat="43.98059755646337" lon="10.863612774470162"><ele>446.0</ele><time>2026-04-04T07:07:17Z</time></trkpt><trkpt lat="43.98052127439715" lon="10.86373931639191"><ele>446.0</ele><time>2026-04-04T07:07:18Z</time></trkpt><trkpt lat="43.980470908369874" lon="10.863892087548887"><ele>446.0</ele><time>2026-04-04T07:07:19Z</time></trkpt><trkpt lat="43.98045219575231" lon="10.864068092217957"><ele>446.0</ele><time>2026-04-04T07:07:20Z</time></trkpt><trkpt lat="43.98040931926263" lon="10.864289209587712"><ele>446.0</ele><time>2026-04-04T07:07:21Z</time></trkpt><trkpt lat="43.98039192002669" lon="10.864499329547881"><ele>446.0</ele><time>2026-04-04T07:07:22Z</time></trkpt><trkpt lat="43.980384125898965" lon="10.864709167099805"><ele>446.0</ele><time>2026-04-04T07:07:23Z</time></trkpt><trkpt lat="43.98038291639205" lon="10.864898251589105"><ele>446.0</ele><time>2026-04-04T07:07:24Z</time></trkpt><trkpt lat="43.98038061843992" lon="10.865124143289181"><ele>442.0</ele><time>2026-04-04T07:07:25Z</time></trkpt><trkpt lat="43.98038343602407" lon="10.8653547360671"><ele>438.0</ele><time>2026-04-04T07:07:26Z</time></trkpt><trkpt lat="43.98039918462531" lon="10.865600983080258"><ele>434.0</ele><time>2026-04-04T07:07:27Z</time></trkpt><trkpt lat="43.98041258117444" lon="10.865870016907886"><ele>430.3333333333333</ele><time>2026-04-04T07:07:28Z</time></trkpt><trkpt lat="43.980436188915746" lon="10.866128080024986"><ele>426.66666666666663</ele><time>2026-04-04T07:07:29Z</time></trkpt><trkpt lat="43.98047072080807" lon="10.866368055007426"><ele>423.0</ele><time>2026-04-04T07:07:30Z</time></trkpt><trkpt lat="43.98050149091717" lon="10.866577070428189"><ele>423.0</ele><time>2026-04-04T07:07:31Z</time></trkpt><trkpt lat="43.98053562340104" lon="10.866763517187549"><ele>423.0</ele><time>2026-04-04T07:07:32Z</time></trkpt><trkpt lat="43.98060384467978" lon="10.866945414904546"><ele>423.0</ele><time>2026-04-04T07:07:33Z</time></trkpt><trkpt lat="43.98067140312665" lon="10.867120650475607"><ele>423.0</ele><time>2026-04-04T07:07:34Z</time></trkpt><trkpt lat="43.98073912597785" lon="10.867300238872472"><ele>422.66666666666663</ele><time>2026-04-04T07:07:35Z</time></trkpt><trkpt lat="43.98076983788648" lon="10.867482573884697"><ele>422.3333333333333</ele><time>2026-04-04T07:07:36Z</time></trkpt><trkpt lat="43.98077186722082" lon="10.867698866735946"><ele>422.0</ele><time>2026-04-04T07:07:37Z</time></trkpt><trkpt lat="43.98073669387263" lon="10.867924952934187"><ele>422.0</ele><time>2026-04-04T07:07:38Z</time></trkpt><trkpt lat="43.980692510010165" lon="10.868160527052462"><ele>422.0</ele><time>2026-04-04T07:07:39Z</time></trkpt><trkpt lat="43.98064480119175" lon="10.868410259807812"><ele>422.0</ele><time>2026-04-04T07:07:40Z</time></trkpt><trkpt lat="43.980610775454316" lon="10.868635247730642"><ele>423.75</ele><time>2026-04-04T07:07:41Z</time></trkpt><trkpt lat="43.98057592464585" lon="10.868837026411796"><ele>425.5</ele><time>2026-04-04T07:07:42Z</time></trkpt><trkpt lat="43.98053426614975" lon="10.869027967636102"><ele>427.25</ele><time>2026-04-04T07:07:43Z</time></trkpt><trkpt lat="43.98047372380738" lon="10.86919636988887"><ele>429.0</ele><time>2026-04-04T07:07:44Z</time></trkpt><trkpt lat="43.98037515139228" lon="10.869352199379325"><ele>432.33333333333337</ele><time>2026-04-04T07:07:45Z</time></trkpt><trkpt lat="43.98024929898512" lon="10.869515406370276"><ele>435.6666666666667</ele><time>2026-04-04T07:07:46Z</time></trkpt><trkpt lat="43.98013160438237" lon="10.86970146655999"><ele>439.0</ele><time>2026-04-04T07:07:47Z</time></trkpt><trkpt lat="43.98001330125388" lon="10.869906108337196"><ele>428.0</ele><time>2026-04-04T07:07:48Z</time></trkpt><trkpt lat="43.97989808881681" lon="10.870109487023283"><ele>417.0</ele><time>2026-04-04T07:07:49Z</time></trkpt><trkpt lat="43.979782268300276" lon="10.870288877709175"><ele>406.0</ele><time>2026-04-04T07:07:50Z</time></trkpt><trkpt lat="43.9796580692617" lon="10.870439915316831"><ele>406.0</ele><time>2026-04-04T07:07:51Z</time></trkpt><trkpt lat="43.979532635531235" lon="10.870583665877314"><ele>406.0</ele><time>2026-04-04T07:07:52Z</time></trkpt><trkpt lat="43.979424103174814" lon="10.870725448720084"><ele>406.0</ele><time>2026-04-04T07:07:53Z</time></trkpt><trkpt lat="43.979337526203985" lon="10.870892434603622"><ele>403.6666666666667</ele><time>2026-04-04T07:07:54Z</time></trkpt><trkpt lat="43.9792786600499" lon="10.871083533147953"><ele>401.33333333333337</ele><time>2026-04-04T07:07:55Z</time></trkpt><trkpt lat="43.979223705548094" lon="10.87131714679323"><ele>399.0</ele><time>2026-04-04T07:07:56Z</time></trkpt><trkpt lat="43.97916339951458" lon="10.871560911918202"><ele>390.6666666666667</ele><time>2026-04-04T07:07:57Z</time></trkpt><trkpt lat="43.979088693973814" lon="10.87178214941128"><ele>382.33333333333337</ele><time>2026-04-04T07:07:58Z</time></trkpt><trkpt lat="43.97900322758152" lon="10.871988679509721"><ele>374.0</ele><time>2026-04-04T07:07:59Z</time></trkpt><trkpt lat="43.978911550157804" lon="10.872178248024847"><ele>374.0</ele><time>2026-04-04T07:08:00Z</time></trkpt><trkpt lat="43.978833970850914" lon="10.87235705203282"><ele>374.0</ele><time>2026-04-04T07:08:01Z</time></trkpt><trkpt lat="43.97875244481411" lon="10.872513439701986"><ele>374.0</ele><time>2026-04-04T07:08:02Z</time></trkpt><trkpt lat="43.97863943705149" lon="10.872641883129408"><ele>374.0</ele><time>2026-04-04T07:08:03Z</time></trkpt><trkpt lat="43.978493108230225" lon="10.872734960034405"><ele>371.75</ele><time>2026-04-04T07:08:04Z</time></trkpt><trkpt lat="43.97835021040109" lon="10.872828981153265"><ele>369.5</ele><time>2026-04-04T07:08:05Z</time></trkpt><trkpt lat="43.9782329360183" lon="10.872933260017163"><ele>367.25</ele><time>2026-04-04T07:08:06Z</time></trkpt><trkpt lat="43.97813340313254" lon="10.873022074317612"><ele>365.0</ele><time>2026-04-04T07:08:07Z</time></trkpt><trkpt lat="43.97805996529247" lon="10.873146420896413"><ele>365.0</ele><time>2026-04-04T07:08:08Z</time></trkpt><trkpt lat="43.978021893272576" lon="10.873295048064536"><ele>365.0</ele><time>2026-04-04T07:08:09Z</time></trkpt><trkpt lat="43.978026975429735" lon="10.873449375858533"><ele>365.0</ele><time>2026-04-04T07:08:10Z</time></trkpt><trkpt lat="43.97806193667553" lon="10.873597218828326"><ele>365.0</ele><time>2026-04-04T07:08:11Z</time></trkpt><trkpt lat="43.978131015371325" lon="10.87370297025072"><ele>365.0</ele><time>2026-04-04T07:08:12Z</time></trkpt><trkpt lat="43.97822887979081" lon="10.873777913219646"><ele>362.5</ele><time>2026-04-04T07:08:13Z</time></trkpt><trkpt lat="43.97834880606365" lon="10.873814948796674"><ele>360.0</ele><time>2026-04-04T07:08:14Z</time></trkpt><trkpt lat="43.97848222815252" lon="10.873802284353557"><ele>357.5</ele><time>2026-04-04T07:08:15Z</time></trkpt><trkpt lat="43.97863742953487" lon="10.873732387677018"><ele>355.0</ele><time>2026-04-04T07:08:16Z</time></trkpt><trkpt lat="43.97877720141388" lon="10.873648904043947"><ele>354.75</ele><time>2026-04-04T07:08:17Z</time></trkpt><trkpt lat="43.978896448246246" lon="10.873583718669046"><ele>354.5</ele><time>2026-04-04T07:08:18Z</time></trkpt><trkpt lat="43.97900286627278" lon="10.87354883662011"><ele>354.25</ele><time>2026-04-04T07:08:19Z</time></trkpt><trkpt lat="43.97911700368539" lon="10.873571373116434"><ele>354.0</ele><time>2026-04-04T07:08:20Z</time></trkpt><trkpt lat="43.97922461104269" lon="10.873653819979257"><ele>354.0</ele><time>2026-04-04T07:08:21Z</time></trkpt><trkpt lat="43.97932240484069" lon="10.873790370384652"><ele>354.0</ele><time>2026-04-04T07:08:22Z</time></trkpt><trkpt lat="43.979421986103254" lon="10.873966639124461"><ele>354.0</ele><time>2026-04-04T07:08:23Z</time></trkpt><trkpt lat="43.97952667451204" lon="10.874130924938166"><ele>354.0</ele><time>2026-04-04T07:08:24Z</time></trkpt><trkpt lat="43.97963769816234" lon="10.87425795604305"><ele>354.0</ele><time>2026-04-04T07:08:25Z</time></trkpt><trkpt lat="43.97975857681857" lon="10.874346837394977"><ele>354.0</ele><time>2026-04-04T07:08:26Z</time></trkpt><trkpt lat="43.97988566302338" lon="10.874396874760267"><ele>354.0</ele><time>2026-04-04T07:08:27Z</time></trkpt><trkpt lat="43.980010749025155" lon="10.874422183335772"><ele>353.2</ele><time>2026-04-04T07:08:28Z</time></trkpt><trkpt lat="43.98011549385038" lon="10.874457206596727"><ele>352.4</ele><time>2026-04-04T07:08:29Z</time></trkpt><trkpt lat="43.98019258125712" lon="10.874518236377119"><ele>351.6</ele><time>2026-04-04T07:08:30Z</time></trkpt><trkpt lat="43.98025078225585" lon="10.87462220485707"><ele>350.8</ele><time>2026-04-04T07:08:31Z</time></trkpt><trkpt lat="43.9802630013257" lon="10.874748393242573"><ele>350.0</ele><time>2026-04-04T07:08:32Z</time></trkpt><trkpt lat="43.98022760628138" lon="10.87486294507684"><ele>350.0</ele><time>2026-04-04T07:08:33Z</time></trkpt><trkpt lat="43.980157960646224" lon="10.874942709663626"><ele>350.0</ele><time>2026-04-04T07:08:34Z</time></trkpt><trkpt lat="43.98005296689656" lon="10.874977087190077"><ele>350.0</ele><time>2026-04-04T07:08:35Z</time></trkpt><trkpt lat="43.97992274799042" lon="10.874923845234049"><ele>350.0</ele><time>2026-04-04T07:08:36Z</time></trkpt><trkpt lat="43.97977540746931" lon="10.874876058060195"><ele>346.0</ele><time>2026-04-04T07:08:37Z</time></trkpt><trkpt lat="43.979624325348915" lon="10.874791336446338"><ele>342.0</ele><time>2026-04-04T07:08:38Z</time></trkpt><trkpt lat="43.97946452726334" lon="10.874726338041752"><ele>338.0</ele><time>2026-04-04T07:08:39Z</time></trkpt><trkpt lat="43.97929983447675" lon="10.874696845686126"><ele>335.0</ele><time>2026-04-04T07:08:40Z</time></trkpt><trkpt lat="43.9791365968698" lon="10.874709380014968"><ele>332.0</ele><time>2026-04-04T07:08:41Z</time></trkpt><trkpt lat="43.97898425272835" lon="10.874759915755533"><ele>329.0</ele><time>2026-04-04T07:08:42Z</time></trkpt><trkpt lat="43.978834457529786" lon="10.87485194924322"><ele>329.0</ele><time>2026-04-04T07:08:43Z</time></trkpt><trkpt lat="43.97868556368813" lon="10.874984480636918"><ele>329.0</ele><time>2026-04-04T07:08:44Z</time></trkpt><trkpt lat="43.97853469596648" lon="10.875137107646491"><ele>329.0</ele><time>2026-04-04T07:08:45Z</time></trkpt><trkpt lat="43.978389316171764" lon="10.875285165999886"><ele>322.6666666666667</ele><time>2026-04-04T07:08:46Z</time></trkpt><trkpt lat="43.97825409752315" lon="10.875387373371158"><ele>316.3333333333333</ele><time>2026-04-04T07:08:47Z</time></trkpt><trkpt lat="43.97810825582142" lon="10.875455440368246"><ele>310.0</ele><time>2026-04-04T07:08:48Z</time></trkpt><trkpt lat="43.97794055235448" lon="10.875481618853785"><ele>310.0</ele><time>2026-04-04T07:08:49Z</time></trkpt><trkpt lat="43.977764320433664" lon="10.875484254792715"><ele>310.0</ele><time>2026-04-04T07:08:50Z</time></trkpt><trkpt lat="43.977581179718875" lon="10.875481041297116"><ele>310.0</ele><time>2026-04-04T07:08:51Z</time></trkpt><trkpt lat="43.97739278057587" lon="10.875512588740545"><ele>311.3333333333333</ele><time>2026-04-04T07:08:52Z</time></trkpt><trkpt lat="43.977210818110194" lon="10.875580284172896"><ele>312.6666666666667</ele><time>2026-04-04T07:08:53Z</time></trkpt><trkpt lat="43.97705286224253" lon="10.875646083613631"><ele>314.0</ele><time>2026-04-04T07:08:54Z</time></trkpt><trkpt lat="43.97690467344966" lon="10.87571470904571"><ele>314.0</ele><time>2026-04-04T07:08:55Z</time></trkpt><trkpt lat="43.97676103232455" lon="10.875765055709227"><ele>314.0</ele><time>2026-04-04T07:08:56Z</time></trkpt><trkpt lat="43.976623299082" lon="10.875796893398684"><ele>314.0</ele><time>2026-04-04T07:08:57Z</time></trkpt><trkpt lat="43.97648314988347" lon="10.875788879803116"><ele>314.0</ele><time>2026-04-04T07:08:58Z</time></trkpt><trkpt lat="43.976334885201254" lon="10.875720462949579"><ele>311.6666666666667</ele><time>2026-04-04T07:08:59Z</time></trkpt><trkpt lat="43.97617367924602" lon="10.875642922310917"><ele>309.3333333333333</ele><time>2026-04-04T07:09:00Z</time></trkpt><trkpt lat="43.976017244817086" lon="10.87556575381092"><ele>307.0</ele><time>2026-04-04T07:09:01Z</time></trkpt><trkpt lat="43.975873969856046" lon="10.875510121019058"><ele>305.25</ele><time>2026-04-04T07:09:02Z</time></trkpt><trkpt lat="43.97574719501453" lon="10.875466101969167"><ele>303.5</ele><time>2026-04-04T07:09:03Z</time></trkpt><trkpt lat="43.975618536568376" lon="10.87544738040642"><ele>301.75</ele><time>2026-04-04T07:09:04Z</time></trkpt><trkpt lat="43.97547854403135" lon="10.875477983146979"><ele>300.0</ele><time>2026-04-04T07:09:05Z</time></trkpt><trkpt lat="43.97533625642001" lon="10.875564462453456"><ele>300.0</ele><time>2026-04-04T07:09:06Z</time></trkpt><trkpt lat="43.97517930575127" lon="10.875670541499126"><ele>300.0</ele><time>2026-04-04T07:09:07Z</time></trkpt><trkpt lat="43.97505555607648" lon="10.87574985361575"><ele>300.0</ele><time>2026-04-04T07:09:08Z</time></trkpt><trkpt lat="43.97495666372458" lon="10.875809845302712"><ele>300.0</ele><time>2026-04-04T07:09:09Z</time></trkpt><trkpt lat="43.97485302448658" lon="10.875897204949833"><ele>296.4</ele><time>2026-04-04T07:09:10Z</time></trkpt><trkpt lat="43.97478193614495" lon="10.875997067656918"><ele>292.8</ele><time>2026-04-04T07:09:11Z</time></trkpt><trkpt lat="43.974747091602985" lon="10.87613191699038"><ele>289.2</ele><time>2026-04-04T07:09:12Z</time></trkpt><trkpt lat="43.9747537504819" lon="10.876297846020885"><ele>285.6</ele><time>2026-04-04T07:09:13Z</time></trkpt><trkpt lat="43.97479636483586" lon="10.876436697841376"><ele>282.0</ele><time>2026-04-04T07:09:14Z</time></trkpt><trkpt lat="43.97487482583865" lon="10.87656017584874"><ele>282.0</ele><time>2026-04-04T07:09:15Z</time></trkpt><trkpt lat="43.974996655910935" lon="10.876672279347911"><ele>282.0</ele><time>2026-04-04T07:09:16Z</time></trkpt><trkpt lat="43.97514521211782" lon="10.87678459028409"><ele>282.0</ele><time>2026-04-04T07:09:17Z</time></trkpt><trkpt lat="43.975309718433486" lon="10.876904292199338"><ele>280.3333333333333</ele><time>2026-04-04T07:09:18Z</time></trkpt><trkpt lat="43.975460914339216" lon="10.877030395244853"><ele>278.66666666666663</ele><time>2026-04-04T07:09:19Z</time></trkpt><trkpt lat="43.97560168044962" lon="10.877144517133353"><ele>277.0</ele><time>2026-04-04T07:09:20Z</time></trkpt><trkpt lat="43.97569257940169" lon="10.877233281914696"><ele>277.0</ele><time>2026-04-04T07:09:21Z</time></trkpt><trkpt lat="43.975763591130566" lon="10.877346277164747"><ele>277.0</ele><time>2026-04-04T07:09:22Z</time></trkpt><trkpt lat="43.97580175203861" lon="10.877500685642913"><ele>277.0</ele><time>2026-04-04T07:09:23Z</time></trkpt><trkpt lat="43.975813017415355" lon="10.877682930014322"><ele>277.0</ele><time>2026-04-04T07:09:24Z</time></trkpt><trkpt lat="43.9758001249823" lon="10.877864731562742"><ele>274.75</ele><time>2026-04-04T07:09:25Z</time></trkpt><trkpt lat="43.97577120032165" lon="10.878009092955834"><ele>272.5</ele><time>2026-04-04T07:09:26Z</time></trkpt><trkpt lat="43.975718105395416" lon="10.878145914391439"><ele>270.25</ele><time>2026-04-04T07:09:27Z</time></trkpt><trkpt lat="43.97564784798571" lon="10.87829502968755"><ele>268.0</ele><time>2026-04-04T07:09:28Z</time></trkpt><trkpt lat="43.9755512924706" lon="10.878425368379526"><ele>262.3333333333333</ele><time>2026-04-04T07:09:29Z</time></trkpt><trkpt lat="43.975458189370286" lon="10.878584128869262"><ele>256.6666666666667</ele><time>2026-04-04T07:09:30Z</time></trkpt><trkpt lat="43.97539426495954" lon="10.878768886735648"><ele>251.0</ele><time>2026-04-04T07:09:31Z</time></trkpt><trkpt lat="43.97536025773013" lon="10.878982296566344"><ele>251.0</ele><time>2026-04-04T07:09:32Z</time></trkpt><trkpt lat="43.975339127730884" lon="10.879230774082307"><ele>251.0</ele><time>2026-04-04T07:09:33Z</time></trkpt><trkpt lat="43.97528049971981" lon="10.879468763580617"><ele>251.0</ele><time>2026-04-04T07:09:34Z</time></trkpt><trkpt lat="43.97523776869998" lon="10.879703238295551"><ele>248.33333333333334</ele><time>2026-04-04T07:09:35Z</time></trkpt><trkpt lat="43.975216673274176" lon="10.879933825876362"><ele>245.66666666666669</ele><time>2026-04-04T07:09:36Z</time></trkpt><trkpt lat="43.975187129695435" lon="10.880154512848371"><ele>243.0</ele><time>2026-04-04T07:09:37Z</time></trkpt><trkpt lat="43.975188135975976" lon="10.88036677720725"><ele>242.25</ele><time>2026-04-04T07:09:38Z</time></trkpt><trkpt lat="43.9752055943102" lon="10.880571901282739"><ele>241.5</ele><time>2026-04-04T07:09:39Z</time></trkpt><trkpt lat="43.9752061446087" lon="10.880761263534959"><ele>240.75</ele><time>2026-04-04T07:09:40Z</time></trkpt><trkpt lat="43.97522305259347" lon="10.880930317707483"><ele>240.0</ele><time>2026-04-04T07:09:41Z</time></trkpt><trkpt lat="43.97523614521997" lon="10.881085839406127"><ele>240.75</ele><time>2026-04-04T07:09:42Z</time></trkpt><trkpt lat="43.97519125463961" lon="10.88123258438683"><ele>241.5</ele><time>2026-04-04T07:09:43Z</time></trkpt><trkpt lat="43.97511892784618" lon="10.881349185091942"><ele>242.25</ele><time>2026-04-04T07:09:44Z</time></trkpt><trkpt lat="43.97500681246462" lon="10.881427519908597"><ele>243.0</ele><time>2026-04-04T07:09:45Z</time></trkpt><trkpt lat="43.97486296479704" lon="10.881464295696214"><ele>243.0</ele><time>2026-04-04T07:09:46Z</time></trkpt><trkpt lat="43.97470454401269" lon="10.881532013020413"><ele>243.0</ele><time>2026-04-04T07:09:47Z</time></trkpt><trkpt lat="43.974532458617404" lon="10.881582839767828"><ele>243.0</ele><time>2026-04-04T07:09:48Z</time></trkpt><trkpt lat="43.974362198065315" lon="10.881638850165848"><ele>243.0</ele><time>2026-04-04T07:09:49Z</time></trkpt><trkpt lat="43.97419357275054" lon="10.881701841008656"><ele>243.0</ele><time>2026-04-04T07:09:50Z</time></trkpt><trkpt lat="43.974031353692304" lon="10.881753753441307"><ele>243.0</ele><time>2026-04-04T07:09:51Z</time></trkpt><trkpt lat="43.97387570737019" lon="10.881818157609576"><ele>243.33333333333331</ele><time>2026-04-04T07:09:52Z</time></trkpt><trkpt lat="43.97371736023439" lon="10.881902407493287"><ele>243.66666666666666</ele><time>2026-04-04T07:09:53Z</time></trkpt><trkpt lat="43.973556581851945" lon="10.88201736486616"><ele>244.0</ele><time>2026-04-04T07:09:54Z</time></trkpt><trkpt lat="43.97339229434084" lon="10.882137872514333"><ele>240.75</ele><time>2026-04-04T07:09:55Z</time></trkpt><trkpt lat="43.97325641841292" lon="10.882253725400002"><ele>237.5</ele><time>2026-04-04T07:09:56Z</time></trkpt><trkpt lat="43.97313451065034" lon="10.88235500010396"><ele>234.25</ele><time>2026-04-04T07:09:57Z</time></trkpt><trkpt lat="43.97302346542855" lon="10.882459101914238"><ele>231.0</ele><time>2026-04-04T07:09:58Z</time></trkpt><trkpt lat="43.97293371141318" lon="10.882583540305228"><ele>228.5</ele><time>2026-04-04T07:09:59Z</time></trkpt><trkpt lat="43.97287473419678" lon="10.882732818102808"><ele>226.0</ele><time>2026-04-04T07:10:00Z</time></trkpt><trkpt lat="43.97285064673501" lon="10.882911442986112"><ele>223.5</ele><time>2026-04-04T07:10:01Z</time></trkpt><trkpt lat="43.972867674111335" lon="10.883106460559205"><ele>221.0</ele><time>2026-04-04T07:10:02Z</time></trkpt><trkpt lat="43.97289838223975" lon="10.883284579114099"><ele>218.4</ele><time>2026-04-04T07:10:03Z</time></trkpt><trkpt lat="43.972886481359666" lon="10.883433817243777"><ele>215.8</ele><time>2026-04-04T07:10:04Z</time></trkpt><trkpt lat="43.97283865212462" lon="10.883543004478138"><ele>213.20000000000002</ele><time>2026-04-04T07:10:05Z</time></trkpt><trkpt lat="43.97272415071643" lon="10.883589093348691"><ele>210.60000000000002</ele><time>2026-04-04T07:10:06Z</time></trkpt><trkpt lat="43.97259582393774" lon="10.88361053245504"><ele>208.0</ele><time>2026-04-04T07:10:07Z</time></trkpt><trkpt lat="43.972447762225826" lon="10.883561251159033"><ele>207.33333333333331</ele><time>2026-04-04T07:10:08Z</time></trkpt><trkpt lat="43.972305943606806" lon="10.883447296431463"><ele>206.66666666666669</ele><time>2026-04-04T07:10:09Z</time></trkpt><trkpt lat="43.97217141437627" lon="10.883338675906884"><ele>206.0</ele><time>2026-04-04T07:10:10Z</time></trkpt><trkpt lat="43.97205229763368" lon="10.883244142832579"><ele>206.4</ele><time>2026-04-04T07:10:11Z</time></trkpt><trkpt lat="43.971937595859735" lon="10.883180490911725"><ele>206.8</ele><time>2026-04-04T07:10:12Z</time></trkpt><trkpt lat="43.97183301835033" lon="10.883155684485613"><ele>207.20000000000002</ele><time>2026-04-04T07:10:13Z</time></trkpt><trkpt lat="43.9717308573577" lon="10.88319471509226"><ele>207.60000000000002</ele><time>2026-04-04T07:10:14Z</time></trkpt><trkpt lat="43.971652299369566" lon="10.883290626399521"><ele>208.0</ele><time>2026-04-04T07:10:15Z</time></trkpt><trkpt lat="43.97158503808126" lon="10.883439172241697"><ele>207.5</ele><time>2026-04-04T07:10:16Z</time></trkpt><trkpt lat="43.97157259933772" lon="10.883606415693734"><ele>207.0</ele><time>2026-04-04T07:10:17Z</time></trkpt><trkpt lat="43.971598271064686" lon="10.883765638845679"><ele>206.5</ele><time>2026-04-04T07:10:18Z</time></trkpt><trkpt lat="43.97167203683846" lon="10.883896864705852"><ele>206.0</ele><time>2026-04-04T07:10:19Z</time></trkpt><trkpt lat="43.97176123157226" lon="10.883986715798276"><ele>206.0</ele><time>2026-04-04T07:10:20Z</time></trkpt><trkpt lat="43.97189999465311" lon="10.884076405605292"><ele>206.0</ele><time>2026-04-04T07:10:21Z</time></trkpt><trkpt lat="43.972051096483916" lon="10.884152366154535"><ele>206.0</ele><time>2026-04-04T07:10:22Z</time></trkpt><trkpt lat="43.97221443198325" lon="10.8842416716442"><ele>204.5</ele><time>2026-04-04T07:10:23Z</time></trkpt><trkpt lat="43.97236499230063" lon="10.884324294741234"><ele>203.0</ele><time>2026-04-04T07:10:24Z</time></trkpt><trkpt lat="43.97249085259917" lon="10.884402042841561"><ele>201.5</ele><time>2026-04-04T07:10:25Z</time></trkpt><trkpt lat="43.97260452463883" lon="10.88445604478507"><ele>200.0</ele><time>2026-04-04T07:10:26Z</time></trkpt><trkpt lat="43.972695690023635" lon="10.884511986410018"><ele>200.0</ele><time>2026-04-04T07:10:27Z</time></trkpt><trkpt lat="43.97277253127097" lon="10.884617587217523"><ele>200.0</ele><time>2026-04-04T07:10:28Z</time></trkpt><trkpt lat="43.97282144887787" lon="10.884759290373836"><ele>200.0</ele><time>2026-04-04T07:10:29Z</time></trkpt><trkpt lat="43.97280478928953" lon="10.884904562489279"><ele>200.0</ele><time>2026-04-04T07:10:30Z</time></trkpt><trkpt lat="43.97274509038009" lon="10.885031276256157"><ele>200.0</ele><time>2026-04-04T07:10:31Z</time></trkpt><trkpt lat="43.972651164890365" lon="10.885152730118188"><ele>198.33333333333334</ele><time>2026-04-04T07:10:32Z</time></trkpt><trkpt lat="43.97253131047103" lon="10.885272101390164"><ele>196.66666666666669</ele><time>2026-04-04T07:10:33Z</time></trkpt><trkpt lat="43.97239216385036" lon="10.885389785117969"><ele>195.0</ele><time>2026-04-04T07:10:34Z</time></trkpt><trkpt lat="43.972245652423524" lon="10.885509397698298"><ele>195.0</ele><time>2026-04-04T07:10:35Z</time></trkpt><trkpt lat="43.972105683717466" lon="10.885647249516378"><ele>195.0</ele><time>2026-04-04T07:10:36Z</time></trkpt><trkpt lat="43.97198529472088" lon="10.885817277461758"><ele>195.0</ele><time>2026-04-04T07:10:37Z</time></trkpt><trkpt lat="43.97190042573657" lon="10.885990731428505"><ele>191.0</ele><time>2026-04-04T07:10:38Z</time></trkpt><trkpt lat="43.97182968223342" lon="10.886154908853875"><ele>187.0</ele><time>2026-04-04T07:10:39Z</time></trkpt><trkpt lat="43.971777905081005" lon="10.886320138036552"><ele>183.0</ele><time>2026-04-04T07:10:40Z</time></trkpt><trkpt lat="43.97173956636014" lon="10.886472828368703"><ele>179.0</ele><time>2026-04-04T07:10:41Z</time></trkpt><trkpt lat="43.97171026063267" lon="10.88661847314788"><ele>179.0</ele><time>2026-04-04T07:10:42Z</time></trkpt><trkpt lat="43.971708961771874" lon="10.886751930166866"><ele>179.0</ele><time>2026-04-04T07:10:43Z</time></trkpt><trkpt lat="43.971743619604354" lon="10.886877029297686"><ele>179.0</ele><time>2026-04-04T07:10:44Z</time></trkpt><trkpt lat="43.97181423621156" lon="10.886966488953922"><ele>179.0</ele><time>2026-04-04T07:10:45Z</time></trkpt><trkpt lat="43.971914599300014" lon="10.887002463426388"><ele>179.0</ele><time>2026-04-04T07:10:46Z</time></trkpt><trkpt lat="43.972054263372264" lon="10.8870225690329"><ele>174.33333333333331</ele><time>2026-04-04T07:10:47Z</time></trkpt><trkpt lat="43.97220633581734" lon="10.886999067573006"><ele>169.66666666666666</ele><time>2026-04-04T07:10:48Z</time></trkpt><trkpt lat="43.97237008732812" lon="10.887016053202244"><ele>165.0</ele><time>2026-04-04T07:10:49Z</time></trkpt><trkpt lat="43.972541555022985" lon="10.887049134893694"><ele>165.0</ele><time>2026-04-04T07:10:50Z</time></trkpt><trkpt lat="43.97271814117752" lon="10.8871031184889"><ele>165.0</ele><time>2026-04-04T07:10:51Z</time></trkpt><trkpt lat="43.972889966201876" lon="10.887172931323613"><ele>165.0</ele><time>2026-04-04T07:10:52Z</time></trkpt><trkpt lat="43.973058523665465" lon="10.887246862859435"><ele>165.0</ele><time>2026-04-04T07:10:53Z</time></trkpt><trkpt lat="43.97321040982044" lon="10.887292600332716"><ele>165.0</ele><time>2026-04-04T07:10:54Z</time></trkpt><trkpt lat="43.973351773293125" lon="10.887309149854767"><ele>165.0</ele><time>2026-04-04T07:10:55Z</time></trkpt><trkpt lat="43.97348729802968" lon="10.887307126473848"><ele>165.0</ele><time>2026-04-04T07:10:56Z</time></trkpt><trkpt lat="43.97360685910284" lon="10.887310370121767"><ele>164.0</ele><time>2026-04-04T07:10:57Z</time></trkpt><trkpt lat="43.97371787032491" lon="10.887346699985766"><ele>163.0</ele><time>2026-04-04T07:10:58Z</time></trkpt><trkpt lat="43.97381869348676" lon="10.887421581471308"><ele>162.0</ele><time>2026-04-04T07:10:59Z</time></trkpt><trkpt lat="43.97389366295256" lon="10.8875402182312"><ele>161.0</ele><time>2026-04-04T07:11:00Z</time></trkpt><trkpt lat="43.973930810654196" lon="10.88768910753789"><ele>158.25</ele><time>2026-04-04T07:11:01Z</time></trkpt><trkpt lat="43.97393584821901" lon="10.88787204459579"><ele>155.5</ele><time>2026-04-04T07:11:02Z</time></trkpt><trkpt lat="43.97389755393201" lon="10.888037037922945"><ele>152.75</ele><time>2026-04-04T07:11:03Z</time></trkpt><trkpt lat="43.973833452831556" lon="10.888176259538275"><ele>150.0</ele><time>2026-04-04T07:11:04Z</time></trkpt><trkpt lat="43.97375121785863" lon="10.88830402914727"><ele>150.0</ele><time>2026-04-04T07:11:05Z</time></trkpt><trkpt lat="43.97363870460662" lon="10.888404600364698"><ele>150.0</ele><time>2026-04-04T07:11:06Z</time></trkpt><trkpt lat="43.973483989225926" lon="10.888481982516282"><ele>150.0</ele><time>2026-04-04T07:11:07Z</time></trkpt><trkpt lat="43.973318984679196" lon="10.88853542156687"><ele>145.33333333333334</ele><time>2026-04-04T07:11:08Z</time></trkpt><trkpt lat="43.97313859535098" lon="10.888577434632014"><ele>140.66666666666669</ele><time>2026-04-04T07:11:09Z</time></trkpt><trkpt lat="43.972955451080345" lon="10.888604750367533"><ele>136.0</ele><time>2026-04-04T07:11:10Z</time></trkpt><trkpt lat="43.97276156531166" lon="10.888610995202992"><ele>136.0</ele><time>2026-04-04T07:11:11Z</time></trkpt><trkpt lat="43.97256879415337" lon="10.888609545505643"><ele>136.0</ele><time>2026-04-04T07:11:12Z</time></trkpt><trkpt lat="43.97238753586595" lon="10.888612196994053"><ele>136.0</ele><time>2026-04-04T07:11:13Z</time></trkpt><trkpt lat="43.97220905962721" lon="10.888620692214191"><ele>136.0</ele><time>2026-04-04T07:11:14Z</time></trkpt><trkpt lat="43.972039200111844" lon="10.888655338435058"><ele>136.0</ele><time>2026-04-04T07:11:15Z</time></trkpt><trkpt lat="43.97187864689311" lon="10.888723729778047"><ele>136.0</ele><time>2026-04-04T07:11:16Z</time></trkpt><trkpt lat="43.971715359396796" lon="10.888817019981774"><ele>135.33333333333334</ele><time>2026-04-04T07:11:17Z</time></trkpt><trkpt lat="43.97153955173706" lon="10.888942683845595"><ele>134.66666666666666</ele><time>2026-04-04T07:11:18Z</time></trkpt><trkpt lat="43.97136220492668" lon="10.88904052230244"><ele>134.0</ele><time>2026-04-04T07:11:19Z</time></trkpt><trkpt lat="43.97116576501584" lon="10.889131429752672"><ele>134.0</ele><time>2026-04-04T07:11:20Z</time></trkpt><trkpt lat="43.97096001321854" lon="10.889216906708967"><ele>134.0</ele><time>2026-04-04T07:11:21Z</time></trkpt><trkpt lat="43.970764674530464" lon="10.889259490746637"><ele>134.0</ele><time>2026-04-04T07:11:22Z</time></trkpt><trkpt lat="43.97056138171489" lon="10.889339951021919"><ele>133.0</ele><time>2026-04-04T07:11:23Z</time></trkpt><trkpt lat="43.97035723307688" lon="10.88941145554082"><ele>132.0</ele><time>2026-04-04T07:11:24Z</time></trkpt><trkpt lat="43.97015947559264" lon="10.889485176202726"><ele>131.0</ele><time>2026-04-04T07:11:25Z</time></trkpt><trkpt lat="43.96995299986031" lon="10.889563634950946"><ele>130.33333333333331</ele><time>2026-04-04T07:11:26Z</time></trkpt><trkpt lat="43.96974275679814" lon="10.889642554661862"><ele>129.66666666666666</ele><time>2026-04-04T07:11:27Z</time></trkpt><trkpt lat="43.9695320910533" lon="10.889718016020549"><ele>129.0</ele><time>2026-04-04T07:11:28Z</time></trkpt><trkpt lat="43.96931998308011" lon="10.889800130799246"><ele>129.66666666666666</ele><time>2026-04-04T07:11:29Z</time></trkpt><trkpt lat="43.96910565894543" lon="10.889875288851131"><ele>130.33333333333331</ele><time>2026-04-04T07:11:30Z</time></trkpt><trkpt lat="43.96889306245341" lon="10.889951399381077"><ele>131.0</ele><time>2026-04-04T07:11:31Z</time></trkpt><trkpt lat="43.968676111455714" lon="10.890030451132223"><ele>129.0</ele><time>2026-04-04T07:11:32Z</time></trkpt><trkpt lat="43.96846150861502" lon="10.890123069949848"><ele>127.0</ele><time>2026-04-04T07:11:33Z</time></trkpt><trkpt lat="43.9682448486402" lon="10.890209782662941"><ele>126.5</ele><time>2026-04-04T07:11:34Z</time></trkpt><trkpt lat="43.96802790799742" lon="10.890291595010757"><ele>126.0</ele><time>2026-04-04T07:11:35Z</time></trkpt><trkpt lat="43.96780529479417" lon="10.89037542075021"><ele>126.0</ele><time>2026-04-04T07:11:36Z</time></trkpt><trkpt lat="43.96760316289248" lon="10.89045403780125"><ele>126.0</ele><time>2026-04-04T07:11:37Z</time></trkpt><trkpt lat="43.96740915573233" lon="10.890531432832011"><ele>126.0</ele><time>2026-04-04T07:11:38Z</time></trkpt><trkpt lat="43.9672350931226" lon="10.890601899306905"><ele>126.33333333333334</ele><time>2026-04-04T07:11:39Z</time></trkpt><trkpt lat="43.96706914376306" lon="10.890699773800458"><ele>126.66666666666667</ele><time>2026-04-04T07:11:40Z</time></trkpt><trkpt lat="43.96691762255163" lon="10.890836404107187"><ele>127.0</ele><time>2026-04-04T07:11:41Z</time></trkpt><trkpt lat="43.96678163276403" lon="10.890993433973076"><ele>126.33333333333334</ele><time>2026-04-04T07:11:42Z</time></trkpt><trkpt lat="43.966666392192224" lon="10.891174051290935"><ele>125.66666666666666</ele><time>2026-04-04T07:11:43Z</time></trkpt><trkpt lat="43.9665692876176" lon="10.891393100388452"><ele>125.0</ele><time>2026-04-04T07:11:44Z</time></trkpt><trkpt lat="43.96648891565673" lon="10.891631648063951"><ele>124.33333333333333</ele><time>2026-04-04T07:11:45Z</time></trkpt><trkpt lat="43.96642241434749" lon="10.891890702582286"><ele>123.66666666666666</ele><time>2026-04-04T07:11:46Z</time></trkpt><trkpt lat="43.96635355795326" lon="10.892165046254194"><ele>123.0</ele><time>2026-04-04T07:11:47Z</time></trkpt><trkpt lat="43.96628344322172" lon="10.89243479277366"><ele>122.66666666666666</ele><time>2026-04-04T07:11:48Z</time></trkpt><trkpt lat="43.96620772555317" lon="10.892695032132938"><ele>122.33333333333333</ele><time>2026-04-04T07:11:49Z</time></trkpt><trkpt lat="43.96611903997118" lon="10.892945935119299"><ele>122.0</ele><time>2026-04-04T07:11:50Z</time></trkpt><trkpt lat="43.96602158304449" lon="10.893182772016623"><ele>122.0</ele><time>2026-04-04T07:11:51Z</time></trkpt><trkpt lat="43.96589906395418" lon="10.893395840067532"><ele>122.0</ele><time>2026-04-04T07:11:52Z</time></trkpt><trkpt lat="43.965760400950515" lon="10.893586906051825"><ele>122.0</ele><time>2026-04-04T07:11:53Z</time></trkpt><trkpt lat="43.96560169750226" lon="10.89375125064024"><ele>121.33333333333333</ele><time>2026-04-04T07:11:54Z</time></trkpt><trkpt lat="43.965423150878486" lon="10.893884883977469"><ele>120.66666666666666</ele><time>2026-04-04T07:11:55Z</time></trkpt><trkpt lat="43.965231281821275" lon="10.894025494044339"><ele>120.0</ele><time>2026-04-04T07:11:56Z</time></trkpt><trkpt lat="43.96503076420618" lon="10.894152248216775"><ele>120.5</ele><time>2026-04-04T07:11:57Z</time></trkpt><trkpt lat="43.96482433300916" lon="10.894279073029482"><ele>121.0</ele><time>2026-04-04T07:11:58Z</time></trkpt><trkpt lat="43.96460830027274" lon="10.894401526621673"><ele>121.0</ele><time>2026-04-04T07:11:59Z</time></trkpt><trkpt lat="43.964400032505324" lon="10.89452217124058"><ele>121.0</ele><time>2026-04-04T07:12:00Z</time></trkpt><trkpt lat="43.96418907145965" lon="10.894641486061028"><ele>119.33333333333334</ele><time>2026-04-04T07:12:01Z</time></trkpt><trkpt lat="43.96398053897116" lon="10.89474632919021"><ele>117.66666666666666</ele><time>2026-04-04T07:12:02Z</time></trkpt><trkpt lat="43.9637726621415" lon="10.894845817033884"><ele>116.0</ele><time>2026-04-04T07:12:03Z</time></trkpt><trkpt lat="43.96357234981653" lon="10.894921538034678"><ele>116.0</ele><time>2026-04-04T07:12:04Z</time></trkpt><trkpt lat="43.96336860741511" lon="10.894994642765711"><ele>116.0</ele><time>2026-04-04T07:12:05Z</time></trkpt><trkpt lat="43.96315892884441" lon="10.895044604951925"><ele>116.0</ele><time>2026-04-04T07:12:06Z</time></trkpt><trkpt lat="43.96294500439381" lon="10.89508466373942"><ele>116.0</ele><time>2026-04-04T07:12:07Z</time></trkpt><trkpt lat="43.96273036314817" lon="10.895114138525559"><ele>116.0</ele><time>2026-04-04T07:12:08Z</time></trkpt><trkpt lat="43.9625099456909" lon="10.895154254905474"><ele>116.0</ele><time>2026-04-04T07:12:09Z</time></trkpt><trkpt lat="43.962289573563574" lon="10.895191018715085"><ele>116.0</ele><time>2026-04-04T07:12:10Z</time></trkpt><trkpt lat="43.96206721676306" lon="10.895224616111925"><ele>116.0</ele><time>2026-04-04T07:12:11Z</time></trkpt><trkpt lat="43.96184284335054" lon="10.895258773131985"><ele>116.0</ele><time>2026-04-04T07:12:12Z</time></trkpt><trkpt lat="43.96162102277293" lon="10.895286999318884"><ele>114.5</ele><time>2026-04-04T07:12:13Z</time></trkpt><trkpt lat="43.961396801295884" lon="10.895317715874423"><ele>113.0</ele><time>2026-04-04T07:12:14Z</time></trkpt><trkpt lat="43.96116864803063" lon="10.895348212229026"><ele>113.0</ele><time>2026-04-04T07:12:15Z</time></trkpt><trkpt lat="43.96093442054465" lon="10.895380502335508"><ele>113.0</ele><time>2026-04-04T07:12:16Z</time></trkpt><trkpt lat="43.960705152854885" lon="10.89541215620758"><ele>113.33333333333333</ele><time>2026-04-04T07:12:17Z</time></trkpt><trkpt lat="43.960480876707685" lon="10.895445509303931"><ele>113.66666666666666</ele><time>2026-04-04T07:12:18Z</time></trkpt><trkpt lat="43.960266403513174" lon="10.895480359064788"><ele>114.0</ele><time>2026-04-04T07:12:19Z</time></trkpt><trkpt lat="43.96005230467038" lon="10.89550957024842"><ele>113.66666666666666</ele><time>2026-04-04T07:12:20Z</time></trkpt><trkpt lat="43.9598336200387" lon="10.895541147546464"><ele>113.33333333333333</ele><time>2026-04-04T07:12:21Z</time></trkpt><trkpt lat="43.959614779170806" lon="10.895575410012489"><ele>113.0</ele><time>2026-04-04T07:12:22Z</time></trkpt><trkpt lat="43.95939664121885" lon="10.89560009021858"><ele>112.0</ele><time>2026-04-04T07:12:23Z</time></trkpt><trkpt lat="43.959180934184054" lon="10.895636783716647"><ele>111.0</ele><time>2026-04-04T07:12:24Z</time></trkpt><trkpt lat="43.958955890952765" lon="10.89566913870714"><ele>110.0</ele><time>2026-04-04T07:12:25Z</time></trkpt><trkpt lat="43.95872775154768" lon="10.895703836445014"><ele>110.0</ele><time>2026-04-04T07:12:26Z</time></trkpt><trkpt lat="43.95851567207938" lon="10.895735567169115"><ele>110.0</ele><time>2026-04-04T07:12:27Z</time></trkpt><trkpt lat="43.958316099131906" lon="10.89576397517186"><ele>110.0</ele><time>2026-04-04T07:12:28Z</time></trkpt><trkpt lat="43.95812759719177" lon="10.895787879438533"><ele>109.0</ele><time>2026-04-04T07:12:29Z</time></trkpt><trkpt lat="43.957955668298624" lon="10.895824622790908"><ele>108.0</ele><time>2026-04-04T07:12:30Z</time></trkpt><trkpt lat="43.95778874709825" lon="10.895875828913145"><ele>107.0</ele><time>2026-04-04T07:12:31Z</time></trkpt><trkpt lat="43.957630765424774" lon="10.895952285414264"><ele>106.33333333333333</ele><time>2026-04-04T07:12:32Z</time></trkpt><trkpt lat="43.95748597934507" lon="10.896066849200988"><ele>105.66666666666666</ele><time>2026-04-04T07:12:33Z</time></trkpt><trkpt lat="43.95734882482144" lon="10.896220209122438"><ele>105.0</ele><time>2026-04-04T07:12:34Z</time></trkpt><trkpt lat="43.95723543702135" lon="10.896390739195034"><ele>105.0</ele><time>2026-04-04T07:12:35Z</time></trkpt><trkpt lat="43.95713586637459" lon="10.896597368627038"><ele>105.0</ele><time>2026-04-04T07:12:36Z</time></trkpt><trkpt lat="43.957057896739016" lon="10.896830647129153"><ele>105.0</ele><time>2026-04-04T07:12:37Z</time></trkpt><trkpt lat="43.956989578600684" lon="10.897068255631277"><ele>106.0</ele><time>2026-04-04T07:12:38Z</time></trkpt><trkpt lat="43.95693703961807" lon="10.89729234826933"><ele>107.0</ele><time>2026-04-04T07:12:39Z</time></trkpt><trkpt lat="43.956889061545795" lon="10.897495368807983"><ele>108.0</ele><time>2026-04-04T07:12:40Z</time></trkpt><trkpt lat="43.956841805836085" lon="10.897684551979314"><ele>108.25</ele><time>2026-04-04T07:12:41Z</time></trkpt><trkpt lat="43.95679436476867" lon="10.897863416278788"><ele>108.5</ele><time>2026-04-04T07:12:42Z</time></trkpt><trkpt lat="43.95673840203511" lon="10.898024578076198"><ele>108.75</ele><time>2026-04-04T07:12:43Z</time></trkpt><trkpt lat="43.95667636357951" lon="10.898154740322447"><ele>109.0</ele><time>2026-04-04T07:12:44Z</time></trkpt><trkpt lat="43.956590643841906" lon="10.89825841745191"><ele>108.5</ele><time>2026-04-04T07:12:45Z</time></trkpt><trkpt lat="43.95648251923837" lon="10.898331148397697"><ele>108.0</ele><time>2026-04-04T07:12:46Z</time></trkpt><trkpt lat="43.956373906428716" lon="10.898379735841695"><ele>107.5</ele><time>2026-04-04T07:12:47Z</time></trkpt><trkpt lat="43.956251162220475" lon="10.898388011844457"><ele>107.0</ele><time>2026-04-04T07:12:48Z</time></trkpt><trkpt lat="43.956113535295884" lon="10.898368082873764"><ele>107.0</ele><time>2026-04-04T07:12:49Z</time></trkpt><trkpt lat="43.95596530151862" lon="10.898326284570377"><ele>107.0</ele><time>2026-04-04T07:12:50Z</time></trkpt><trkpt lat="43.95579575452107" lon="10.898280893029364"><ele>107.0</ele><time>2026-04-04T07:12:51Z</time></trkpt><trkpt lat="43.955629967499405" lon="10.898236278082708"><ele>105.0</ele><time>2026-04-04T07:12:52Z</time></trkpt><trkpt lat="43.95545590497994" lon="10.898194844906937"><ele>103.0</ele><time>2026-04-04T07:12:53Z</time></trkpt><trkpt lat="43.95528602528965" lon="10.898143944734139"><ele>101.0</ele><time>2026-04-04T07:12:54Z</time></trkpt><trkpt lat="43.95511009396717" lon="10.898097975417084"><ele>101.66666666666666</ele><time>2026-04-04T07:12:55Z</time></trkpt><trkpt lat="43.954931909400344" lon="10.898052322555337"><ele>102.33333333333334</ele><time>2026-04-04T07:12:56Z</time></trkpt><trkpt lat="43.95473960277951" lon="10.89799735029331"><ele>103.0</ele><time>2026-04-04T07:12:57Z</time></trkpt><trkpt lat="43.95454126033084" lon="10.897932153056734"><ele>103.0</ele><time>2026-04-04T07:12:58Z</time></trkpt><trkpt lat="43.95434711345256" lon="10.897867688907006"><ele>103.0</ele><time>2026-04-04T07:12:59Z</time></trkpt><trkpt lat="43.95414319465486" lon="10.897804447105498"><ele>103.0</ele><time>2026-04-04T07:13:00Z</time></trkpt><trkpt lat="43.953943580844225" lon="10.897741435033401"><ele>102.33333333333334</ele><time>2026-04-04T07:13:01Z</time></trkpt><trkpt lat="43.953739578495814" lon="10.897681566974102"><ele>101.66666666666666</ele><time>2026-04-04T07:13:02Z</time></trkpt><trkpt lat="43.95353502143375" lon="10.897616780044627"><ele>101.0</ele><time>2026-04-04T07:13:03Z</time></trkpt><trkpt lat="43.95332961192946" lon="10.897550457867588"><ele>100.0</ele><time>2026-04-04T07:13:04Z</time></trkpt><trkpt lat="43.953120937168976" lon="10.897484371387687"><ele>99.0</ele><time>2026-04-04T07:13:05Z</time></trkpt><trkpt lat="43.95291309965348" lon="10.89741530540962"><ele>98.0</ele><time>2026-04-04T07:13:06Z</time></trkpt><trkpt lat="43.95270547601035" lon="10.897341639114872"><ele>98.33333333333333</ele><time>2026-04-04T07:13:07Z</time></trkpt><trkpt lat="43.95249513822648" lon="10.89727513382501"><ele>98.66666666666666</ele><time>2026-04-04T07:13:08Z</time></trkpt><trkpt lat="43.95228376013748" lon="10.897210442484162"><ele>99.0</ele><time>2026-04-04T07:13:09Z</time></trkpt><trkpt lat="43.95207079014895" lon="10.897142278979526"><ele>99.0</ele><time>2026-04-04T07:13:10Z</time></trkpt><trkpt lat="43.951857452413314" lon="10.897076430128074"><ele>99.0</ele><time>2026-04-04T07:13:11Z</time></trkpt><trkpt lat="43.95164565395088" lon="10.897012400205996"><ele>99.0</ele><time>2026-04-04T07:13:12Z</time></trkpt><trkpt lat="43.95144716487275" lon="10.896946856161756"><ele>98.33333333333334</ele><time>2026-04-04T07:13:13Z</time></trkpt><trkpt lat="43.95124889230792" lon="10.89688356819254"><ele>97.66666666666667</ele><time>2026-04-04T07:13:14Z</time></trkpt><trkpt lat="43.95106076950952" lon="10.896827702936818"><ele>97.0</ele><time>2026-04-04T07:13:15Z</time></trkpt><trkpt lat="43.95086459855912" lon="10.896766720152204"><ele>96.33333333333334</ele><time>2026-04-04T07:13:16Z</time></trkpt><trkpt lat="43.950667690204966" lon="10.896701873874138"><ele>95.66666666666667</ele><time>2026-04-04T07:13:17Z</time></trkpt><trkpt lat="43.95048075605341" lon="10.896637588415288"><ele>95.0</ele><time>2026-04-04T07:13:18Z</time></trkpt><trkpt lat="43.9502955526046" lon="10.896572219630075"><ele>95.0</ele><time>2026-04-04T07:13:19Z</time></trkpt><trkpt lat="43.95011041780094" lon="10.896510897651362"><ele>95.0</ele><time>2026-04-04T07:13:20Z</time></trkpt><trkpt lat="43.94992372229066" lon="10.896452343577433"><ele>95.0</ele><time>2026-04-04T07:13:21Z</time></trkpt><trkpt lat="43.949734046585405" lon="10.896392138942488"><ele>95.0</ele><time>2026-04-04T07:13:22Z</time></trkpt><trkpt lat="43.94955327722052" lon="10.896336016353395"><ele>95.0</ele><time>2026-04-04T07:13:23Z</time></trkpt><trkpt lat="43.949376172196054" lon="10.896283817417304"><ele>95.0</ele><time>2026-04-04T07:13:24Z</time></trkpt><trkpt lat="43.94920680294114" lon="10.896230659023336"><ele>94.66666666666667</ele><time>2026-04-04T07:13:25Z</time></trkpt><trkpt lat="43.949046261692146" lon="10.896178265324927"><ele>94.33333333333333</ele><time>2026-04-04T07:13:26Z</time></trkpt><trkpt lat="43.948894610843666" lon="10.896128311621144"><ele>94.0</ele><time>2026-04-04T07:13:27Z</time></trkpt><trkpt lat="43.94874840284198" lon="10.896076603210679"><ele>94.0</ele><time>2026-04-04T07:13:28Z</time></trkpt><trkpt lat="43.94861790451958" lon="10.896027110510556"><ele>94.0</ele><time>2026-04-04T07:13:29Z</time></trkpt><trkpt lat="43.94849026138819" lon="10.8959843340856"><ele>94.0</ele><time>2026-04-04T07:13:30Z</time></trkpt><trkpt lat="43.948376973412344" lon="10.895947119197206"><ele>94.0</ele><time>2026-04-04T07:13:31Z</time></trkpt><trkpt lat="43.94827668161742" lon="10.895916390520938"><ele>93.5</ele><time>2026-04-04T07:13:32Z</time></trkpt><trkpt lat="43.948192128203935" lon="10.895887867738494"><ele>93.0</ele><time>2026-04-04T07:13:33Z</time></trkpt><trkpt lat="43.94812325381644" lon="10.895853498769213"><ele>92.5</ele><time>2026-04-04T07:13:34Z</time></trkpt><trkpt lat="43.94802562858982" lon="10.895759669491285"><ele>92.0</ele><time>2026-04-04T07:13:36Z</time></trkpt><trkpt lat="43.94797630136768" lon="10.895648747299024"><ele>91.5</ele><time>2026-04-04T07:13:38Z</time></trkpt><trkpt lat="43.947960888314704" lon="10.89555984676531"><ele>91.0</ele><time>2026-04-04T07:13:40Z</time></trkpt><trkpt lat="43.94792450178106" lon="10.89546599345128"><ele>91.0</ele><time>2026-04-04T07:14:26Z</time></trkpt><trkpt lat="43.947852426808076" lon="10.895472130474744"><ele>91.0</ele><time>2026-04-04T07:14:50Z</time></trkpt><trkpt lat="43.94779999880733" lon="10.895406101597256"><ele>91.0</ele><time>2026-04-04T07:21:54Z</time></trkpt><trkpt lat="43.9477295018281" lon="10.895413172752894"><ele>91.0</ele><time>2026-04-04T07:24:56Z</time></trkpt><trkpt lat="43.947649636330944" lon="10.895404717959405"><ele>91.0</ele><time>2026-04-04T07:24:59Z</time></trkpt><trkpt lat="43.94758457987861" lon="10.895468333712003"><ele>91.0</ele><time>2026-04-04T07:25:02Z</time></trkpt><trkpt lat="43.94757450542189" lon="10.89556790759277"><ele>91.0</ele><time>2026-04-04T07:25:04Z</time></trkpt><trkpt lat="43.947488792025794" lon="10.895611637272712"><ele>90.8</ele><time>2026-04-04T07:25:06Z</time></trkpt><trkpt lat="43.94741018727025" lon="10.895597656730994"><ele>90.6</ele><time>2026-04-04T07:25:07Z</time></trkpt><trkpt lat="43.94731606638896" lon="10.895568570070997"><ele>90.4</ele><time>2026-04-04T07:25:08Z</time></trkpt><trkpt lat="43.947221784763926" lon="10.895550534017257"><ele>90.2</ele><time>2026-04-04T07:25:09Z</time></trkpt><trkpt lat="43.94712089274281" lon="10.895530616825592"><ele>90.0</ele><time>2026-04-04T07:25:10Z</time></trkpt><trkpt lat="43.94702672345066" lon="10.895497043551444"><ele>90.0</ele><time>2026-04-04T07:25:11Z</time></trkpt><trkpt lat="43.946933467080555" lon="10.895469552218179"><ele>90.0</ele><time>2026-04-04T07:25:12Z</time></trkpt><trkpt lat="43.94682906019749" lon="10.895437593446909"><ele>90.0</ele><time>2026-04-04T07:25:13Z</time></trkpt><trkpt lat="43.94670839376031" lon="10.895410099999799"><ele>90.0</ele><time>2026-04-04T07:25:14Z</time></trkpt><trkpt lat="43.94657215269845" lon="10.895376157369958"><ele>89.66666666666667</ele><time>2026-04-04T07:25:15Z</time></trkpt><trkpt lat="43.9464207018574" lon="10.895332902988049"><ele>89.33333333333334</ele><time>2026-04-04T07:25:16Z</time></trkpt><trkpt lat="43.94626735582441" lon="10.895280206500773"><ele>89.0</ele><time>2026-04-04T07:25:17Z</time></trkpt><trkpt lat="43.946109984142495" lon="10.895223594481136"><ele>89.0</ele><time>2026-04-04T07:25:18Z</time></trkpt><trkpt lat="43.945956962599766" lon="10.895161800607658"><ele>89.0</ele><time>2026-04-04T07:25:19Z</time></trkpt><trkpt lat="43.94579322513565" lon="10.89511671338667"><ele>89.0</ele><time>2026-04-04T07:25:20Z</time></trkpt><trkpt lat="43.9456239457182" lon="10.89506923226114"><ele>88.33333333333334</ele><time>2026-04-04T07:25:21Z</time></trkpt><trkpt lat="43.94544714038906" lon="10.895010288006036"><ele>87.66666666666667</ele><time>2026-04-04T07:25:22Z</time></trkpt><trkpt lat="43.94527465960643" lon="10.894948318117024"><ele>87.0</ele><time>2026-04-04T07:25:23Z</time></trkpt><trkpt lat="43.945092691018274" lon="10.894877941343207"><ele>86.0</ele><time>2026-04-04T07:25:24Z</time></trkpt><trkpt lat="43.94490763132657" lon="10.894819332733867"><ele>85.0</ele><time>2026-04-04T07:25:25Z</time></trkpt><trkpt lat="43.94472018571422" lon="10.89476260827101"><ele>84.0</ele><time>2026-04-04T07:25:26Z</time></trkpt><trkpt lat="43.94453219371679" lon="10.894706282836912"><ele>84.0</ele><time>2026-04-04T07:25:27Z</time></trkpt><trkpt lat="43.94434528858987" lon="10.894635937723516"><ele>84.0</ele><time>2026-04-04T07:25:28Z</time></trkpt><trkpt lat="43.94416908009924" lon="10.894584397276768"><ele>84.0</ele><time>2026-04-04T07:25:29Z</time></trkpt><trkpt lat="43.94400169926665" lon="10.894533357638823"><ele>84.33333333333333</ele><time>2026-04-04T07:25:30Z</time></trkpt><trkpt lat="43.9438559755961" lon="10.894479256238716"><ele>84.66666666666666</ele><time>2026-04-04T07:25:31Z</time></trkpt><trkpt lat="43.943706743705405" lon="10.894425406375722"><ele>85.0</ele><time>2026-04-04T07:25:32Z</time></trkpt><trkpt lat="43.94355228728203" lon="10.894366752830315"><ele>85.0</ele><time>2026-04-04T07:25:33Z</time></trkpt><trkpt lat="43.943371548779574" lon="10.894316068036336"><ele>85.0</ele><time>2026-04-04T07:25:34Z</time></trkpt><trkpt lat="43.94318046345308" lon="10.894261225454864"><ele>85.0</ele><time>2026-04-04T07:25:35Z</time></trkpt><trkpt lat="43.942981756137684" lon="10.894200081492897"><ele>85.0</ele><time>2026-04-04T07:25:36Z</time></trkpt><trkpt lat="43.94278398887384" lon="10.894125846607395"><ele>85.0</ele><time>2026-04-04T07:25:37Z</time></trkpt><trkpt lat="43.94258887383145" lon="10.894062080033313"><ele>85.0</ele><time>2026-04-04T07:25:38Z</time></trkpt><trkpt lat="43.94238956326348" lon="10.893992041896038"><ele>85.0</ele><time>2026-04-04T07:25:39Z</time></trkpt><trkpt lat="43.94218411331227" lon="10.893923574223969"><ele>85.0</ele><time>2026-04-04T07:25:40Z</time></trkpt><trkpt lat="43.94198070828329" lon="10.89385923825178"><ele>85.0</ele><time>2026-04-04T07:25:41Z</time></trkpt><trkpt lat="43.941774136876546" lon="10.893793494732662"><ele>84.33333333333333</ele><time>2026-04-04T07:25:42Z</time></trkpt><trkpt lat="43.94155050602345" lon="10.893727833099586"><ele>83.66666666666667</ele><time>2026-04-04T07:25:43Z</time></trkpt><trkpt lat="43.941338102772356" lon="10.893661581567299"><ele>83.0</ele><time>2026-04-04T07:25:44Z</time></trkpt><trkpt lat="43.94112862683512" lon="10.893590535607526"><ele>83.0</ele><time>2026-04-04T07:25:45Z</time></trkpt><trkpt lat="43.94094200282647" lon="10.893521257057973"><ele>83.0</ele><time>2026-04-04T07:25:46Z</time></trkpt><trkpt lat="43.94075749533151" lon="10.893465597299155"><ele>83.0</ele><time>2026-04-04T07:25:47Z</time></trkpt><trkpt lat="43.94057997404354" lon="10.893409787148142"><ele>82.66666666666667</ele><time>2026-04-04T07:25:48Z</time></trkpt><trkpt lat="43.940387217483305" lon="10.893369491186013"><ele>82.33333333333333</ele><time>2026-04-04T07:25:49Z</time></trkpt><trkpt lat="43.94018797240049" lon="10.893330095909423"><ele>82.0</ele><time>2026-04-04T07:25:50Z</time></trkpt><trkpt lat="43.9399954736639" lon="10.893311078662206"><ele>82.0</ele><time>2026-04-04T07:25:51Z</time></trkpt><trkpt lat="43.93980988730919" lon="10.8933043331792"><ele>82.0</ele><time>2026-04-04T07:25:52Z</time></trkpt><trkpt lat="43.93963441002279" lon="10.893311725912147"><ele>82.0</ele><time>2026-04-04T07:25:53Z</time></trkpt><trkpt lat="43.93947022834796" lon="10.893311813887834"><ele>82.0</ele><time>2026-04-04T07:25:54Z</time></trkpt><trkpt lat="43.93930647408035" lon="10.89331197844434"><ele>82.0</ele><time>2026-04-04T07:25:55Z</time></trkpt><trkpt lat="43.939148537788896" lon="10.893302169948884"><ele>82.0</ele><time>2026-04-04T07:25:56Z</time></trkpt><trkpt lat="43.93899274371681" lon="10.893314089419958"><ele>82.0</ele><time>2026-04-04T07:25:57Z</time></trkpt><trkpt lat="43.93881438664924" lon="10.893309378591887"><ele>82.0</ele><time>2026-04-04T07:25:58Z</time></trkpt><trkpt lat="43.93865421615118" lon="10.893317190321833"><ele>82.0</ele><time>2026-04-04T07:25:59Z</time></trkpt><trkpt lat="43.93849614585773" lon="10.893312945945336"><ele>81.5</ele><time>2026-04-04T07:26:00Z</time></trkpt><trkpt lat="43.93834875815047" lon="10.893302853035946"><ele>81.0</ele><time>2026-04-04T07:26:01Z</time></trkpt><trkpt lat="43.938205576480236" lon="10.893299991066709"><ele>80.5</ele><time>2026-04-04T07:26:02Z</time></trkpt><trkpt lat="43.93806759792003" lon="10.893301085351332"><ele>80.0</ele><time>2026-04-04T07:26:03Z</time></trkpt><trkpt lat="43.93792974335046" lon="10.89330136208013"><ele>80.0</ele><time>2026-04-04T07:26:04Z</time></trkpt><trkpt lat="43.937791404708605" lon="10.893298957348398"><ele>80.0</ele><time>2026-04-04T07:26:05Z</time></trkpt><trkpt lat="43.93764359628995" lon="10.893300323071132"><ele>80.0</ele><time>2026-04-04T07:26:06Z</time></trkpt><trkpt lat="43.937496810865866" lon="10.893294256432375"><ele>80.0</ele><time>2026-04-04T07:26:07Z</time></trkpt><trkpt lat="43.93735023283681" lon="10.89329753449944"><ele>79.75</ele><time>2026-04-04T07:26:08Z</time></trkpt><trkpt lat="43.937210052738195" lon="10.893312343816168"><ele>79.5</ele><time>2026-04-04T07:26:09Z</time></trkpt><trkpt lat="43.937065202309014" lon="10.893308073905986"><ele>79.25</ele><time>2026-04-04T07:26:10Z</time></trkpt><trkpt lat="43.936925752649906" lon="10.893302089007408"><ele>79.0</ele><time>2026-04-04T07:26:11Z</time></trkpt><trkpt lat="43.93680009263593" lon="10.893294550490458"><ele>78.25</ele><time>2026-04-04T07:26:12Z</time></trkpt><trkpt lat="43.93666856073609" lon="10.89330470191271"><ele>77.5</ele><time>2026-04-04T07:26:13Z</time></trkpt><trkpt lat="43.93653192593564" lon="10.893316206650749"><ele>76.75</ele><time>2026-04-04T07:26:14Z</time></trkpt><trkpt lat="43.93640535139407" lon="10.893313785486642"><ele>76.0</ele><time>2026-04-04T07:26:15Z</time></trkpt><trkpt lat="43.936275784465195" lon="10.893312417089113"><ele>76.0</ele><time>2026-04-04T07:26:16Z</time></trkpt><trkpt lat="43.93613089874787" lon="10.893310965780548"><ele>76.0</ele><time>2026-04-04T07:26:17Z</time></trkpt><trkpt lat="43.93598638781273" lon="10.89331833159037"><ele>76.0</ele><time>2026-04-04T07:26:18Z</time></trkpt><trkpt lat="43.93585081798964" lon="10.893315006820027"><ele>76.0</ele><time>2026-04-04T07:26:19Z</time></trkpt><trkpt lat="43.93572249566377" lon="10.893314139255228"><ele>75.75</ele><time>2026-04-04T07:26:20Z</time></trkpt><trkpt lat="43.93560320719652" lon="10.893306992172434"><ele>75.5</ele><time>2026-04-04T07:26:21Z</time></trkpt><trkpt lat="43.9354819029849" lon="10.893311757463868"><ele>75.25</ele><time>2026-04-04T07:26:22Z</time></trkpt><trkpt lat="43.93535716520072" lon="10.893310168525126"><ele>75.0</ele><time>2026-04-04T07:26:23Z</time></trkpt><trkpt lat="43.93522292378867" lon="10.893307067854296"><ele>75.0</ele><time>2026-04-04T07:26:24Z</time></trkpt><trkpt lat="43.935090413636885" lon="10.893305517255591"><ele>75.0</ele><time>2026-04-04T07:26:25Z</time></trkpt><trkpt lat="43.93495738448885" lon="10.893304362632533"><ele>75.0</ele><time>2026-04-04T07:26:26Z</time></trkpt><trkpt lat="43.93481977255467" lon="10.893299329610912"><ele>75.0</ele><time>2026-04-04T07:26:27Z</time></trkpt><trkpt lat="43.93469216360655" lon="10.893299305387266"><ele>74.75</ele><time>2026-04-04T07:26:28Z</time></trkpt><trkpt lat="43.934569457799995" lon="10.893295929159386"><ele>74.5</ele><time>2026-04-04T07:26:29Z</time></trkpt><trkpt lat="43.934458262804654" lon="10.89328460639945"><ele>74.25</ele><time>2026-04-04T07:26:30Z</time></trkpt><trkpt lat="43.934344076076066" lon="10.893284920759662"><ele>74.0</ele><time>2026-04-04T07:26:31Z</time></trkpt><trkpt lat="43.93421139093278" lon="10.893288697513308"><ele>74.5</ele><time>2026-04-04T07:26:32Z</time></trkpt><trkpt lat="43.934081589648954" lon="10.89328996651796"><ele>75.0</ele><time>2026-04-04T07:26:33Z</time></trkpt><trkpt lat="43.93395345912789" lon="10.893279749362337"><ele>75.5</ele><time>2026-04-04T07:26:34Z</time></trkpt><trkpt lat="43.93382230749971" lon="10.89328176207206"><ele>76.0</ele><time>2026-04-04T07:26:35Z</time></trkpt><trkpt lat="43.93370554406589" lon="10.893278409176029"><ele>76.0</ele><time>2026-04-04T07:26:36Z</time></trkpt><trkpt lat="43.93358713947349" lon="10.893281919700247"><ele>76.0</ele><time>2026-04-04T07:26:37Z</time></trkpt><trkpt lat="43.93346423193846" lon="10.893274700434345"><ele>76.0</ele><time>2026-04-04T07:26:38Z</time></trkpt><trkpt lat="43.933331641776576" lon="10.89327717098277"><ele>76.0</ele><time>2026-04-04T07:26:39Z</time></trkpt><trkpt lat="43.93319544255724" lon="10.893282337937645"><ele>75.25</ele><time>2026-04-04T07:26:40Z</time></trkpt><trkpt lat="43.93306390352561" lon="10.89328671444609"><ele>74.5</ele><time>2026-04-04T07:26:41Z</time></trkpt><trkpt lat="43.93293881154601" lon="10.893299529197153"><ele>73.75</ele><time>2026-04-04T07:26:42Z</time></trkpt><trkpt lat="43.93281074330361" lon="10.893307898357797"><ele>73.0</ele><time>2026-04-04T07:26:43Z</time></trkpt><trkpt lat="43.93267988191782" lon="10.893311952576248"><ele>73.0</ele><time>2026-04-04T07:26:44Z</time></trkpt><trkpt lat="43.932557461006" lon="10.893302070513403"><ele>73.0</ele><time>2026-04-04T07:26:45Z</time></trkpt><trkpt lat="43.932435954749316" lon="10.893295343745129"><ele>73.0</ele><time>2026-04-04T07:26:46Z</time></trkpt><trkpt lat="43.93231204729364" lon="10.893288227794898"><ele>73.0</ele><time>2026-04-04T07:26:47Z</time></trkpt><trkpt lat="43.932181228962726" lon="10.893268441198392"><ele>72.75</ele><time>2026-04-04T07:26:48Z</time></trkpt><trkpt lat="43.932040629020456" lon="10.89325600538704"><ele>72.5</ele><time>2026-04-04T07:26:49Z</time></trkpt><trkpt lat="43.93190085780912" lon="10.893258578827831"><ele>72.25</ele><time>2026-04-04T07:26:50Z</time></trkpt><trkpt lat="43.931773409576685" lon="10.893267974548133"><ele>72.0</ele><time>2026-04-04T07:26:51Z</time></trkpt><trkpt lat="43.93166052798169" lon="10.893277439595602"><ele>72.0</ele><time>2026-04-04T07:26:52Z</time></trkpt><trkpt lat="43.93155617313284" lon="10.89326968359861"><ele>72.0</ele><time>2026-04-04T07:26:53Z</time></trkpt><trkpt lat="43.93146483073076" lon="10.893243517842372"><ele>72.0</ele><time>2026-04-04T07:26:54Z</time></trkpt><trkpt lat="43.93138472152289" lon="10.893205965404825"><ele>72.0</ele><time>2026-04-04T07:26:55Z</time></trkpt><trkpt lat="43.93132375566877" lon="10.893148610791933"><ele>72.0</ele><time>2026-04-04T07:26:56Z</time></trkpt><trkpt lat="43.9312603683403" lon="10.893019015218417"><ele>72.0</ele><time>2026-04-04T07:26:58Z</time></trkpt><trkpt lat="43.93122895742296" lon="10.892865834681213"><ele>72.0</ele><time>2026-04-04T07:27:00Z</time></trkpt><trkpt lat="43.931242138943404" lon="10.892692181351528"><ele>72.0</ele><time>2026-04-04T07:27:02Z</time></trkpt><trkpt lat="43.93124609732528" lon="10.892598230619884"><ele>72.0</ele><time>2026-04-04T07:27:03Z</time></trkpt><trkpt lat="43.93125358638611" lon="10.892501781533296"><ele>72.0</ele><time>2026-04-04T07:27:04Z</time></trkpt><trkpt lat="43.9312645095836" lon="10.892341002323608"><ele>72.2</ele><time>2026-04-04T07:27:06Z</time></trkpt><trkpt lat="43.93128634092386" lon="10.892155615621252"><ele>72.4</ele><time>2026-04-04T07:27:08Z</time></trkpt><trkpt lat="43.9312973768651" lon="10.892060682113998"><ele>72.6</ele><time>2026-04-04T07:27:09Z</time></trkpt><trkpt lat="43.93131110886948" lon="10.891957252350226"><ele>72.8</ele><time>2026-04-04T07:27:10Z</time></trkpt><trkpt lat="43.93132132881834" lon="10.89186691451068"><ele>73.0</ele><time>2026-04-04T07:27:11Z</time></trkpt><trkpt lat="43.93134433771631" lon="10.891698017509334"><ele>73.0</ele><time>2026-04-04T07:27:13Z</time></trkpt><trkpt lat="43.9313607864665" lon="10.891546586115782"><ele>73.0</ele><time>2026-04-04T07:27:15Z</time></trkpt><trkpt lat="43.93139622942757" lon="10.891431888024902"><ele>73.0</ele><time>2026-04-04T07:27:17Z</time></trkpt><trkpt lat="43.931444008035335" lon="10.891341582023125"><ele>73.0</ele><time>2026-04-04T07:27:19Z</time></trkpt><trkpt lat="43.93151286698227" lon="10.891268810127958"><ele>73.0</ele><time>2026-04-04T07:27:21Z</time></trkpt><trkpt lat="43.93157079148369" lon="10.891234212853186"><ele>73.0</ele><time>2026-04-04T07:27:23Z</time></trkpt><trkpt lat="43.93163895376209" lon="10.891229010194845"><ele>73.0</ele><time>2026-04-04T07:27:35Z</time></trkpt><trkpt lat="43.93171309021979" lon="10.89123068196671"><ele>73.0</ele><time>2026-04-04T07:27:38Z</time></trkpt><trkpt lat="43.93178926500912" lon="10.891254139139795"><ele>73.0</ele><time>2026-04-04T07:27:44Z</time></trkpt><trkpt lat="43.931862584684" lon="10.89125334572092"><ele>73.0</ele><time>2026-04-04T07:27:47Z</time></trkpt><trkpt lat="43.93193547416703" lon="10.891217123559876"><ele>73.0</ele><time>2026-04-04T07:27:49Z</time></trkpt><trkpt lat="43.93197833794911" lon="10.891083099179472"><ele>73.0</ele><time>2026-04-04T07:27:51Z</time></trkpt><trkpt lat="43.931974821705055" lon="10.890980079901938"><ele>72.8</ele><time>2026-04-04T07:27:52Z</time></trkpt><trkpt lat="43.93196365401698" lon="10.89086488554533"><ele>72.6</ele><time>2026-04-04T07:27:53Z</time></trkpt><trkpt lat="43.93195458232809" lon="10.890747245908301"><ele>72.4</ele><time>2026-04-04T07:27:54Z</time></trkpt><trkpt lat="43.931934758654876" lon="10.890606325614167"><ele>72.2</ele><time>2026-04-04T07:27:55Z</time></trkpt><trkpt lat="43.931912480574304" lon="10.890467801044547"><ele>72.0</ele><time>2026-04-04T07:27:56Z</time></trkpt><trkpt lat="43.93188851486155" lon="10.89029950362805"><ele>72.0</ele><time>2026-04-04T07:27:57Z</time></trkpt><trkpt lat="43.93188140483155" lon="10.890103706193491"><ele>72.0</ele><time>2026-04-04T07:27:58Z</time></trkpt><trkpt lat="43.931852422042596" lon="10.889897145793372"><ele>72.0</ele><time>2026-04-04T07:27:59Z</time></trkpt><trkpt lat="43.93182525170383" lon="10.889698261813153"><ele>72.0</ele><time>2026-04-04T07:28:00Z</time></trkpt><trkpt lat="43.93179941674739" lon="10.889512179083752"><ele>72.0</ele><time>2026-04-04T07:28:01Z</time></trkpt><trkpt lat="43.93176767774942" lon="10.889367538056181"><ele>72.0</ele><time>2026-04-04T07:28:02Z</time></trkpt><trkpt lat="43.93177185971107" lon="10.88926859116524"><ele>72.0</ele><time>2026-04-04T07:28:03Z</time></trkpt><trkpt lat="43.931756105809676" lon="10.889176492047753"><ele>72.0</ele><time>2026-04-04T07:28:04Z</time></trkpt><trkpt lat="43.93173423025256" lon="10.889020929250343"><ele>72.0</ele><time>2026-04-04T07:28:06Z</time></trkpt><trkpt lat="43.93171679984642" lon="10.888931706389899"><ele>72.0</ele><time>2026-04-04T07:28:07Z</time></trkpt><trkpt lat="43.93169882317031" lon="10.88881610388709"><ele>72.25</ele><time>2026-04-04T07:28:08Z</time></trkpt><trkpt lat="43.93166700086596" lon="10.888673516774459"><ele>72.5</ele><time>2026-04-04T07:28:09Z</time></trkpt><trkpt lat="43.931656875032715" lon="10.888495103377556"><ele>72.75</ele><time>2026-04-04T07:28:10Z</time></trkpt><trkpt lat="43.93161940746802" lon="10.88831472269416"><ele>73.0</ele><time>2026-04-04T07:28:11Z</time></trkpt><trkpt lat="43.93160081337687" lon="10.888111216629511"><ele>73.0</ele><time>2026-04-04T07:28:12Z</time></trkpt><trkpt lat="43.93157638750939" lon="10.887899017241697"><ele>73.0</ele><time>2026-04-04T07:28:13Z</time></trkpt><trkpt lat="43.93154474419766" lon="10.887676288663195"><ele>73.0</ele><time>2026-04-04T07:28:14Z</time></trkpt><trkpt lat="43.93150995163297" lon="10.887453282514493"><ele>73.0</ele><time>2026-04-04T07:28:15Z</time></trkpt><trkpt lat="43.931483661613946" lon="10.887240068162166"><ele>73.0</ele><time>2026-04-04T07:28:16Z</time></trkpt><trkpt lat="43.931446125710764" lon="10.887008776495659"><ele>73.0</ele><time>2026-04-04T07:28:17Z</time></trkpt><trkpt lat="43.93141496106226" lon="10.88677723955827"><ele>73.33333333333333</ele><time>2026-04-04T07:28:18Z</time></trkpt><trkpt lat="43.931378762804364" lon="10.886546831999713"><ele>73.66666666666667</ele><time>2026-04-04T07:28:19Z</time></trkpt><trkpt lat="43.93133927505125" lon="10.886312759434299"><ele>74.0</ele><time>2026-04-04T07:28:20Z</time></trkpt><trkpt lat="43.931306565346695" lon="10.886076489210849"><ele>76.0</ele><time>2026-04-04T07:28:21Z</time></trkpt><trkpt lat="43.93126875063681" lon="10.885839786435216"><ele>78.0</ele><time>2026-04-04T07:28:22Z</time></trkpt><trkpt lat="43.93122658463912" lon="10.885592531223367"><ele>80.0</ele><time>2026-04-04T07:28:23Z</time></trkpt><trkpt lat="43.93119143522369" lon="10.885345054053438"><ele>81.33333333333334</ele><time>2026-04-04T07:28:24Z</time></trkpt><trkpt lat="43.931155566786494" lon="10.885092748063768"><ele>82.66666666666667</ele><time>2026-04-04T07:28:25Z</time></trkpt><trkpt lat="43.93113346853706" lon="10.884838396761829"><ele>84.0</ele><time>2026-04-04T07:28:26Z</time></trkpt><trkpt lat="43.93110063382412" lon="10.884583006823263"><ele>84.0</ele><time>2026-04-04T07:28:27Z</time></trkpt><trkpt lat="43.93106128890886" lon="10.88433810393682"><ele>84.0</ele><time>2026-04-04T07:28:28Z</time></trkpt><trkpt lat="43.93101757020641" lon="10.884094349035125"><ele>84.0</ele><time>2026-04-04T07:28:29Z</time></trkpt><trkpt lat="43.9309866936504" lon="10.88386974030697"><ele>84.33333333333333</ele><time>2026-04-04T07:28:30Z</time></trkpt><trkpt lat="43.93095317496573" lon="10.88362503230083"><ele>84.66666666666666</ele><time>2026-04-04T07:28:31Z</time></trkpt><trkpt lat="43.930911048267845" lon="10.883381072375967"><ele>85.0</ele><time>2026-04-04T07:28:32Z</time></trkpt><trkpt lat="43.930864155155255" lon="10.883157723288651"><ele>88.66666666666666</ele><time>2026-04-04T07:28:33Z</time></trkpt><trkpt lat="43.930827222706064" lon="10.882913118740309"><ele>92.33333333333333</ele><time>2026-04-04T07:28:34Z</time></trkpt><trkpt lat="43.93082530681035" lon="10.882654520172778"><ele>96.0</ele><time>2026-04-04T07:28:35Z</time></trkpt><trkpt lat="43.930789825535335" lon="10.882404475343503"><ele>96.66666666666666</ele><time>2026-04-04T07:28:36Z</time></trkpt><trkpt lat="43.930753387714056" lon="10.882147689640613"><ele>97.33333333333333</ele><time>2026-04-04T07:28:37Z</time></trkpt><trkpt lat="43.93071678561249" lon="10.881889746195371"><ele>98.0</ele><time>2026-04-04T07:28:38Z</time></trkpt><trkpt lat="43.93067999792024" lon="10.881630231839923"><ele>98.33333333333333</ele><time>2026-04-04T07:28:39Z</time></trkpt><trkpt lat="43.930643921289544" lon="10.881375338789303"><ele>98.66666666666666</ele><time>2026-04-04T07:28:40Z</time></trkpt><trkpt lat="43.9306071741197" lon="10.881115708164279"><ele>99.0</ele><time>2026-04-04T07:28:41Z</time></trkpt><trkpt lat="43.930570408697825" lon="10.88085594858572"><ele>99.0</ele><time>2026-04-04T07:28:42Z</time></trkpt><trkpt lat="43.930533398074324" lon="10.880594455192135"><ele>99.0</ele><time>2026-04-04T07:28:43Z</time></trkpt><trkpt lat="43.930493015550574" lon="10.880312333525032"><ele>99.0</ele><time>2026-04-04T07:28:44Z</time></trkpt><trkpt lat="43.93045329992042" lon="10.880033930240236"><ele>99.33333333333334</ele><time>2026-04-04T07:28:45Z</time></trkpt><trkpt lat="43.93041464840101" lon="10.879762986238886"><ele>99.66666666666667</ele><time>2026-04-04T07:28:46Z</time></trkpt><trkpt lat="43.93037439695361" lon="10.879480826891859"><ele>100.0</ele><time>2026-04-04T07:28:47Z</time></trkpt><trkpt lat="43.930334473617314" lon="10.879200967566437"><ele>101.0</ele><time>2026-04-04T07:28:48Z</time></trkpt><trkpt lat="43.93027857725403" lon="10.878927109465696"><ele>102.0</ele><time>2026-04-04T07:28:49Z</time></trkpt><trkpt lat="43.930255793965685" lon="10.878650677110025"><ele>103.0</ele><time>2026-04-04T07:28:50Z</time></trkpt><trkpt lat="43.93021504219348" lon="10.878365818130908"><ele>103.0</ele><time>2026-04-04T07:28:51Z</time></trkpt><trkpt lat="43.9301625893073" lon="10.878085933644762"><ele>103.0</ele><time>2026-04-04T07:28:52Z</time></trkpt><trkpt lat="43.93012163051592" lon="10.877798750115385"><ele>103.0</ele><time>2026-04-04T07:28:53Z</time></trkpt><trkpt lat="43.93007745680575" lon="10.877529206953804"><ele>100.66666666666667</ele><time>2026-04-04T07:28:54Z</time></trkpt><trkpt lat="43.930027475607275" lon="10.877266793236364"><ele>98.33333333333334</ele><time>2026-04-04T07:28:55Z</time></trkpt><trkpt lat="43.929961959058346" lon="10.877004953115323"><ele>96.0</ele><time>2026-04-04T07:28:56Z</time></trkpt><trkpt lat="43.92988602956402" lon="10.876741258599747"><ele>96.0</ele><time>2026-04-04T07:28:57Z</time></trkpt><trkpt lat="43.929795503905815" lon="10.876476830845016"><ele>96.0</ele><time>2026-04-04T07:28:58Z</time></trkpt><trkpt lat="43.92969858314733" lon="10.876219042178807"><ele>96.0</ele><time>2026-04-04T07:28:59Z</time></trkpt><trkpt lat="43.929616700204996" lon="10.875957059330032"><ele>96.66666666666666</ele><time>2026-04-04T07:29:00Z</time></trkpt><trkpt lat="43.929503657328645" lon="10.875698343235047"><ele>97.33333333333333</ele><time>2026-04-04T07:29:01Z</time></trkpt><trkpt lat="43.92939146495699" lon="10.875438958682258"><ele>98.0</ele><time>2026-04-04T07:29:02Z</time></trkpt><trkpt lat="43.92927926926451" lon="10.875176114641508"><ele>96.33333333333333</ele><time>2026-04-04T07:29:03Z</time></trkpt><trkpt lat="43.92917780432754" lon="10.874915670118869"><ele>94.66666666666666</ele><time>2026-04-04T07:29:04Z</time></trkpt><trkpt lat="43.929078224846215" lon="10.874646728282364"><ele>93.0</ele><time>2026-04-04T07:29:05Z</time></trkpt><trkpt lat="43.928981861281216" lon="10.87436579919002"><ele>93.66666666666667</ele><time>2026-04-04T07:29:06Z</time></trkpt><trkpt lat="43.9288952911206" lon="10.874086830461545"><ele>94.33333333333334</ele><time>2026-04-04T07:29:07Z</time></trkpt><trkpt lat="43.92881371313563" lon="10.873796302069278"><ele>95.0</ele><time>2026-04-04T07:29:08Z</time></trkpt><trkpt lat="43.928744056075374" lon="10.873507437119393"><ele>97.0</ele><time>2026-04-04T07:29:09Z</time></trkpt><trkpt lat="43.92869676217825" lon="10.873222281887372"><ele>99.0</ele><time>2026-04-04T07:29:10Z</time></trkpt><trkpt lat="43.928657078020215" lon="10.872937420056074"><ele>101.0</ele><time>2026-04-04T07:29:11Z</time></trkpt><trkpt lat="43.92861989013384" lon="10.872644882121126"><ele>101.66666666666666</ele><time>2026-04-04T07:29:12Z</time></trkpt><trkpt lat="43.928595154438796" lon="10.8723539891752"><ele>102.33333333333334</ele><time>2026-04-04T07:29:13Z</time></trkpt><trkpt lat="43.928579986567094" lon="10.872055347765654"><ele>103.0</ele><time>2026-04-04T07:29:14Z</time></trkpt><trkpt lat="43.92856251867711" lon="10.871757665776064"><ele>103.0</ele><time>2026-04-04T07:29:15Z</time></trkpt><trkpt lat="43.928544773434304" lon="10.871455075365015"><ele>103.0</ele><time>2026-04-04T07:29:16Z</time></trkpt><trkpt lat="43.92852899194232" lon="10.871154859755984"><ele>103.0</ele><time>2026-04-04T07:29:17Z</time></trkpt><trkpt lat="43.92851167057544" lon="10.870853633867254"><ele>103.33333333333334</ele><time>2026-04-04T07:29:18Z</time></trkpt><trkpt lat="43.928494927804195" lon="10.870544165884777"><ele>103.66666666666666</ele><time>2026-04-04T07:29:19Z</time></trkpt><trkpt lat="43.92847599647405" lon="10.870247018371881"><ele>104.0</ele><time>2026-04-04T07:29:20Z</time></trkpt><trkpt lat="43.92845864380831" lon="10.869944390706669"><ele>105.0</ele><time>2026-04-04T07:29:21Z</time></trkpt><trkpt lat="43.92844897113562" lon="10.869650434661754"><ele>106.0</ele><time>2026-04-04T07:29:22Z</time></trkpt><trkpt lat="43.92844139213632" lon="10.869372122706379"><ele>107.0</ele><time>2026-04-04T07:29:23Z</time></trkpt><trkpt lat="43.928432086476526" lon="10.86910389095613"><ele>108.0</ele><time>2026-04-04T07:29:24Z</time></trkpt><trkpt lat="43.92842978223866" lon="10.868828924098388"><ele>109.0</ele><time>2026-04-04T07:29:25Z</time></trkpt><trkpt lat="43.92842519828732" lon="10.868554934228053"><ele>110.0</ele><time>2026-04-04T07:29:26Z</time></trkpt><trkpt lat="43.92843887768239" lon="10.868276579771978"><ele>110.0</ele><time>2026-04-04T07:29:27Z</time></trkpt><trkpt lat="43.92843270422978" lon="10.867981535280814"><ele>110.0</ele><time>2026-04-04T07:29:28Z</time></trkpt><trkpt lat="43.92843104573277" lon="10.86768577660217"><ele>110.0</ele><time>2026-04-04T07:29:29Z</time></trkpt><trkpt lat="43.928435816772044" lon="10.867395874347256"><ele>111.0</ele><time>2026-04-04T07:29:30Z</time></trkpt><trkpt lat="43.928442090322065" lon="10.867104626873106"><ele>112.0</ele><time>2026-04-04T07:29:31Z</time></trkpt><trkpt lat="43.928443512890624" lon="10.866807217528345"><ele>113.0</ele><time>2026-04-04T07:29:32Z</time></trkpt><trkpt lat="43.92845078693286" lon="10.86652787301858"><ele>114.66666666666666</ele><time>2026-04-04T07:29:33Z</time></trkpt><trkpt lat="43.92843986320658" lon="10.866247880683703"><ele>116.33333333333334</ele><time>2026-04-04T07:29:34Z</time></trkpt><trkpt lat="43.92843571008713" lon="10.865991022781714"><ele>118.0</ele><time>2026-04-04T07:29:35Z</time></trkpt><trkpt lat="43.92843662527844" lon="10.865741118321125"><ele>119.33333333333334</ele><time>2026-04-04T07:29:36Z</time></trkpt><trkpt lat="43.92843040826165" lon="10.865481403539325"><ele>120.66666666666666</ele><time>2026-04-04T07:29:37Z</time></trkpt><trkpt lat="43.92842501117689" lon="10.865213836670845"><ele>122.0</ele><time>2026-04-04T07:29:38Z</time></trkpt><trkpt lat="43.92842555882194" lon="10.86494436354007"><ele>122.33333333333333</ele><time>2026-04-04T07:29:39Z</time></trkpt><trkpt lat="43.9284353776761" lon="10.864671214218278"><ele>122.66666666666666</ele><time>2026-04-04T07:29:40Z</time></trkpt><trkpt lat="43.92844653666954" lon="10.864403655744654"><ele>123.0</ele><time>2026-04-04T07:29:41Z</time></trkpt><trkpt lat="43.92846527719572" lon="10.864132246183676"><ele>123.0</ele><time>2026-04-04T07:29:42Z</time></trkpt><trkpt lat="43.92849561534598" lon="10.863868280334533"><ele>123.0</ele><time>2026-04-04T07:29:43Z</time></trkpt><trkpt lat="43.92852883694283" lon="10.863589744143331"><ele>123.0</ele><time>2026-04-04T07:29:44Z</time></trkpt><trkpt lat="43.9285656281463" lon="10.863315081170814"><ele>123.33333333333334</ele><time>2026-04-04T07:29:45Z</time></trkpt><trkpt lat="43.92859394733123" lon="10.863028072815812"><ele>123.66666666666667</ele><time>2026-04-04T07:29:46Z</time></trkpt><trkpt lat="43.92863283803424" lon="10.862749628534148"><ele>124.0</ele><time>2026-04-04T07:29:47Z</time></trkpt><trkpt lat="43.928670969807875" lon="10.862466715621432"><ele>123.33333333333334</ele><time>2026-04-04T07:29:48Z</time></trkpt><trkpt lat="43.92870586171695" lon="10.862181661335006"><ele>122.66666666666666</ele><time>2026-04-04T07:29:49Z</time></trkpt><trkpt lat="43.928743569708885" lon="10.861901220926462"><ele>122.0</ele><time>2026-04-04T07:29:50Z</time></trkpt><trkpt lat="43.928778142980775" lon="10.861623594692247"><ele>122.0</ele><time>2026-04-04T07:29:51Z</time></trkpt><trkpt lat="43.9288265298116" lon="10.861349490745482"><ele>122.0</ele><time>2026-04-04T07:29:52Z</time></trkpt><trkpt lat="43.92888924157757" lon="10.861084032279685"><ele>122.0</ele><time>2026-04-04T07:29:53Z</time></trkpt><trkpt lat="43.92896326824133" lon="10.860820396522866"><ele>122.0</ele><time>2026-04-04T07:29:54Z</time></trkpt><trkpt lat="43.92903415103071" lon="10.860546983768318"><ele>122.0</ele><time>2026-04-04T07:29:55Z</time></trkpt><trkpt lat="43.92910160062645" lon="10.860302731935075"><ele>122.0</ele><time>2026-04-04T07:29:56Z</time></trkpt><trkpt lat="43.92918060724872" lon="10.86006956147134"><ele>124.0</ele><time>2026-04-04T07:29:57Z</time></trkpt><trkpt lat="43.92927187054965" lon="10.859838562796764"><ele>126.0</ele><time>2026-04-04T07:29:58Z</time></trkpt><trkpt lat="43.92937866107577" lon="10.859621185016069"><ele>128.0</ele><time>2026-04-04T07:29:59Z</time></trkpt><trkpt lat="43.929493432731725" lon="10.859407809334703"><ele>127.66666666666666</ele><time>2026-04-04T07:30:00Z</time></trkpt><trkpt lat="43.92961930023317" lon="10.859206587130029"><ele>127.33333333333334</ele><time>2026-04-04T07:30:01Z</time></trkpt><trkpt lat="43.92975606335424" lon="10.85900270577462"><ele>127.0</ele><time>2026-04-04T07:30:02Z</time></trkpt><trkpt lat="43.92989899985938" lon="10.858817733363562"><ele>127.0</ele><time>2026-04-04T07:30:03Z</time></trkpt><trkpt lat="43.9300450312178" lon="10.85863926696998"><ele>127.0</ele><time>2026-04-04T07:30:04Z</time></trkpt><trkpt lat="43.93019226332123" lon="10.858455905435711"><ele>127.0</ele><time>2026-04-04T07:30:05Z</time></trkpt><trkpt lat="43.930337374997876" lon="10.858277678268223"><ele>128.0</ele><time>2026-04-04T07:30:06Z</time></trkpt><trkpt lat="43.930486272696825" lon="10.858098100333972"><ele>129.0</ele><time>2026-04-04T07:30:07Z</time></trkpt><trkpt lat="43.93065336525721" lon="10.857935816793566"><ele>130.0</ele><time>2026-04-04T07:30:08Z</time></trkpt><trkpt lat="43.9308018879568" lon="10.857752271044204"><ele>132.0</ele><time>2026-04-04T07:30:09Z</time></trkpt><trkpt lat="43.93095320493995" lon="10.857566678560394"><ele>134.0</ele><time>2026-04-04T07:30:10Z</time></trkpt><trkpt lat="43.93109227526389" lon="10.857373614899446"><ele>136.0</ele><time>2026-04-04T07:30:11Z</time></trkpt><trkpt lat="43.93122904858813" lon="10.85716880838333"><ele>136.0</ele><time>2026-04-04T07:30:12Z</time></trkpt><trkpt lat="43.931365348812975" lon="10.856964628557481"><ele>136.0</ele><time>2026-04-04T07:30:13Z</time></trkpt><trkpt lat="43.93149968591618" lon="10.85675831677568"><ele>136.0</ele><time>2026-04-04T07:30:14Z</time></trkpt><trkpt lat="43.931643501726796" lon="10.856551283011454"><ele>137.66666666666669</ele><time>2026-04-04T07:30:15Z</time></trkpt><trkpt lat="43.93178158216589" lon="10.856342132458895"><ele>139.33333333333334</ele><time>2026-04-04T07:30:16Z</time></trkpt><trkpt lat="43.93192476927643" lon="10.85612637808853"><ele>141.0</ele><time>2026-04-04T07:30:17Z</time></trkpt><trkpt lat="43.93207368963775" lon="10.855917090134861"><ele>141.0</ele><time>2026-04-04T07:30:18Z</time></trkpt><trkpt lat="43.93222820818019" lon="10.855713318000769"><ele>141.0</ele><time>2026-04-04T07:30:19Z</time></trkpt><trkpt lat="43.93239613189535" lon="10.855540221023302"><ele>141.0</ele><time>2026-04-04T07:30:20Z</time></trkpt><trkpt lat="43.93253984441008" lon="10.855344276048235"><ele>143.33333333333334</ele><time>2026-04-04T07:30:21Z</time></trkpt><trkpt lat="43.93267588080715" lon="10.85515721613469"><ele>145.66666666666669</ele><time>2026-04-04T07:30:22Z</time></trkpt><trkpt lat="43.93279636229623" lon="10.854977286801462"><ele>148.0</ele><time>2026-04-04T07:30:23Z</time></trkpt><trkpt lat="43.93290319859916" lon="10.854806513114667"><ele>148.0</ele><time>2026-04-04T07:30:24Z</time></trkpt><trkpt lat="43.93298598442562" lon="10.85463854274136"><ele>148.0</ele><time>2026-04-04T07:30:25Z</time></trkpt><trkpt lat="43.9330670865799" lon="10.85448087171495"><ele>148.0</ele><time>2026-04-04T07:30:26Z</time></trkpt><trkpt lat="43.933140211798886" lon="10.854294454203606"><ele>148.0</ele><time>2026-04-04T07:30:27Z</time></trkpt><trkpt lat="43.933237387798" lon="10.854102092746684"><ele>147.0</ele><time>2026-04-04T07:30:28Z</time></trkpt><trkpt lat="43.933355123071316" lon="10.853904768562202"><ele>146.0</ele><time>2026-04-04T07:30:29Z</time></trkpt><trkpt lat="43.93349977622828" lon="10.853775196130254"><ele>145.0</ele><time>2026-04-04T07:30:30Z</time></trkpt><trkpt lat="43.93362603057541" lon="10.85360140046943"><ele>148.66666666666669</ele><time>2026-04-04T07:30:31Z</time></trkpt><trkpt lat="43.933747412131524" lon="10.85342979171693"><ele>152.33333333333334</ele><time>2026-04-04T07:30:32Z</time></trkpt><trkpt lat="43.9338585916652" lon="10.85324447707719"><ele>156.0</ele><time>2026-04-04T07:30:33Z</time></trkpt><trkpt lat="43.93394800533545" lon="10.853063406891982"><ele>156.0</ele><time>2026-04-04T07:30:34Z</time></trkpt><trkpt lat="43.93401320408811" lon="10.852920589987015"><ele>156.0</ele><time>2026-04-04T07:30:35Z</time></trkpt><trkpt lat="43.934089558198174" lon="10.852745131943076"><ele>156.0</ele><time>2026-04-04T07:30:36Z</time></trkpt><trkpt lat="43.934143792361176" lon="10.852544540114746"><ele>156.0</ele><time>2026-04-04T07:30:37Z</time></trkpt><trkpt lat="43.93421560265565" lon="10.852348809731868"><ele>161.33333333333334</ele><time>2026-04-04T07:30:38Z</time></trkpt><trkpt lat="43.934303583150836" lon="10.852167238562572"><ele>166.66666666666669</ele><time>2026-04-04T07:30:39Z</time></trkpt><trkpt lat="43.93440957223673" lon="10.852004221372958"><ele>172.0</ele><time>2026-04-04T07:30:40Z</time></trkpt><trkpt lat="43.93453442307228" lon="10.851840829232733"><ele>166.66666666666669</ele><time>2026-04-04T07:30:41Z</time></trkpt><trkpt lat="43.934643592540674" lon="10.851669782896165"><ele>161.33333333333334</ele><time>2026-04-04T07:30:42Z</time></trkpt><trkpt lat="43.934759899982964" lon="10.851499607239864"><ele>156.0</ele><time>2026-04-04T07:30:43Z</time></trkpt><trkpt lat="43.93488025487534" lon="10.851334959099136"><ele>156.0</ele><time>2026-04-04T07:30:44Z</time></trkpt><trkpt lat="43.93499637938591" lon="10.851159683620219"><ele>156.0</ele><time>2026-04-04T07:30:45Z</time></trkpt><trkpt lat="43.935123331349025" lon="10.851003315579149"><ele>156.0</ele><time>2026-04-04T07:30:46Z</time></trkpt><trkpt lat="43.93524347652981" lon="10.850851452233702"><ele>158.33333333333334</ele><time>2026-04-04T07:30:47Z</time></trkpt><trkpt lat="43.9353615029568" lon="10.850708442816487"><ele>160.66666666666669</ele><time>2026-04-04T07:30:48Z</time></trkpt><trkpt lat="43.93546992524476" lon="10.850566462836209"><ele>163.0</ele><time>2026-04-04T07:30:49Z</time></trkpt><trkpt lat="43.93557703851648" lon="10.850431240575643"><ele>163.0</ele><time>2026-04-04T07:30:50Z</time></trkpt><trkpt lat="43.935660059828336" lon="10.850273206674892"><ele>163.0</ele><time>2026-04-04T07:30:51Z</time></trkpt><trkpt lat="43.93573521917578" lon="10.85007016658207"><ele>163.0</ele><time>2026-04-04T07:30:52Z</time></trkpt><trkpt lat="43.93581968426727" lon="10.849845437828249"><ele>163.33333333333334</ele><time>2026-04-04T07:30:53Z</time></trkpt><trkpt lat="43.93592284633865" lon="10.849626018087328"><ele>163.66666666666666</ele><time>2026-04-04T07:30:54Z</time></trkpt><trkpt lat="43.93602790771408" lon="10.849413426173797"><ele>164.0</ele><time>2026-04-04T07:30:55Z</time></trkpt><trkpt lat="43.93613521234792" lon="10.849195833981872"><ele>161.66666666666666</ele><time>2026-04-04T07:30:56Z</time></trkpt><trkpt lat="43.936265434137" lon="10.84898227415233"><ele>159.33333333333334</ele><time>2026-04-04T07:30:57Z</time></trkpt><trkpt lat="43.936406083569544" lon="10.848789725340813"><ele>157.0</ele><time>2026-04-04T07:30:58Z</time></trkpt><trkpt lat="43.936557745964876" lon="10.848596588125549"><ele>157.33333333333334</ele><time>2026-04-04T07:30:59Z</time></trkpt><trkpt lat="43.936709011633624" lon="10.848400318561133"><ele>157.66666666666666</ele><time>2026-04-04T07:31:00Z</time></trkpt><trkpt lat="43.93685484291997" lon="10.848195409782193"><ele>158.0</ele><time>2026-04-04T07:31:01Z</time></trkpt><trkpt lat="43.93700832674892" lon="10.847995676585118"><ele>159.0</ele><time>2026-04-04T07:31:02Z</time></trkpt><trkpt lat="43.9371610143214" lon="10.847790208392812"><ele>160.0</ele><time>2026-04-04T07:31:03Z</time></trkpt><trkpt lat="43.93731428298095" lon="10.847588202978486"><ele>161.0</ele><time>2026-04-04T07:31:04Z</time></trkpt><trkpt lat="43.93746511622592" lon="10.847379208054315"><ele>165.0</ele><time>2026-04-04T07:31:05Z</time></trkpt><trkpt lat="43.93762055982579" lon="10.84717704635748"><ele>169.0</ele><time>2026-04-04T07:31:06Z</time></trkpt><trkpt lat="43.93776463603432" lon="10.846984702570209"><ele>173.0</ele><time>2026-04-04T07:31:07Z</time></trkpt><trkpt lat="43.93790201627637" lon="10.846792878767893"><ele>173.0</ele><time>2026-04-04T07:31:08Z</time></trkpt><trkpt lat="43.93804423824124" lon="10.846625248043148"><ele>173.0</ele><time>2026-04-04T07:31:09Z</time></trkpt><trkpt lat="43.93819464854104" lon="10.846463265179732"><ele>173.0</ele><time>2026-04-04T07:31:10Z</time></trkpt><trkpt lat="43.938358760501636" lon="10.846299308131453"><ele>177.66666666666666</ele><time>2026-04-04T07:31:11Z</time></trkpt><trkpt lat="43.93852793055157" lon="10.846150399609066"><ele>182.33333333333334</ele><time>2026-04-04T07:31:12Z</time></trkpt><trkpt lat="43.93869458584367" lon="10.846010132814852"><ele>187.0</ele><time>2026-04-04T07:31:13Z</time></trkpt><trkpt lat="43.93884769351587" lon="10.845873585543952"><ele>187.0</ele><time>2026-04-04T07:31:14Z</time></trkpt><trkpt lat="43.938991779928195" lon="10.845731290624688"><ele>187.0</ele><time>2026-04-04T07:31:15Z</time></trkpt><trkpt lat="43.9391173706013" lon="10.845557344948991"><ele>187.0</ele><time>2026-04-04T07:31:16Z</time></trkpt><trkpt lat="43.939232435676836" lon="10.845363613799496"><ele>187.33333333333334</ele><time>2026-04-04T07:31:17Z</time></trkpt><trkpt lat="43.93934884922409" lon="10.845155148950969"><ele>187.66666666666666</ele><time>2026-04-04T07:31:18Z</time></trkpt><trkpt lat="43.93946890785973" lon="10.844946842403463"><ele>188.0</ele><time>2026-04-04T07:31:19Z</time></trkpt><trkpt lat="43.939587036537766" lon="10.844722628372487"><ele>188.0</ele><time>2026-04-04T07:31:20Z</time></trkpt><trkpt lat="43.93971117007976" lon="10.844509533675707"><ele>188.0</ele><time>2026-04-04T07:31:21Z</time></trkpt><trkpt lat="43.93984468968732" lon="10.844291944531934"><ele>188.0</ele><time>2026-04-04T07:31:22Z</time></trkpt><trkpt lat="43.93997585341617" lon="10.844061102824345"><ele>187.0</ele><time>2026-04-04T07:31:23Z</time></trkpt><trkpt lat="43.940099269515414" lon="10.843850188849926"><ele>186.0</ele><time>2026-04-04T07:31:24Z</time></trkpt><trkpt lat="43.940220475342535" lon="10.84364179997017"><ele>185.0</ele><time>2026-04-04T07:31:25Z</time></trkpt><trkpt lat="43.94034700527936" lon="10.843442750947377"><ele>185.0</ele><time>2026-04-04T07:31:26Z</time></trkpt><trkpt lat="43.94047084735779" lon="10.84323889654194"><ele>185.0</ele><time>2026-04-04T07:31:27Z</time></trkpt><trkpt lat="43.940594969034024" lon="10.843021012266295"><ele>185.0</ele><time>2026-04-04T07:31:28Z</time></trkpt><trkpt lat="43.94071774070836" lon="10.842799667507599"><ele>183.66666666666666</ele><time>2026-04-04T07:31:29Z</time></trkpt><trkpt lat="43.940840988925835" lon="10.8425696502355"><ele>182.33333333333334</ele><time>2026-04-04T07:31:30Z</time></trkpt><trkpt lat="43.94096783329398" lon="10.842348043143863"><ele>181.0</ele><time>2026-04-04T07:31:31Z</time></trkpt><trkpt lat="43.94109655183987" lon="10.842128402830298"><ele>184.33333333333334</ele><time>2026-04-04T07:31:32Z</time></trkpt><trkpt lat="43.941221345248174" lon="10.841910331709185"><ele>187.66666666666666</ele><time>2026-04-04T07:31:33Z</time></trkpt><trkpt lat="43.941334925161414" lon="10.841715122287045"><ele>191.0</ele><time>2026-04-04T07:31:34Z</time></trkpt><trkpt lat="43.941432871237424" lon="10.84153559756547"><ele>191.0</ele><time>2026-04-04T07:31:35Z</time></trkpt><trkpt lat="43.94151257562904" lon="10.841363195810075"><ele>191.0</ele><time>2026-04-04T07:31:36Z</time></trkpt><trkpt lat="43.94156945731473" lon="10.84118047897363"><ele>191.0</ele><time>2026-04-04T07:31:37Z</time></trkpt><trkpt lat="43.94159899046676" lon="10.840969041145335"><ele>191.0</ele><time>2026-04-04T07:31:38Z</time></trkpt><trkpt lat="43.941589694626785" lon="10.840745223409764"><ele>191.0</ele><time>2026-04-04T07:31:39Z</time></trkpt><trkpt lat="43.94157430605482" lon="10.840516867276412"><ele>191.0</ele><time>2026-04-04T07:31:40Z</time></trkpt><trkpt lat="43.94154947219185" lon="10.840294874843119"><ele>191.0</ele><time>2026-04-04T07:31:41Z</time></trkpt><trkpt lat="43.941538745959065" lon="10.840070088226959"><ele>191.0</ele><time>2026-04-04T07:31:42Z</time></trkpt><trkpt lat="43.941524759960394" lon="10.83983509637713"><ele>191.0</ele><time>2026-04-04T07:31:43Z</time></trkpt><trkpt lat="43.94152378836727" lon="10.83960738599404"><ele>191.0</ele><time>2026-04-04T07:31:44Z</time></trkpt><trkpt lat="43.94155366405741" lon="10.839396292008216"><ele>192.33333333333331</ele><time>2026-04-04T07:31:45Z</time></trkpt><trkpt lat="43.9416102902026" lon="10.839186844153577"><ele>193.66666666666666</ele><time>2026-04-04T07:31:46Z</time></trkpt><trkpt lat="43.941682894712216" lon="10.838977792096468"><ele>195.0</ele><time>2026-04-04T07:31:47Z</time></trkpt><trkpt lat="43.94176473000165" lon="10.838801038143316"><ele>195.0</ele><time>2026-04-04T07:31:48Z</time></trkpt><trkpt lat="43.941856242063125" lon="10.838632486754625"><ele>195.0</ele><time>2026-04-04T07:31:49Z</time></trkpt><trkpt lat="43.94196886120879" lon="10.83846803787667"><ele>195.0</ele><time>2026-04-04T07:31:50Z</time></trkpt><trkpt lat="43.94208424792318" lon="10.838306935465463"><ele>197.66666666666669</ele><time>2026-04-04T07:31:51Z</time></trkpt><trkpt lat="43.94221104551618" lon="10.838157445644597"><ele>200.33333333333334</ele><time>2026-04-04T07:31:52Z</time></trkpt><trkpt lat="43.94231777036346" lon="10.838006544053727"><ele>203.0</ele><time>2026-04-04T07:31:53Z</time></trkpt><trkpt lat="43.942419007050816" lon="10.83786391892384"><ele>203.0</ele><time>2026-04-04T07:31:54Z</time></trkpt><trkpt lat="43.94251194203412" lon="10.837704448311245"><ele>203.0</ele><time>2026-04-04T07:31:55Z</time></trkpt><trkpt lat="43.942610404827754" lon="10.837572166657958"><ele>203.0</ele><time>2026-04-04T07:31:56Z</time></trkpt><trkpt lat="43.94270574124512" lon="10.837449878250126"><ele>203.0</ele><time>2026-04-04T07:31:57Z</time></trkpt><trkpt lat="43.94280679710951" lon="10.837335932984464"><ele>203.75</ele><time>2026-04-04T07:31:58Z</time></trkpt><trkpt lat="43.94290054001785" lon="10.837220857030315"><ele>204.5</ele><time>2026-04-04T07:31:59Z</time></trkpt><trkpt lat="43.94299508131208" lon="10.837109944960444"><ele>205.25</ele><time>2026-04-04T07:32:00Z</time></trkpt><trkpt lat="43.94307473226587" lon="10.836993615484252"><ele>206.0</ele><time>2026-04-04T07:32:01Z</time></trkpt><trkpt lat="43.94315661072854" lon="10.836880213229755"><ele>206.20000000000002</ele><time>2026-04-04T07:32:02Z</time></trkpt><trkpt lat="43.943236091443545" lon="10.836778401832817"><ele>206.4</ele><time>2026-04-04T07:32:03Z</time></trkpt><trkpt lat="43.943305870308656" lon="10.836678007325302"><ele>206.6</ele><time>2026-04-04T07:32:04Z</time></trkpt><trkpt lat="43.943378119341766" lon="10.836580780687655"><ele>206.8</ele><time>2026-04-04T07:32:05Z</time></trkpt><trkpt lat="43.943460417930034" lon="10.836494374322665"><ele>207.0</ele><time>2026-04-04T07:32:06Z</time></trkpt><trkpt lat="43.94355919818523" lon="10.836436165195268"><ele>207.0</ele><time>2026-04-04T07:32:07Z</time></trkpt><trkpt lat="43.94367369846376" lon="10.836410131870394"><ele>207.0</ele><time>2026-04-04T07:32:08Z</time></trkpt><trkpt lat="43.94377811774821" lon="10.836388190940317"><ele>207.0</ele><time>2026-04-04T07:32:09Z</time></trkpt><trkpt lat="43.94387379384835" lon="10.836352138392568"><ele>207.0</ele><time>2026-04-04T07:32:10Z</time></trkpt><trkpt lat="43.943967248851514" lon="10.83626955876338"><ele>207.0</ele><time>2026-04-04T07:32:11Z</time></trkpt><trkpt lat="43.94406351781003" lon="10.836155867047756"><ele>207.0</ele><time>2026-04-04T07:32:12Z</time></trkpt><trkpt lat="43.94417144748632" lon="10.836033936172917"><ele>207.0</ele><time>2026-04-04T07:32:13Z</time></trkpt><trkpt lat="43.94429564114317" lon="10.835957830688697"><ele>207.0</ele><time>2026-04-04T07:32:14Z</time></trkpt><trkpt lat="43.94441749867976" lon="10.835875057129464"><ele>207.0</ele><time>2026-04-04T07:32:15Z</time></trkpt><trkpt lat="43.94455140981151" lon="10.83579931338434"><ele>210.5</ele><time>2026-04-04T07:32:16Z</time></trkpt><trkpt lat="43.94469053035003" lon="10.83571191734989"><ele>214.0</ele><time>2026-04-04T07:32:17Z</time></trkpt><trkpt lat="43.94482628901566" lon="10.835629037549005"><ele>217.5</ele><time>2026-04-04T07:32:18Z</time></trkpt><trkpt lat="43.944940319289266" lon="10.8355435911405"><ele>221.0</ele><time>2026-04-04T07:32:19Z</time></trkpt><trkpt lat="43.94503058663452" lon="10.835449332501849"><ele>221.0</ele><time>2026-04-04T07:32:20Z</time></trkpt><trkpt lat="43.945112582972484" lon="10.835328578526369"><ele>221.0</ele><time>2026-04-04T07:32:21Z</time></trkpt><trkpt lat="43.945204215443674" lon="10.835215197364144"><ele>221.0</ele><time>2026-04-04T07:32:22Z</time></trkpt><trkpt lat="43.945313952032045" lon="10.835131852911118"><ele>221.0</ele><time>2026-04-04T07:32:23Z</time></trkpt><trkpt lat="43.945440511423925" lon="10.835071430537187"><ele>222.8</ele><time>2026-04-04T07:32:24Z</time></trkpt><trkpt lat="43.945550243758014" lon="10.834994011369186"><ele>224.60000000000002</ele><time>2026-04-04T07:32:25Z</time></trkpt><trkpt lat="43.945630941574976" lon="10.834887503277207"><ele>226.4</ele><time>2026-04-04T07:32:26Z</time></trkpt><trkpt lat="43.94570769749498" lon="10.834797581615272"><ele>228.2</ele><time>2026-04-04T07:32:27Z</time></trkpt><trkpt lat="43.94578880044709" lon="10.834702629785852"><ele>230.0</ele><time>2026-04-04T07:32:28Z</time></trkpt><trkpt lat="43.945879975970335" lon="10.834623327853883"><ele>230.0</ele><time>2026-04-04T07:32:29Z</time></trkpt><trkpt lat="43.945985105899325" lon="10.834545029097866"><ele>230.0</ele><time>2026-04-04T07:32:30Z</time></trkpt><trkpt lat="43.9461088120818" lon="10.834486320123164"><ele>230.0</ele><time>2026-04-04T07:32:31Z</time></trkpt><trkpt lat="43.946238275816654" lon="10.834447182575136"><ele>230.0</ele><time>2026-04-04T07:32:32Z</time></trkpt><trkpt lat="43.94634616779137" lon="10.834390389752299"><ele>230.0</ele><time>2026-04-04T07:32:33Z</time></trkpt><trkpt lat="43.946453536213156" lon="10.834355714538797"><ele>230.0</ele><time>2026-04-04T07:32:34Z</time></trkpt><trkpt lat="43.94657680416539" lon="10.834323267406441"><ele>230.0</ele><time>2026-04-04T07:32:35Z</time></trkpt><trkpt lat="43.94669400709546" lon="10.834252087801"><ele>230.0</ele><time>2026-04-04T07:32:36Z</time></trkpt><trkpt lat="43.94679764072461" lon="10.83415673270948"><ele>231.6</ele><time>2026-04-04T07:32:37Z</time></trkpt><trkpt lat="43.946899369012485" lon="10.834077953306616"><ele>233.2</ele><time>2026-04-04T07:32:38Z</time></trkpt><trkpt lat="43.94699245108072" lon="10.83400105766149"><ele>234.8</ele><time>2026-04-04T07:32:39Z</time></trkpt><trkpt lat="43.94709795183016" lon="10.83395499144467"><ele>236.4</ele><time>2026-04-04T07:32:40Z</time></trkpt><trkpt lat="43.94720238167964" lon="10.833936422648716"><ele>238.0</ele><time>2026-04-04T07:32:41Z</time></trkpt><trkpt lat="43.94729143000421" lon="10.83389486822078"><ele>238.0</ele><time>2026-04-04T07:32:42Z</time></trkpt><trkpt lat="43.947389144620786" lon="10.833872477706247"><ele>238.0</ele><time>2026-04-04T07:32:43Z</time></trkpt><trkpt lat="43.94745399217353" lon="10.833786956563106"><ele>238.0</ele><time>2026-04-04T07:32:44Z</time></trkpt><trkpt lat="43.94751826702003" lon="10.83366664561153"><ele>238.0</ele><time>2026-04-04T07:32:45Z</time></trkpt><trkpt lat="43.94758550165176" lon="10.833523465578208"><ele>238.0</ele><time>2026-04-04T07:32:46Z</time></trkpt><trkpt lat="43.94764099129843" lon="10.833358779999262"><ele>238.5</ele><time>2026-04-04T07:32:47Z</time></trkpt><trkpt lat="43.94771220262604" lon="10.833226661586613"><ele>239.0</ele><time>2026-04-04T07:32:48Z</time></trkpt><trkpt lat="43.947805584733096" lon="10.833136419373327"><ele>239.5</ele><time>2026-04-04T07:32:49Z</time></trkpt><trkpt lat="43.9479256166111" lon="10.833083503350059"><ele>240.0</ele><time>2026-04-04T07:32:50Z</time></trkpt><trkpt lat="43.948068256354745" lon="10.83303899097448"><ele>240.0</ele><time>2026-04-04T07:32:51Z</time></trkpt><trkpt lat="43.94820298527139" lon="10.8329609919279"><ele>240.0</ele><time>2026-04-04T07:32:52Z</time></trkpt><trkpt lat="43.948322462064965" lon="10.832908123184033"><ele>240.0</ele><time>2026-04-04T07:32:53Z</time></trkpt><trkpt lat="43.94843893070407" lon="10.832832615760537"><ele>240.0</ele><time>2026-04-04T07:32:54Z</time></trkpt><trkpt lat="43.948551203705385" lon="10.832735991757637"><ele>241.5</ele><time>2026-04-04T07:32:55Z</time></trkpt><trkpt lat="43.948652708895146" lon="10.832635914336308"><ele>243.0</ele><time>2026-04-04T07:32:56Z</time></trkpt><trkpt lat="43.948763492569036" lon="10.832535989938844"><ele>244.5</ele><time>2026-04-04T07:32:57Z</time></trkpt><trkpt lat="43.94887129338305" lon="10.832439814440328"><ele>246.0</ele><time>2026-04-04T07:32:58Z</time></trkpt><trkpt lat="43.94898385154129" lon="10.832356365113505"><ele>246.0</ele><time>2026-04-04T07:32:59Z</time></trkpt><trkpt lat="43.94909469103748" lon="10.832251083966277"><ele>246.0</ele><time>2026-04-04T07:33:00Z</time></trkpt><trkpt lat="43.94922102111286" lon="10.832177486943724"><ele>246.0</ele><time>2026-04-04T07:33:01Z</time></trkpt><trkpt lat="43.94932292953041" lon="10.83208164477547"><ele>246.0</ele><time>2026-04-04T07:33:02Z</time></trkpt><trkpt lat="43.94941953425616" lon="10.831967927722781"><ele>246.0</ele><time>2026-04-04T07:33:03Z</time></trkpt><trkpt lat="43.94951397320653" lon="10.831823625138725"><ele>246.0</ele><time>2026-04-04T07:33:04Z</time></trkpt><trkpt lat="43.94961848429586" lon="10.831647613209798"><ele>246.0</ele><time>2026-04-04T07:33:05Z</time></trkpt><trkpt lat="43.949713831119894" lon="10.831456170601221"><ele>247.33333333333331</ele><time>2026-04-04T07:33:06Z</time></trkpt><trkpt lat="43.94982252253204" lon="10.831253123330915"><ele>248.66666666666666</ele><time>2026-04-04T07:33:07Z</time></trkpt><trkpt lat="43.94994368929131" lon="10.831037390767365"><ele>250.0</ele><time>2026-04-04T07:33:08Z</time></trkpt><trkpt lat="43.95007214131947" lon="10.8308215982349"><ele>251.66666666666666</ele><time>2026-04-04T07:33:09Z</time></trkpt><trkpt lat="43.95018571817702" lon="10.830603741912913"><ele>253.33333333333331</ele><time>2026-04-04T07:33:10Z</time></trkpt><trkpt lat="43.95031427948202" lon="10.830388810059448"><ele>255.0</ele><time>2026-04-04T07:33:11Z</time></trkpt><trkpt lat="43.950436354178336" lon="10.830174391246691"><ele>257.0</ele><time>2026-04-04T07:33:12Z</time></trkpt><trkpt lat="43.950561033116784" lon="10.829975677146868"><ele>259.0</ele><time>2026-04-04T07:33:13Z</time></trkpt><trkpt lat="43.95068610635161" lon="10.829780162787653"><ele>261.0</ele><time>2026-04-04T07:33:14Z</time></trkpt><trkpt lat="43.95080400193455" lon="10.829597786471588"><ele>261.0</ele><time>2026-04-04T07:33:15Z</time></trkpt><trkpt lat="43.95092333622768" lon="10.829410664648112"><ele>261.0</ele><time>2026-04-04T07:33:16Z</time></trkpt><trkpt lat="43.95104537825175" lon="10.829220828337734"><ele>261.0</ele><time>2026-04-04T07:33:17Z</time></trkpt><trkpt lat="43.95117551543963" lon="10.829028390249407"><ele>262.3333333333333</ele><time>2026-04-04T07:33:18Z</time></trkpt><trkpt lat="43.9513006942895" lon="10.82884592894892"><ele>263.66666666666663</ele><time>2026-04-04T07:33:19Z</time></trkpt><trkpt lat="43.95143288480847" lon="10.828654437564202"><ele>265.0</ele><time>2026-04-04T07:33:20Z</time></trkpt><trkpt lat="43.95154016044963" lon="10.828461647452892"><ele>267.0</ele><time>2026-04-04T07:33:21Z</time></trkpt><trkpt lat="43.95164322976801" lon="10.82828832577574"><ele>269.0</ele><time>2026-04-04T07:33:22Z</time></trkpt><trkpt lat="43.951751793815134" lon="10.828155341228795"><ele>271.0</ele><time>2026-04-04T07:33:23Z</time></trkpt><trkpt lat="43.9518467266976" lon="10.828041138524268"><ele>273.0</ele><time>2026-04-04T07:33:24Z</time></trkpt><trkpt lat="43.95195624977935" lon="10.827962878030124"><ele>273.0</ele><time>2026-04-04T07:33:25Z</time></trkpt><trkpt lat="43.95207697786701" lon="10.827930976487593"><ele>273.0</ele><time>2026-04-04T07:33:26Z</time></trkpt><trkpt lat="43.95220382279575" lon="10.827942129871136"><ele>273.0</ele><time>2026-04-04T07:33:27Z</time></trkpt><trkpt lat="43.95234183451381" lon="10.82798614714278"><ele>273.0</ele><time>2026-04-04T07:33:28Z</time></trkpt><trkpt lat="43.95246549346206" lon="10.82798366594393"><ele>273.5</ele><time>2026-04-04T07:33:29Z</time></trkpt><trkpt lat="43.95257952020372" lon="10.82795206986022"><ele>274.0</ele><time>2026-04-04T07:33:30Z</time></trkpt><trkpt lat="43.952691634888346" lon="10.827881333041201"><ele>274.5</ele><time>2026-04-04T07:33:31Z</time></trkpt><trkpt lat="43.95280129081143" lon="10.827783095293402"><ele>275.0</ele><time>2026-04-04T07:33:32Z</time></trkpt><trkpt lat="43.95291858364384" lon="10.827690711370527"><ele>275.0</ele><time>2026-04-04T07:33:33Z</time></trkpt><trkpt lat="43.953060779326925" lon="10.827651665264845"><ele>275.0</ele><time>2026-04-04T07:33:34Z</time></trkpt><trkpt lat="43.95320472702352" lon="10.827642222692749"><ele>275.0</ele><time>2026-04-04T07:33:35Z</time></trkpt><trkpt lat="43.95336842810258" lon="10.827675084818674"><ele>276.33333333333337</ele><time>2026-04-04T07:33:36Z</time></trkpt><trkpt lat="43.95353256645068" lon="10.827702673194555"><ele>277.6666666666667</ele><time>2026-04-04T07:33:37Z</time></trkpt><trkpt lat="43.95370601810284" lon="10.827708228025292"><ele>279.0</ele><time>2026-04-04T07:33:38Z</time></trkpt><trkpt lat="43.95386597474437" lon="10.827698871720015"><ele>279.0</ele><time>2026-04-04T07:33:39Z</time></trkpt><trkpt lat="43.95401157976468" lon="10.8276879309367"><ele>279.0</ele><time>2026-04-04T07:33:40Z</time></trkpt><trkpt lat="43.95414076450842" lon="10.827668663557883"><ele>279.0</ele><time>2026-04-04T07:33:41Z</time></trkpt><trkpt lat="43.95423976045697" lon="10.827634520727539"><ele>279.0</ele><time>2026-04-04T07:33:42Z</time></trkpt><trkpt lat="43.954308269731555" lon="10.827568935326354"><ele>281.1666666666667</ele><time>2026-04-04T07:33:43Z</time></trkpt><trkpt lat="43.95432649036461" lon="10.827442227975979"><ele>283.3333333333333</ele><time>2026-04-04T07:33:44Z</time></trkpt><trkpt lat="43.95432108010105" lon="10.82733611532524"><ele>285.5</ele><time>2026-04-04T07:33:45Z</time></trkpt><trkpt lat="43.954282441222006" lon="10.827233954546848"><ele>287.66666666666663</ele><time>2026-04-04T07:33:46Z</time></trkpt><trkpt lat="43.95420460471511" lon="10.827168317344464"><ele>289.8333333333333</ele><time>2026-04-04T07:33:47Z</time></trkpt><trkpt lat="43.95410892042891" lon="10.82714171013295"><ele>292.0</ele><time>2026-04-04T07:33:48Z</time></trkpt><trkpt lat="43.95399634322071" lon="10.827142581319665"><ele>292.0</ele><time>2026-04-04T07:33:49Z</time></trkpt><trkpt lat="43.953868510556" lon="10.827154558503178"><ele>292.0</ele><time>2026-04-04T07:33:50Z</time></trkpt><trkpt lat="43.95372661925683" lon="10.827168373389368"><ele>292.0</ele><time>2026-04-04T07:33:51Z</time></trkpt><trkpt lat="43.95357747095436" lon="10.827178611830455"><ele>292.0</ele><time>2026-04-04T07:33:52Z</time></trkpt><trkpt lat="43.95342830334747" lon="10.82718400988063"><ele>292.5</ele><time>2026-04-04T07:33:53Z</time></trkpt><trkpt lat="43.95328081729206" lon="10.827182409404465"><ele>293.0</ele><time>2026-04-04T07:33:54Z</time></trkpt><trkpt lat="43.953149036541426" lon="10.827184054559778"><ele>293.5</ele><time>2026-04-04T07:33:55Z</time></trkpt><trkpt lat="43.95304477050061" lon="10.827156763447322"><ele>294.0</ele><time>2026-04-04T07:33:56Z</time></trkpt><trkpt lat="43.95296491008351" lon="10.827112330943212"><ele>294.0</ele><time>2026-04-04T07:33:57Z</time></trkpt><trkpt lat="43.95291358248529" lon="10.827020680280754"><ele>294.0</ele><time>2026-04-04T07:33:58Z</time></trkpt><trkpt lat="43.952891691000985" lon="10.826893777650659"><ele>294.0</ele><time>2026-04-04T07:33:59Z</time></trkpt><trkpt lat="43.95290044086622" lon="10.826757343709442"><ele>294.0</ele><time>2026-04-04T07:34:00Z</time></trkpt><trkpt lat="43.95294687562854" lon="10.826652451280566"><ele>294.0</ele><time>2026-04-04T07:34:01Z</time></trkpt><trkpt lat="43.95302302252542" lon="10.826576762727809"><ele>297.25</ele><time>2026-04-04T07:34:02Z</time></trkpt><trkpt lat="43.95312402622725" lon="10.8265322080192"><ele>300.5</ele><time>2026-04-04T07:34:03Z</time></trkpt><trkpt lat="43.953245924941754" lon="10.826537004440702"><ele>303.75</ele><time>2026-04-04T07:34:04Z</time></trkpt><trkpt lat="43.95338123813636" lon="10.82651138159127"><ele>307.0</ele><time>2026-04-04T07:34:05Z</time></trkpt><trkpt lat="43.9535216995664" lon="10.826512335336075"><ele>307.2</ele><time>2026-04-04T07:34:06Z</time></trkpt><trkpt lat="43.953660611458474" lon="10.826514831710224"><ele>307.4</ele><time>2026-04-04T07:34:07Z</time></trkpt><trkpt lat="43.9537703462246" lon="10.826516209231386"><ele>307.6</ele><time>2026-04-04T07:34:08Z</time></trkpt><trkpt lat="43.95385691894454" lon="10.826502140532861"><ele>307.8</ele><time>2026-04-04T07:34:09Z</time></trkpt><trkpt lat="43.95392465156588" lon="10.82645021690486"><ele>308.0</ele><time>2026-04-04T07:34:10Z</time></trkpt><trkpt lat="43.95396483044976" lon="10.826369990174872"><ele>308.0</ele><time>2026-04-04T07:34:11Z</time></trkpt><trkpt lat="43.9539894016311" lon="10.826276999857802"><ele>308.0</ele><time>2026-04-04T07:34:12Z</time></trkpt><trkpt lat="43.95397995851171" lon="10.82615587600864"><ele>308.0</ele><time>2026-04-04T07:34:13Z</time></trkpt><trkpt lat="43.95392151104151" lon="10.826051872197505"><ele>308.0</ele><time>2026-04-04T07:34:14Z</time></trkpt><trkpt lat="43.95383493295119" lon="10.825994366036097"><ele>308.0</ele><time>2026-04-04T07:34:15Z</time></trkpt><trkpt lat="43.95371985039973" lon="10.825971874680075"><ele>310.5</ele><time>2026-04-04T07:34:16Z</time></trkpt><trkpt lat="43.95359832249668" lon="10.825947794651753"><ele>313.0</ele><time>2026-04-04T07:34:17Z</time></trkpt><trkpt lat="43.953496768275855" lon="10.82588819047532"><ele>315.5</ele><time>2026-04-04T07:34:18Z</time></trkpt><trkpt lat="43.953399584013376" lon="10.82578433906144"><ele>318.0</ele><time>2026-04-04T07:34:19Z</time></trkpt><trkpt lat="43.95332084297029" lon="10.825639496235395"><ele>318.0</ele><time>2026-04-04T07:34:20Z</time></trkpt><trkpt lat="43.953259728962514" lon="10.82547886911307"><ele>318.0</ele><time>2026-04-04T07:34:21Z</time></trkpt><trkpt lat="43.95318939163985" lon="10.825359399147827"><ele>318.0</ele><time>2026-04-04T07:34:22Z</time></trkpt><trkpt lat="43.95309580423505" lon="10.825280749755306"><ele>318.0</ele><time>2026-04-04T07:34:23Z</time></trkpt><trkpt lat="43.95297518104138" lon="10.825246849491934"><ele>318.0</ele><time>2026-04-04T07:34:24Z</time></trkpt><trkpt lat="43.95284440071344" lon="10.825261765380874"><ele>318.0</ele><time>2026-04-04T07:34:25Z</time></trkpt><trkpt lat="43.95271885997883" lon="10.82527176810119"><ele>318.0</ele><time>2026-04-04T07:34:26Z</time></trkpt><trkpt lat="43.95261270684858" lon="10.825235946450935"><ele>318.0</ele><time>2026-04-04T07:34:27Z</time></trkpt><trkpt lat="43.95252814092669" lon="10.825135538035225"><ele>321.5</ele><time>2026-04-04T07:34:28Z</time></trkpt><trkpt lat="43.95244257447277" lon="10.825017402668045"><ele>325.0</ele><time>2026-04-04T07:34:29Z</time></trkpt><trkpt lat="43.952362546531404" lon="10.82487106413431"><ele>328.5</ele><time>2026-04-04T07:34:30Z</time></trkpt><trkpt lat="43.95228616509426" lon="10.824718441488315"><ele>332.0</ele><time>2026-04-04T07:34:31Z</time></trkpt><trkpt lat="43.952241043863275" lon="10.824546147720673"><ele>332.0</ele><time>2026-04-04T07:34:32Z</time></trkpt><trkpt lat="43.95222772802522" lon="10.824349566737306"><ele>332.0</ele><time>2026-04-04T07:34:33Z</time></trkpt><trkpt lat="43.95221489775284" lon="10.824155273606163"><ele>332.0</ele><time>2026-04-04T07:34:34Z</time></trkpt><trkpt lat="43.952187293646" lon="10.823973353393791"><ele>332.0</ele><time>2026-04-04T07:34:35Z</time></trkpt><trkpt lat="43.95212016597491" lon="10.823820516838492"><ele>335.0</ele><time>2026-04-04T07:34:36Z</time></trkpt><trkpt lat="43.95202934046794" lon="10.823690223660192"><ele>338.0</ele><time>2026-04-04T07:34:37Z</time></trkpt><trkpt lat="43.95196083939629" lon="10.823571801653417"><ele>341.0</ele><time>2026-04-04T07:34:38Z</time></trkpt><trkpt lat="43.95195043378886" lon="10.82344750432452"><ele>344.0</ele><time>2026-04-04T07:34:40Z</time></trkpt><trkpt lat="43.95205276452558" lon="10.823441563574315"><ele>347.0</ele><time>2026-04-04T07:34:42Z</time></trkpt><trkpt lat="43.952120893312205" lon="10.823526866303123"><ele>347.0</ele><time>2026-04-04T07:34:43Z</time></trkpt><trkpt lat="43.952191485223544" lon="10.823621554070892"><ele>347.0</ele><time>2026-04-04T07:34:44Z</time></trkpt><trkpt lat="43.95228112245852" lon="10.823725153063526"><ele>347.0</ele><time>2026-04-04T07:34:45Z</time></trkpt><trkpt lat="43.952348018320386" lon="10.823849595385216"><ele>347.0</ele><time>2026-04-04T07:34:46Z</time></trkpt><trkpt lat="43.95240955993376" lon="10.82399631037422"><ele>347.0</ele><time>2026-04-04T07:34:47Z</time></trkpt><trkpt lat="43.95243566873922" lon="10.82417016454112"><ele>346.75</ele><time>2026-04-04T07:34:48Z</time></trkpt><trkpt lat="43.952452024241055" lon="10.824367154244358"><ele>346.5</ele><time>2026-04-04T07:34:49Z</time></trkpt><trkpt lat="43.952468139160906" lon="10.824544843533157"><ele>346.25</ele><time>2026-04-04T07:34:50Z</time></trkpt><trkpt lat="43.95251153964038" lon="10.824668538179408"><ele>346.0</ele><time>2026-04-04T07:34:51Z</time></trkpt><trkpt lat="43.9525928121421" lon="10.824745448905022"><ele>346.0</ele><time>2026-04-04T07:34:52Z</time></trkpt><trkpt lat="43.95269671021277" lon="10.824787577167559"><ele>346.0</ele><time>2026-04-04T07:34:53Z</time></trkpt><trkpt lat="43.9528120556997" lon="10.824781390906546"><ele>346.0</ele><time>2026-04-04T07:34:54Z</time></trkpt><trkpt lat="43.95293910415747" lon="10.824740725435305"><ele>346.0</ele><time>2026-04-04T07:34:55Z</time></trkpt><trkpt lat="43.95306841643776" lon="10.824701206275126"><ele>346.0</ele><time>2026-04-04T07:34:56Z</time></trkpt><trkpt lat="43.953208950019615" lon="10.82466979443201"><ele>346.0</ele><time>2026-04-04T07:34:57Z</time></trkpt><trkpt lat="43.95335088665845" lon="10.824736522197679"><ele>346.0</ele><time>2026-04-04T07:34:58Z</time></trkpt><trkpt lat="43.95351103941917" lon="10.824770474373587"><ele>347.66666666666663</ele><time>2026-04-04T07:34:59Z</time></trkpt><trkpt lat="43.95365903495667" lon="10.824766167366649"><ele>349.3333333333333</ele><time>2026-04-04T07:35:00Z</time></trkpt><trkpt lat="43.95381469653395" lon="10.824773502360038"><ele>351.0</ele><time>2026-04-04T07:35:01Z</time></trkpt><trkpt lat="43.953965328640834" lon="10.82477534089636"><ele>351.0</ele><time>2026-04-04T07:35:02Z</time></trkpt><trkpt lat="43.95409541777157" lon="10.824776577716545"><ele>351.0</ele><time>2026-04-04T07:35:03Z</time></trkpt><trkpt lat="43.954208484614675" lon="10.824764099265831"><ele>351.0</ele><time>2026-04-04T07:35:04Z</time></trkpt><trkpt lat="43.95428859211997" lon="10.824706106526563"><ele>351.0</ele><time>2026-04-04T07:35:05Z</time></trkpt><trkpt lat="43.954364700667895" lon="10.824606689776967"><ele>351.0</ele><time>2026-04-04T07:35:06Z</time></trkpt><trkpt lat="43.95442900642882" lon="10.824486191388342"><ele>350.0</ele><time>2026-04-04T07:35:07Z</time></trkpt><trkpt lat="43.95450074462358" lon="10.824341214253067"><ele>349.0</ele><time>2026-04-04T07:35:08Z</time></trkpt><trkpt lat="43.954573241515256" lon="10.824234277674739"><ele>348.0</ele><time>2026-04-04T07:35:09Z</time></trkpt><trkpt lat="43.95464673555874" lon="10.824180781524259"><ele>347.0</ele><time>2026-04-04T07:35:10Z</time></trkpt><trkpt lat="43.95473176382077" lon="10.824187659831715"><ele>346.0</ele><time>2026-04-04T07:35:11Z</time></trkpt><trkpt lat="43.954815762135" lon="10.824246291385965"><ele>344.8333333333333</ele><time>2026-04-04T07:35:12Z</time></trkpt><trkpt lat="43.95490147500634" lon="10.824257840830931"><ele>343.66666666666663</ele><time>2026-04-04T07:35:13Z</time></trkpt><trkpt lat="43.95497856581992" lon="10.82420993643415"><ele>342.5</ele><time>2026-04-04T07:35:14Z</time></trkpt><trkpt lat="43.95505314377584" lon="10.824188262529201"><ele>341.3333333333333</ele><time>2026-04-04T07:35:15Z</time></trkpt><trkpt lat="43.955125186100744" lon="10.824115056779265"><ele>340.1666666666667</ele><time>2026-04-04T07:35:16Z</time></trkpt><trkpt lat="43.95521061565594" lon="10.824060102348152"><ele>339.0</ele><time>2026-04-04T07:35:17Z</time></trkpt><trkpt lat="43.95531408021846" lon="10.823969049849946"><ele>339.0</ele><time>2026-04-04T07:35:18Z</time></trkpt><trkpt lat="43.955417530978295" lon="10.823835573023489"><ele>339.0</ele><time>2026-04-04T07:35:19Z</time></trkpt><trkpt lat="43.95550341583409" lon="10.823706241860423"><ele>339.0</ele><time>2026-04-04T07:35:20Z</time></trkpt><trkpt lat="43.95555324633024" lon="10.823587866983821"><ele>339.0</ele><time>2026-04-04T07:35:21Z</time></trkpt><trkpt lat="43.955567707595804" lon="10.823474951007977"><ele>339.0</ele><time>2026-04-04T07:35:22Z</time></trkpt><trkpt lat="43.95555298410633" lon="10.823338651397046"><ele>343.0</ele><time>2026-04-04T07:35:23Z</time></trkpt><trkpt lat="43.955504913351746" lon="10.823171848656168"><ele>347.0</ele><time>2026-04-04T07:35:24Z</time></trkpt><trkpt lat="43.95546763237594" lon="10.823001298757356"><ele>351.0</ele><time>2026-04-04T07:35:25Z</time></trkpt><trkpt lat="43.95544836316948" lon="10.822853575282004"><ele>355.0</ele><time>2026-04-04T07:35:26Z</time></trkpt><trkpt lat="43.95545193359837" lon="10.822715226942288"><ele>355.0</ele><time>2026-04-04T07:35:27Z</time></trkpt><trkpt lat="43.955492045106155" lon="10.822593191766755"><ele>355.0</ele><time>2026-04-04T07:35:28Z</time></trkpt><trkpt lat="43.95557497282204" lon="10.822539286515577"><ele>355.0</ele><time>2026-04-04T07:35:29Z</time></trkpt><trkpt lat="43.95565764968358" lon="10.822526123618578"><ele>355.0</ele><time>2026-04-04T07:35:30Z</time></trkpt><trkpt lat="43.95574735419561" lon="10.822544760922089"><ele>355.0</ele><time>2026-04-04T07:35:31Z</time></trkpt><trkpt lat="43.95583565064346" lon="10.822665505286627"><ele>355.0</ele><time>2026-04-04T07:35:32Z</time></trkpt><trkpt lat="43.955886650395506" lon="10.822822868826279"><ele>355.0</ele><time>2026-04-04T07:35:33Z</time></trkpt><trkpt lat="43.95594708560775" lon="10.822977114008205"><ele>355.0</ele><time>2026-04-04T07:35:34Z</time></trkpt><trkpt lat="43.9560437826116" lon="10.82308879186366"><ele>355.0</ele><time>2026-04-04T07:35:35Z</time></trkpt><trkpt lat="43.95617659798778" lon="10.823173334393402"><ele>355.0</ele><time>2026-04-04T07:35:36Z</time></trkpt><trkpt lat="43.95632330304046" lon="10.823254982316504"><ele>355.0</ele><time>2026-04-04T07:35:37Z</time></trkpt><trkpt lat="43.956476801991656" lon="10.823283075615178"><ele>355.0</ele><time>2026-04-04T07:35:38Z</time></trkpt><trkpt lat="43.95662893685578" lon="10.82326731124906"><ele>358.3333333333333</ele><time>2026-04-04T07:35:39Z</time></trkpt><trkpt lat="43.9567789449481" lon="10.823212477124242"><ele>361.6666666666667</ele><time>2026-04-04T07:35:40Z</time></trkpt><trkpt lat="43.95692485065588" lon="10.823134573631073"><ele>365.0</ele><time>2026-04-04T07:35:41Z</time></trkpt><trkpt lat="43.957072850380825" lon="10.823032515278923"><ele>365.0</ele><time>2026-04-04T07:35:42Z</time></trkpt><trkpt lat="43.957224129599126" lon="10.822927163393759"><ele>365.0</ele><time>2026-04-04T07:35:43Z</time></trkpt><trkpt lat="43.95736647186665" lon="10.822847298428648"><ele>365.0</ele><time>2026-04-04T07:35:44Z</time></trkpt><trkpt lat="43.95747641492132" lon="10.822783185377437"><ele>365.0</ele><time>2026-04-04T07:35:45Z</time></trkpt><trkpt lat="43.9575918444934" lon="10.82274075152066"><ele>371.83333333333337</ele><time>2026-04-04T07:35:46Z</time></trkpt><trkpt lat="43.957674505767336" lon="10.822757227542695"><ele>378.6666666666667</ele><time>2026-04-04T07:35:47Z</time></trkpt><trkpt lat="43.957741614425004" lon="10.822795871583136"><ele>385.5</ele><time>2026-04-04T07:35:48Z</time></trkpt><trkpt lat="43.95777916365504" lon="10.822909999369378"><ele>392.33333333333337</ele><time>2026-04-04T07:35:49Z</time></trkpt><trkpt lat="43.9577935337475" lon="10.823036906631618"><ele>399.1666666666667</ele><time>2026-04-04T07:35:50Z</time></trkpt><trkpt lat="43.95777511150833" lon="10.823163537010005"><ele>406.0</ele><time>2026-04-04T07:35:51Z</time></trkpt><trkpt lat="43.957717825028006" lon="10.82330484773239"><ele>406.0</ele><time>2026-04-04T07:35:52Z</time></trkpt><trkpt lat="43.95765308317124" lon="10.823474995243913"><ele>406.0</ele><time>2026-04-04T07:35:53Z</time></trkpt><trkpt lat="43.957582568482664" lon="10.823646482420127"><ele>406.0</ele><time>2026-04-04T07:35:54Z</time></trkpt><trkpt lat="43.95748912347907" lon="10.8238014184489"><ele>406.0</ele><time>2026-04-04T07:35:55Z</time></trkpt><trkpt lat="43.95738662785111" lon="10.823957887174904"><ele>400.0</ele><time>2026-04-04T07:35:56Z</time></trkpt><trkpt lat="43.95728519392123" lon="10.82407798535075"><ele>394.0</ele><time>2026-04-04T07:35:57Z</time></trkpt><trkpt lat="43.957199479262876" lon="10.824188938371508"><ele>388.0</ele><time>2026-04-04T07:35:58Z</time></trkpt><trkpt lat="43.95713815901644" lon="10.824312575245122"><ele>382.0</ele><time>2026-04-04T07:35:59Z</time></trkpt><trkpt lat="43.95711740014766" lon="10.824480131317296"><ele>382.0</ele><time>2026-04-04T07:36:00Z</time></trkpt><trkpt lat="43.957139339813985" lon="10.82467000920439"><ele>382.0</ele><time>2026-04-04T07:36:01Z</time></trkpt><trkpt lat="43.957183564497285" lon="10.82486585974508"><ele>382.0</ele><time>2026-04-04T07:36:02Z</time></trkpt><trkpt lat="43.95724311998862" lon="10.82506763459154"><ele>382.0</ele><time>2026-04-04T07:36:03Z</time></trkpt><trkpt lat="43.957305387824626" lon="10.825252603729682"><ele>380.5</ele><time>2026-04-04T07:36:04Z</time></trkpt><trkpt lat="43.9573685099357" lon="10.825394035665596"><ele>379.0</ele><time>2026-04-04T07:36:05Z</time></trkpt><trkpt lat="43.957456250201446" lon="10.8255025299989"><ele>377.5</ele><time>2026-04-04T07:36:06Z</time></trkpt><trkpt lat="43.95756723335691" lon="10.82557536640799"><ele>376.0</ele><time>2026-04-04T07:36:07Z</time></trkpt><trkpt lat="43.95769050233207" lon="10.825614274339983"><ele>376.0</ele><time>2026-04-04T07:36:08Z</time></trkpt><trkpt lat="43.95782333342281" lon="10.825633039793129"><ele>376.0</ele><time>2026-04-04T07:36:09Z</time></trkpt><trkpt lat="43.957977835752075" lon="10.825637828456522"><ele>376.0</ele><time>2026-04-04T07:36:10Z</time></trkpt><trkpt lat="43.95814101358463" lon="10.825637351874798"><ele>376.0</ele><time>2026-04-04T07:36:11Z</time></trkpt><trkpt lat="43.95830502349655" lon="10.825625950884529"><ele>376.0</ele><time>2026-04-04T07:36:12Z</time></trkpt><trkpt lat="43.95848083074468" lon="10.82558481502593"><ele>376.0</ele><time>2026-04-04T07:36:13Z</time></trkpt><trkpt lat="43.95862218630084" lon="10.825559421862673"><ele>373.75</ele><time>2026-04-04T07:36:14Z</time></trkpt><trkpt lat="43.958746367338705" lon="10.825517830469893"><ele>371.5</ele><time>2026-04-04T07:36:15Z</time></trkpt><trkpt lat="43.95885311250678" lon="10.825442859161601"><ele>369.25</ele><time>2026-04-04T07:36:16Z</time></trkpt><trkpt lat="43.95892642348592" lon="10.825313032924242"><ele>367.0</ele><time>2026-04-04T07:36:17Z</time></trkpt><trkpt lat="43.95902142114325" lon="10.825189293984554"><ele>374.0</ele><time>2026-04-04T07:36:18Z</time></trkpt><trkpt lat="43.95912812675349" lon="10.825059839616534"><ele>381.0</ele><time>2026-04-04T07:36:19Z</time></trkpt><trkpt lat="43.959261758583345" lon="10.82494278826171"><ele>388.0</ele><time>2026-04-04T07:36:20Z</time></trkpt><trkpt lat="43.95939198619847" lon="10.824864923259538"><ele>395.0</ele><time>2026-04-04T07:36:21Z</time></trkpt><trkpt lat="43.95951018890526" lon="10.8248022759521"><ele>395.0</ele><time>2026-04-04T07:36:22Z</time></trkpt><trkpt lat="43.959626201289055" lon="10.824749677603432"><ele>395.0</ele><time>2026-04-04T07:36:23Z</time></trkpt><trkpt lat="43.95974889105221" lon="10.824714914178465"><ele>395.0</ele><time>2026-04-04T07:36:24Z</time></trkpt><trkpt lat="43.95988587410388" lon="10.824695838922379"><ele>395.0</ele><time>2026-04-04T07:36:25Z</time></trkpt><trkpt lat="43.960029175642255" lon="10.824683192798949"><ele>393.66666666666663</ele><time>2026-04-04T07:36:26Z</time></trkpt><trkpt lat="43.9601802888663" lon="10.82468392649357"><ele>392.33333333333337</ele><time>2026-04-04T07:36:27Z</time></trkpt><trkpt lat="43.96032709917683" lon="10.82469823658826"><ele>391.0</ele><time>2026-04-04T07:36:28Z</time></trkpt><trkpt lat="43.960495609390904" lon="10.82468558482041"><ele>391.0</ele><time>2026-04-04T07:36:29Z</time></trkpt><trkpt lat="43.9606561462046" lon="10.824662437904646"><ele>391.0</ele><time>2026-04-04T07:36:30Z</time></trkpt><trkpt lat="43.96082668667951" lon="10.824606475322948"><ele>391.0</ele><time>2026-04-04T07:36:31Z</time></trkpt><trkpt lat="43.960993477263536" lon="10.82455523756079"><ele>389.25</ele><time>2026-04-04T07:36:32Z</time></trkpt><trkpt lat="43.96115118247479" lon="10.824492682424962"><ele>387.5</ele><time>2026-04-04T07:36:33Z</time></trkpt><trkpt lat="43.96127960614503" lon="10.824449635297782"><ele>385.75</ele><time>2026-04-04T07:36:34Z</time></trkpt><trkpt lat="43.9613886330117" lon="10.824382192398282"><ele>384.0</ele><time>2026-04-04T07:36:35Z</time></trkpt><trkpt lat="43.961470422904014" lon="10.824257883868981"><ele>389.75</ele><time>2026-04-04T07:36:36Z</time></trkpt><trkpt lat="43.96154022530871" lon="10.82410251040293"><ele>395.5</ele><time>2026-04-04T07:36:37Z</time></trkpt><trkpt lat="43.961629952765996" lon="10.823939609434117"><ele>401.25</ele><time>2026-04-04T07:36:38Z</time></trkpt><trkpt lat="43.961735356413755" lon="10.823806611978721"><ele>407.0</ele><time>2026-04-04T07:36:39Z</time></trkpt><trkpt lat="43.96186641766364" lon="10.823701581872678"><ele>407.0</ele><time>2026-04-04T07:36:40Z</time></trkpt><trkpt lat="43.96201510104159" lon="10.823650060331351"><ele>407.0</ele><time>2026-04-04T07:36:41Z</time></trkpt><trkpt lat="43.96216831952727" lon="10.823598957145096"><ele>407.0</ele><time>2026-04-04T07:36:42Z</time></trkpt><trkpt lat="43.9623285619037" lon="10.823570453778716"><ele>407.0</ele><time>2026-04-04T07:36:43Z</time></trkpt><trkpt lat="43.9624810780974" lon="10.8235679920583"><ele>407.0</ele><time>2026-04-04T07:36:44Z</time></trkpt><trkpt lat="43.96261809530667" lon="10.823565262911037"><ele>407.0</ele><time>2026-04-04T07:36:45Z</time></trkpt><trkpt lat="43.96275278647745" lon="10.823511573323303"><ele>407.0</ele><time>2026-04-04T07:36:46Z</time></trkpt><trkpt lat="43.96289598937443" lon="10.823435419990998"><ele>418.0</ele><time>2026-04-04T07:36:47Z</time></trkpt><trkpt lat="43.96304787536585" lon="10.823340622886537"><ele>429.0</ele><time>2026-04-04T07:36:48Z</time></trkpt><trkpt lat="43.96320463482217" lon="10.823248600677449"><ele>440.0</ele><time>2026-04-04T07:36:49Z</time></trkpt><trkpt lat="43.96336253685236" lon="10.823157315284082"><ele>436.3333333333333</ele><time>2026-04-04T07:36:50Z</time></trkpt><trkpt lat="43.96351990323983" lon="10.823068313168354"><ele>432.66666666666663</ele><time>2026-04-04T07:36:51Z</time></trkpt><trkpt lat="43.9636918805256" lon="10.822977322339753"><ele>429.0</ele><time>2026-04-04T07:36:52Z</time></trkpt><trkpt lat="43.96387248134314" lon="10.822893519976322"><ele>429.0</ele><time>2026-04-04T07:36:53Z</time></trkpt><trkpt lat="43.964046284832435" lon="10.822813956824213"><ele>429.0</ele><time>2026-04-04T07:36:54Z</time></trkpt><trkpt lat="43.96418868114765" lon="10.822751926534595"><ele>429.0</ele><time>2026-04-04T07:36:55Z</time></trkpt><trkpt lat="43.96431776050272" lon="10.822689623597645"><ele>429.6</ele><time>2026-04-04T07:36:56Z</time></trkpt><trkpt lat="43.96444203689326" lon="10.822646134649187"><ele>430.2</ele><time>2026-04-04T07:36:57Z</time></trkpt><trkpt lat="43.96453386326246" lon="10.822563407564687"><ele>430.80000000000007</ele><time>2026-04-04T07:36:58Z</time></trkpt><trkpt lat="43.964594411682306" lon="10.822452563490545"><ele>431.40000000000003</ele><time>2026-04-04T07:36:59Z</time></trkpt><trkpt lat="43.9646315327077" lon="10.822316093267494"><ele>432.0</ele><time>2026-04-04T07:37:00Z</time></trkpt><trkpt lat="43.964668487501676" lon="10.822144282292099"><ele>432.0</ele><time>2026-04-04T07:37:01Z</time></trkpt><trkpt lat="43.96469363064067" lon="10.821969585800153"><ele>432.0</ele><time>2026-04-04T07:37:02Z</time></trkpt><trkpt lat="43.96472206587276" lon="10.821806576289477"><ele>432.0</ele><time>2026-04-04T07:37:03Z</time></trkpt><trkpt lat="43.96476008775724" lon="10.82163513948206"><ele>432.0</ele><time>2026-04-04T07:37:04Z</time></trkpt><trkpt lat="43.964817556000504" lon="10.82147398099947"><ele>432.5</ele><time>2026-04-04T07:37:05Z</time></trkpt><trkpt lat="43.96487093284689" lon="10.821331946109485"><ele>433.0</ele><time>2026-04-04T07:37:06Z</time></trkpt><trkpt lat="43.964940392759864" lon="10.821205381231346"><ele>433.5</ele><time>2026-04-04T07:37:07Z</time></trkpt><trkpt lat="43.9650287214695" lon="10.821102709677627"><ele>434.0</ele><time>2026-04-04T07:37:08Z</time></trkpt><trkpt lat="43.965127374429606" lon="10.821020427573435"><ele>436.0</ele><time>2026-04-04T07:37:09Z</time></trkpt><trkpt lat="43.96521215251256" lon="10.820937103214375"><ele>438.0</ele><time>2026-04-04T07:37:10Z</time></trkpt><trkpt lat="43.96525944745482" lon="10.820824419400013"><ele>440.0</ele><time>2026-04-04T07:37:11Z</time></trkpt><trkpt lat="43.96528406824282" lon="10.820694438501512"><ele>442.0</ele><time>2026-04-04T07:37:12Z</time></trkpt><trkpt lat="43.96527312857722" lon="10.820492768673375"><ele>444.0</ele><time>2026-04-04T07:37:13Z</time></trkpt><trkpt lat="43.965280231831954" lon="10.820328141069853"><ele>444.0</ele><time>2026-04-04T07:37:14Z</time></trkpt><trkpt lat="43.96529925068499" lon="10.820179774798971"><ele>444.0</ele><time>2026-04-04T07:37:15Z</time></trkpt><trkpt lat="43.9653359444679" lon="10.82005213024785"><ele>444.0</ele><time>2026-04-04T07:37:16Z</time></trkpt><trkpt lat="43.96540272488181" lon="10.81990262382984"><ele>444.0</ele><time>2026-04-04T07:37:17Z</time></trkpt><trkpt lat="43.96548461640587" lon="10.8197584733061"><ele>446.75</ele><time>2026-04-04T07:37:18Z</time></trkpt><trkpt lat="43.96557233992462" lon="10.819600005565354"><ele>449.5</ele><time>2026-04-04T07:37:19Z</time></trkpt><trkpt lat="43.965647753410394" lon="10.81942371219685"><ele>452.25</ele><time>2026-04-04T07:37:20Z</time></trkpt><trkpt lat="43.96573012104684" lon="10.819260219764704"><ele>455.0</ele><time>2026-04-04T07:37:21Z</time></trkpt><trkpt lat="43.96580760850529" lon="10.819123136015465"><ele>461.0</ele><time>2026-04-04T07:37:22Z</time></trkpt><trkpt lat="43.96587169607795" lon="10.818997317067941"><ele>467.0</ele><time>2026-04-04T07:37:23Z</time></trkpt><trkpt lat="43.9659396832494" lon="10.818887453886017"><ele>473.0</ele><time>2026-04-04T07:37:24Z</time></trkpt><trkpt lat="43.966013793537996" lon="10.818819341017381"><ele>479.0</ele><time>2026-04-04T07:37:25Z</time></trkpt><trkpt lat="43.966102226607475" lon="10.818769127918296"><ele>485.0</ele><time>2026-04-04T07:37:26Z</time></trkpt><trkpt lat="43.96619169927853" lon="10.81876432140768"><ele>485.0</ele><time>2026-04-04T07:37:27Z</time></trkpt><trkpt lat="43.96628252019254" lon="10.818794660474532"><ele>485.0</ele><time>2026-04-04T07:37:28Z</time></trkpt><trkpt lat="43.966355411257595" lon="10.81884925723791"><ele>485.0</ele><time>2026-04-04T07:37:29Z</time></trkpt><trkpt lat="43.9664267703681" lon="10.818930381636722"><ele>485.0</ele><time>2026-04-04T07:37:30Z</time></trkpt><trkpt lat="43.96647928067274" lon="10.819073642253066"><ele>485.0</ele><time>2026-04-04T07:37:31Z</time></trkpt><trkpt lat="43.966520066201255" lon="10.819235692185597"><ele>482.75</ele><time>2026-04-04T07:37:32Z</time></trkpt><trkpt lat="43.966570683682626" lon="10.819382855606456"><ele>480.5</ele><time>2026-04-04T07:37:33Z</time></trkpt><trkpt lat="43.96658017190438" lon="10.819543968079946"><ele>478.25</ele><time>2026-04-04T07:37:34Z</time></trkpt><trkpt lat="43.96661446827142" lon="10.81970475679414"><ele>476.0</ele><time>2026-04-04T07:37:35Z</time></trkpt><trkpt lat="43.96664212232914" lon="10.81987257891847"><ele>476.0</ele><time>2026-04-04T07:37:36Z</time></trkpt><trkpt lat="43.966660169950366" lon="10.820018342732734"><ele>476.0</ele><time>2026-04-04T07:37:37Z</time></trkpt><trkpt lat="43.96666852491389" lon="10.820156656203487"><ele>476.0</ele><time>2026-04-04T07:37:38Z</time></trkpt><trkpt lat="43.96666420712285" lon="10.820305064796967"><ele>476.0</ele><time>2026-04-04T07:37:39Z</time></trkpt><trkpt lat="43.966667864841924" lon="10.820452720577032"><ele>476.0</ele><time>2026-04-04T07:37:40Z</time></trkpt><trkpt lat="43.96668348820236" lon="10.820581791831914"><ele>478.8</ele><time>2026-04-04T07:37:41Z</time></trkpt><trkpt lat="43.966725953456866" lon="10.8207147805876"><ele>481.6</ele><time>2026-04-04T07:37:42Z</time></trkpt><trkpt lat="43.96677948399207" lon="10.82083487313798"><ele>484.4</ele><time>2026-04-04T07:37:43Z</time></trkpt><trkpt lat="43.96684157428742" lon="10.820941661269863"><ele>487.2</ele><time>2026-04-04T07:37:44Z</time></trkpt><trkpt lat="43.96690039767073" lon="10.821037524923394"><ele>490.0</ele><time>2026-04-04T07:37:45Z</time></trkpt><trkpt lat="43.96696516634944" lon="10.821098082939674"><ele>490.00000000000006</ele><time>2026-04-04T07:37:46Z</time></trkpt><trkpt lat="43.96702784047693" lon="10.821133859897982"><ele>490.0</ele><time>2026-04-04T07:37:47Z</time></trkpt><trkpt lat="43.96709450653914" lon="10.82112819023236"><ele>490.0</ele><time>2026-04-04T07:37:48Z</time></trkpt><trkpt lat="43.967169039513585" lon="10.821097167478696"><ele>490.0</ele><time>2026-04-04T07:37:49Z</time></trkpt><trkpt lat="43.96723444958572" lon="10.821028169517236"><ele>490.00000000000006</ele><time>2026-04-04T07:37:50Z</time></trkpt><trkpt lat="43.96727967163059" lon="10.820935131847085"><ele>490.0</ele><time>2026-04-04T07:37:51Z</time></trkpt><trkpt lat="43.96729591797395" lon="10.820825909127098"><ele>490.00000000000006</ele><time>2026-04-04T07:37:52Z</time></trkpt><trkpt lat="43.96727230515772" lon="10.820709737306453"><ele>490.0</ele><time>2026-04-04T07:37:53Z</time></trkpt><trkpt lat="43.96721922663755" lon="10.820612574314557"><ele>490.0</ele><time>2026-04-04T07:37:54Z</time></trkpt><trkpt lat="43.9671423034485" lon="10.82052446146003"><ele>490.0</ele><time>2026-04-04T07:37:55Z</time></trkpt><trkpt lat="43.96707624289939" lon="10.820439703042295"><ele>490.00000000000006</ele><time>2026-04-04T07:37:56Z</time></trkpt><trkpt lat="43.96703555867446" lon="10.82034232618634"><ele>490.0</ele><time>2026-04-04T07:37:57Z</time></trkpt><trkpt lat="43.967038516945536" lon="10.820247772530276"><ele>490.00000000000006</ele><time>2026-04-04T07:37:58Z</time></trkpt><trkpt lat="43.96712315109502" lon="10.820115913624559"><ele>490.0</ele><time>2026-04-04T07:38:00Z</time></trkpt><trkpt lat="43.967191107587425" lon="10.820118146355085"><ele>490.0</ele><time>2026-04-04T07:38:01Z</time></trkpt><trkpt lat="43.96726401526798" lon="10.820161280399246"><ele>490.0</ele><time>2026-04-04T07:38:02Z</time></trkpt><trkpt lat="43.96733297827424" lon="10.820224644634242"><ele>490.00000000000006</ele><time>2026-04-04T07:38:03Z</time></trkpt><trkpt lat="43.967401770871724" lon="10.820283970276051"><ele>490.0</ele><time>2026-04-04T07:38:04Z</time></trkpt><trkpt lat="43.96746602131017" lon="10.820336784922404"><ele>492.83333333333337</ele><time>2026-04-04T07:38:05Z</time></trkpt><trkpt lat="43.967531504745516" lon="10.820402023517246"><ele>495.6666666666667</ele><time>2026-04-04T07:38:06Z</time></trkpt><trkpt lat="43.967623585368194" lon="10.820428456146118"><ele>498.5</ele><time>2026-04-04T07:38:07Z</time></trkpt><trkpt lat="43.9677207296339" lon="10.820405191094117"><ele>501.33333333333337</ele><time>2026-04-04T07:38:08Z</time></trkpt><trkpt lat="43.96780032375137" lon="10.820412383517247"><ele>504.1666666666667</ele><time>2026-04-04T07:38:09Z</time></trkpt><trkpt lat="43.96786993053192" lon="10.82032312710753"><ele>507.0</ele><time>2026-04-04T07:38:10Z</time></trkpt><trkpt lat="43.96791511749966" lon="10.820226982774697"><ele>511.40000000000003</ele><time>2026-04-04T07:38:11Z</time></trkpt><trkpt lat="43.96792264862284" lon="10.820096054287859"><ele>515.8000000000001</ele><time>2026-04-04T07:38:12Z</time></trkpt><trkpt lat="43.96788831570873" lon="10.819934187096479"><ele>520.2</ele><time>2026-04-04T07:38:13Z</time></trkpt><trkpt lat="43.967837884605565" lon="10.819789379091404"><ele>524.6</ele><time>2026-04-04T07:38:14Z</time></trkpt><trkpt lat="43.967799376172124" lon="10.81964914785489"><ele>529.0</ele><time>2026-04-04T07:38:15Z</time></trkpt><trkpt lat="43.967789175205624" lon="10.81950295470941"><ele>529.0</ele><time>2026-04-04T07:38:16Z</time></trkpt><trkpt lat="43.96778654858842" lon="10.8193699484175"><ele>529.0</ele><time>2026-04-04T07:38:17Z</time></trkpt><trkpt lat="43.967790683567266" lon="10.819241867524005"><ele>529.0</ele><time>2026-04-04T07:38:18Z</time></trkpt><trkpt lat="43.96780674318348" lon="10.819125916357695"><ele>529.0</ele><time>2026-04-04T07:38:19Z</time></trkpt><trkpt lat="43.9678797419737" lon="10.81901367144653"><ele>529.0</ele><time>2026-04-04T07:38:20Z</time></trkpt><trkpt lat="43.967967058421934" lon="10.818927568050212"><ele>529.4</ele><time>2026-04-04T07:38:21Z</time></trkpt><trkpt lat="43.968066356297726" lon="10.818885948773925"><ele>529.8</ele><time>2026-04-04T07:38:22Z</time></trkpt><trkpt lat="43.96816651249623" lon="10.81890175573721"><ele>530.2</ele><time>2026-04-04T07:38:23Z</time></trkpt><trkpt lat="43.96825775390908" lon="10.818974306687016"><ele>530.6</ele><time>2026-04-04T07:38:24Z</time></trkpt><trkpt lat="43.968317212256935" lon="10.819080422062612"><ele>531.0</ele><time>2026-04-04T07:38:25Z</time></trkpt><trkpt lat="43.96832406907784" lon="10.81920854570766"><ele>530.6</ele><time>2026-04-04T07:38:26Z</time></trkpt><trkpt lat="43.96831794884438" lon="10.819330520952578"><ele>530.2</ele><time>2026-04-04T07:38:27Z</time></trkpt><trkpt lat="43.96831603958402" lon="10.819473289360737"><ele>529.8</ele><time>2026-04-04T07:38:28Z</time></trkpt><trkpt lat="43.968314084534356" lon="10.819626327386585"><ele>529.4</ele><time>2026-04-04T07:38:29Z</time></trkpt><trkpt lat="43.968316380794136" lon="10.819791757069703"><ele>529.0</ele><time>2026-04-04T07:38:30Z</time></trkpt><trkpt lat="43.96834251279786" lon="10.819942517757296"><ele>530.6</ele><time>2026-04-04T07:38:31Z</time></trkpt><trkpt lat="43.968423653278194" lon="10.820061256938837"><ele>532.2</ele><time>2026-04-04T07:38:32Z</time></trkpt><trkpt lat="43.96852025560366" lon="10.82010890256972"><ele>533.8000000000001</ele><time>2026-04-04T07:38:33Z</time></trkpt><trkpt lat="43.96860969276306" lon="10.820133023524352"><ele>535.4</ele><time>2026-04-04T07:38:34Z</time></trkpt><trkpt lat="43.96870437546235" lon="10.820102658739822"><ele>537.0</ele><time>2026-04-04T07:38:35Z</time></trkpt><trkpt lat="43.96880880167481" lon="10.82005451844271"><ele>537.0</ele><time>2026-04-04T07:38:36Z</time></trkpt><trkpt lat="43.96890626818414" lon="10.82000286774268"><ele>537.0</ele><time>2026-04-04T07:38:37Z</time></trkpt><trkpt lat="43.968993855487746" lon="10.819959715520916"><ele>537.0</ele><time>2026-04-04T07:38:38Z</time></trkpt><trkpt lat="43.969080159071076" lon="10.819916585043241"><ele>537.0</ele><time>2026-04-04T07:38:39Z</time></trkpt><trkpt lat="43.96916544281722" lon="10.819867483897049"><ele>537.0</ele><time>2026-04-04T07:38:40Z</time></trkpt><trkpt lat="43.9692695422809" lon="10.819825552066902"><ele>536.3333333333334</ele><time>2026-04-04T07:38:41Z</time></trkpt><trkpt lat="43.96935670678149" lon="10.8197918302815"><ele>535.6666666666666</ele><time>2026-04-04T07:38:42Z</time></trkpt><trkpt lat="43.96944449613231" lon="10.819747848981153"><ele>535.0</ele><time>2026-04-04T07:38:43Z</time></trkpt><trkpt lat="43.96952142188317" lon="10.819700609941279"><ele>534.3333333333333</ele><time>2026-04-04T07:38:44Z</time></trkpt><trkpt lat="43.9695733000802" lon="10.819631377683056"><ele>533.6666666666666</ele><time>2026-04-04T07:38:45Z</time></trkpt><trkpt lat="43.969599160028345" lon="10.819535091648296"><ele>533.0</ele><time>2026-04-04T07:38:46Z</time></trkpt><trkpt lat="43.96958835703583" lon="10.819424264882336"><ele>533.8</ele><time>2026-04-04T07:38:47Z</time></trkpt><trkpt lat="43.96955686256001" lon="10.819313123246896"><ele>534.5999999999999</ele><time>2026-04-04T07:38:48Z</time></trkpt><trkpt lat="43.96946238653023" lon="10.819278126447685"><ele>535.4000000000001</ele><time>2026-04-04T07:38:49Z</time></trkpt><trkpt lat="43.9693606889468" lon="10.819277883247661"><ele>536.2</ele><time>2026-04-04T07:38:50Z</time></trkpt><trkpt lat="43.969266089383154" lon="10.819315338651226"><ele>537.0</ele><time>2026-04-04T07:38:51Z</time></trkpt><trkpt lat="43.96916080852297" lon="10.819357925826615"><ele>537.0</ele><time>2026-04-04T07:38:52Z</time></trkpt><trkpt lat="43.969057170983355" lon="10.819376664344015"><ele>537.0</ele><time>2026-04-04T07:38:53Z</time></trkpt><trkpt lat="43.968978912446154" lon="10.819340602984573"><ele>537.0</ele><time>2026-04-04T07:38:54Z</time></trkpt><trkpt lat="43.96891675343977" lon="10.819274088340052"><ele>537.0</ele><time>2026-04-04T07:38:55Z</time></trkpt><trkpt lat="43.96888167940587" lon="10.81916859154954"><ele>537.0</ele><time>2026-04-04T07:38:56Z</time></trkpt><trkpt lat="43.968864591482536" lon="10.819044597614804"><ele>537.0</ele><time>2026-04-04T07:38:57Z</time></trkpt><trkpt lat="43.96887753392064" lon="10.81889122102652"><ele>540.5</ele><time>2026-04-04T07:38:58Z</time></trkpt><trkpt lat="43.96888036728485" lon="10.818738031351641"><ele>544.0</ele><time>2026-04-04T07:38:59Z</time></trkpt><trkpt lat="43.968905332142235" lon="10.818575079084065"><ele>547.5</ele><time>2026-04-04T07:39:00Z</time></trkpt><trkpt lat="43.96895772760729" lon="10.818424359303457"><ele>551.0</ele><time>2026-04-04T07:39:01Z</time></trkpt><trkpt lat="43.9690342321657" lon="10.818283356625301"><ele>551.75</ele><time>2026-04-04T07:39:02Z</time></trkpt><trkpt lat="43.969135206308245" lon="10.818145526413028"><ele>552.5</ele><time>2026-04-04T07:39:03Z</time></trkpt><trkpt lat="43.96924395055032" lon="10.818013725717092"><ele>553.25</ele><time>2026-04-04T07:39:04Z</time></trkpt><trkpt lat="43.96936404206102" lon="10.817888510779602"><ele>554.0</ele><time>2026-04-04T07:39:05Z</time></trkpt><trkpt lat="43.96948567349949" lon="10.817770313765811"><ele>557.0</ele><time>2026-04-04T07:39:06Z</time></trkpt><trkpt lat="43.96961646268018" lon="10.817652640255924"><ele>560.0</ele><time>2026-04-04T07:39:07Z</time></trkpt><trkpt lat="43.96975535736244" lon="10.817552805581801"><ele>563.0</ele><time>2026-04-04T07:39:08Z</time></trkpt><trkpt lat="43.9698782556769" lon="10.81745048298215"><ele>563.6</ele><time>2026-04-04T07:39:09Z</time></trkpt><trkpt lat="43.9699851864434" lon="10.817362910096632"><ele>564.1999999999999</ele><time>2026-04-04T07:39:10Z</time></trkpt><trkpt lat="43.970078174482595" lon="10.817273236048683"><ele>564.8</ele><time>2026-04-04T07:39:11Z</time></trkpt><trkpt lat="43.97016113732704" lon="10.817216762291425"><ele>565.4</ele><time>2026-04-04T07:39:12Z</time></trkpt><trkpt lat="43.970231616930455" lon="10.817169849219422"><ele>566.0</ele><time>2026-04-04T07:39:13Z</time></trkpt><trkpt lat="43.970298014126" lon="10.817118435588307"><ele>566.8333333333333</ele><time>2026-04-04T07:39:14Z</time></trkpt><trkpt lat="43.970346244872495" lon="10.817041589877748"><ele>567.6666666666666</ele><time>2026-04-04T07:39:15Z</time></trkpt><trkpt lat="43.970372821471365" lon="10.816937514002724"><ele>568.5</ele><time>2026-04-04T07:39:16Z</time></trkpt><trkpt lat="43.9703734688281" lon="10.816826957247603"><ele>569.3333333333334</ele><time>2026-04-04T07:39:17Z</time></trkpt><trkpt lat="43.970316484752416" lon="10.816727427312001"><ele>570.1666666666667</ele><time>2026-04-04T07:39:18Z</time></trkpt><trkpt lat="43.97024269292473" lon="10.816647193065613"><ele>571.0</ele><time>2026-04-04T07:39:19Z</time></trkpt><trkpt lat="43.97012214637963" lon="10.816644839408184"><ele>571.75</ele><time>2026-04-04T07:39:20Z</time></trkpt><trkpt lat="43.96999634455759" lon="10.816664809092728"><ele>572.5</ele><time>2026-04-04T07:39:21Z</time></trkpt><trkpt lat="43.969849062145386" lon="10.816651218665616"><ele>573.25</ele><time>2026-04-04T07:39:22Z</time></trkpt><trkpt lat="43.969704891845716" lon="10.816657630656918"><ele>574.0</ele><time>2026-04-04T07:39:23Z</time></trkpt><trkpt lat="43.969547793839816" lon="10.816664519438286"><ele>574.0</ele><time>2026-04-04T07:39:24Z</time></trkpt><trkpt lat="43.969384701367275" lon="10.816670222718047"><ele>574.0</ele><time>2026-04-04T07:39:25Z</time></trkpt><trkpt lat="43.96922669751809" lon="10.81669058133052"><ele>574.0</ele><time>2026-04-04T07:39:26Z</time></trkpt><trkpt lat="43.969078502800606" lon="10.81669306471807"><ele>574.4</ele><time>2026-04-04T07:39:27Z</time></trkpt><trkpt lat="43.968945671600835" lon="10.816704056130748"><ele>574.8</ele><time>2026-04-04T07:39:28Z</time></trkpt><trkpt lat="43.96883499935956" lon="10.816690680028534"><ele>575.2</ele><time>2026-04-04T07:39:29Z</time></trkpt><trkpt lat="43.96874747555029" lon="10.816638603785714"><ele>575.6</ele><time>2026-04-04T07:39:30Z</time></trkpt><trkpt lat="43.96870238566443" lon="10.816541224915724"><ele>576.0</ele><time>2026-04-04T07:39:31Z</time></trkpt><trkpt lat="43.96869789599804" lon="10.816433336712379"><ele>576.0</ele><time>2026-04-04T07:39:32Z</time></trkpt><trkpt lat="43.96873102724716" lon="10.816325231356103"><ele>576.0</ele><time>2026-04-04T07:39:33Z</time></trkpt><trkpt lat="43.96880793546013" lon="10.81624232295445"><ele>576.0</ele><time>2026-04-04T07:39:34Z</time></trkpt><trkpt lat="43.968921348910875" lon="10.81623217556991"><ele>576.0</ele><time>2026-04-04T07:39:34.999Z</time></trkpt><trkpt lat="43.96904681444235" lon="10.816210313109627"><ele>576.0</ele><time>2026-04-04T07:39:35.999Z</time></trkpt><trkpt lat="43.96918779871033" lon="10.816217057458138"><ele>575.5</ele><time>2026-04-04T07:39:37Z</time></trkpt><trkpt lat="43.96932226617694" lon="10.816212070302988"><ele>575.0</ele><time>2026-04-04T07:39:37.999Z</time></trkpt><trkpt lat="43.9694417561388" lon="10.816189519914271"><ele>574.5</ele><time>2026-04-04T07:39:38.999Z</time></trkpt><trkpt lat="43.96954559594458" lon="10.816111917880473"><ele>574.0</ele><time>2026-04-04T07:39:39.999Z</time></trkpt><trkpt lat="43.969641962352085" lon="10.815994383850017"><ele>577.3333333333334</ele><time>2026-04-04T07:39:40.999Z</time></trkpt><trkpt lat="43.96974043262627" lon="10.815850680901832"><ele>580.6666666666666</ele><time>2026-04-04T07:39:41.999Z</time></trkpt><trkpt lat="43.969845914382134" lon="10.815689006745957"><ele>584.0</ele><time>2026-04-04T07:39:43Z</time></trkpt><trkpt lat="43.969966952853035" lon="10.81552727104737"><ele>583.6666666666666</ele><time>2026-04-04T07:39:43.999Z</time></trkpt><trkpt lat="43.97007932677713" lon="10.81534870748948"><ele>583.3333333333334</ele><time>2026-04-04T07:39:44.999Z</time></trkpt><trkpt lat="43.97019570334746" lon="10.815171146771597"><ele>583.0</ele><time>2026-04-04T07:39:45.999Z</time></trkpt><trkpt lat="43.97031836358906" lon="10.815001525150736"><ele>586.0</ele><time>2026-04-04T07:39:47Z</time></trkpt><trkpt lat="43.97044862479382" lon="10.814825330583693"><ele>589.0</ele><time>2026-04-04T07:39:48Z</time></trkpt><trkpt lat="43.970572796266026" lon="10.814656159692856"><ele>592.0</ele><time>2026-04-04T07:39:49Z</time></trkpt><trkpt lat="43.970685268794035" lon="10.814489274743824"><ele>592.0</ele><time>2026-04-04T07:39:50Z</time></trkpt><trkpt lat="43.97078869405121" lon="10.814344297971145"><ele>592.0</ele><time>2026-04-04T07:39:51Z</time></trkpt><trkpt lat="43.9708643751076" lon="10.814191485024065"><ele>592.0</ele><time>2026-04-04T07:39:52Z</time></trkpt><trkpt lat="43.97091293861858" lon="10.814028359822316"><ele>592.0</ele><time>2026-04-04T07:39:53Z</time></trkpt><trkpt lat="43.970932194763115" lon="10.813847961897768"><ele>592.25</ele><time>2026-04-04T07:39:54Z</time></trkpt><trkpt lat="43.970922849588874" lon="10.81365269191412"><ele>592.5</ele><time>2026-04-04T07:39:55Z</time></trkpt><trkpt lat="43.97087164937385" lon="10.813469592387461"><ele>592.75</ele><time>2026-04-04T07:39:56Z</time></trkpt><trkpt lat="43.970782013322435" lon="10.813312461907097"><ele>593.0</ele><time>2026-04-04T07:39:57Z</time></trkpt><trkpt lat="43.97066481620739" lon="10.813160894505005"><ele>593.0</ele><time>2026-04-04T07:39:58Z</time></trkpt><trkpt lat="43.970537781054546" lon="10.813003381330144"><ele>593.0</ele><time>2026-04-04T07:39:59Z</time></trkpt><trkpt lat="43.97041296210707" lon="10.812845592192605"><ele>593.0</ele><time>2026-04-04T07:40:00Z</time></trkpt><trkpt lat="43.970303933631435" lon="10.812694767510722"><ele>595.6</ele><time>2026-04-04T07:40:01Z</time></trkpt><trkpt lat="43.970219472302574" lon="10.812569791959232"><ele>598.1999999999999</ele><time>2026-04-04T07:40:02Z</time></trkpt><trkpt lat="43.9701682811019" lon="10.812467491649949"><ele>600.8</ele><time>2026-04-04T07:40:03Z</time></trkpt><trkpt lat="43.97015059301161" lon="10.81236089891921"><ele>603.4</ele><time>2026-04-04T07:40:04Z</time></trkpt><trkpt lat="43.97021950729155" lon="10.8122127717194"><ele>606.0</ele><time>2026-04-04T07:40:06Z</time></trkpt><trkpt lat="43.970301820136534" lon="10.812197475612358"><ele>606.0</ele><time>2026-04-04T07:40:07Z</time></trkpt><trkpt lat="43.970377859974384" lon="10.812277088092051"><ele>606.0</ele><time>2026-04-04T07:40:08Z</time></trkpt><trkpt lat="43.97047524389258" lon="10.812361799443483"><ele>606.0</ele><time>2026-04-04T07:40:09Z</time></trkpt><trkpt lat="43.97059459622162" lon="10.812442832953693"><ele>606.0</ele><time>2026-04-04T07:40:10Z</time></trkpt><trkpt lat="43.97073139561308" lon="10.812514553560938"><ele>608.75</ele><time>2026-04-04T07:40:11Z</time></trkpt><trkpt lat="43.97086872460972" lon="10.812577953189345"><ele>611.5</ele><time>2026-04-04T07:40:12Z</time></trkpt><trkpt lat="43.97101249669466" lon="10.812656646937594"><ele>614.25</ele><time>2026-04-04T07:40:13Z</time></trkpt><trkpt lat="43.97113270066146" lon="10.812753728166884"><ele>617.0</ele><time>2026-04-04T07:40:14Z</time></trkpt><trkpt lat="43.97122027892768" lon="10.812866606074337"><ele>617.0</ele><time>2026-04-04T07:40:15Z</time></trkpt><trkpt lat="43.971285540978094" lon="10.813003344663441"><ele>617.0</ele><time>2026-04-04T07:40:16Z</time></trkpt><trkpt lat="43.971327404736" lon="10.813152499908236"><ele>617.0</ele><time>2026-04-04T07:40:17Z</time></trkpt><trkpt lat="43.971344886127824" lon="10.813325421581327"><ele>617.0</ele><time>2026-04-04T07:40:18Z</time></trkpt><trkpt lat="43.97134671737763" lon="10.813510795301369"><ele>616.75</ele><time>2026-04-04T07:40:19Z</time></trkpt><trkpt lat="43.97131142786202" lon="10.813718618739612"><ele>616.5</ele><time>2026-04-04T07:40:20Z</time></trkpt><trkpt lat="43.97128011967921" lon="10.813900590432784"><ele>616.25</ele><time>2026-04-04T07:40:21Z</time></trkpt><trkpt lat="43.97125123785873" lon="10.814070547800547"><ele>616.0</ele><time>2026-04-04T07:40:22Z</time></trkpt><trkpt lat="43.9712296765667" lon="10.814228178018222"><ele>616.2</ele><time>2026-04-04T07:40:23Z</time></trkpt><trkpt lat="43.9712389728457" lon="10.814364213460681"><ele>616.4000000000001</ele><time>2026-04-04T07:40:24Z</time></trkpt><trkpt lat="43.9712649377484" lon="10.814487049199686"><ele>616.6</ele><time>2026-04-04T07:40:25Z</time></trkpt><trkpt lat="43.97133245879051" lon="10.814601821532245"><ele>616.8000000000001</ele><time>2026-04-04T07:40:26Z</time></trkpt><trkpt lat="43.971414562419724" lon="10.81469794561371"><ele>617.0</ele><time>2026-04-04T07:40:27Z</time></trkpt><trkpt lat="43.97152403745537" lon="10.814774932584816"><ele>617.0</ele><time>2026-04-04T07:40:28Z</time></trkpt><trkpt lat="43.9716418736905" lon="10.814841559663757"><ele>617.0</ele><time>2026-04-04T07:40:29Z</time></trkpt><trkpt lat="43.97173708617585" lon="10.81493147360699"><ele>617.0</ele><time>2026-04-04T07:40:30Z</time></trkpt><trkpt lat="43.971791323812326" lon="10.815071926184192"><ele>617.0</ele><time>2026-04-04T07:40:31Z</time></trkpt><trkpt lat="43.97181979181566" lon="10.81522503132592"><ele>621.25</ele><time>2026-04-04T07:40:32Z</time></trkpt><trkpt lat="43.971843237270406" lon="10.81540595804565"><ele>625.5</ele><time>2026-04-04T07:40:33Z</time></trkpt><trkpt lat="43.97187901063776" lon="10.81559683648918"><ele>629.75</ele><time>2026-04-04T07:40:34Z</time></trkpt><trkpt lat="43.971897699240635" lon="10.815765209104686"><ele>634.0</ele><time>2026-04-04T07:40:35Z</time></trkpt><trkpt lat="43.97195014928631" lon="10.815884549733218"><ele>628.25</ele><time>2026-04-04T07:40:36Z</time></trkpt><trkpt lat="43.972048664408504" lon="10.815987136224953"><ele>622.5</ele><time>2026-04-04T07:40:37Z</time></trkpt><trkpt lat="43.97215981046612" lon="10.816080907556794"><ele>616.75</ele><time>2026-04-04T07:40:38Z</time></trkpt><trkpt lat="43.972294116418865" lon="10.816162581403859"><ele>611.0</ele><time>2026-04-04T07:40:39Z</time></trkpt><trkpt lat="43.972435883989405" lon="10.8162474503637"><ele>612.0</ele><time>2026-04-04T07:40:40Z</time></trkpt><trkpt lat="43.97258232334513" lon="10.816309985704104"><ele>613.0</ele><time>2026-04-04T07:40:41Z</time></trkpt><trkpt lat="43.97271631176506" lon="10.816362867893593"><ele>614.0</ele><time>2026-04-04T07:40:42Z</time></trkpt><trkpt lat="43.97282186125613" lon="10.816410592876949"><ele>615.0</ele><time>2026-04-04T07:40:43Z</time></trkpt><trkpt lat="43.97289770898884" lon="10.816437356428093"><ele>615.0</ele><time>2026-04-04T07:40:44Z</time></trkpt><trkpt lat="43.97296527022562" lon="10.816391384643383"><ele>615.0</ele><time>2026-04-04T07:40:46Z</time></trkpt><trkpt lat="43.972930236768896" lon="10.816255459762173"><ele>615.0</ele><time>2026-04-04T07:40:48Z</time></trkpt><trkpt lat="43.972849162733255" lon="10.816208746737669"><ele>615.0</ele><time>2026-04-04T07:40:49Z</time></trkpt><trkpt lat="43.972775690276215" lon="10.816144019218154"><ele>615.0</ele><time>2026-04-04T07:40:50Z</time></trkpt><trkpt lat="43.972689408113034" lon="10.816089230829288"><ele>615.0</ele><time>2026-04-04T07:40:51Z</time></trkpt><trkpt lat="43.97259472528454" lon="10.816029108047305"><ele>618.1666666666666</ele><time>2026-04-04T07:40:52Z</time></trkpt><trkpt lat="43.97251482120006" lon="10.81596978333235"><ele>621.3333333333334</ele><time>2026-04-04T07:40:53Z</time></trkpt><trkpt lat="43.97244781334632" lon="10.815922450098343"><ele>624.5</ele><time>2026-04-04T07:40:54Z</time></trkpt><trkpt lat="43.97239410416261" lon="10.815839296237343"><ele>627.6666666666667</ele><time>2026-04-04T07:40:55Z</time></trkpt><trkpt lat="43.97234826970408" lon="10.815727457554557"><ele>630.8333333333334</ele><time>2026-04-04T07:40:56Z</time></trkpt><trkpt lat="43.972334569428725" lon="10.815607311435626"><ele>634.0</ele><time>2026-04-04T07:40:57Z</time></trkpt><trkpt lat="43.9723369752998" lon="10.815489542471212"><ele>634.0</ele><time>2026-04-04T07:40:58Z</time></trkpt><trkpt lat="43.972351716148225" lon="10.815359881055262"><ele>634.0</ele><time>2026-04-04T07:40:59Z</time></trkpt><trkpt lat="43.972373303990864" lon="10.815212158669379"><ele>634.0</ele><time>2026-04-04T07:41:00Z</time></trkpt><trkpt lat="43.972398672700464" lon="10.815052938333615"><ele>634.0</ele><time>2026-04-04T07:41:01Z</time></trkpt><trkpt lat="43.97244406788039" lon="10.814891997443423"><ele>634.0</ele><time>2026-04-04T07:41:02Z</time></trkpt><trkpt lat="43.97251178687014" lon="10.814730945746616"><ele>637.0</ele><time>2026-04-04T07:41:03Z</time></trkpt><trkpt lat="43.97258437699841" lon="10.814579023763091"><ele>640.0</ele><time>2026-04-04T07:41:04Z</time></trkpt><trkpt lat="43.97265725002466" lon="10.81442820598428"><ele>643.0</ele><time>2026-04-04T07:41:05Z</time></trkpt><trkpt lat="43.972703758453555" lon="10.814272733728048"><ele>646.0</ele><time>2026-04-04T07:41:06Z</time></trkpt><trkpt lat="43.97273591909403" lon="10.81409935877356"><ele>648.5</ele><time>2026-04-04T07:41:07Z</time></trkpt><trkpt lat="43.97276378277299" lon="10.813934117189357"><ele>651.0</ele><time>2026-04-04T07:41:08Z</time></trkpt><trkpt lat="43.972788716778275" lon="10.813751603082993"><ele>653.5</ele><time>2026-04-04T07:41:09Z</time></trkpt><trkpt lat="43.97278790055312" lon="10.813550840309885"><ele>656.0</ele><time>2026-04-04T07:41:10Z</time></trkpt><trkpt lat="43.972755179523254" lon="10.813346828400476"><ele>660.6666666666666</ele><time>2026-04-04T07:41:11Z</time></trkpt><trkpt lat="43.97269166315389" lon="10.813129680837962"><ele>665.3333333333334</ele><time>2026-04-04T07:41:12Z</time></trkpt><trkpt lat="43.9726075288365" lon="10.812930833714784"><ele>670.0</ele><time>2026-04-04T07:41:13Z</time></trkpt><trkpt lat="43.97253437147882" lon="10.812750325355594"><ele>669.0</ele><time>2026-04-04T07:41:14Z</time></trkpt><trkpt lat="43.97247677441541" lon="10.812575735655619"><ele>668.0</ele><time>2026-04-04T07:41:15Z</time></trkpt><trkpt lat="43.97239011175659" lon="10.812437737762703"><ele>667.0</ele><time>2026-04-04T07:41:16Z</time></trkpt><trkpt lat="43.97226537305826" lon="10.812314064531408"><ele>666.0</ele><time>2026-04-04T07:41:17Z</time></trkpt><trkpt lat="43.9721261308311" lon="10.812192093348186"><ele>666.0</ele><time>2026-04-04T07:41:18Z</time></trkpt><trkpt lat="43.972008332951006" lon="10.812059761263422"><ele>666.0</ele><time>2026-04-04T07:41:19Z</time></trkpt><trkpt lat="43.97188229217473" lon="10.811937385134973"><ele>666.0</ele><time>2026-04-04T07:41:20Z</time></trkpt><trkpt lat="43.97177159376602" lon="10.811823782805918"><ele>666.0</ele><time>2026-04-04T07:41:21Z</time></trkpt><trkpt lat="43.97166224202469" lon="10.81167265733672"><ele>667.0</ele><time>2026-04-04T07:41:22Z</time></trkpt><trkpt lat="43.97155276183783" lon="10.811510418230975"><ele>668.0</ele><time>2026-04-04T07:41:23Z</time></trkpt><trkpt lat="43.971466434693674" lon="10.811332515808047"><ele>669.0</ele><time>2026-04-04T07:41:24Z</time></trkpt><trkpt lat="43.97136597397558" lon="10.811168619053662"><ele>669.0</ele><time>2026-04-04T07:41:25Z</time></trkpt><trkpt lat="43.97126302555909" lon="10.81100980834765"><ele>669.0</ele><time>2026-04-04T07:41:26Z</time></trkpt><trkpt lat="43.971136322537795" lon="10.810863639544102"><ele>669.0</ele><time>2026-04-04T07:41:27Z</time></trkpt><trkpt lat="43.971016366437176" lon="10.810708973390458"><ele>667.0</ele><time>2026-04-04T07:41:28Z</time></trkpt><trkpt lat="43.97090181118271" lon="10.810534624545234"><ele>665.0</ele><time>2026-04-04T07:41:29Z</time></trkpt><trkpt lat="43.97078230911294" lon="10.8103864975582"><ele>663.0</ele><time>2026-04-04T07:41:30Z</time></trkpt><trkpt lat="43.97066754682837" lon="10.810258033823928"><ele>663.0</ele><time>2026-04-04T07:41:31Z</time></trkpt><trkpt lat="43.9705645148686" lon="10.810163679022864"><ele>663.0</ele><time>2026-04-04T07:41:32Z</time></trkpt><trkpt lat="43.97048254999255" lon="10.81008358863893"><ele>663.0</ele><time>2026-04-04T07:41:33Z</time></trkpt><trkpt lat="43.970439573993964" lon="10.81000137669824"><ele>663.0</ele><time>2026-04-04T07:41:34Z</time></trkpt><trkpt lat="43.97043215706545" lon="10.809906761493353"><ele>663.0</ele><time>2026-04-04T07:41:35Z</time></trkpt><trkpt lat="43.97045687816548" lon="10.809815015702132"><ele>663.0</ele><time>2026-04-04T07:41:36Z</time></trkpt><trkpt lat="43.97051652028692" lon="10.809716898069823"><ele>668.2</ele><time>2026-04-04T07:41:37Z</time></trkpt><trkpt lat="43.97060297071731" lon="10.809685710157124"><ele>673.4</ele><time>2026-04-04T07:41:38Z</time></trkpt><trkpt lat="43.970699384929375" lon="10.809745561684759"><ele>678.6</ele><time>2026-04-04T07:41:39Z</time></trkpt><trkpt lat="43.97077340018759" lon="10.809869007532974"><ele>683.8000000000001</ele><time>2026-04-04T07:41:39.999Z</time></trkpt><trkpt lat="43.97082092644285" lon="10.810022627863972"><ele>689.0</ele><time>2026-04-04T07:41:40.999Z</time></trkpt><trkpt lat="43.970873790527996" lon="10.810171309155502"><ele>690.0</ele><time>2026-04-04T07:41:41.999Z</time></trkpt><trkpt lat="43.970968845877394" lon="10.810301973111898"><ele>691.0</ele><time>2026-04-04T07:41:42.999Z</time></trkpt><trkpt lat="43.971096708433734" lon="10.810404422162422"><ele>692.0</ele><time>2026-04-04T07:41:43.999Z</time></trkpt><trkpt lat="43.971249066084276" lon="10.810484156602117"><ele>693.0</ele><time>2026-04-04T07:41:44.999Z</time></trkpt><trkpt lat="43.971396908049734" lon="10.810581270867376"><ele>693.0</ele><time>2026-04-04T07:41:45.999Z</time></trkpt><trkpt lat="43.97154179224056" lon="10.810730648756541"><ele>693.0</ele><time>2026-04-04T07:41:47Z</time></trkpt><trkpt lat="43.97167654465077" lon="10.810899397170795"><ele>693.0</ele><time>2026-04-04T07:41:48Z</time></trkpt><trkpt lat="43.971795581036936" lon="10.811052872658154"><ele>693.3333333333334</ele><time>2026-04-04T07:41:49Z</time></trkpt><trkpt lat="43.971924851022976" lon="10.81118852930684"><ele>693.6666666666667</ele><time>2026-04-04T07:41:49.999Z</time></trkpt><trkpt lat="43.97205454730877" lon="10.811311150710257"><ele>694.0</ele><time>2026-04-04T07:41:50.999Z</time></trkpt><trkpt lat="43.972196072746705" lon="10.811409259397271"><ele>694.0</ele><time>2026-04-04T07:41:51.999Z</time></trkpt><trkpt lat="43.97237981820442" lon="10.811462511638085"><ele>694.0</ele><time>2026-04-04T07:41:52.999Z</time></trkpt><trkpt lat="43.972563489128476" lon="10.811507425667706"><ele>694.0</ele><time>2026-04-04T07:41:53.999Z</time></trkpt><trkpt lat="43.9727405222624" lon="10.811558850825598"><ele>696.6</ele><time>2026-04-04T07:41:54.999Z</time></trkpt><trkpt lat="43.972881782314694" lon="10.811610811599527"><ele>699.2</ele><time>2026-04-04T07:41:55.999Z</time></trkpt><trkpt lat="43.972989025382645" lon="10.811642597118272"><ele>701.8000000000001</ele><time>2026-04-04T07:41:56.999Z</time></trkpt><trkpt lat="43.97307346193368" lon="10.811672299892576"><ele>704.4000000000001</ele><time>2026-04-04T07:41:57.999Z</time></trkpt><trkpt lat="43.97315848670881" lon="10.811673600155403"><ele>707.0</ele><time>2026-04-04T07:41:58.999Z</time></trkpt><trkpt lat="43.9732240664547" lon="10.811626474921312"><ele>707.0</ele><time>2026-04-04T07:41:59.999Z</time></trkpt><trkpt lat="43.97328243629526" lon="10.811521544073331"><ele>707.0</ele><time>2026-04-04T07:42:00.999Z</time></trkpt><trkpt lat="43.97329738669926" lon="10.811383264387832"><ele>707.0</ele><time>2026-04-04T07:42:01.999Z</time></trkpt><trkpt lat="43.973257589746204" lon="10.8111955884187"><ele>707.0</ele><time>2026-04-04T07:42:02.999Z</time></trkpt><trkpt lat="43.97320875851674" lon="10.81100873945823"><ele>710.6666666666666</ele><time>2026-04-04T07:42:03.999Z</time></trkpt><trkpt lat="43.97315791738966" lon="10.810796364466908"><ele>714.3333333333334</ele><time>2026-04-04T07:42:04.999Z</time></trkpt><trkpt lat="43.97310347309245" lon="10.810586106955611"><ele>718.0</ele><time>2026-04-04T07:42:05.999Z</time></trkpt><trkpt lat="43.973051958613425" lon="10.810382737123057"><ele>718.0</ele><time>2026-04-04T07:42:06.999Z</time></trkpt><trkpt lat="43.973005107404276" lon="10.810169534547082"><ele>718.0</ele><time>2026-04-04T07:42:07.999Z</time></trkpt><trkpt lat="43.9729538041658" lon="10.809953093688195"><ele>718.0</ele><time>2026-04-04T07:42:08.999Z</time></trkpt><trkpt lat="43.972910623545694" lon="10.809760274861556"><ele>720.0</ele><time>2026-04-04T07:42:09.999Z</time></trkpt><trkpt lat="43.97287425239973" lon="10.809593593567245"><ele>722.0</ele><time>2026-04-04T07:42:10.999Z</time></trkpt><trkpt lat="43.97285531658722" lon="10.809470167018905"><ele>724.0</ele><time>2026-04-04T07:42:11.999Z</time></trkpt><trkpt lat="43.97289459925205" lon="10.809294480657028"><ele>726.0</ele><time>2026-04-04T07:42:13.999Z</time></trkpt><trkpt lat="43.97297679260024" lon="10.80925750569683"><ele>728.0</ele><time>2026-04-04T07:42:14.999Z</time></trkpt><trkpt lat="43.97307925124567" lon="10.809314449865122"><ele>728.0</ele><time>2026-04-04T07:42:15.999Z</time></trkpt><trkpt lat="43.973162416511144" lon="10.80941447722186"><ele>728.0</ele><time>2026-04-04T07:42:16.999Z</time></trkpt><trkpt lat="43.97323587188063" lon="10.809545824828964"><ele>728.0</ele><time>2026-04-04T07:42:17.999Z</time></trkpt><trkpt lat="43.973288825302795" lon="10.809716473250887"><ele>728.0</ele><time>2026-04-04T07:42:18.999Z</time></trkpt><trkpt lat="43.97334678382052" lon="10.80986468338401"><ele>731.8</ele><time>2026-04-04T07:42:19.999Z</time></trkpt><trkpt lat="43.97341234737415" lon="10.809910660109953"><ele>735.5999999999999</ele><time>2026-04-04T07:42:20.999Z</time></trkpt><trkpt lat="43.97349686016561" lon="10.809890070948034"><ele>739.4000000000001</ele><time>2026-04-04T07:42:21.999Z</time></trkpt><trkpt lat="43.97358208379817" lon="10.809813401298554"><ele>743.2</ele><time>2026-04-04T07:42:22.999Z</time></trkpt><trkpt lat="43.973627301099434" lon="10.80968383380412"><ele>747.0</ele><time>2026-04-04T07:42:23.999Z</time></trkpt><trkpt lat="43.97363055211271" lon="10.809509244490219"><ele>749.6666666666666</ele><time>2026-04-04T07:42:24.999Z</time></trkpt><trkpt lat="43.97360686596563" lon="10.809311006404897"><ele>752.3333333333333</ele><time>2026-04-04T07:42:25.999Z</time></trkpt><trkpt lat="43.973585301862634" lon="10.809106306035032"><ele>755.0</ele><time>2026-04-04T07:42:26.999Z</time></trkpt><trkpt lat="43.97357866947056" lon="10.808883921411365"><ele>755.0</ele><time>2026-04-04T07:42:27.999Z</time></trkpt><trkpt lat="43.973560705494805" lon="10.80864736328419"><ele>755.0</ele><time>2026-04-04T07:42:28.999Z</time></trkpt><trkpt lat="43.9735427728117" lon="10.808426619342372"><ele>755.0</ele><time>2026-04-04T07:42:29.999Z</time></trkpt><trkpt lat="43.97353779781037" lon="10.808191757793121"><ele>756.0</ele><time>2026-04-04T07:42:30.999Z</time></trkpt><trkpt lat="43.9735228756492" lon="10.807966857262086"><ele>757.0</ele><time>2026-04-04T07:42:31.999Z</time></trkpt><trkpt lat="43.973506621112854" lon="10.807742825750136"><ele>758.0</ele><time>2026-04-04T07:42:32.999Z</time></trkpt><trkpt lat="43.97350793540189" lon="10.807523447747501"><ele>761.3333333333333</ele><time>2026-04-04T07:42:33.999Z</time></trkpt><trkpt lat="43.97349190633305" lon="10.80730121678742"><ele>764.6666666666666</ele><time>2026-04-04T07:42:34.999Z</time></trkpt><trkpt lat="43.973452541418915" lon="10.807080133842053"><ele>768.0</ele><time>2026-04-04T07:42:35.999Z</time></trkpt><trkpt lat="43.973374117056586" lon="10.806885295918196"><ele>766.6666666666666</ele><time>2026-04-04T07:42:36.999Z</time></trkpt><trkpt lat="43.97326780695582" lon="10.806695001546665"><ele>765.3333333333333</ele><time>2026-04-04T07:42:37.999Z</time></trkpt><trkpt lat="43.97315837103072" lon="10.806526587520816"><ele>764.0</ele><time>2026-04-04T07:42:38.999Z</time></trkpt><trkpt lat="43.973047069094385" lon="10.806342306148442"><ele>764.0</ele><time>2026-04-04T07:42:39.999Z</time></trkpt><trkpt lat="43.97292329507147" lon="10.806168419204228"><ele>764.0</ele><time>2026-04-04T07:42:40.999Z</time></trkpt><trkpt lat="43.972790558344265" lon="10.80598289486549"><ele>764.0</ele><time>2026-04-04T07:42:41.999Z</time></trkpt><trkpt lat="43.97268119223041" lon="10.805787120252536"><ele>762.0</ele><time>2026-04-04T07:42:42.999Z</time></trkpt><trkpt lat="43.97256489953815" lon="10.805597049715658"><ele>760.0</ele><time>2026-04-04T07:42:43.999Z</time></trkpt><trkpt lat="43.97246624777283" lon="10.80539146524422"><ele>758.0</ele><time>2026-04-04T07:42:44.999Z</time></trkpt><trkpt lat="43.97235353266933" lon="10.805224199232118"><ele>762.6666666666666</ele><time>2026-04-04T07:42:45.999Z</time></trkpt><trkpt lat="43.972250425315146" lon="10.805052238783396"><ele>767.3333333333333</ele><time>2026-04-04T07:42:46.999Z</time></trkpt><trkpt lat="43.972138089203646" lon="10.804867780823708"><ele>772.0</ele><time>2026-04-04T07:42:47.999Z</time></trkpt><trkpt lat="43.972034732360925" lon="10.804688404704683"><ele>772.0</ele><time>2026-04-04T07:42:48.999Z</time></trkpt><trkpt lat="43.9719511531824" lon="10.80452784228192"><ele>772.0</ele><time>2026-04-04T07:42:49.999Z</time></trkpt><trkpt lat="43.97185386784843" lon="10.804430944874861"><ele>772.0</ele><time>2026-04-04T07:42:50.999Z</time></trkpt><trkpt lat="43.9717392354746" lon="10.804385654265168"><ele>772.0</ele><time>2026-04-04T07:42:51.999Z</time></trkpt><trkpt lat="43.97163236518272" lon="10.80436854910006"><ele>767.25</ele><time>2026-04-04T07:42:52.999Z</time></trkpt><trkpt lat="43.971501916721884" lon="10.804392746421627"><ele>762.5</ele><time>2026-04-04T07:42:53.999Z</time></trkpt><trkpt lat="43.97134452908289" lon="10.804446735526739"><ele>757.75</ele><time>2026-04-04T07:42:54.999Z</time></trkpt><trkpt lat="43.9711929280294" lon="10.804474354052845"><ele>753.0</ele><time>2026-04-04T07:42:55.999Z</time></trkpt><trkpt lat="43.97103236559746" lon="10.804498872733497"><ele>753.0</ele><time>2026-04-04T07:42:56.999Z</time></trkpt><trkpt lat="43.97088169256765" lon="10.804530709712893"><ele>753.0</ele><time>2026-04-04T07:42:57.999Z</time></trkpt><trkpt lat="43.9707500875411" lon="10.80453899921828"><ele>753.0</ele><time>2026-04-04T07:42:58.999Z</time></trkpt><trkpt lat="43.97064852333236" lon="10.804517022600534"><ele>753.0</ele><time>2026-04-04T07:42:59.999Z</time></trkpt><trkpt lat="43.970539372772265" lon="10.804423131934511"><ele>760.3333333333333</ele><time>2026-04-04T07:43:00.999Z</time></trkpt><trkpt lat="43.97042311863805" lon="10.80427297574997"><ele>767.6666666666666</ele><time>2026-04-04T07:43:01.999Z</time></trkpt><trkpt lat="43.97031886032519" lon="10.804112631733641"><ele>775.0</ele><time>2026-04-04T07:43:02.999Z</time></trkpt><trkpt lat="43.97022874286237" lon="10.803936419247318"><ele>775.0</ele><time>2026-04-04T07:43:03.999Z</time></trkpt><trkpt lat="43.97012157678809" lon="10.803839458841697"><ele>775.0</ele><time>2026-04-04T07:43:04.999Z</time></trkpt><trkpt lat="43.9700167364202" lon="10.80381755327816"><ele>775.0</ele><time>2026-04-04T07:43:05.999Z</time></trkpt><trkpt lat="43.96988845915277" lon="10.803859529716396"><ele>775.0</ele><time>2026-04-04T07:43:06.999Z</time></trkpt><trkpt lat="43.969739017937435" lon="10.803944682652222"><ele>772.3333333333333</ele><time>2026-04-04T07:43:07.999Z</time></trkpt><trkpt lat="43.96959280137798" lon="10.80406489913729"><ele>769.6666666666666</ele><time>2026-04-04T07:43:08.999Z</time></trkpt><trkpt lat="43.96943199625358" lon="10.80413947009172"><ele>767.0</ele><time>2026-04-04T07:43:09.999Z</time></trkpt><trkpt lat="43.96928778058821" lon="10.804203220947182"><ele>767.2</ele><time>2026-04-04T07:43:10.999Z</time></trkpt><trkpt lat="43.96917074717854" lon="10.804234210946777"><ele>767.4000000000001</ele><time>2026-04-04T07:43:11.999Z</time></trkpt><trkpt lat="43.96906640816818" lon="10.80422793760268"><ele>767.5999999999999</ele><time>2026-04-04T07:43:12.999Z</time></trkpt><trkpt lat="43.96897569835087" lon="10.80414609062769"><ele>767.8</ele><time>2026-04-04T07:43:13.999Z</time></trkpt><trkpt lat="43.96890776822942" lon="10.804016550882"><ele>768.0</ele><time>2026-04-04T07:43:14.999Z</time></trkpt><trkpt lat="43.96884099203276" lon="10.803870535159879"><ele>768.0</ele><time>2026-04-04T07:43:15.999Z</time></trkpt><trkpt lat="43.968749493830785" lon="10.803773770247306"><ele>768.0</ele><time>2026-04-04T07:43:16.999Z</time></trkpt><trkpt lat="43.96865855777899" lon="10.803758587965527"><ele>768.0</ele><time>2026-04-04T07:43:17.999Z</time></trkpt><trkpt lat="43.968548404470255" lon="10.803810508903554"><ele>768.0</ele><time>2026-04-04T07:43:18.999Z</time></trkpt><trkpt lat="43.96844884769086" lon="10.803900541851991"><ele>768.0</ele><time>2026-04-04T07:43:19.999Z</time></trkpt><trkpt lat="43.968347059949934" lon="10.804029689267999"><ele>769.5</ele><time>2026-04-04T07:43:20.999Z</time></trkpt><trkpt lat="43.96823506646502" lon="10.80412898089006"><ele>771.0</ele><time>2026-04-04T07:43:21.999Z</time></trkpt><trkpt lat="43.96813512676481" lon="10.80422398653268"><ele>772.5</ele><time>2026-04-04T07:43:22.999Z</time></trkpt><trkpt lat="43.96802754748103" lon="10.804253112212804"><ele>774.0</ele><time>2026-04-04T07:43:23.999Z</time></trkpt><trkpt lat="43.96789103558177" lon="10.804194128355622"><ele>774.0</ele><time>2026-04-04T07:43:24.999Z</time></trkpt><trkpt lat="43.967757922824994" lon="10.804125113355756"><ele>774.0</ele><time>2026-04-04T07:43:25.999Z</time></trkpt><trkpt lat="43.967638792940825" lon="10.80402304403453"><ele>774.0</ele><time>2026-04-04T07:43:26.999Z</time></trkpt><trkpt lat="43.967518509942" lon="10.803896104570192"><ele>774.0</ele><time>2026-04-04T07:43:27.999Z</time></trkpt><trkpt lat="43.96737689823734" lon="10.803804838649663"><ele>775.0</ele><time>2026-04-04T07:43:28.999Z</time></trkpt><trkpt lat="43.9672443440238" lon="10.803708303932902"><ele>776.0</ele><time>2026-04-04T07:43:29.999Z</time></trkpt><trkpt lat="43.967132814665604" lon="10.803563726102814"><ele>777.0</ele><time>2026-04-04T07:43:30.999Z</time></trkpt><trkpt lat="43.96703483579832" lon="10.803384228084598"><ele>784.6666666666667</ele><time>2026-04-04T07:43:31.999Z</time></trkpt><trkpt lat="43.966958836905356" lon="10.803166546809182"><ele>792.3333333333334</ele><time>2026-04-04T07:43:32.999Z</time></trkpt><trkpt lat="43.96687196823007" lon="10.80293906949947"><ele>800.0</ele><time>2026-04-04T07:43:33.999Z</time></trkpt><trkpt lat="43.966769230692506" lon="10.802731891885115"><ele>802.3333333333334</ele><time>2026-04-04T07:43:34.999Z</time></trkpt><trkpt lat="43.96665322173504" lon="10.802551681318716"><ele>804.6666666666667</ele><time>2026-04-04T07:43:35.999Z</time></trkpt><trkpt lat="43.966517116591056" lon="10.802383740930763"><ele>807.0</ele><time>2026-04-04T07:43:36.999Z</time></trkpt><trkpt lat="43.96637580941293" lon="10.802224388593771"><ele>807.0</ele><time>2026-04-04T07:43:37.999Z</time></trkpt><trkpt lat="43.96624948950195" lon="10.802079528067955"><ele>807.0</ele><time>2026-04-04T07:43:38.999Z</time></trkpt><trkpt lat="43.96609781932945" lon="10.801987615659053"><ele>807.0</ele><time>2026-04-04T07:43:39.999Z</time></trkpt><trkpt lat="43.96592540240775" lon="10.801916541733284"><ele>809.6666666666667</ele><time>2026-04-04T07:43:40.999Z</time></trkpt><trkpt lat="43.96574203297379" lon="10.801882586373944"><ele>812.3333333333334</ele><time>2026-04-04T07:43:41.999Z</time></trkpt><trkpt lat="43.96556332997123" lon="10.80182842345726"><ele>815.0</ele><time>2026-04-04T07:43:42.999Z</time></trkpt><trkpt lat="43.965368857040026" lon="10.801780497389469"><ele>815.0</ele><time>2026-04-04T07:43:43.999Z</time></trkpt><trkpt lat="43.96517100282904" lon="10.801723844356184"><ele>815.0</ele><time>2026-04-04T07:43:44.999Z</time></trkpt><trkpt lat="43.964976214185214" lon="10.801651151657525"><ele>815.0</ele><time>2026-04-04T07:43:45.999Z</time></trkpt><trkpt lat="43.96478921386592" lon="10.801586727790491"><ele>814.0</ele><time>2026-04-04T07:43:46.999Z</time></trkpt><trkpt lat="43.96459562000595" lon="10.801562976960847"><ele>813.0</ele><time>2026-04-04T07:43:47.999Z</time></trkpt><trkpt lat="43.964413929526245" lon="10.801547105101227"><ele>812.0</ele><time>2026-04-04T07:43:48.999Z</time></trkpt><trkpt lat="43.96421248737594" lon="10.801586360016566"><ele>811.6666666666667</ele><time>2026-04-04T07:43:49.999Z</time></trkpt><trkpt lat="43.96402205322004" lon="10.801638247383957"><ele>811.3333333333333</ele><time>2026-04-04T07:43:50.999Z</time></trkpt><trkpt lat="43.963838451771025" lon="10.801685366889041"><ele>811.0</ele><time>2026-04-04T07:43:52Z</time></trkpt><trkpt lat="43.963665973443554" lon="10.801712595754344"><ele>811.0</ele><time>2026-04-04T07:43:53Z</time></trkpt><trkpt lat="43.963501314362695" lon="10.80175991422895"><ele>811.0</ele><time>2026-04-04T07:43:54Z</time></trkpt><trkpt lat="43.96336121852523" lon="10.801767106564927"><ele>811.0</ele><time>2026-04-04T07:43:55Z</time></trkpt><trkpt lat="43.963212827065966" lon="10.80175141102114"><ele>813.6666666666666</ele><time>2026-04-04T07:43:55.999Z</time></trkpt><trkpt lat="43.963052500375056" lon="10.801706278742564"><ele>816.3333333333333</ele><time>2026-04-04T07:43:56.999Z</time></trkpt><trkpt lat="43.96289221599744" lon="10.801660702246286"><ele>819.0</ele><time>2026-04-04T07:43:57.999Z</time></trkpt><trkpt lat="43.9627594768466" lon="10.801611785055801"><ele>819.0</ele><time>2026-04-04T07:43:58.999Z</time></trkpt><trkpt lat="43.96265935010346" lon="10.801564550777718"><ele>819.0</ele><time>2026-04-04T07:43:59.999Z</time></trkpt><trkpt lat="43.96258599227326" lon="10.801497471822918"><ele>819.0</ele><time>2026-04-04T07:44:00.999Z</time></trkpt><trkpt lat="43.96253747795864" lon="10.801377814491243"><ele>819.0</ele><time>2026-04-04T07:44:01.999Z</time></trkpt><trkpt lat="43.96252006068442" lon="10.801209992557675"><ele>819.0</ele><time>2026-04-04T07:44:02.999Z</time></trkpt><trkpt lat="43.96252725975209" lon="10.801011724593076"><ele>824.0</ele><time>2026-04-04T07:44:03.999Z</time></trkpt><trkpt lat="43.962556746993016" lon="10.800794052115602"><ele>829.0</ele><time>2026-04-04T07:44:04.999Z</time></trkpt><trkpt lat="43.96257431811175" lon="10.800584842733667"><ele>834.0</ele><time>2026-04-04T07:44:05.999Z</time></trkpt><trkpt lat="43.96257206683767" lon="10.800371379036457"><ele>832.6666666666667</ele><time>2026-04-04T07:44:06.999Z</time></trkpt><trkpt lat="43.96253839544617" lon="10.800143317801632"><ele>831.3333333333334</ele><time>2026-04-04T07:44:07.999Z</time></trkpt><trkpt lat="43.96248034187772" lon="10.799911000961625"><ele>830.0</ele><time>2026-04-04T07:44:08.999Z</time></trkpt><trkpt lat="43.962406358489694" lon="10.79968311203215"><ele>830.0</ele><time>2026-04-04T07:44:09.999Z</time></trkpt><trkpt lat="43.96232906716663" lon="10.799448112482306"><ele>830.0</ele><time>2026-04-04T07:44:10.999Z</time></trkpt><trkpt lat="43.96228829410732" lon="10.7992099212482"><ele>830.0</ele><time>2026-04-04T07:44:11.999Z</time></trkpt><trkpt lat="43.96226868947574" lon="10.798969718513826"><ele>833.0</ele><time>2026-04-04T07:44:12.999Z</time></trkpt><trkpt lat="43.9622690818621" lon="10.798700630658889"><ele>836.0</ele><time>2026-04-04T07:44:13.999Z</time></trkpt><trkpt lat="43.96227945232973" lon="10.798438529644493"><ele>839.0</ele><time>2026-04-04T07:44:14.999Z</time></trkpt><trkpt lat="43.962278763731206" lon="10.798197389956764"><ele>839.0</ele><time>2026-04-04T07:44:15.999Z</time></trkpt><trkpt lat="43.962278995944736" lon="10.79799590929032"><ele>839.0</ele><time>2026-04-04T07:44:16.999Z</time></trkpt><trkpt lat="43.962268490120536" lon="10.797832502548992"><ele>839.0</ele><time>2026-04-04T07:44:17.999Z</time></trkpt><trkpt lat="43.96228004984504" lon="10.797676884659973"><ele>839.0</ele><time>2026-04-04T07:44:18.999Z</time></trkpt><trkpt lat="43.96232658093688" lon="10.797513818246417"><ele>838.75</ele><time>2026-04-04T07:44:19.999Z</time></trkpt><trkpt lat="43.96240926792597" lon="10.797364155679654"><ele>838.5</ele><time>2026-04-04T07:44:20.999Z</time></trkpt><trkpt lat="43.96251617152752" lon="10.79722350737469"><ele>838.25</ele><time>2026-04-04T07:44:21.999Z</time></trkpt><trkpt lat="43.96263737941694" lon="10.797089489499978"><ele>838.0</ele><time>2026-04-04T07:44:22.999Z</time></trkpt><trkpt lat="43.96279438442879" lon="10.797019866822067"><ele>838.0</ele><time>2026-04-04T07:44:23.999Z</time></trkpt><trkpt lat="43.96294501584392" lon="10.797001462807954"><ele>838.0</ele><time>2026-04-04T07:44:24.999Z</time></trkpt><trkpt lat="43.96309376909471" lon="10.797040726062377"><ele>838.0</ele><time>2026-04-04T07:44:25.999Z</time></trkpt><trkpt lat="43.963228999063176" lon="10.79711543693049"><ele>838.0</ele><time>2026-04-04T07:44:26.999Z</time></trkpt><trkpt lat="43.96334886873739" lon="10.79723827592271"><ele>839.2</ele><time>2026-04-04T07:44:27.999Z</time></trkpt><trkpt lat="43.96344552623905" lon="10.797357008358807"><ele>840.4</ele><time>2026-04-04T07:44:28.999Z</time></trkpt><trkpt lat="43.96351878775697" lon="10.797411516457371"><ele>841.6</ele><time>2026-04-04T07:44:29.999Z</time></trkpt><trkpt lat="43.96360346261817" lon="10.79743501323999"><ele>842.8000000000001</ele><time>2026-04-04T07:44:30.999Z</time></trkpt><trkpt lat="43.963709794286835" lon="10.79741891520507"><ele>844.0</ele><time>2026-04-04T07:44:31.999Z</time></trkpt><trkpt lat="43.96382756135895" lon="10.79736902842034"><ele>844.0</ele><time>2026-04-04T07:44:32.999Z</time></trkpt><trkpt lat="43.96395517950607" lon="10.797305864402356"><ele>844.0</ele><time>2026-04-04T07:44:33.999Z</time></trkpt><trkpt lat="43.96407925872977" lon="10.797215450265682"><ele>844.0</ele><time>2026-04-04T07:44:34.999Z</time></trkpt><trkpt lat="43.96419317418688" lon="10.797137575514425"><ele>844.0</ele><time>2026-04-04T07:44:35.999Z</time></trkpt><trkpt lat="43.96429638536836" lon="10.797013139845292"><ele>842.25</ele><time>2026-04-04T07:44:36.999Z</time></trkpt><trkpt lat="43.964357571003895" lon="10.79684357285324"><ele>840.5</ele><time>2026-04-04T07:44:37.999Z</time></trkpt><trkpt lat="43.96440575299117" lon="10.796669593772338"><ele>838.75</ele><time>2026-04-04T07:44:38.999Z</time></trkpt><trkpt lat="43.96446870730271" lon="10.796576179021871"><ele>837.0</ele><time>2026-04-04T07:44:39.999Z</time></trkpt><trkpt lat="43.96457038749004" lon="10.796541038972249"><ele>837.0</ele><time>2026-04-04T07:44:40.999Z</time></trkpt><trkpt lat="43.96467642099531" lon="10.796559697026442"><ele>837.0</ele><time>2026-04-04T07:44:41.999Z</time></trkpt><trkpt lat="43.96479565482079" lon="10.796630990951012"><ele>837.0</ele><time>2026-04-04T07:44:42.999Z</time></trkpt><trkpt lat="43.96490043238888" lon="10.796694992510236"><ele>837.0</ele><time>2026-04-04T07:44:43.999Z</time></trkpt><trkpt lat="43.9650191591544" lon="10.796796392529785"><ele>845.3333333333333</ele><time>2026-04-04T07:44:44.999Z</time></trkpt><trkpt lat="43.96514761916035" lon="10.79690729058371"><ele>853.6666666666666</ele><time>2026-04-04T07:44:45.999Z</time></trkpt><trkpt lat="43.96527208485296" lon="10.797055510867546"><ele>862.0</ele><time>2026-04-04T07:44:46.999Z</time></trkpt><trkpt lat="43.96537949308216" lon="10.797172131969614"><ele>862.0</ele><time>2026-04-04T07:44:47.999Z</time></trkpt><trkpt lat="43.965492106973606" lon="10.797233454176059"><ele>862.0</ele><time>2026-04-04T07:44:48.999Z</time></trkpt><trkpt lat="43.96559772409671" lon="10.797230641885399"><ele>862.0</ele><time>2026-04-04T07:44:49.999Z</time></trkpt><trkpt lat="43.96570553714843" lon="10.79717044777432"><ele>862.0</ele><time>2026-04-04T07:44:50.999Z</time></trkpt><trkpt lat="43.96580773437996" lon="10.797043457491666"><ele>861.25</ele><time>2026-04-04T07:44:51.999Z</time></trkpt><trkpt lat="43.96591204503651" lon="10.796892894447403"><ele>860.5</ele><time>2026-04-04T07:44:52.999Z</time></trkpt><trkpt lat="43.96602404083616" lon="10.796779159260021"><ele>859.75</ele><time>2026-04-04T07:44:53.999Z</time></trkpt><trkpt lat="43.96616149644672" lon="10.796720966942852"><ele>859.0</ele><time>2026-04-04T07:44:54.999Z</time></trkpt><trkpt lat="43.966302605537116" lon="10.796707494674362"><ele>859.0</ele><time>2026-04-04T07:44:55.999Z</time></trkpt><trkpt lat="43.96646645601672" lon="10.796726347890642"><ele>859.0</ele><time>2026-04-04T07:44:56.999Z</time></trkpt><trkpt lat="43.96665282148226" lon="10.796799206046918"><ele>859.0</ele><time>2026-04-04T07:44:57.999Z</time></trkpt><trkpt lat="43.96682575641827" lon="10.79681299098043"><ele>861.25</ele><time>2026-04-04T07:44:58.999Z</time></trkpt><trkpt lat="43.96696817644072" lon="10.796845922484199"><ele>863.5</ele><time>2026-04-04T07:44:59.999Z</time></trkpt><trkpt lat="43.96708555381296" lon="10.796824093667585"><ele>865.75</ele><time>2026-04-04T07:45:00.999Z</time></trkpt><trkpt lat="43.96717926626064" lon="10.79679533627828"><ele>868.0</ele><time>2026-04-04T07:45:01.999Z</time></trkpt><trkpt lat="43.96724475931465" lon="10.796682645039995"><ele>868.0</ele><time>2026-04-04T07:45:02.999Z</time></trkpt><trkpt lat="43.967301806423656" lon="10.7965300985776"><ele>868.0</ele><time>2026-04-04T07:45:03.999Z</time></trkpt><trkpt lat="43.96733004508561" lon="10.79632522096134"><ele>868.0</ele><time>2026-04-04T07:45:04.999Z</time></trkpt><trkpt lat="43.9673375620042" lon="10.79614688671752"><ele>868.0</ele><time>2026-04-04T07:45:05.999Z</time></trkpt><trkpt lat="43.96737850703637" lon="10.796022466021586"><ele>867.6666666666666</ele><time>2026-04-04T07:45:06.999Z</time></trkpt><trkpt lat="43.967427053956804" lon="10.795927511010023"><ele>867.3333333333333</ele><time>2026-04-04T07:45:07.999Z</time></trkpt><trkpt lat="43.967479269924475" lon="10.795869829786318"><ele>867.0</ele><time>2026-04-04T07:45:08.999Z</time></trkpt><trkpt lat="43.967581012505356" lon="10.795833834073534"><ele>866.6666666666667</ele><time>2026-04-04T07:45:10.999Z</time></trkpt><trkpt lat="43.96768485718799" lon="10.795877332598069"><ele>866.3333333333334</ele><time>2026-04-04T07:45:12.999Z</time></trkpt><trkpt lat="43.96775598460679" lon="10.795922556474011"><ele>866.0</ele><time>2026-04-04T07:45:13.999Z</time></trkpt><trkpt lat="43.96784608366408" lon="10.795997581325645"><ele>868.0</ele><time>2026-04-04T07:45:14.999Z</time></trkpt><trkpt lat="43.96794348835325" lon="10.796064379227666"><ele>870.0</ele><time>2026-04-04T07:45:15.999Z</time></trkpt><trkpt lat="43.968044778574026" lon="10.796139502878196"><ele>872.0</ele><time>2026-04-04T07:45:16.999Z</time></trkpt><trkpt lat="43.96816904889501" lon="10.796209606567357"><ele>874.0</ele><time>2026-04-04T07:45:17.999Z</time></trkpt><trkpt lat="43.96829690387508" lon="10.79626634201287"><ele>874.5</ele><time>2026-04-04T07:45:18.999Z</time></trkpt><trkpt lat="43.968428715923494" lon="10.796315942488187"><ele>875.0</ele><time>2026-04-04T07:45:19.999Z</time></trkpt><trkpt lat="43.96855425165486" lon="10.796389068336472"><ele>875.5</ele><time>2026-04-04T07:45:20.999Z</time></trkpt><trkpt lat="43.96867699723767" lon="10.79649916816565"><ele>876.0</ele><time>2026-04-04T07:45:21.999Z</time></trkpt><trkpt lat="43.96881282808659" lon="10.796640294915466"><ele>876.0</ele><time>2026-04-04T07:45:22.999Z</time></trkpt><trkpt lat="43.96895012399024" lon="10.796793224984642"><ele>876.0</ele><time>2026-04-04T07:45:23.999Z</time></trkpt><trkpt lat="43.969092927762894" lon="10.7969308664074"><ele>876.0</ele><time>2026-04-04T07:45:24.999Z</time></trkpt><trkpt lat="43.96921997014796" lon="10.797063425745021"><ele>876.5</ele><time>2026-04-04T07:45:25.999Z</time></trkpt><trkpt lat="43.969338960950594" lon="10.797189168002914"><ele>877.0</ele><time>2026-04-04T07:45:26.999Z</time></trkpt><trkpt lat="43.96945991845917" lon="10.797298492943481"><ele>877.5</ele><time>2026-04-04T07:45:27.999Z</time></trkpt><trkpt lat="43.969575168152105" lon="10.797412875706776"><ele>878.0</ele><time>2026-04-04T07:45:28.999Z</time></trkpt><trkpt lat="43.96970500042608" lon="10.797534937066235"><ele>878.0</ele><time>2026-04-04T07:45:29.999Z</time></trkpt><trkpt lat="43.96983848993785" lon="10.797652455369068"><ele>878.0</ele><time>2026-04-04T07:45:30.999Z</time></trkpt><trkpt lat="43.96997573332047" lon="10.797791001480952"><ele>878.0</ele><time>2026-04-04T07:45:31.999Z</time></trkpt><trkpt lat="43.97011981733945" lon="10.797914410859963"><ele>878.3333333333334</ele><time>2026-04-04T07:45:32.999Z</time></trkpt><trkpt lat="43.97025981356496" lon="10.798028921343379"><ele>878.6666666666667</ele><time>2026-04-04T07:45:33.999Z</time></trkpt><trkpt lat="43.97039602808649" lon="10.798145628616988"><ele>879.0</ele><time>2026-04-04T07:45:34.999Z</time></trkpt><trkpt lat="43.97053380734756" lon="10.798280446235273"><ele>879.0</ele><time>2026-04-04T07:45:35.999Z</time></trkpt><trkpt lat="43.97067628088354" lon="10.798416508454627"><ele>879.0</ele><time>2026-04-04T07:45:36.999Z</time></trkpt><trkpt lat="43.97082394184086" lon="10.798561454595264"><ele>879.0</ele><time>2026-04-04T07:45:37.999Z</time></trkpt><trkpt lat="43.97097740694673" lon="10.798728759898257"><ele>881.6666666666667</ele><time>2026-04-04T07:45:38.999Z</time></trkpt><trkpt lat="43.97113636829655" lon="10.798870409162653"><ele>884.3333333333334</ele><time>2026-04-04T07:45:39.999Z</time></trkpt><trkpt lat="43.97129698207515" lon="10.79901309407994"><ele>887.0</ele><time>2026-04-04T07:45:40.999Z</time></trkpt><trkpt lat="43.971447396291445" lon="10.799148495378642"><ele>887.0</ele><time>2026-04-04T07:45:41.999Z</time></trkpt><trkpt lat="43.971603648840635" lon="10.799269202335752"><ele>887.0</ele><time>2026-04-04T07:45:42.999Z</time></trkpt><trkpt lat="43.97174858677509" lon="10.799385237328304"><ele>887.0</ele><time>2026-04-04T07:45:43.999Z</time></trkpt><trkpt lat="43.97189318599307" lon="10.7995033521343"><ele>885.5</ele><time>2026-04-04T07:45:44.999Z</time></trkpt><trkpt lat="43.972027151555324" lon="10.799618025617646"><ele>884.0</ele><time>2026-04-04T07:45:45.999Z</time></trkpt><trkpt lat="43.97215258073625" lon="10.799692927801678"><ele>882.5</ele><time>2026-04-04T07:45:46.999Z</time></trkpt><trkpt lat="43.97226967417355" lon="10.79971557942388"><ele>881.0</ele><time>2026-04-04T07:45:47.999Z</time></trkpt><trkpt lat="43.97242185659735" lon="10.799691620596139"><ele>882.6666666666667</ele><time>2026-04-04T07:45:48.999Z</time></trkpt><trkpt lat="43.97258032948917" lon="10.799655695395732"><ele>884.3333333333333</ele><time>2026-04-04T07:45:49.999Z</time></trkpt><trkpt lat="43.972757913108445" lon="10.799626839712015"><ele>886.0</ele><time>2026-04-04T07:45:50.999Z</time></trkpt><trkpt lat="43.97291759636543" lon="10.799564955240891"><ele>886.0</ele><time>2026-04-04T07:45:52Z</time></trkpt><trkpt lat="43.97308044722706" lon="10.799495694569904"><ele>886.0</ele><time>2026-04-04T07:45:52.999Z</time></trkpt><trkpt lat="43.97324714188647" lon="10.799456918964479"><ele>886.0</ele><time>2026-04-04T07:45:53.999Z</time></trkpt><trkpt lat="43.97338392864077" lon="10.799452734247105"><ele>886.25</ele><time>2026-04-04T07:45:54.999Z</time></trkpt><trkpt lat="43.97351441115302" lon="10.799491538212354"><ele>886.5</ele><time>2026-04-04T07:45:55.999Z</time></trkpt><trkpt lat="43.97365352256416" lon="10.799555981995038"><ele>886.75</ele><time>2026-04-04T07:45:56.999Z</time></trkpt><trkpt lat="43.97378997132447" lon="10.79963882858631"><ele>887.0</ele><time>2026-04-04T07:45:57.999Z</time></trkpt><trkpt lat="43.97389642546443" lon="10.799692816023857"><ele>887.0</ele><time>2026-04-04T07:45:58.999Z</time></trkpt><trkpt lat="43.97399817427678" lon="10.799699150026314"><ele>887.0</ele><time>2026-04-04T07:45:59.999Z</time></trkpt><trkpt lat="43.974072321460525" lon="10.799667720614291"><ele>887.0</ele><time>2026-04-04T07:46:00.999Z</time></trkpt><trkpt lat="43.97416516327689" lon="10.799580312298934"><ele>887.0</ele><time>2026-04-04T07:46:01.999Z</time></trkpt><trkpt lat="43.97427607924981" lon="10.799445334260083"><ele>887.0</ele><time>2026-04-04T07:46:02.999Z</time></trkpt><trkpt lat="43.974384303905865" lon="10.799311074049085"><ele>890.6666666666667</ele><time>2026-04-04T07:46:03.999Z</time></trkpt><trkpt lat="43.97452099990244" lon="10.799207209397505"><ele>894.3333333333333</ele><time>2026-04-04T07:46:05Z</time></trkpt><trkpt lat="43.97468958020487" lon="10.799134914971459"><ele>898.0</ele><time>2026-04-04T07:46:06Z</time></trkpt><trkpt lat="43.97485041394093" lon="10.79912487829574"><ele>898.0</ele><time>2026-04-04T07:46:07Z</time></trkpt><trkpt lat="43.9749958565385" lon="10.799089379079353"><ele>898.0</ele><time>2026-04-04T07:46:08Z</time></trkpt><trkpt lat="43.97513820026847" lon="10.799046005669966"><ele>898.0</ele><time>2026-04-04T07:46:09Z</time></trkpt><trkpt lat="43.97529186004964" lon="10.798955778988036"><ele>898.3333333333333</ele><time>2026-04-04T07:46:10Z</time></trkpt><trkpt lat="43.97544151546694" lon="10.798854330578296"><ele>898.6666666666667</ele><time>2026-04-04T07:46:11Z</time></trkpt><trkpt lat="43.97558702932649" lon="10.79872419226898"><ele>899.0</ele><time>2026-04-04T07:46:12Z</time></trkpt><trkpt lat="43.97574318652378" lon="10.7986065053069"><ele>897.0</ele><time>2026-04-04T07:46:13Z</time></trkpt><trkpt lat="43.97590059766441" lon="10.798511290471742"><ele>895.0</ele><time>2026-04-04T07:46:14Z</time></trkpt><trkpt lat="43.976060731389815" lon="10.798415465878886"><ele>893.0</ele><time>2026-04-04T07:46:15Z</time></trkpt><trkpt lat="43.97621706960143" lon="10.798320052397427"><ele>899.3333333333334</ele><time>2026-04-04T07:46:16Z</time></trkpt><trkpt lat="43.97636320301099" lon="10.798229344534843"><ele>905.6666666666667</ele><time>2026-04-04T07:46:17Z</time></trkpt><trkpt lat="43.97651097816565" lon="10.79813505870874"><ele>912.0</ele><time>2026-04-04T07:46:18Z</time></trkpt><trkpt lat="43.97667344318516" lon="10.798043911433421"><ele>912.25</ele><time>2026-04-04T07:46:19Z</time></trkpt><trkpt lat="43.9768300817199" lon="10.79798934998116"><ele>912.5</ele><time>2026-04-04T07:46:20Z</time></trkpt><trkpt lat="43.97696807149019" lon="10.797954765131395"><ele>912.75</ele><time>2026-04-04T07:46:21Z</time></trkpt><trkpt lat="43.97710878103254" lon="10.797958127635741"><ele>913.0</ele><time>2026-04-04T07:46:22Z</time></trkpt><trkpt lat="43.97725673632453" lon="10.797998582654794"><ele>913.0</ele><time>2026-04-04T07:46:23Z</time></trkpt><trkpt lat="43.97740611343436" lon="10.798081064409287"><ele>913.0</ele><time>2026-04-04T07:46:24Z</time></trkpt><trkpt lat="43.977570044033236" lon="10.798165102115945"><ele>913.0</ele><time>2026-04-04T07:46:25Z</time></trkpt><trkpt lat="43.97772464074052" lon="10.798285687222869"><ele>911.0</ele><time>2026-04-04T07:46:26Z</time></trkpt><trkpt lat="43.9778747400267" lon="10.798368985872852"><ele>909.0</ele><time>2026-04-04T07:46:27Z</time></trkpt><trkpt lat="43.97802590097495" lon="10.79844460127175"><ele>907.0</ele><time>2026-04-04T07:46:28Z</time></trkpt><trkpt lat="43.978167027788" lon="10.798550998830526"><ele>907.0</ele><time>2026-04-04T07:46:29Z</time></trkpt><trkpt lat="43.978303819799606" lon="10.798667376163065"><ele>907.0</ele><time>2026-04-04T07:46:30Z</time></trkpt><trkpt lat="43.97843950953011" lon="10.798779314706607"><ele>907.0</ele><time>2026-04-04T07:46:31Z</time></trkpt><trkpt lat="43.978584109777145" lon="10.798909378669956"><ele>912.3333333333333</ele><time>2026-04-04T07:46:32Z</time></trkpt><trkpt lat="43.9787269207984" lon="10.799009639687013"><ele>917.6666666666667</ele><time>2026-04-04T07:46:33Z</time></trkpt><trkpt lat="43.97886993440467" lon="10.799091049107425"><ele>923.0</ele><time>2026-04-04T07:46:34Z</time></trkpt><trkpt lat="43.97900165640263" lon="10.799150434832178"><ele>923.0</ele><time>2026-04-04T07:46:35Z</time></trkpt><trkpt lat="43.97913066790737" lon="10.799187984951955"><ele>923.0</ele><time>2026-04-04T07:46:36Z</time></trkpt><trkpt lat="43.97927436898864" lon="10.799192718387353"><ele>923.0</ele><time>2026-04-04T07:46:37Z</time></trkpt><trkpt lat="43.97941227056305" lon="10.79922197994041"><ele>923.0</ele><time>2026-04-04T07:46:38Z</time></trkpt><trkpt lat="43.97951185194635" lon="10.799381968207419"><ele>925.0</ele><time>2026-04-04T07:46:39Z</time></trkpt><trkpt lat="43.97960465771102" lon="10.799558258479061"><ele>927.0</ele><time>2026-04-04T07:46:40Z</time></trkpt><trkpt lat="43.979678799615776" lon="10.799749145048501"><ele>929.0</ele><time>2026-04-04T07:46:41Z</time></trkpt><trkpt lat="43.97973485820398" lon="10.79993401583677"><ele>929.0</ele><time>2026-04-04T07:46:42Z</time></trkpt><trkpt lat="43.97977719457398" lon="10.80008310989584"><ele>929.0000000000001</ele><time>2026-04-04T07:46:43Z</time></trkpt><trkpt lat="43.97982403848858" lon="10.800193455008069"><ele>929.0000000000001</ele><time>2026-04-04T07:46:44Z</time></trkpt><trkpt lat="43.979904915339326" lon="10.800280382866317"><ele>929.0</ele><time>2026-04-04T07:46:45Z</time></trkpt><trkpt lat="43.98000357546743" lon="10.800326877768176"><ele>929.0</ele><time>2026-04-04T07:46:46Z</time></trkpt><trkpt lat="43.9801281745784" lon="10.800348702523218"><ele>929.0</ele><time>2026-04-04T07:46:47Z</time></trkpt><trkpt lat="43.98029702664252" lon="10.80037102943682"><ele>929.0</ele><time>2026-04-04T07:46:48Z</time></trkpt><trkpt lat="43.98047216660231" lon="10.800376265062573"><ele>929.0</ele><time>2026-04-04T07:46:49Z</time></trkpt><trkpt lat="43.98062163467693" lon="10.800353217775953"><ele>929.0</ele><time>2026-04-04T07:46:50Z</time></trkpt><trkpt lat="43.98072400892422" lon="10.80031539530517"><ele>929.0000000000001</ele><time>2026-04-04T07:46:51Z</time></trkpt><trkpt lat="43.98081350170424" lon="10.800367294849147"><ele>929.0000000000001</ele><time>2026-04-04T07:46:52Z</time></trkpt><trkpt lat="43.9808734774926" lon="10.800480780708776"><ele>929.0</ele><time>2026-04-04T07:46:53Z</time></trkpt><trkpt lat="43.98087376307053" lon="10.80065286927503"><ele>929.0</ele><time>2026-04-04T07:46:54Z</time></trkpt><trkpt lat="43.98088092715992" lon="10.800792928323611"><ele>930.6</ele><time>2026-04-04T07:46:55Z</time></trkpt><trkpt lat="43.98092182827296" lon="10.80087560521425"><ele>932.2</ele><time>2026-04-04T07:46:56Z</time></trkpt><trkpt lat="43.9809794892992" lon="10.800918213593839"><ele>933.8000000000001</ele><time>2026-04-04T07:46:57Z</time></trkpt><trkpt lat="43.98106638650005" lon="10.800925220518947"><ele>935.4000000000001</ele><time>2026-04-04T07:46:58Z</time></trkpt><trkpt lat="43.98120852655581" lon="10.800880147286064"><ele>937.0</ele><time>2026-04-04T07:46:59Z</time></trkpt><trkpt lat="43.98132919915081" lon="10.80081404328027"><ele>937.0</ele><time>2026-04-04T07:47:00Z</time></trkpt><trkpt lat="43.981448866938116" lon="10.800740716849097"><ele>937.0</ele><time>2026-04-04T07:47:01Z</time></trkpt><trkpt lat="43.98157523036531" lon="10.80069643209197"><ele>937.0</ele><time>2026-04-04T07:47:02Z</time></trkpt><trkpt lat="43.98173079275543" lon="10.800704810319212"><ele>937.0</ele><time>2026-04-04T07:47:03Z</time></trkpt><trkpt lat="43.981882568587245" lon="10.800726912842833"><ele>937.5</ele><time>2026-04-04T07:47:04Z</time></trkpt><trkpt lat="43.982030786281285" lon="10.80075500440887"><ele>938.0</ele><time>2026-04-04T07:47:05Z</time></trkpt><trkpt lat="43.982161741860956" lon="10.800806380448655"><ele>938.5</ele><time>2026-04-04T07:47:06Z</time></trkpt><trkpt lat="43.982284469350255" lon="10.800906650422768"><ele>939.0</ele><time>2026-04-04T07:47:07Z</time></trkpt><trkpt lat="43.982408567105445" lon="10.801080389731979"><ele>942.6666666666667</ele><time>2026-04-04T07:47:08Z</time></trkpt><trkpt lat="43.982524667456" lon="10.80124750113077"><ele>946.3333333333334</ele><time>2026-04-04T07:47:09Z</time></trkpt><trkpt lat="43.98261543557379" lon="10.801438852540706"><ele>950.0</ele><time>2026-04-04T07:47:10Z</time></trkpt><trkpt lat="43.982709577914214" lon="10.801621635468237"><ele>950.0</ele><time>2026-04-04T07:47:11Z</time></trkpt><trkpt lat="43.982781148193126" lon="10.80178204823026"><ele>950.0</ele><time>2026-04-04T07:47:12Z</time></trkpt><trkpt lat="43.982830173435474" lon="10.801888919271285"><ele>950.0</ele><time>2026-04-04T07:47:13Z</time></trkpt><trkpt lat="43.982886336754305" lon="10.801944346290991"><ele>950.0</ele><time>2026-04-04T07:47:14Z</time></trkpt><trkpt lat="43.98299969333687" lon="10.8019291635901"><ele>950.0</ele><time>2026-04-04T07:47:15Z</time></trkpt><trkpt lat="43.98310594926861" lon="10.801881663626814"><ele>950.0</ele><time>2026-04-04T07:47:16Z</time></trkpt><trkpt lat="43.98323369086263" lon="10.801795710940201"><ele>950.0</ele><time>2026-04-04T07:47:17Z</time></trkpt><trkpt lat="43.98335419845761" lon="10.801721632056475"><ele>950.0</ele><time>2026-04-04T07:47:18Z</time></trkpt><trkpt lat="43.98347633942247" lon="10.801663628222077"><ele>950.0</ele><time>2026-04-04T07:47:19Z</time></trkpt><trkpt lat="43.98360073394312" lon="10.801572518363919"><ele>947.3333333333334</ele><time>2026-04-04T07:47:20Z</time></trkpt><trkpt lat="43.98372937229683" lon="10.801471554947076"><ele>944.6666666666667</ele><time>2026-04-04T07:47:21Z</time></trkpt><trkpt lat="43.983865762058585" lon="10.801363998030501"><ele>942.0</ele><time>2026-04-04T07:47:22Z</time></trkpt><trkpt lat="43.984012699335246" lon="10.801196714822458"><ele>942.0</ele><time>2026-04-04T07:47:23Z</time></trkpt><trkpt lat="43.98414044206885" lon="10.801051846805626"><ele>942.0</ele><time>2026-04-04T07:47:24Z</time></trkpt><trkpt lat="43.98424782876299" lon="10.800956351918936"><ele>942.0</ele><time>2026-04-04T07:47:25Z</time></trkpt><trkpt lat="43.984354384148304" lon="10.800866515864657"><ele>942.0</ele><time>2026-04-04T07:47:26Z</time></trkpt><trkpt lat="43.98444438540574" lon="10.800744701472402"><ele>943.2</ele><time>2026-04-04T07:47:27Z</time></trkpt><trkpt lat="43.9844672688418" lon="10.800595563233921"><ele>944.4000000000001</ele><time>2026-04-04T07:47:28Z</time></trkpt><trkpt lat="43.984425030444136" lon="10.800427866825014"><ele>945.5999999999999</ele><time>2026-04-04T07:47:29Z</time></trkpt><trkpt lat="43.984423277177115" lon="10.800289054618691"><ele>946.8</ele><time>2026-04-04T07:47:30Z</time></trkpt><trkpt lat="43.984451270558544" lon="10.800176278628562"><ele>948.0</ele><time>2026-04-04T07:47:31Z</time></trkpt><trkpt lat="43.98450970093801" lon="10.800102922922374"><ele>948.0</ele><time>2026-04-04T07:47:32Z</time></trkpt><trkpt lat="43.98466966189768" lon="10.800110839793858"><ele>948.0</ele><time>2026-04-04T07:47:33Z</time></trkpt><trkpt lat="43.98480976131774" lon="10.800160716338981"><ele>948.0</ele><time>2026-04-04T07:47:34Z</time></trkpt><trkpt lat="43.984927793088524" lon="10.800246113284299"><ele>948.0</ele><time>2026-04-04T07:47:35Z</time></trkpt><trkpt lat="43.98501315502374" lon="10.800396253859736"><ele>950.5</ele><time>2026-04-04T07:47:36Z</time></trkpt><trkpt lat="43.985084868479326" lon="10.800544061722766"><ele>953.0</ele><time>2026-04-04T07:47:37Z</time></trkpt><trkpt lat="43.98510569523504" lon="10.80066061998674"><ele>955.5</ele><time>2026-04-04T07:47:38Z</time></trkpt><trkpt lat="43.98521161136031" lon="10.800744831357495"><ele>958.0</ele><time>2026-04-04T07:47:40Z</time></trkpt><trkpt lat="43.98535707093121" lon="10.800720020389534"><ele>958.0</ele><time>2026-04-04T07:47:41Z</time></trkpt><trkpt lat="43.98548091581176" lon="10.800671345677646"><ele>958.0</ele><time>2026-04-04T07:47:42Z</time></trkpt><trkpt lat="43.98558858635804" lon="10.800619151772132"><ele>958.0</ele><time>2026-04-04T07:47:43Z</time></trkpt><trkpt lat="43.98567805227102" lon="10.800549060111111"><ele>958.0</ele><time>2026-04-04T07:47:44Z</time></trkpt><trkpt lat="43.98576203828991" lon="10.800487491929594"><ele>958.0</ele><time>2026-04-04T07:47:45Z</time></trkpt><trkpt lat="43.98583386393801" lon="10.800446055614115"><ele>958.2</ele><time>2026-04-04T07:47:46Z</time></trkpt><trkpt lat="43.985889184337914" lon="10.800340288020134"><ele>958.4</ele><time>2026-04-04T07:47:48Z</time></trkpt><trkpt lat="43.98591025889453" lon="10.800220365433207"><ele>958.6000000000001</ele><time>2026-04-04T07:47:51Z</time></trkpt><trkpt lat="43.985865801236855" lon="10.800153250826975"><ele>958.8000000000001</ele><time>2026-04-04T07:47:52Z</time></trkpt><trkpt lat="43.985788970185446" lon="10.800051883846502"><ele>959.0</ele><time>2026-04-04T07:47:53Z</time></trkpt><trkpt lat="43.98570128431221" lon="10.79993073729039"><ele>959.0</ele><time>2026-04-04T07:47:54Z</time></trkpt><trkpt lat="43.98561279151654" lon="10.799825882425699"><ele>959.0</ele><time>2026-04-04T07:47:55Z</time></trkpt><trkpt lat="43.98552469069728" lon="10.799716757800626"><ele>959.0</ele><time>2026-04-04T07:47:56Z</time></trkpt><trkpt lat="43.985426991407806" lon="10.799596633424013"><ele>959.0</ele><time>2026-04-04T07:47:57Z</time></trkpt><trkpt lat="43.98534310520772" lon="10.799483271525384"><ele>959.0</ele><time>2026-04-04T07:47:57.999Z</time></trkpt><trkpt lat="43.985297358158974" lon="10.799348370514348"><ele>959.0</ele><time>2026-04-04T07:47:58.999Z</time></trkpt><trkpt lat="43.98526525249834" lon="10.799197121743289"><ele>959.0</ele><time>2026-04-04T07:47:59.999Z</time></trkpt><trkpt lat="43.98525825868291" lon="10.799029193538592"><ele>959.0</ele><time>2026-04-04T07:48:01Z</time></trkpt><trkpt lat="43.98526978526937" lon="10.798856503791578"><ele>960.6</ele><time>2026-04-04T07:48:01.999Z</time></trkpt><trkpt lat="43.98526793780382" lon="10.798726667240345"><ele>962.2</ele><time>2026-04-04T07:48:02.999Z</time></trkpt><trkpt lat="43.985225696751066" lon="10.798631932183241"><ele>963.8000000000001</ele><time>2026-04-04T07:48:04Z</time></trkpt><trkpt lat="43.98513457533228" lon="10.798552228248461"><ele>965.4000000000001</ele><time>2026-04-04T07:48:04.999Z</time></trkpt><trkpt lat="43.98500778121514" lon="10.798507768090886"><ele>967.0</ele><time>2026-04-04T07:48:05.999Z</time></trkpt><trkpt lat="43.98488568014437" lon="10.798469606790276"><ele>969.4000000000001</ele><time>2026-04-04T07:48:06.999Z</time></trkpt><trkpt lat="43.98477716038037" lon="10.798462529072928"><ele>971.8000000000001</ele><time>2026-04-04T07:48:07.999Z</time></trkpt><trkpt lat="43.984713480309665" lon="10.798406960746942"><ele>974.2</ele><time>2026-04-04T07:48:08.999Z</time></trkpt><trkpt lat="43.984704651160236" lon="10.798314224419709"><ele>976.6</ele><time>2026-04-04T07:48:09.999Z</time></trkpt><trkpt lat="43.98475843302924" lon="10.798180475352234"><ele>979.0</ele><time>2026-04-04T07:48:10.999Z</time></trkpt><trkpt lat="43.98483497713856" lon="10.798111085461414"><ele>979.0</ele><time>2026-04-04T07:48:11.999Z</time></trkpt><trkpt lat="43.984918281196634" lon="10.798056834788973"><ele>979.0</ele><time>2026-04-04T07:48:12.999Z</time></trkpt><trkpt lat="43.98504401871517" lon="10.798017198216819"><ele>979.0</ele><time>2026-04-04T07:48:13.999Z</time></trkpt><trkpt lat="43.98516821949986" lon="10.797949344668801"><ele>979.0</ele><time>2026-04-04T07:48:14.999Z</time></trkpt><trkpt lat="43.985287849109795" lon="10.797869292152194"><ele>978.25</ele><time>2026-04-04T07:48:15.999Z</time></trkpt><trkpt lat="43.985403668574705" lon="10.797759365673501"><ele>977.5</ele><time>2026-04-04T07:48:16.999Z</time></trkpt><trkpt lat="43.98549630936496" lon="10.797612980220277"><ele>976.75</ele><time>2026-04-04T07:48:17.999Z</time></trkpt><trkpt lat="43.98554596835688" lon="10.797446231965925"><ele>976.0</ele><time>2026-04-04T07:48:18.999Z</time></trkpt><trkpt lat="43.98556954385601" lon="10.797269181408346"><ele>977.0</ele><time>2026-04-04T07:48:19.999Z</time></trkpt><trkpt lat="43.9855718309125" lon="10.797094591648978"><ele>977.9999999999999</ele><time>2026-04-04T07:48:20.999Z</time></trkpt><trkpt lat="43.98558075655902" lon="10.79694997369451"><ele>978.9999999999999</ele><time>2026-04-04T07:48:21.999Z</time></trkpt><trkpt lat="43.985590449521254" lon="10.796820709295933"><ele>980.0</ele><time>2026-04-04T07:48:22.999Z</time></trkpt><trkpt lat="43.98562443554683" lon="10.796705721696645"><ele>981.0</ele><time>2026-04-04T07:48:23.999Z</time></trkpt><trkpt lat="43.98565208570339" lon="10.796594657948928"><ele>981.0</ele><time>2026-04-04T07:48:24.999Z</time></trkpt><trkpt lat="43.98567171093791" lon="10.796482283398836"><ele>981.0</ele><time>2026-04-04T07:48:25.999Z</time></trkpt><trkpt lat="43.98568219757099" lon="10.796377095329518"><ele>981.0</ele><time>2026-04-04T07:48:26.999Z</time></trkpt><trkpt lat="43.98567400767863" lon="10.796284965565452"><ele>981.0</ele><time>2026-04-04T07:48:27.999Z</time></trkpt><trkpt lat="43.985645601251164" lon="10.796187496553143"><ele>981.0</ele><time>2026-04-04T07:48:28.999Z</time></trkpt><trkpt lat="43.985589145120265" lon="10.796069689742614"><ele>981.0</ele><time>2026-04-04T07:48:29.999Z</time></trkpt><trkpt lat="43.985507826333304" lon="10.795974411534747"><ele>980.3333333333334</ele><time>2026-04-04T07:48:30.999Z</time></trkpt><trkpt lat="43.98543081557675" lon="10.795892049263303"><ele>979.6666666666667</ele><time>2026-04-04T07:48:31.999Z</time></trkpt><trkpt lat="43.985360364508495" lon="10.79581929699064"><ele>979.0</ele><time>2026-04-04T07:48:32.999Z</time></trkpt><trkpt lat="43.9852832212728" lon="10.795741383551814"><ele>978.3333333333334</ele><time>2026-04-04T07:48:33.999Z</time></trkpt><trkpt lat="43.985215913158974" lon="10.795681148112195"><ele>977.6666666666667</ele><time>2026-04-04T07:48:34.999Z</time></trkpt><trkpt lat="43.9851513747032" lon="10.795626952965923"><ele>977.0</ele><time>2026-04-04T07:48:35.999Z</time></trkpt><trkpt lat="43.98508462783101" lon="10.795577079257026"><ele>979.6666666666667</ele><time>2026-04-04T07:48:36.999Z</time></trkpt><trkpt lat="43.98499484283273" lon="10.795533488754012"><ele>982.3333333333334</ele><time>2026-04-04T07:48:37.999Z</time></trkpt><trkpt lat="43.98489888602386" lon="10.795521522220966"><ele>985.0</ele><time>2026-04-04T07:48:38.999Z</time></trkpt><trkpt lat="43.98481863776326" lon="10.79554211819015"><ele>987.6666666666667</ele><time>2026-04-04T07:48:39.999Z</time></trkpt><trkpt lat="43.984743781875935" lon="10.795552817019084"><ele>990.3333333333334</ele><time>2026-04-04T07:48:40.999Z</time></trkpt><trkpt lat="43.98466152427694" lon="10.79554296531151"><ele>993.0</ele><time>2026-04-04T07:48:41.999Z</time></trkpt><trkpt lat="43.98461103731213" lon="10.795488607409176"><ele>993.0</ele><time>2026-04-04T07:48:42.999Z</time></trkpt><trkpt lat="43.984566313064114" lon="10.795412958230447"><ele>993.0</ele><time>2026-04-04T07:48:43.999Z</time></trkpt><trkpt lat="43.98452746353051" lon="10.79529154888568"><ele>993.0</ele><time>2026-04-04T07:48:44.999Z</time></trkpt><trkpt lat="43.98448634367875" lon="10.79516538866591"><ele>993.0</ele><time>2026-04-04T07:48:45.999Z</time></trkpt><trkpt lat="43.984462420185935" lon="10.795043854851624"><ele>993.0</ele><time>2026-04-04T07:48:46.999Z</time></trkpt><trkpt lat="43.984445159245205" lon="10.794914275006981"><ele>992.2</ele><time>2026-04-04T07:48:47.999Z</time></trkpt><trkpt lat="43.98444050879038" lon="10.794792998681274"><ele>991.4</ele><time>2026-04-04T07:48:48.999Z</time></trkpt><trkpt lat="43.984463645795955" lon="10.794683063673983"><ele>990.6000000000001</ele><time>2026-04-04T07:48:49.999Z</time></trkpt><trkpt lat="43.984533252764855" lon="10.794577065164567"><ele>989.8000000000001</ele><time>2026-04-04T07:48:50.999Z</time></trkpt><trkpt lat="43.98462642318516" lon="10.794485353334684"><ele>989.0</ele><time>2026-04-04T07:48:51.999Z</time></trkpt><trkpt lat="43.98472294572274" lon="10.794426042360115"><ele>989.0</ele><time>2026-04-04T07:48:52.999Z</time></trkpt><trkpt lat="43.98480894309195" lon="10.794373929907596"><ele>989.0000000000001</ele><time>2026-04-04T07:48:53.999Z</time></trkpt><trkpt lat="43.98488032772151" lon="10.794338400048584"><ele>989.0000000000001</ele><time>2026-04-04T07:48:54.999Z</time></trkpt><trkpt lat="43.98494291864063" lon="10.794284426194457"><ele>989.0</ele><time>2026-04-04T07:48:55.999Z</time></trkpt><trkpt lat="43.98503113524706" lon="10.7942153910424"><ele>989.0</ele><time>2026-04-04T07:48:56.999Z</time></trkpt><trkpt lat="43.98512235452443" lon="10.794117669353819"><ele>988.0</ele><time>2026-04-04T07:48:57.999Z</time></trkpt><trkpt lat="43.98523292575088" lon="10.793944493118543"><ele>987.0</ele><time>2026-04-04T07:48:58.999Z</time></trkpt><trkpt lat="43.98535691485892" lon="10.793775819728298"><ele>986.0</ele><time>2026-04-04T07:48:59.999Z</time></trkpt><trkpt lat="43.98547582576326" lon="10.79360354740042"><ele>989.6666666666667</ele><time>2026-04-04T07:49:00.999Z</time></trkpt><trkpt lat="43.98558680496151" lon="10.793421789860544"><ele>993.3333333333333</ele><time>2026-04-04T07:49:01.999Z</time></trkpt><trkpt lat="43.98569381549382" lon="10.793275350453712"><ele>997.0</ele><time>2026-04-04T07:49:02.999Z</time></trkpt><trkpt lat="43.985818600376724" lon="10.79313880860191"><ele>995.3333333333333</ele><time>2026-04-04T07:49:03.999Z</time></trkpt><trkpt lat="43.98593211360647" lon="10.79299980374768"><ele>993.6666666666667</ele><time>2026-04-04T07:49:04.999Z</time></trkpt><trkpt lat="43.98600535735563" lon="10.792793870083415"><ele>992.0</ele><time>2026-04-04T07:49:05.999Z</time></trkpt><trkpt lat="43.98607680661952" lon="10.792590544233834"><ele>991.8</ele><time>2026-04-04T07:49:06.999Z</time></trkpt><trkpt lat="43.98611345732726" lon="10.79241471153619"><ele>991.6</ele><time>2026-04-04T07:49:07.999Z</time></trkpt><trkpt lat="43.98614045353775" lon="10.792282125179407"><ele>991.3999999999999</ele><time>2026-04-04T07:49:08.999Z</time></trkpt><trkpt lat="43.986117574636985" lon="10.792152678077876"><ele>991.1999999999999</ele><time>2026-04-04T07:49:09.999Z</time></trkpt><trkpt lat="43.98608527880493" lon="10.792030925071673"><ele>991.0</ele><time>2026-04-04T07:49:10.999Z</time></trkpt><trkpt lat="43.98601535789639" lon="10.791903944061572"><ele>989.25</ele><time>2026-04-04T07:49:11.999Z</time></trkpt><trkpt lat="43.985959805157336" lon="10.791776626216912"><ele>987.5</ele><time>2026-04-04T07:49:12.999Z</time></trkpt><trkpt lat="43.9858756621696" lon="10.791620690203844"><ele>985.75</ele><time>2026-04-04T07:49:13.999Z</time></trkpt><trkpt lat="43.98577545483766" lon="10.79145880999635"><ele>984.0</ele><time>2026-04-04T07:49:14.999Z</time></trkpt><trkpt lat="43.98574596121347" lon="10.791279244605265"><ele>986.6666666666667</ele><time>2026-04-04T07:49:15.999Z</time></trkpt><trkpt lat="43.98574077028469" lon="10.791057773514126"><ele>989.3333333333334</ele><time>2026-04-04T07:49:16.999Z</time></trkpt><trkpt lat="43.98573564165046" lon="10.790825486151817"><ele>992.0</ele><time>2026-04-04T07:49:17.999Z</time></trkpt><trkpt lat="43.98572436435716" lon="10.790601089107119"><ele>992.0</ele><time>2026-04-04T07:49:18.999Z</time></trkpt><trkpt lat="43.98572479729175" lon="10.790402988793062"><ele>992.0</ele><time>2026-04-04T07:49:19.999Z</time></trkpt><trkpt lat="43.98578483679035" lon="10.790240805573191"><ele>992.0</ele><time>2026-04-04T07:49:20.999Z</time></trkpt><trkpt lat="43.98585915634289" lon="10.790068432541476"><ele>992.0</ele><time>2026-04-04T07:49:21.999Z</time></trkpt><trkpt lat="43.98594379976396" lon="10.789899243065204"><ele>991.0</ele><time>2026-04-04T07:49:22.999Z</time></trkpt><trkpt lat="43.986009407858184" lon="10.789718384439437"><ele>990.0</ele><time>2026-04-04T07:49:23.999Z</time></trkpt><trkpt lat="43.98609920349125" lon="10.78955692191126"><ele>989.0</ele><time>2026-04-04T07:49:24.999Z</time></trkpt><trkpt lat="43.98623288208323" lon="10.789444153275031"><ele>988.0</ele><time>2026-04-04T07:49:25.999Z</time></trkpt><trkpt lat="43.986373181673144" lon="10.789326773029487"><ele>988.0</ele><time>2026-04-04T07:49:26.999Z</time></trkpt><trkpt lat="43.98652292098244" lon="10.78922482266201"><ele>988.0</ele><time>2026-04-04T07:49:27.999Z</time></trkpt><trkpt lat="43.986652558263096" lon="10.789117578721548"><ele>988.0</ele><time>2026-04-04T07:49:28.999Z</time></trkpt><trkpt lat="43.98676807778679" lon="10.78903676934688"><ele>988.0</ele><time>2026-04-04T07:49:29.999Z</time></trkpt><trkpt lat="43.986851833260054" lon="10.788954974294091"><ele>987.25</ele><time>2026-04-04T07:49:30.999Z</time></trkpt><trkpt lat="43.986951364228126" lon="10.788945666388024"><ele>986.5</ele><time>2026-04-04T07:49:31.999Z</time></trkpt><trkpt lat="43.9870458388363" lon="10.788985334870818"><ele>985.75</ele><time>2026-04-04T07:49:32.999Z</time></trkpt><trkpt lat="43.98717353881311" lon="10.78909675034447"><ele>985.0</ele><time>2026-04-04T07:49:33.999Z</time></trkpt><trkpt lat="43.98728629150791" lon="10.789307099937767"><ele>982.0</ele><time>2026-04-04T07:49:34.999Z</time></trkpt><trkpt lat="43.987383814410194" lon="10.789423074648356"><ele>979.0</ele><time>2026-04-04T07:49:35.999Z</time></trkpt><trkpt lat="43.98748713027616" lon="10.789496594795095"><ele>976.0</ele><time>2026-04-04T07:49:36.999Z</time></trkpt><trkpt lat="43.987581050426" lon="10.789530698230584"><ele>973.0</ele><time>2026-04-04T07:49:37.999Z</time></trkpt><trkpt lat="43.98769216462942" lon="10.789504875808232"><ele>973.0</ele><time>2026-04-04T07:49:38.999Z</time></trkpt><trkpt lat="43.98783360654626" lon="10.789419526497705"><ele>973.0</ele><time>2026-04-04T07:49:39.999Z</time></trkpt><trkpt lat="43.987966258925" lon="10.789364347780232"><ele>973.0</ele><time>2026-04-04T07:49:40.999Z</time></trkpt><trkpt lat="43.988072856778544" lon="10.789370974649668"><ele>973.0</ele><time>2026-04-04T07:49:41.999Z</time></trkpt><trkpt lat="43.98814347880009" lon="10.789365977806153"><ele>973.0</ele><time>2026-04-04T07:49:42.999Z</time></trkpt><trkpt lat="43.988222760920785" lon="10.789361428596598"><ele>973.0</ele><time>2026-04-04T07:49:43.999Z</time></trkpt><trkpt lat="43.988305275006404" lon="10.789309784377062"><ele>973.0</ele><time>2026-04-04T07:49:44.999Z</time></trkpt><trkpt lat="43.98840211415898" lon="10.789203351906002"><ele>973.0</ele><time>2026-04-04T07:49:45.999Z</time></trkpt><trkpt lat="43.98848376351736" lon="10.78906154862177"><ele>973.0</ele><time>2026-04-04T07:49:46.999Z</time></trkpt><trkpt lat="43.988537275869994" lon="10.788941906981897"><ele>973.5</ele><time>2026-04-04T07:49:47.999Z</time></trkpt><trkpt lat="43.98856660189812" lon="10.78880814047552"><ele>974.0</ele><time>2026-04-04T07:49:48.999Z</time></trkpt><trkpt lat="43.98857333872003" lon="10.788677498578974"><ele>974.5</ele><time>2026-04-04T07:49:49.999Z</time></trkpt><trkpt lat="43.98852888088771" lon="10.788478432044347"><ele>975.0</ele><time>2026-04-04T07:49:50.999Z</time></trkpt><trkpt lat="43.98848632999941" lon="10.788296345074796"><ele>975.0</ele><time>2026-04-04T07:49:51.999Z</time></trkpt><trkpt lat="43.98842330996265" lon="10.788102909299866"><ele>975.0</ele><time>2026-04-04T07:49:52.999Z</time></trkpt><trkpt lat="43.9883620205645" lon="10.787907964030705"><ele>975.0</ele><time>2026-04-04T07:49:53.999Z</time></trkpt><trkpt lat="43.98834936509076" lon="10.78771810149433"><ele>975.0</ele><time>2026-04-04T07:49:54.999Z</time></trkpt><trkpt lat="43.988398872505314" lon="10.787544182524993"><ele>973.25</ele><time>2026-04-04T07:49:55.999Z</time></trkpt><trkpt lat="43.988493715890094" lon="10.78738186924272"><ele>971.5</ele><time>2026-04-04T07:49:56.999Z</time></trkpt><trkpt lat="43.98856234526611" lon="10.787258861645226"><ele>969.75</ele><time>2026-04-04T07:49:57.999Z</time></trkpt><trkpt lat="43.98863261770213" lon="10.787192798893336"><ele>968.0</ele><time>2026-04-04T07:49:58.999Z</time></trkpt><trkpt lat="43.98863459981351" lon="10.787043868899863"><ele>968.0</ele><time>2026-04-04T07:49:59.999Z</time></trkpt><trkpt lat="43.98861498904492" lon="10.786866145295697"><ele>968.0</ele><time>2026-04-04T07:50:00.999Z</time></trkpt><trkpt lat="43.98866535250672" lon="10.786728557482126"><ele>968.0</ele><time>2026-04-04T07:50:01.999Z</time></trkpt><trkpt lat="43.98875809090154" lon="10.786606813446715"><ele>968.0</ele><time>2026-04-04T07:50:02.999Z</time></trkpt><trkpt lat="43.98886829901558" lon="10.786530352248414"><ele>968.5</ele><time>2026-04-04T07:50:03.999Z</time></trkpt><trkpt lat="43.98897633834146" lon="10.78644853470912"><ele>969.0</ele><time>2026-04-04T07:50:04.999Z</time></trkpt><trkpt lat="43.98911087179163" lon="10.786361560483764"><ele>969.5</ele><time>2026-04-04T07:50:05.999Z</time></trkpt><trkpt lat="43.98922472723201" lon="10.786290188112288"><ele>970.0</ele><time>2026-04-04T07:50:06.998Z</time></trkpt><trkpt lat="43.98932237560676" lon="10.786211274572572"><ele>970.5</ele><time>2026-04-04T07:50:07.998Z</time></trkpt><trkpt lat="43.98943776266268" lon="10.786167016506372"><ele>971.0</ele><time>2026-04-04T07:50:08.999Z</time></trkpt><trkpt lat="43.98957417510408" lon="10.786137778759901"><ele>971.5</ele><time>2026-04-04T07:50:09.998Z</time></trkpt><trkpt lat="43.989710662554835" lon="10.786106237807406"><ele>972.0</ele><time>2026-04-04T07:50:10.998Z</time></trkpt><trkpt lat="43.989857201518184" lon="10.786070273725"><ele>972.0</ele><time>2026-04-04T07:50:11.999Z</time></trkpt><trkpt lat="43.9900067510426" lon="10.786040014371878"><ele>972.0</ele><time>2026-04-04T07:50:12.999Z</time></trkpt><trkpt lat="43.990156653637605" lon="10.7860348509971"><ele>972.0</ele><time>2026-04-04T07:50:13.999Z</time></trkpt><trkpt lat="43.99029669766695" lon="10.786035641876751"><ele>972.0</ele><time>2026-04-04T07:50:14.999Z</time></trkpt><trkpt lat="43.990416858359794" lon="10.786063727927727"><ele>971.8</ele><time>2026-04-04T07:50:15.999Z</time></trkpt><trkpt lat="43.99052886414816" lon="10.786099315997776"><ele>971.6</ele><time>2026-04-04T07:50:16.999Z</time></trkpt><trkpt lat="43.990634553481655" lon="10.786100013385779"><ele>971.3999999999999</ele><time>2026-04-04T07:50:17.999Z</time></trkpt><trkpt lat="43.99072286298962" lon="10.786068285968343"><ele>971.1999999999999</ele><time>2026-04-04T07:50:18.999Z</time></trkpt><trkpt lat="43.990792793158754" lon="10.786003676163904"><ele>971.0</ele><time>2026-04-04T07:50:19.999Z</time></trkpt><trkpt lat="43.990861239984866" lon="10.78589590130673"><ele>970.0</ele><time>2026-04-04T07:50:20.999Z</time></trkpt><trkpt lat="43.990929825717416" lon="10.785769959671901"><ele>968.9999999999999</ele><time>2026-04-04T07:50:21.999Z</time></trkpt><trkpt lat="43.99099716829756" lon="10.785651564141647"><ele>967.9999999999999</ele><time>2026-04-04T07:50:22.999Z</time></trkpt><trkpt lat="43.99106806003832" lon="10.785532463759049"><ele>967.0</ele><time>2026-04-04T07:50:23.999Z</time></trkpt><trkpt lat="43.99114656046542" lon="10.785422296039389"><ele>966.0</ele><time>2026-04-04T07:50:24.999Z</time></trkpt><trkpt lat="43.991241446650626" lon="10.785308278237395"><ele>966.0</ele><time>2026-04-04T07:50:25.999Z</time></trkpt><trkpt lat="43.99135127959365" lon="10.785185191278316"><ele>966.0</ele><time>2026-04-04T07:50:26.999Z</time></trkpt><trkpt lat="43.99146897354535" lon="10.785058924587863"><ele>966.0</ele><time>2026-04-04T07:50:27.999Z</time></trkpt><trkpt lat="43.99155234175464" lon="10.784911966794853"><ele>966.0</ele><time>2026-04-04T07:50:28.999Z</time></trkpt><trkpt lat="43.99163133904974" lon="10.784748904163209"><ele>965.75</ele><time>2026-04-04T07:50:29.999Z</time></trkpt><trkpt lat="43.991689534519715" lon="10.784593610591994"><ele>965.5</ele><time>2026-04-04T07:50:30.999Z</time></trkpt><trkpt lat="43.99175348928822" lon="10.784445493189764"><ele>965.25</ele><time>2026-04-04T07:50:31.999Z</time></trkpt><trkpt lat="43.99182959154971" lon="10.7843099317827"><ele>965.0</ele><time>2026-04-04T07:50:32.999Z</time></trkpt><trkpt lat="43.99190445459596" lon="10.784195361250129"><ele>963.0</ele><time>2026-04-04T07:50:33.999Z</time></trkpt><trkpt lat="43.99202332335852" lon="10.784115933166635"><ele>961.0</ele><time>2026-04-04T07:50:34.999Z</time></trkpt><trkpt lat="43.9921609749667" lon="10.784077857894946"><ele>959.0</ele><time>2026-04-04T07:50:35.999Z</time></trkpt><trkpt lat="43.9923028338631" lon="10.784055375581328"><ele>957.0</ele><time>2026-04-04T07:50:36.999Z</time></trkpt><trkpt lat="43.992447680372536" lon="10.784076218959502"><ele>957.0</ele><time>2026-04-04T07:50:37.999Z</time></trkpt><trkpt lat="43.992572845902096" lon="10.784111326937666"><ele>957.0</ele><time>2026-04-04T07:50:38.999Z</time></trkpt><trkpt lat="43.992665686786566" lon="10.784164297520931"><ele>957.0</ele><time>2026-04-04T07:50:39.999Z</time></trkpt><trkpt lat="43.99274110160166" lon="10.784260592819049"><ele>957.0</ele><time>2026-04-04T07:50:40.999Z</time></trkpt><trkpt lat="43.992799375066625" lon="10.784374048044123"><ele>957.0</ele><time>2026-04-04T07:50:41.999Z</time></trkpt><trkpt lat="43.99282477285961" lon="10.784495401207115"><ele>957.0</ele><time>2026-04-04T07:50:42.999Z</time></trkpt><trkpt lat="43.99288708628084" lon="10.784586317388685"><ele>957.0</ele><time>2026-04-04T07:50:43.999Z</time></trkpt><trkpt lat="43.99297588317079" lon="10.784539651593738"><ele>957.0</ele><time>2026-04-04T07:50:45.999Z</time></trkpt><trkpt lat="43.99295216020867" lon="10.784392599832502"><ele>957.0</ele><time>2026-04-04T07:50:47.999Z</time></trkpt><trkpt lat="43.99291066992722" lon="10.784281185785764"><ele>957.0</ele><time>2026-04-04T07:50:48.999Z</time></trkpt><trkpt lat="43.992834598779794" lon="10.784148347359734"><ele>957.0</ele><time>2026-04-04T07:50:49.999Z</time></trkpt><trkpt lat="43.99273237436626" lon="10.78397608117746"><ele>957.0</ele><time>2026-04-04T07:50:50.999Z</time></trkpt><trkpt lat="43.992622971336424" lon="10.783802687890287"><ele>957.0</ele><time>2026-04-04T07:50:51.999Z</time></trkpt><trkpt lat="43.99253420276698" lon="10.783663518813508"><ele>957.0</ele><time>2026-04-04T07:50:52.999Z</time></trkpt><trkpt lat="43.99250892045178" lon="10.783536623272042"><ele>957.0</ele><time>2026-04-04T07:50:53.999Z</time></trkpt><trkpt lat="43.99253792128098" lon="10.783391373922688"><ele>957.0</ele><time>2026-04-04T07:50:54.999Z</time></trkpt><trkpt lat="43.9925801509166" lon="10.783242823721425"><ele>957.0</ele><time>2026-04-04T07:50:55.999Z</time></trkpt><trkpt lat="43.99266362224472" lon="10.783101697900037"><ele>953.0</ele><time>2026-04-04T07:50:56.999Z</time></trkpt><trkpt lat="43.99277850182816" lon="10.782983963663046"><ele>949.0</ele><time>2026-04-04T07:50:57.999Z</time></trkpt><trkpt lat="43.99289833997491" lon="10.782846821444604"><ele>945.0</ele><time>2026-04-04T07:50:58.999Z</time></trkpt><trkpt lat="43.99300830723487" lon="10.782703165093773"><ele>941.0</ele><time>2026-04-04T07:50:59.999Z</time></trkpt><trkpt lat="43.99309169862857" lon="10.782571362894977"><ele>939.5</ele><time>2026-04-04T07:51:00.999Z</time></trkpt><trkpt lat="43.99315361818388" lon="10.782430199765743"><ele>938.0</ele><time>2026-04-04T07:51:01.999Z</time></trkpt><trkpt lat="43.99316381642346" lon="10.782276605965013"><ele>936.5</ele><time>2026-04-04T07:51:02.999Z</time></trkpt><trkpt lat="43.99313922558161" lon="10.782110056592625"><ele>935.0</ele><time>2026-04-04T07:51:03.999Z</time></trkpt><trkpt lat="43.99309290559276" lon="10.781940415293182"><ele>934.0</ele><time>2026-04-04T07:51:04.999Z</time></trkpt><trkpt lat="43.99303187121736" lon="10.781784522384468"><ele>933.0</ele><time>2026-04-04T07:51:05.999Z</time></trkpt><trkpt lat="43.99298815767039" lon="10.781674780684884"><ele>932.0</ele><time>2026-04-04T07:51:06.999Z</time></trkpt><trkpt lat="43.992941641562744" lon="10.781568969820011"><ele>931.0</ele><time>2026-04-04T07:51:07.999Z</time></trkpt><trkpt lat="43.9929493487364" lon="10.781454025843232"><ele>930.0</ele><time>2026-04-04T07:51:08.999Z</time></trkpt><trkpt lat="43.99299956789757" lon="10.781310736981752"><ele>930.0</ele><time>2026-04-04T07:51:09.999Z</time></trkpt><trkpt lat="43.99308545373463" lon="10.781154076212156"><ele>930.0</ele><time>2026-04-04T07:51:10.999Z</time></trkpt><trkpt lat="43.99317167678515" lon="10.780970501437235"><ele>930.0</ele><time>2026-04-04T07:51:11.999Z</time></trkpt><trkpt lat="43.993237285999854" lon="10.780793232251373"><ele>930.0</ele><time>2026-04-04T07:51:12.999Z</time></trkpt><trkpt lat="43.993259704413745" lon="10.780612728921957"><ele>928.3333333333333</ele><time>2026-04-04T07:51:13.999Z</time></trkpt><trkpt lat="43.99325016982737" lon="10.780408438018693"><ele>926.6666666666666</ele><time>2026-04-04T07:51:14.999Z</time></trkpt><trkpt lat="43.99323444160341" lon="10.780216058921061"><ele>925.0</ele><time>2026-04-04T07:51:15.999Z</time></trkpt><trkpt lat="43.99317809408732" lon="10.779998588546558"><ele>925.0</ele><time>2026-04-04T07:51:16.999Z</time></trkpt><trkpt lat="43.99313444525659" lon="10.779818490846878"><ele>925.0</ele><time>2026-04-04T07:51:17.999Z</time></trkpt><trkpt lat="43.99309170780128" lon="10.779671859883173"><ele>925.0</ele><time>2026-04-04T07:51:18.999Z</time></trkpt><trkpt lat="43.9930226274584" lon="10.779553520036963"><ele>925.0</ele><time>2026-04-04T07:51:19.999Z</time></trkpt><trkpt lat="43.99293159819649" lon="10.77948842978476"><ele>924.9999999999999</ele><time>2026-04-04T07:51:20.999Z</time></trkpt><trkpt lat="43.99284291265528" lon="10.77946877550989"><ele>925.0</ele><time>2026-04-04T07:51:21.999Z</time></trkpt><trkpt lat="43.99276328216243" lon="10.779527453976595"><ele>925.0</ele><time>2026-04-04T07:51:22.999Z</time></trkpt><trkpt lat="43.99268836667674" lon="10.779590322723974"><ele>925.0</ele><time>2026-04-04T07:51:23.999Z</time></trkpt><trkpt lat="43.99262197540771" lon="10.779638708476234"><ele>924.9999999999999</ele><time>2026-04-04T07:51:24.999Z</time></trkpt><trkpt lat="43.99254299650459" lon="10.779651828597924"><ele>925.0</ele><time>2026-04-04T07:51:25.999Z</time></trkpt><trkpt lat="43.99244782982368" lon="10.779571551168765"><ele>922.25</ele><time>2026-04-04T07:51:26.999Z</time></trkpt><trkpt lat="43.99235141654452" lon="10.779494640619024"><ele>919.5</ele><time>2026-04-04T07:51:27.999Z</time></trkpt><trkpt lat="43.992251316439564" lon="10.779357750085273"><ele>916.75</ele><time>2026-04-04T07:51:28.999Z</time></trkpt><trkpt lat="43.9921574264876" lon="10.779198734766563"><ele>914.0</ele><time>2026-04-04T07:51:29.999Z</time></trkpt><trkpt lat="43.99205701496943" lon="10.779069190682529"><ele>913.8000000000001</ele><time>2026-04-04T07:51:30.999Z</time></trkpt><trkpt lat="43.99199253703814" lon="10.778939418932543"><ele>913.6000000000001</ele><time>2026-04-04T07:51:31.999Z</time></trkpt><trkpt lat="43.9919650891621" lon="10.778825296436251"><ele>913.4</ele><time>2026-04-04T07:51:32.999Z</time></trkpt><trkpt lat="43.99197335837644" lon="10.778704745630055"><ele>913.2</ele><time>2026-04-04T07:51:33.999Z</time></trkpt><trkpt lat="43.992029261653656" lon="10.778556005741953"><ele>913.0</ele><time>2026-04-04T07:51:34.999Z</time></trkpt><trkpt lat="43.99212011152833" lon="10.7784103044262"><ele>909.0</ele><time>2026-04-04T07:51:35.999Z</time></trkpt><trkpt lat="43.992222725810294" lon="10.77828842860779"><ele>905.0</ele><time>2026-04-04T07:51:36.999Z</time></trkpt><trkpt lat="43.99233076320685" lon="10.778178992139205"><ele>901.0</ele><time>2026-04-04T07:51:37.999Z</time></trkpt><trkpt lat="43.99244228651321" lon="10.778119219868348"><ele>897.0</ele><time>2026-04-04T07:51:38.999Z</time></trkpt><trkpt lat="43.992564032583594" lon="10.778064839659592"><ele>896.75</ele><time>2026-04-04T07:51:39.999Z</time></trkpt><trkpt lat="43.992706225849815" lon="10.778036812795593"><ele>896.5</ele><time>2026-04-04T07:51:40.999Z</time></trkpt><trkpt lat="43.992851256881735" lon="10.778021792576343"><ele>896.25</ele><time>2026-04-04T07:51:41.999Z</time></trkpt><trkpt lat="43.99299084114401" lon="10.778051798436179"><ele>896.0</ele><time>2026-04-04T07:51:42.999Z</time></trkpt><trkpt lat="43.9931127388573" lon="10.778088052248926"><ele>896.0</ele><time>2026-04-04T07:51:43.999Z</time></trkpt><trkpt lat="43.99322618176557" lon="10.778158251127644"><ele>895.9999999999999</ele><time>2026-04-04T07:51:44.999Z</time></trkpt><trkpt lat="43.99333530122313" lon="10.778175818294807"><ele>895.9999999999999</ele><time>2026-04-04T07:51:45.999Z</time></trkpt><trkpt lat="43.9934397203873" lon="10.77816932437684"><ele>896.0</ele><time>2026-04-04T07:51:46.999Z</time></trkpt><trkpt lat="43.99352297776222" lon="10.77811549065763"><ele>896.0</ele><time>2026-04-04T07:51:47.999Z</time></trkpt><trkpt lat="43.99356942176351" lon="10.778055918567151"><ele>896.0</ele><time>2026-04-04T07:51:48.999Z</time></trkpt><trkpt lat="43.99359714507467" lon="10.77795727563958"><ele>895.9999999999999</ele><time>2026-04-04T07:51:49.999Z</time></trkpt><trkpt lat="43.993571548208905" lon="10.77782346306199"><ele>895.9999999999999</ele><time>2026-04-04T07:51:50.999Z</time></trkpt><trkpt lat="43.99351426599072" lon="10.777665451317915"><ele>896.0</ele><time>2026-04-04T07:51:51.999Z</time></trkpt><trkpt lat="43.99346094255146" lon="10.77752187819512"><ele>896.0</ele><time>2026-04-04T07:51:52.999Z</time></trkpt><trkpt lat="43.99337535874677" lon="10.777328441639984"><ele>891.75</ele><time>2026-04-04T07:51:53.999Z</time></trkpt><trkpt lat="43.993308448504955" lon="10.777116654614154"><ele>887.5</ele><time>2026-04-04T07:51:54.999Z</time></trkpt><trkpt lat="43.9932617191096" lon="10.77694071613193"><ele>883.25</ele><time>2026-04-04T07:51:55.999Z</time></trkpt><trkpt lat="43.99324059345227" lon="10.776803784592456"><ele>879.0</ele><time>2026-04-04T07:51:56.999Z</time></trkpt><trkpt lat="43.99322934452211" lon="10.77669698373134"><ele>878.8000000000001</ele><time>2026-04-04T07:51:57.999Z</time></trkpt><trkpt lat="43.99326984121742" lon="10.776550247625002"><ele>878.6000000000001</ele><time>2026-04-04T07:51:59.999Z</time></trkpt><trkpt lat="43.9933339027542" lon="10.776511746871982"><ele>878.4</ele><time>2026-04-04T07:52:00.999Z</time></trkpt><trkpt lat="43.99342318198713" lon="10.776482209353235"><ele>878.2</ele><time>2026-04-04T07:52:01.999Z</time></trkpt><trkpt lat="43.99352917455655" lon="10.776459868118483"><ele>878.0</ele><time>2026-04-04T07:52:02.999Z</time></trkpt><trkpt lat="43.99365994228812" lon="10.776431496161646"><ele>878.0</ele><time>2026-04-04T07:52:03.999Z</time></trkpt><trkpt lat="43.99379930191178" lon="10.776392332967543"><ele>878.0</ele><time>2026-04-04T07:52:04.999Z</time></trkpt><trkpt lat="43.993928213377714" lon="10.77631255947342"><ele>878.0</ele><time>2026-04-04T07:52:05.999Z</time></trkpt><trkpt lat="43.99405361204253" lon="10.776247442124086"><ele>878.0</ele><time>2026-04-04T07:52:06.999Z</time></trkpt><trkpt lat="43.99416618289345" lon="10.776185449410718"><ele>878.25</ele><time>2026-04-04T07:52:07.999Z</time></trkpt><trkpt lat="43.99428156379176" lon="10.776154906117451"><ele>878.5</ele><time>2026-04-04T07:52:08.999Z</time></trkpt><trkpt lat="43.994398736281724" lon="10.776166965685569"><ele>878.75</ele><time>2026-04-04T07:52:09.999Z</time></trkpt><trkpt lat="43.99451779469868" lon="10.776179629822606"><ele>879.0</ele><time>2026-04-04T07:52:10.999Z</time></trkpt><trkpt lat="43.99461831637764" lon="10.776230718780143"><ele>879.0</ele><time>2026-04-04T07:52:11.999Z</time></trkpt><trkpt lat="43.99472682546589" lon="10.776332530791072"><ele>879.0000000000001</ele><time>2026-04-04T07:52:12.999Z</time></trkpt><trkpt lat="43.99481428640765" lon="10.776367139455841"><ele>879.0000000000001</ele><time>2026-04-04T07:52:13.999Z</time></trkpt><trkpt lat="43.994904667699366" lon="10.776338752095013"><ele>879.0</ele><time>2026-04-04T07:52:14.999Z</time></trkpt><trkpt lat="43.99501282469567" lon="10.776258439403914"><ele>879.0</ele><time>2026-04-04T07:52:15.999Z</time></trkpt><trkpt lat="43.99509879925713" lon="10.776140944080582"><ele>879.2</ele><time>2026-04-04T07:52:16.999Z</time></trkpt><trkpt lat="43.995166138740686" lon="10.776023393732636"><ele>879.4000000000001</ele><time>2026-04-04T07:52:17.999Z</time></trkpt><trkpt lat="43.995218742684365" lon="10.77592237961562"><ele>879.6</ele><time>2026-04-04T07:52:18.999Z</time></trkpt><trkpt lat="43.995247809103404" lon="10.775797641817638"><ele>879.8</ele><time>2026-04-04T07:52:19.999Z</time></trkpt><trkpt lat="43.99523159147824" lon="10.775623047585778"><ele>880.0</ele><time>2026-04-04T07:52:20.999Z</time></trkpt><trkpt lat="43.995208773995444" lon="10.775476901675349"><ele>880.0</ele><time>2026-04-04T07:52:21.998Z</time></trkpt><trkpt lat="43.99519439413116" lon="10.775346225772314"><ele>880.0</ele><time>2026-04-04T07:52:22.998Z</time></trkpt><trkpt lat="43.99517889535123" lon="10.77518692220645"><ele>880.0</ele><time>2026-04-04T07:52:23.998Z</time></trkpt><trkpt lat="43.99517572437874" lon="10.775014544704618"><ele>880.0</ele><time>2026-04-04T07:52:24.998Z</time></trkpt><trkpt lat="43.995191597451274" lon="10.774874564104323"><ele>880.0</ele><time>2026-04-04T07:52:25.998Z</time></trkpt><trkpt lat="43.99520821825178" lon="10.77473386084265"><ele>875.6</ele><time>2026-04-04T07:52:26.998Z</time></trkpt><trkpt lat="43.995241664532664" lon="10.774591985679605"><ele>871.2</ele><time>2026-04-04T07:52:27.998Z</time></trkpt><trkpt lat="43.995256058127886" lon="10.774449582763395"><ele>866.8</ele><time>2026-04-04T07:52:28.998Z</time></trkpt><trkpt lat="43.99525005621313" lon="10.774285663674878"><ele>862.4</ele><time>2026-04-04T07:52:29.998Z</time></trkpt><trkpt lat="43.99522579182155" lon="10.774159443528967"><ele>858.0</ele><time>2026-04-04T07:52:30.998Z</time></trkpt><trkpt lat="43.99520223046781" lon="10.774051815193449"><ele>853.8</ele><time>2026-04-04T07:52:31.998Z</time></trkpt><trkpt lat="43.99517706283833" lon="10.773930144618292"><ele>849.5999999999999</ele><time>2026-04-04T07:52:32.998Z</time></trkpt><trkpt lat="43.99518565104245" lon="10.77380151325726"><ele>845.4000000000001</ele><time>2026-04-04T07:52:33.998Z</time></trkpt><trkpt lat="43.995200157901245" lon="10.773660245923796"><ele>841.2</ele><time>2026-04-04T07:52:34.998Z</time></trkpt><trkpt lat="43.99522407443888" lon="10.773490663020675"><ele>837.0</ele><time>2026-04-04T07:52:35.998Z</time></trkpt><trkpt lat="43.99522393947097" lon="10.773330363117514"><ele>836.0</ele><time>2026-04-04T07:52:36.998Z</time></trkpt><trkpt lat="43.99521616223574" lon="10.773163087814957"><ele>835.0</ele><time>2026-04-04T07:52:37.998Z</time></trkpt><trkpt lat="43.99519998882435" lon="10.772999545577973"><ele>834.0</ele><time>2026-04-04T07:52:38.998Z</time></trkpt><trkpt lat="43.99521154962196" lon="10.772855993120835"><ele>833.0</ele><time>2026-04-04T07:52:39.998Z</time></trkpt><trkpt lat="43.99522866602202" lon="10.772723229617007"><ele>832.0</ele><time>2026-04-04T07:52:40.998Z</time></trkpt><trkpt lat="43.99523890251194" lon="10.772599598635797"><ele>832.0</ele><time>2026-04-04T07:52:41.998Z</time></trkpt><trkpt lat="43.99523563353438" lon="10.772467344453444"><ele>832.0</ele><time>2026-04-04T07:52:42.998Z</time></trkpt><trkpt lat="43.99521168162406" lon="10.77232459110865"><ele>832.0</ele><time>2026-04-04T07:52:43.998Z</time></trkpt><trkpt lat="43.9951708074671" lon="10.772195841228546"><ele>832.0</ele><time>2026-04-04T07:52:44.998Z</time></trkpt><trkpt lat="43.99513143615933" lon="10.77205997294056"><ele>832.0</ele><time>2026-04-04T07:52:45.998Z</time></trkpt><trkpt lat="43.99512908019904" lon="10.771944014151309"><ele>831.6</ele><time>2026-04-04T07:52:46.998Z</time></trkpt><trkpt lat="43.99518801511984" lon="10.771827032289238"><ele>831.2</ele><time>2026-04-04T07:52:48.998Z</time></trkpt><trkpt lat="43.995243222277864" lon="10.771673898715436"><ele>830.8</ele><time>2026-04-04T07:52:50.998Z</time></trkpt><trkpt lat="43.99526592157692" lon="10.771544930843842"><ele>830.4</ele><time>2026-04-04T07:52:51.998Z</time></trkpt><trkpt lat="43.99528349606724" lon="10.771396780948356"><ele>830.0</ele><time>2026-04-04T07:52:52.998Z</time></trkpt><trkpt lat="43.995312436027774" lon="10.771237695521114"><ele>830.0</ele><time>2026-04-04T07:52:53.998Z</time></trkpt><trkpt lat="43.9953327267771" lon="10.771056613043168"><ele>830.0</ele><time>2026-04-04T07:52:54.998Z</time></trkpt><trkpt lat="43.99538608421132" lon="10.770870119080818"><ele>830.0</ele><time>2026-04-04T07:52:55.998Z</time></trkpt><trkpt lat="43.99545287041736" lon="10.770688257067892"><ele>830.0</ele><time>2026-04-04T07:52:56.998Z</time></trkpt><trkpt lat="43.99552256365475" lon="10.770524125668556"><ele>831.0</ele><time>2026-04-04T07:52:57.998Z</time></trkpt><trkpt lat="43.99559207320452" lon="10.770393263039407"><ele>832.0</ele><time>2026-04-04T07:52:58.998Z</time></trkpt><trkpt lat="43.99565478172937" lon="10.770260505235289"><ele>833.0</ele><time>2026-04-04T07:52:59.998Z</time></trkpt><trkpt lat="43.9957079409565" lon="10.770140916154254"><ele>834.0</ele><time>2026-04-04T07:53:00.998Z</time></trkpt><trkpt lat="43.99575729846081" lon="10.770009762627993"><ele>835.0</ele><time>2026-04-04T07:53:01.998Z</time></trkpt><trkpt lat="43.99578721527757" lon="10.769840156648554"><ele>834.25</ele><time>2026-04-04T07:53:02.998Z</time></trkpt><trkpt lat="43.99580408166745" lon="10.769651588268202"><ele>833.5</ele><time>2026-04-04T07:53:03.998Z</time></trkpt><trkpt lat="43.99582947258977" lon="10.76947406918651"><ele>832.75</ele><time>2026-04-04T07:53:04.998Z</time></trkpt><trkpt lat="43.99584478072287" lon="10.769293971880904"><ele>832.0</ele><time>2026-04-04T07:53:05.998Z</time></trkpt><trkpt lat="43.9958659990336" lon="10.769112091840885"><ele>832.0</ele><time>2026-04-04T07:53:06.998Z</time></trkpt><trkpt lat="43.995872279593485" lon="10.76892229577558"><ele>832.0</ele><time>2026-04-04T07:53:07.998Z</time></trkpt><trkpt lat="43.99586765859028" lon="10.768716221763416"><ele>832.0</ele><time>2026-04-04T07:53:08.998Z</time></trkpt><trkpt lat="43.99585309087282" lon="10.768509615949815"><ele>832.0</ele><time>2026-04-04T07:53:09.998Z</time></trkpt><trkpt lat="43.99589718094632" lon="10.768305187128966"><ele>836.0</ele><time>2026-04-04T07:53:10.998Z</time></trkpt><trkpt lat="43.99593229334762" lon="10.768080260860208"><ele>840.0</ele><time>2026-04-04T07:53:11.998Z</time></trkpt><trkpt lat="43.99597117198437" lon="10.76787546491631"><ele>844.0</ele><time>2026-04-04T07:53:12.998Z</time></trkpt><trkpt lat="43.99600960936727" lon="10.767680772009577"><ele>845.0</ele><time>2026-04-04T07:53:13.998Z</time></trkpt><trkpt lat="43.99606202624858" lon="10.767485856620372"><ele>846.0</ele><time>2026-04-04T07:53:14.998Z</time></trkpt><trkpt lat="43.99612375512064" lon="10.767287003951905"><ele>847.0</ele><time>2026-04-04T07:53:15.998Z</time></trkpt><trkpt lat="43.996186334641635" lon="10.767087546177828"><ele>847.0</ele><time>2026-04-04T07:53:16.998Z</time></trkpt><trkpt lat="43.996257109135044" lon="10.766880708499766"><ele>847.0</ele><time>2026-04-04T07:53:17.998Z</time></trkpt><trkpt lat="43.99634052889109" lon="10.766679679947016"><ele>847.0</ele><time>2026-04-04T07:53:18.998Z</time></trkpt><trkpt lat="43.99642916047361" lon="10.76649406838657"><ele>847.75</ele><time>2026-04-04T07:53:19.998Z</time></trkpt><trkpt lat="43.99650255903379" lon="10.766319757683679"><ele>848.5</ele><time>2026-04-04T07:53:20.998Z</time></trkpt><trkpt lat="43.99657920116998" lon="10.766155444818303"><ele>849.25</ele><time>2026-04-04T07:53:21.998Z</time></trkpt><trkpt lat="43.99667340460556" lon="10.766004828567471"><ele>850.0</ele><time>2026-04-04T07:53:22.998Z</time></trkpt><trkpt lat="43.99677220971871" lon="10.765846531297797"><ele>847.6666666666666</ele><time>2026-04-04T07:53:23.998Z</time></trkpt><trkpt lat="43.99687411692407" lon="10.765666067431876"><ele>845.3333333333333</ele><time>2026-04-04T07:53:24.998Z</time></trkpt><trkpt lat="43.99699064913124" lon="10.765511872574303"><ele>843.0</ele><time>2026-04-04T07:53:25.998Z</time></trkpt><trkpt lat="43.99712242069478" lon="10.765397361181318"><ele>843.0</ele><time>2026-04-04T07:53:26.998Z</time></trkpt><trkpt lat="43.99724328827099" lon="10.765292197456825"><ele>843.0</ele><time>2026-04-04T07:53:27.998Z</time></trkpt><trkpt lat="43.997347068959364" lon="10.76518820855451"><ele>843.0</ele><time>2026-04-04T07:53:28.998Z</time></trkpt><trkpt lat="43.9974435545734" lon="10.765061257855983"><ele>843.0</ele><time>2026-04-04T07:53:29.998Z</time></trkpt><trkpt lat="43.9974927332237" lon="10.764941549329064"><ele>843.75</ele><time>2026-04-04T07:53:30.998Z</time></trkpt><trkpt lat="43.99753299509813" lon="10.764799791832177"><ele>844.5</ele><time>2026-04-04T07:53:31.998Z</time></trkpt><trkpt lat="43.99758869144639" lon="10.764672497346156"><ele>845.25</ele><time>2026-04-04T07:53:32.998Z</time></trkpt><trkpt lat="43.99768427419633" lon="10.764572189991544"><ele>846.0</ele><time>2026-04-04T07:53:33.998Z</time></trkpt><trkpt lat="43.997790456867456" lon="10.764482203730564"><ele>846.0</ele><time>2026-04-04T07:53:34.998Z</time></trkpt><trkpt lat="43.9978785678203" lon="10.764407861707692"><ele>846.0</ele><time>2026-04-04T07:53:35.998Z</time></trkpt><trkpt lat="43.9979506670453" lon="10.764285220456744"><ele>846.0</ele><time>2026-04-04T07:53:36.998Z</time></trkpt><trkpt lat="43.99800251162181" lon="10.76414590665308"><ele>846.0</ele><time>2026-04-04T07:53:37.998Z</time></trkpt><trkpt lat="43.99804555217076" lon="10.763996693383929"><ele>846.0</ele><time>2026-04-04T07:53:38.998Z</time></trkpt><trkpt lat="43.99808187702728" lon="10.763803544139844"><ele>849.25</ele><time>2026-04-04T07:53:39.998Z</time></trkpt><trkpt lat="43.998111290599205" lon="10.763603674765903"><ele>852.5</ele><time>2026-04-04T07:53:40.998Z</time></trkpt><trkpt lat="43.99812869379115" lon="10.763382270010077"><ele>855.75</ele><time>2026-04-04T07:53:41.998Z</time></trkpt><trkpt lat="43.99814795288974" lon="10.763203183068391"><ele>859.0</ele><time>2026-04-04T07:53:42.998Z</time></trkpt><trkpt lat="43.998152316896615" lon="10.763055217327855"><ele>860.6</ele><time>2026-04-04T07:53:43.998Z</time></trkpt><trkpt lat="43.99815872238006" lon="10.762928647187591"><ele>862.2</ele><time>2026-04-04T07:53:44.998Z</time></trkpt><trkpt lat="43.99817011223701" lon="10.762776836486962"><ele>863.8000000000001</ele><time>2026-04-04T07:53:45.998Z</time></trkpt><trkpt lat="43.99816163949683" lon="10.762625534738799"><ele>865.4000000000001</ele><time>2026-04-04T07:53:46.998Z</time></trkpt><trkpt lat="43.99814645123166" lon="10.762490715511515"><ele>867.0</ele><time>2026-04-04T07:53:47.998Z</time></trkpt><trkpt lat="43.998155509860304" lon="10.762369357514181"><ele>867.5</ele><time>2026-04-04T07:53:48.998Z</time></trkpt><trkpt lat="43.998201722722065" lon="10.76223945989572"><ele>868.0</ele><time>2026-04-04T07:53:49.998Z</time></trkpt><trkpt lat="43.99827578449979" lon="10.762117750236554"><ele>868.5</ele><time>2026-04-04T07:53:50.998Z</time></trkpt><trkpt lat="43.99834542387296" lon="10.761990429549586"><ele>869.0</ele><time>2026-04-04T07:53:51.998Z</time></trkpt><trkpt lat="43.99841571080718" lon="10.761845791775105"><ele>865.75</ele><time>2026-04-04T07:53:52.998Z</time></trkpt><trkpt lat="43.99846034133694" lon="10.76167022671917"><ele>862.5</ele><time>2026-04-04T07:53:53.998Z</time></trkpt><trkpt lat="43.99848046454164" lon="10.761479918782928"><ele>859.25</ele><time>2026-04-04T07:53:54.998Z</time></trkpt><trkpt lat="43.99849437683946" lon="10.7613135370591"><ele>856.0</ele><time>2026-04-04T07:53:55.998Z</time></trkpt><trkpt lat="43.99850240971211" lon="10.761189258765562"><ele>856.0</ele><time>2026-04-04T07:53:56.998Z</time></trkpt><trkpt lat="43.998551553210824" lon="10.76108191878908"><ele>855.9999999999999</ele><time>2026-04-04T07:53:57.998Z</time></trkpt><trkpt lat="43.9986311235223" lon="10.760998588534486"><ele>855.9999999999999</ele><time>2026-04-04T07:53:58.998Z</time></trkpt><trkpt lat="43.998716570037786" lon="10.760922014677496"><ele>856.0</ele><time>2026-04-04T07:53:59.998Z</time></trkpt><trkpt lat="43.998789358505036" lon="10.760888467437576"><ele>856.0</ele><time>2026-04-04T07:54:00.998Z</time></trkpt><trkpt lat="43.9988910198122" lon="10.760835810853361"><ele>856.8</ele><time>2026-04-04T07:54:02.998Z</time></trkpt><trkpt lat="43.999000267602966" lon="10.760779655265205"><ele>857.5999999999999</ele><time>2026-04-04T07:54:04.998Z</time></trkpt><trkpt lat="43.99907801875221" lon="10.760750585380375"><ele>858.4</ele><time>2026-04-04T07:54:05.998Z</time></trkpt><trkpt lat="43.999167138138276" lon="10.760740063774707"><ele>859.2</ele><time>2026-04-04T07:54:06.998Z</time></trkpt><trkpt lat="43.99927562341194" lon="10.76076310912679"><ele>860.0</ele><time>2026-04-04T07:54:07.998Z</time></trkpt><trkpt lat="43.999388363440644" lon="10.760785551065775"><ele>863.6</ele><time>2026-04-04T07:54:08.998Z</time></trkpt><trkpt lat="43.99951234105754" lon="10.76079514729666"><ele>867.2</ele><time>2026-04-04T07:54:09.998Z</time></trkpt><trkpt lat="43.99963598386321" lon="10.760808203159673"><ele>870.8</ele><time>2026-04-04T07:54:10.998Z</time></trkpt><trkpt lat="43.999745501758824" lon="10.760821790028034"><ele>874.4</ele><time>2026-04-04T07:54:11.998Z</time></trkpt><trkpt lat="43.999836160754235" lon="10.760822885555651"><ele>878.0</ele><time>2026-04-04T07:54:12.998Z</time></trkpt><trkpt lat="43.99991274050812" lon="10.76079764997954"><ele>878.0000000000001</ele><time>2026-04-04T07:54:13.998Z</time></trkpt><trkpt lat="43.99998560468009" lon="10.760741162453353"><ele>878.0</ele><time>2026-04-04T07:54:14.999Z</time></trkpt><trkpt lat="44.00003894917819" lon="10.760657756564967"><ele>878.0</ele><time>2026-04-04T07:54:15.998Z</time></trkpt><trkpt lat="44.00007780649571" lon="10.760563597129165"><ele>878.0</ele><time>2026-04-04T07:54:16.998Z</time></trkpt><trkpt lat="44.00012347298396" lon="10.760457094184616"><ele>878.0000000000001</ele><time>2026-04-04T07:54:17.999Z</time></trkpt><trkpt lat="44.000166617171665" lon="10.760345563806249"><ele>878.0</ele><time>2026-04-04T07:54:18.999Z</time></trkpt><trkpt lat="44.000224958635876" lon="10.76024441862329"><ele>877.5999999999999</ele><time>2026-04-04T07:54:19.999Z</time></trkpt><trkpt lat="44.000283759617155" lon="10.760145329927933"><ele>877.1999999999999</ele><time>2026-04-04T07:54:20.999Z</time></trkpt><trkpt lat="44.000354765348796" lon="10.76006658445888"><ele>876.8</ele><time>2026-04-04T07:54:21.998Z</time></trkpt><trkpt lat="44.00040571148709" lon="10.759988233485792"><ele>876.4</ele><time>2026-04-04T07:54:22.998Z</time></trkpt><trkpt lat="44.00049473038057" lon="10.759880478888846"><ele>876.0</ele><time>2026-04-04T07:54:24.999Z</time></trkpt><trkpt lat="44.00054169585358" lon="10.75980354593133"><ele>876.0</ele><time>2026-04-04T07:54:25.999Z</time></trkpt><trkpt lat="44.00060686752587" lon="10.7597039510303"><ele>876.0</ele><time>2026-04-04T07:54:26.999Z</time></trkpt><trkpt lat="44.00067305943046" lon="10.759616732508968"><ele>876.0</ele><time>2026-04-04T07:54:27.998Z</time></trkpt><trkpt lat="44.000730505839826" lon="10.759510562441221"><ele>876.0</ele><time>2026-04-04T07:54:28.998Z</time></trkpt><trkpt lat="44.00077101467394" lon="10.75939830992895"><ele>876.0</ele><time>2026-04-04T07:54:29.998Z</time></trkpt><trkpt lat="44.000820148644344" lon="10.759318523876114"><ele>876.0</ele><time>2026-04-04T07:54:30.998Z</time></trkpt><trkpt lat="44.000863633638424" lon="10.759251053683213"><ele>879.0</ele><time>2026-04-04T07:54:31.998Z</time></trkpt><trkpt lat="44.0009318429785" lon="10.759165998702636"><ele>881.9999999999999</ele><time>2026-04-04T07:54:33.998Z</time></trkpt><trkpt lat="44.0009759951633" lon="10.759057429058682"><ele>884.9999999999999</ele><time>2026-04-04T07:54:36.998Z</time></trkpt><trkpt lat="44.001052568771286" lon="10.75890228075796"><ele>888.0</ele><time>2026-04-04T07:54:38.998Z</time></trkpt><trkpt lat="44.00109191108918" lon="10.758796308810469"><ele>891.0</ele><time>2026-04-04T07:54:39.998Z</time></trkpt><trkpt lat="44.0011354553896" lon="10.75869425879593"><ele>891.0</ele><time>2026-04-04T07:54:40.998Z</time></trkpt><trkpt lat="44.00116227546484" lon="10.758568741211278"><ele>890.9999999999999</ele><time>2026-04-04T07:54:41.998Z</time></trkpt><trkpt lat="44.001207204630234" lon="10.758454997666576"><ele>890.9999999999999</ele><time>2026-04-04T07:54:42.998Z</time></trkpt><trkpt lat="44.00123442657566" lon="10.758322105228821"><ele>891.0</ele><time>2026-04-04T07:54:43.998Z</time></trkpt><trkpt lat="44.00125971139815" lon="10.758192086881383"><ele>891.0</ele><time>2026-04-04T07:54:44.998Z</time></trkpt><trkpt lat="44.00129291339342" lon="10.758053974072125"><ele>890.8</ele><time>2026-04-04T07:54:45.998Z</time></trkpt><trkpt lat="44.001318461174606" lon="10.757927480679614"><ele>890.5999999999999</ele><time>2026-04-04T07:54:46.998Z</time></trkpt><trkpt lat="44.00134849471783" lon="10.757788238741385"><ele>890.4</ele><time>2026-04-04T07:54:47.998Z</time></trkpt><trkpt lat="44.00139883502229" lon="10.757662795164743"><ele>890.2</ele><time>2026-04-04T07:54:48.998Z</time></trkpt><trkpt lat="44.00146318721139" lon="10.75754918804407"><ele>890.0</ele><time>2026-04-04T07:54:49.998Z</time></trkpt><trkpt lat="44.00151929420394" lon="10.757413341535981"><ele>888.2</ele><time>2026-04-04T07:54:50.998Z</time></trkpt><trkpt lat="44.00157330000097" lon="10.757280940332775"><ele>886.4</ele><time>2026-04-04T07:54:51.998Z</time></trkpt><trkpt lat="44.001642141300394" lon="10.757172321219478"><ele>884.5999999999999</ele><time>2026-04-04T07:54:52.998Z</time></trkpt><trkpt lat="44.00171937499915" lon="10.757067678373112"><ele>882.8</ele><time>2026-04-04T07:54:53.998Z</time></trkpt><trkpt lat="44.00178237830811" lon="10.75698533788193"><ele>881.0</ele><time>2026-04-04T07:54:54.998Z</time></trkpt><trkpt lat="44.00183160737057" lon="10.756915539032166"><ele>884.4</ele><time>2026-04-04T07:54:55.998Z</time></trkpt><trkpt lat="44.001880296422556" lon="10.75684358019249"><ele>887.8</ele><time>2026-04-04T07:54:56.998Z</time></trkpt><trkpt lat="44.001933772946856" lon="10.756757977858127"><ele>891.1999999999999</ele><time>2026-04-04T07:54:57.998Z</time></trkpt><trkpt lat="44.00197389388648" lon="10.75661929545928"><ele>894.5999999999999</ele><time>2026-04-04T07:54:58.998Z</time></trkpt><trkpt lat="44.002021635123" lon="10.756474557261205"><ele>898.0</ele><time>2026-04-04T07:54:59.998Z</time></trkpt><trkpt lat="44.00206295768555" lon="10.756309276921426"><ele>898.0</ele><time>2026-04-04T07:55:00.998Z</time></trkpt><trkpt lat="44.00209558811571" lon="10.756131238737911"><ele>898.0</ele><time>2026-04-04T07:55:01.998Z</time></trkpt><trkpt lat="44.002127030360775" lon="10.755950140446291"><ele>898.0</ele><time>2026-04-04T07:55:02.998Z</time></trkpt><trkpt lat="44.00215311696824" lon="10.755775517353177"><ele>898.0</ele><time>2026-04-04T07:55:03.998Z</time></trkpt><trkpt lat="44.00218379430864" lon="10.755615878743237"><ele>898.5</ele><time>2026-04-04T07:55:04.998Z</time></trkpt><trkpt lat="44.00219964116052" lon="10.755469916424223"><ele>899.0</ele><time>2026-04-04T07:55:05.998Z</time></trkpt><trkpt lat="44.00222353180456" lon="10.755323826293893"><ele>899.5</ele><time>2026-04-04T07:55:06.998Z</time></trkpt><trkpt lat="44.0022902825141" lon="10.755183753770067"><ele>900.0</ele><time>2026-04-04T07:55:07.998Z</time></trkpt><trkpt lat="44.00236633007475" lon="10.755028830286257"><ele>900.0</ele><time>2026-04-04T07:55:08.998Z</time></trkpt><trkpt lat="44.00244604659085" lon="10.754867195057455"><ele>900.0</ele><time>2026-04-04T07:55:09.998Z</time></trkpt><trkpt lat="44.00251462386827" lon="10.754701494163822"><ele>900.0</ele><time>2026-04-04T07:55:10.998Z</time></trkpt><trkpt lat="44.00259093523107" lon="10.754539402364463"><ele>900.0</ele><time>2026-04-04T07:55:11.998Z</time></trkpt><trkpt lat="44.00263790985652" lon="10.754376661794403"><ele>901.4</ele><time>2026-04-04T07:55:12.998Z</time></trkpt><trkpt lat="44.00267899362994" lon="10.754235673578004"><ele>902.8</ele><time>2026-04-04T07:55:13.998Z</time></trkpt><trkpt lat="44.00273141855672" lon="10.754101807081609"><ele>904.2</ele><time>2026-04-04T07:55:14.998Z</time></trkpt><trkpt lat="44.00277540100558" lon="10.753961154682104"><ele>905.6</ele><time>2026-04-04T07:55:15.998Z</time></trkpt><trkpt lat="44.002822290234235" lon="10.753810248328119"><ele>907.0</ele><time>2026-04-04T07:55:16.998Z</time></trkpt><trkpt lat="44.002891976992366" lon="10.75366385998741"><ele>906.0</ele><time>2026-04-04T07:55:17.998Z</time></trkpt><trkpt lat="44.002936203149446" lon="10.75349197345337"><ele>905.0</ele><time>2026-04-04T07:55:18.998Z</time></trkpt><trkpt lat="44.00298836519736" lon="10.753367257800551"><ele>904.0</ele><time>2026-04-04T07:55:19.998Z</time></trkpt><trkpt lat="44.00304264445525" lon="10.75326198462804"><ele>903.0</ele><time>2026-04-04T07:55:20.998Z</time></trkpt><trkpt lat="44.00308851170157" lon="10.753139806965814"><ele>902.0</ele><time>2026-04-04T07:55:21.998Z</time></trkpt><trkpt lat="44.00315641978167" lon="10.753027441338316"><ele>902.0</ele><time>2026-04-04T07:55:22.998Z</time></trkpt><trkpt lat="44.003232700106565" lon="10.752923238709531"><ele>902.0</ele><time>2026-04-04T07:55:23.998Z</time></trkpt><trkpt lat="44.00330994646809" lon="10.752813511474317"><ele>902.0</ele><time>2026-04-04T07:55:24.998Z</time></trkpt><trkpt lat="44.00339483938552" lon="10.752692510797866"><ele>902.0</ele><time>2026-04-04T07:55:25.998Z</time></trkpt><trkpt lat="44.003471032547594" lon="10.752562810077004"><ele>904.6</ele><time>2026-04-04T07:55:26.998Z</time></trkpt><trkpt lat="44.00353277177589" lon="10.752433299883704"><ele>907.2</ele><time>2026-04-04T07:55:27.998Z</time></trkpt><trkpt lat="44.00359975070131" lon="10.75230286166134"><ele>909.8</ele><time>2026-04-04T07:55:28.998Z</time></trkpt><trkpt lat="44.00366427719441" lon="10.752179129306423"><ele>912.4</ele><time>2026-04-04T07:55:29.998Z</time></trkpt><trkpt lat="44.00373492517427" lon="10.752075927027274"><ele>915.0</ele><time>2026-04-04T07:55:30.998Z</time></trkpt><trkpt lat="44.00380659874442" lon="10.751967849404632"><ele>915.0</ele><time>2026-04-04T07:55:31.998Z</time></trkpt><trkpt lat="44.00388092390715" lon="10.751877378683169"><ele>915.0</ele><time>2026-04-04T07:55:32.998Z</time></trkpt><trkpt lat="44.0039467590228" lon="10.751799311758576"><ele>915.0</ele><time>2026-04-04T07:55:33.998Z</time></trkpt><trkpt lat="44.004001580581175" lon="10.751731198922627"><ele>915.0</ele><time>2026-04-04T07:55:34.998Z</time></trkpt><trkpt lat="44.004054416346285" lon="10.751665516933029"><ele>915.0</ele><time>2026-04-04T07:55:35.998Z</time></trkpt><trkpt lat="44.00410267538378" lon="10.75159237173761"><ele>915.0</ele><time>2026-04-04T07:55:36.998Z</time></trkpt><trkpt lat="44.0041466876692" lon="10.751512467920156"><ele>915.0</ele><time>2026-04-04T07:55:37.998Z</time></trkpt><trkpt lat="44.00419381648391" lon="10.751437343960871"><ele>915.0</ele><time>2026-04-04T07:55:38.998Z</time></trkpt><trkpt lat="44.004230258640746" lon="10.75133786635508"><ele>915.0</ele><time>2026-04-04T07:55:39.998Z</time></trkpt><trkpt lat="44.0042882132822" lon="10.7512447414188"><ele>915.0</ele><time>2026-04-04T07:55:40.998Z</time></trkpt><trkpt lat="44.00434738261078" lon="10.751165986053838"><ele>915.0</ele><time>2026-04-04T07:55:41.998Z</time></trkpt><trkpt lat="44.004403595058946" lon="10.751092555171283"><ele>915.0</ele><time>2026-04-04T07:55:42.998Z</time></trkpt><trkpt lat="44.00445797299304" lon="10.751022359091907"><ele>917.75</ele><time>2026-04-04T07:55:43.998Z</time></trkpt><trkpt lat="44.00454825055278" lon="10.750875964125227"><ele>920.5</ele><time>2026-04-04T07:55:45.998Z</time></trkpt><trkpt lat="44.00460129323207" lon="10.75076381703571"><ele>923.25</ele><time>2026-04-04T07:55:46.998Z</time></trkpt><trkpt lat="44.00462827333798" lon="10.750601593855134"><ele>926.0</ele><time>2026-04-04T07:55:47.998Z</time></trkpt><trkpt lat="44.00464303116617" lon="10.750390037422058"><ele>926.0</ele><time>2026-04-04T07:55:48.998Z</time></trkpt><trkpt lat="44.00468851770322" lon="10.750231041735093"><ele>926.0</ele><time>2026-04-04T07:55:49.998Z</time></trkpt><trkpt lat="44.004720098816165" lon="10.750032346492578"><ele>926.0</ele><time>2026-04-04T07:55:50.998Z</time></trkpt><trkpt lat="44.00474118714383" lon="10.749823476877069"><ele>926.0</ele><time>2026-04-04T07:55:51.998Z</time></trkpt><trkpt lat="44.00476027453999" lon="10.749618399024552"><ele>928.5</ele><time>2026-04-04T07:55:52.998Z</time></trkpt><trkpt lat="44.0047713129698" lon="10.749423582166918"><ele>931.0</ele><time>2026-04-04T07:55:53.998Z</time></trkpt><trkpt lat="44.004788745499695" lon="10.74923194627917"><ele>933.5</ele><time>2026-04-04T07:55:54.998Z</time></trkpt><trkpt lat="44.00480904103918" lon="10.749058812500909"><ele>936.0</ele><time>2026-04-04T07:55:55.998Z</time></trkpt><trkpt lat="44.004827413881934" lon="10.74887449132938"><ele>938.1999999999999</ele><time>2026-04-04T07:55:56.998Z</time></trkpt><trkpt lat="44.004842062917916" lon="10.74869520226985"><ele>940.3999999999999</ele><time>2026-04-04T07:55:57.998Z</time></trkpt><trkpt lat="44.004865235536094" lon="10.748529725152409"><ele>942.6</ele><time>2026-04-04T07:55:58.998Z</time></trkpt><trkpt lat="44.00486665665421" lon="10.7483945646391"><ele>944.8</ele><time>2026-04-04T07:55:59.998Z</time></trkpt><trkpt lat="44.00488366707534" lon="10.748287864455413"><ele>947.0</ele><time>2026-04-04T07:56:00.998Z</time></trkpt><trkpt lat="44.00490654122407" lon="10.748195253669035"><ele>944.75</ele><time>2026-04-04T07:56:01.998Z</time></trkpt><trkpt lat="44.00502712072814" lon="10.74811915540986"><ele>942.5</ele><time>2026-04-04T07:56:03.998Z</time></trkpt><trkpt lat="44.00512767668921" lon="10.748129761451164"><ele>940.25</ele><time>2026-04-04T07:56:04.998Z</time></trkpt><trkpt lat="44.00523889146783" lon="10.748130935232847"><ele>938.0</ele><time>2026-04-04T07:56:05.998Z</time></trkpt><trkpt lat="44.005342518205474" lon="10.748091855353108"><ele>938.0</ele><time>2026-04-04T07:56:06.998Z</time></trkpt><trkpt lat="44.00542370652145" lon="10.748036768353899"><ele>938.0</ele><time>2026-04-04T07:56:07.998Z</time></trkpt><trkpt lat="44.005492377593846" lon="10.74794816020287"><ele>938.0</ele><time>2026-04-04T07:56:08.998Z</time></trkpt><trkpt lat="44.00555578299118" lon="10.747839475356454"><ele>938.0</ele><time>2026-04-04T07:56:09.998Z</time></trkpt><trkpt lat="44.00561687912973" lon="10.747688469105698"><ele>938.0</ele><time>2026-04-04T07:56:10.998Z</time></trkpt><trkpt lat="44.00567235075921" lon="10.74754080817649"><ele>938.5</ele><time>2026-04-04T07:56:11.998Z</time></trkpt><trkpt lat="44.00571673084489" lon="10.747391692813384"><ele>939.0</ele><time>2026-04-04T07:56:12.998Z</time></trkpt><trkpt lat="44.00574521168615" lon="10.747249557586928"><ele>939.5</ele><time>2026-04-04T07:56:13.998Z</time></trkpt><trkpt lat="44.00579512749462" lon="10.747094898128207"><ele>940.0</ele><time>2026-04-04T07:56:14.998Z</time></trkpt><trkpt lat="44.00586575483183" lon="10.74694824324626"><ele>942.4</ele><time>2026-04-04T07:56:15.998Z</time></trkpt><trkpt lat="44.00596168775534" lon="10.746825208006202"><ele>944.8</ele><time>2026-04-04T07:56:16.998Z</time></trkpt><trkpt lat="44.00603783359784" lon="10.7467101825876"><ele>947.2</ele><time>2026-04-04T07:56:17.998Z</time></trkpt><trkpt lat="44.006076984404736" lon="10.746611817519664"><ele>949.6</ele><time>2026-04-04T07:56:18.998Z</time></trkpt><trkpt lat="44.00613318283777" lon="10.746481161118776"><ele>952.0</ele><time>2026-04-04T07:56:20.998Z</time></trkpt><trkpt lat="44.00623719810775" lon="10.746417398433874"><ele>952.0</ele><time>2026-04-04T07:56:22.999Z</time></trkpt><trkpt lat="44.006358098627175" lon="10.74652763635748"><ele>952.0</ele><time>2026-04-04T07:56:24.998Z</time></trkpt><trkpt lat="44.006438555389295" lon="10.746575626376838"><ele>952.0</ele><time>2026-04-04T07:56:25.998Z</time></trkpt><trkpt lat="44.006553882554314" lon="10.746629566593548"><ele>952.0</ele><time>2026-04-04T07:56:26.999Z</time></trkpt><trkpt lat="44.0066562019273" lon="10.746670054095205"><ele>950.75</ele><time>2026-04-04T07:56:27.999Z</time></trkpt><trkpt lat="44.00678641794894" lon="10.746708922968224"><ele>949.5</ele><time>2026-04-04T07:56:28.999Z</time></trkpt><trkpt lat="44.00689036638817" lon="10.74679452846101"><ele>948.25</ele><time>2026-04-04T07:56:29.999Z</time></trkpt><trkpt lat="44.00696288244558" lon="10.746913539663304"><ele>947.0</ele><time>2026-04-04T07:56:30.999Z</time></trkpt><trkpt lat="44.00704286640298" lon="10.747045238517156"><ele>943.8</ele><time>2026-04-04T07:56:31.999Z</time></trkpt><trkpt lat="44.00712427002484" lon="10.747164889289806"><ele>940.6</ele><time>2026-04-04T07:56:32.999Z</time></trkpt><trkpt lat="44.007204666699636" lon="10.747290309272692"><ele>937.3999999999999</ele><time>2026-04-04T07:56:33.999Z</time></trkpt><trkpt lat="44.007276226261425" lon="10.747367737232672"><ele>934.1999999999999</ele><time>2026-04-04T07:56:34.999Z</time></trkpt><trkpt lat="44.00735366637611" lon="10.747434512189919"><ele>931.0</ele><time>2026-04-04T07:56:35.999Z</time></trkpt><trkpt lat="44.007440910034916" lon="10.747521141266507"><ele>932.3333333333333</ele><time>2026-04-04T07:56:36.999Z</time></trkpt><trkpt lat="44.00752649175766" lon="10.747608039370162"><ele>933.6666666666666</ele><time>2026-04-04T07:56:37.999Z</time></trkpt><trkpt lat="44.007597502317644" lon="10.747675065458393"><ele>935.0</ele><time>2026-04-04T07:56:38.999Z</time></trkpt><trkpt lat="44.00765998748548" lon="10.747746935135426"><ele>936.3333333333333</ele><time>2026-04-04T07:56:39.999Z</time></trkpt><trkpt lat="44.0077153124571" lon="10.747806450159999"><ele>937.6666666666666</ele><time>2026-04-04T07:56:40.999Z</time></trkpt><trkpt lat="44.00776646420905" lon="10.747880134855567"><ele>939.0</ele><time>2026-04-04T07:56:41.999Z</time></trkpt><trkpt lat="44.00781281868016" lon="10.747948899572945"><ele>939.0</ele><time>2026-04-04T07:56:42.999Z</time></trkpt><trkpt lat="44.007859233308366" lon="10.748021554213315"><ele>939.0</ele><time>2026-04-04T07:56:43.999Z</time></trkpt><trkpt lat="44.00790386614649" lon="10.748109516820044"><ele>939.0</ele><time>2026-04-04T07:56:44.999Z</time></trkpt><trkpt lat="44.007930357968434" lon="10.748211414394301"><ele>939.0</ele><time>2026-04-04T07:56:45.999Z</time></trkpt><trkpt lat="44.00795215149636" lon="10.748347146372891"><ele>939.0</ele><time>2026-04-04T07:56:46.999Z</time></trkpt><trkpt lat="44.00796204657353" lon="10.748460296550297"><ele>939.0</ele><time>2026-04-04T07:56:47.999Z</time></trkpt><trkpt lat="44.007973757329" lon="10.748568281415608"><ele>938.0</ele><time>2026-04-04T07:56:48.999Z</time></trkpt><trkpt lat="44.00803518414819" lon="10.748712972330932"><ele>937.0000000000001</ele><time>2026-04-04T07:56:50.999Z</time></trkpt><trkpt lat="44.00811399815101" lon="10.748839830981822"><ele>936.0000000000001</ele><time>2026-04-04T07:56:52.999Z</time></trkpt><trkpt lat="44.008176271008004" lon="10.748907836008383"><ele>935.0</ele><time>2026-04-04T07:56:53.999Z</time></trkpt><trkpt lat="44.008237982336496" lon="10.748993232932321"><ele>934.0</ele><time>2026-04-04T07:56:54.999Z</time></trkpt><trkpt lat="44.00832241057149" lon="10.749103756525672"><ele>938.6</ele><time>2026-04-04T07:56:56.999Z</time></trkpt><trkpt lat="44.00840846925277" lon="10.749166713336221"><ele>943.2</ele><time>2026-04-04T07:56:58.999Z</time></trkpt><trkpt lat="44.008506337297554" lon="10.749194035865894"><ele>947.8000000000001</ele><time>2026-04-04T07:57:00.999Z</time></trkpt><trkpt lat="44.008568716357814" lon="10.749171190727441"><ele>952.4000000000001</ele><time>2026-04-04T07:57:01.999Z</time></trkpt><trkpt lat="44.008679246316596" lon="10.749148624085567"><ele>957.0</ele><time>2026-04-04T07:57:02.999Z</time></trkpt><trkpt lat="44.00879108723804" lon="10.749118934098583"><ele>957.0</ele><time>2026-04-04T07:57:03.999Z</time></trkpt><trkpt lat="44.00888752822822" lon="10.749078005817976"><ele>957.0</ele><time>2026-04-04T07:57:04.999Z</time></trkpt><trkpt lat="44.00897928117724" lon="10.749038917394515"><ele>957.0</ele><time>2026-04-04T07:57:05.999Z</time></trkpt><trkpt lat="44.009047280901875" lon="10.74900482425074"><ele>957.0</ele><time>2026-04-04T07:57:06.999Z</time></trkpt><trkpt lat="44.0091429658369" lon="10.748950289431226"><ele>957.0</ele><time>2026-04-04T07:57:08.999Z</time></trkpt><trkpt lat="44.00921063898382" lon="10.748908531040653"><ele>957.0</ele><time>2026-04-04T07:57:09.999Z</time></trkpt><trkpt lat="44.009319223779556" lon="10.748839262212659"><ele>956.3333333333334</ele><time>2026-04-04T07:57:11.999Z</time></trkpt><trkpt lat="44.00944015362368" lon="10.748803672079104"><ele>955.6666666666667</ele><time>2026-04-04T07:57:13.999Z</time></trkpt><trkpt lat="44.00949590440056" lon="10.748762324541701"><ele>955.0</ele><time>2026-04-04T07:57:14.999Z</time></trkpt><trkpt lat="44.00956323749727" lon="10.748666344403695"><ele>954.3333333333334</ele><time>2026-04-04T07:57:16.999Z</time></trkpt><trkpt lat="44.00964982606764" lon="10.74860497579308"><ele>953.6666666666667</ele><time>2026-04-04T07:57:18.999Z</time></trkpt><trkpt lat="44.009712097938674" lon="10.748565946847698"><ele>953.0</ele><time>2026-04-04T07:57:19.999Z</time></trkpt><trkpt lat="44.009784820232035" lon="10.748536431252372"><ele>952.25</ele><time>2026-04-04T07:57:20.999Z</time></trkpt><trkpt lat="44.00986889975454" lon="10.748477522777394"><ele>951.5</ele><time>2026-04-04T07:57:21.999Z</time></trkpt><trkpt lat="44.009968354246546" lon="10.748393664379881"><ele>950.75</ele><time>2026-04-04T07:57:22.999Z</time></trkpt><trkpt lat="44.010113455240834" lon="10.748312857240675"><ele>950.0</ele><time>2026-04-04T07:57:23.999Z</time></trkpt><trkpt lat="44.01024242103572" lon="10.748248282466237"><ele>950.0</ele><time>2026-04-04T07:57:24.999Z</time></trkpt><trkpt lat="44.01037513567723" lon="10.74820934024369"><ele>950.0</ele><time>2026-04-04T07:57:25.999Z</time></trkpt><trkpt lat="44.010497657202734" lon="10.748195203506496"><ele>950.0</ele><time>2026-04-04T07:57:26.999Z</time></trkpt><trkpt lat="44.01061676152222" lon="10.748179898139911"><ele>950.0</ele><time>2026-04-04T07:57:27.999Z</time></trkpt><trkpt lat="44.01070257821264" lon="10.748154114407823"><ele>950.0000000000001</ele><time>2026-04-04T07:57:28.999Z</time></trkpt><trkpt lat="44.0107781303316" lon="10.748136308161815"><ele>950.0</ele><time>2026-04-04T07:57:29.999Z</time></trkpt><trkpt lat="44.01084310400867" lon="10.748160478000418"><ele>950.0</ele><time>2026-04-04T07:57:30.999Z</time></trkpt><trkpt lat="44.010932568455246" lon="10.74815114681986"><ele>950.0</ele><time>2026-04-04T07:57:31.999Z</time></trkpt><trkpt lat="44.01102008235681" lon="10.748138524071353"><ele>950.0000000000001</ele><time>2026-04-04T07:57:32.999Z</time></trkpt><trkpt lat="44.011120308529996" lon="10.748103693525206"><ele>950.0</ele><time>2026-04-04T07:57:33.999Z</time></trkpt><trkpt lat="44.01122746750182" lon="10.748060589901096"><ele>949.0000000000001</ele><time>2026-04-04T07:57:34.999Z</time></trkpt><trkpt lat="44.01131857505905" lon="10.748028685633628"><ele>948.0</ele><time>2026-04-04T07:57:35.999Z</time></trkpt><trkpt lat="44.01138267355027" lon="10.747989592285862"><ele>947.0</ele><time>2026-04-04T07:57:36.999Z</time></trkpt><trkpt lat="44.01145175365377" lon="10.74797358665999"><ele>946.0</ele><time>2026-04-04T07:57:37.999Z</time></trkpt><trkpt lat="44.01152955289213" lon="10.747916127749319"><ele>945.0000000000001</ele><time>2026-04-04T07:57:39.999Z</time></trkpt><trkpt lat="44.01163293074157" lon="10.747828484540355"><ele>944.0</ele><time>2026-04-04T07:57:41.999Z</time></trkpt><trkpt lat="44.01172626518317" lon="10.747741393364931"><ele>945.8000000000001</ele><time>2026-04-04T07:57:43.999Z</time></trkpt><trkpt lat="44.01182815548548" lon="10.74766423560534"><ele>947.6000000000001</ele><time>2026-04-04T07:57:45.999Z</time></trkpt><trkpt lat="44.011907930580044" lon="10.747580720222476"><ele>949.4</ele><time>2026-04-04T07:57:47.999Z</time></trkpt><trkpt lat="44.01200709420722" lon="10.747527476887347"><ele>951.2</ele><time>2026-04-04T07:57:49.999Z</time></trkpt><trkpt lat="44.01206834989819" lon="10.747489822891962"><ele>953.0</ele><time>2026-04-04T07:57:50.999Z</time></trkpt><trkpt lat="44.0121250081222" lon="10.747440109778182"><ele>953.0000000000001</ele><time>2026-04-04T07:57:51.999Z</time></trkpt><trkpt lat="44.012188431032804" lon="10.747385261208578"><ele>953.0</ele><time>2026-04-04T07:57:52.999Z</time></trkpt><trkpt lat="44.01228174176773" lon="10.747313358444282"><ele>953.0</ele><time>2026-04-04T07:57:54.999Z</time></trkpt><trkpt lat="44.012350727460365" lon="10.747241135631137"><ele>953.0</ele><time>2026-04-04T07:57:57.999Z</time></trkpt><trkpt lat="44.012428231651924" lon="10.747185299803107"><ele>953.0000000000001</ele><time>2026-04-04T07:58:00.999Z</time></trkpt><trkpt lat="44.01249526526485" lon="10.747100796862604"><ele>953.0</ele><time>2026-04-04T07:58:03.999Z</time></trkpt><trkpt lat="44.012539085248235" lon="10.74702737934752"><ele>953.0</ele><time>2026-04-04T07:58:06.999Z</time></trkpt><trkpt lat="44.012625246962784" lon="10.746900092258922"><ele>953.0</ele><time>2026-04-04T07:58:35.998Z</time></trkpt><trkpt lat="44.01256669786296" lon="10.746968457161074"><ele>953.0</ele><time>2026-04-04T07:59:07.999Z</time></trkpt><trkpt lat="44.01251707862943" lon="10.747115959847067"><ele>953.0</ele><time>2026-04-04T07:59:09.999Z</time></trkpt><trkpt lat="44.01246483699586" lon="10.747181230615213"><ele>953.0</ele><time>2026-04-04T07:59:10.999Z</time></trkpt><trkpt lat="44.012401681761936" lon="10.747237693607023"><ele>953.0000000000001</ele><time>2026-04-04T07:59:11.999Z</time></trkpt><trkpt lat="44.01233066423414" lon="10.7472888523168"><ele>953.0</ele><time>2026-04-04T07:59:12.999Z</time></trkpt><trkpt lat="44.012261911401936" lon="10.747343567918636"><ele>953.0</ele><time>2026-04-04T07:59:13.999Z</time></trkpt><trkpt lat="44.012193608744894" lon="10.747401273114571"><ele>953.0</ele><time>2026-04-04T07:59:14.999Z</time></trkpt><trkpt lat="44.01212316378462" lon="10.74747166763878"><ele>953.0000000000001</ele><time>2026-04-04T07:59:15.999Z</time></trkpt><trkpt lat="44.01204748027967" lon="10.747545932906986"><ele>953.0</ele><time>2026-04-04T07:59:16.999Z</time></trkpt><trkpt lat="44.011981688117714" lon="10.747605501996974"><ele>953.0</ele><time>2026-04-04T07:59:17.999Z</time></trkpt><trkpt lat="44.01192388732749" lon="10.747663115686997"><ele>953.0</ele><time>2026-04-04T07:59:18.999Z</time></trkpt><trkpt lat="44.01186247145272" lon="10.747726521545678"><ele>953.0</ele><time>2026-04-04T07:59:19.999Z</time></trkpt><trkpt lat="44.01179587801606" lon="10.747787083824967"><ele>953.0</ele><time>2026-04-04T07:59:20.999Z</time></trkpt><trkpt lat="44.01173514378194" lon="10.747847199610966"><ele>953.0</ele><time>2026-04-04T07:59:21.999Z</time></trkpt><trkpt lat="44.01167671761172" lon="10.747884943940859"><ele>953.0</ele><time>2026-04-04T07:59:22.999Z</time></trkpt><trkpt lat="44.01160513865188" lon="10.747941420941443"><ele>953.0</ele><time>2026-04-04T07:59:23.999Z</time></trkpt><trkpt lat="44.011519626999714" lon="10.747973579213694"><ele>951.2</ele><time>2026-04-04T07:59:24.999Z</time></trkpt><trkpt lat="44.0114397166745" lon="10.74800695079091"><ele>949.4</ele><time>2026-04-04T07:59:25.999Z</time></trkpt><trkpt lat="44.011358230973485" lon="10.748038441592698"><ele>947.6000000000001</ele><time>2026-04-04T07:59:26.999Z</time></trkpt><trkpt lat="44.01124423474414" lon="10.748067259402298"><ele>945.8000000000001</ele><time>2026-04-04T07:59:27.999Z</time></trkpt><trkpt lat="44.011131501500444" lon="10.748109856157003"><ele>944.0</ele><time>2026-04-04T07:59:28.999Z</time></trkpt><trkpt lat="44.01101154748856" lon="10.748114783851609"><ele>944.0</ele><time>2026-04-04T07:59:29.999Z</time></trkpt><trkpt lat="44.010888344842044" lon="10.748095115692474"><ele>944.0</ele><time>2026-04-04T07:59:30.999Z</time></trkpt><trkpt lat="44.01075847989153" lon="10.748095284518127"><ele>944.0</ele><time>2026-04-04T07:59:31.999Z</time></trkpt><trkpt lat="44.01064268660569" lon="10.748110874791328"><ele>944.0</ele><time>2026-04-04T07:59:32.999Z</time></trkpt><trkpt lat="44.010543244071805" lon="10.748141724460147"><ele>945.2</ele><time>2026-04-04T07:59:33.999Z</time></trkpt><trkpt lat="44.010442332428084" lon="10.748189865241383"><ele>946.4000000000001</ele><time>2026-04-04T07:59:34.999Z</time></trkpt><trkpt lat="44.01036255354158" lon="10.74822585503939"><ele>947.6</ele><time>2026-04-04T07:59:35.999Z</time></trkpt><trkpt lat="44.01027213049697" lon="10.748264308814656"><ele>948.8</ele><time>2026-04-04T07:59:36.999Z</time></trkpt><trkpt lat="44.01015837237605" lon="10.748302128271785"><ele>950.0</ele><time>2026-04-04T07:59:37.999Z</time></trkpt><trkpt lat="44.01003546534724" lon="10.74838493471469"><ele>950.75</ele><time>2026-04-04T07:59:38.999Z</time></trkpt><trkpt lat="44.00990976763766" lon="10.748466544824025"><ele>951.5</ele><time>2026-04-04T07:59:39.999Z</time></trkpt><trkpt lat="44.00979021183841" lon="10.748550591979523"><ele>952.25</ele><time>2026-04-04T07:59:40.999Z</time></trkpt><trkpt lat="44.00967264277376" lon="10.748622680884967"><ele>953.0</ele><time>2026-04-04T07:59:41.999Z</time></trkpt><trkpt lat="44.00953408236805" lon="10.74869072618509"><ele>953.0</ele><time>2026-04-04T07:59:42.999Z</time></trkpt><trkpt lat="44.00940014199806" lon="10.748762864714552"><ele>953.0</ele><time>2026-04-04T07:59:43.999Z</time></trkpt><trkpt lat="44.00929589299273" lon="10.748802863030088"><ele>953.0</ele><time>2026-04-04T07:59:44.999Z</time></trkpt><trkpt lat="44.00920944715533" lon="10.748826390111443"><ele>953.0</ele><time>2026-04-04T07:59:45.999Z</time></trkpt><trkpt lat="44.00912829039232" lon="10.748869787062217"><ele>953.0</ele><time>2026-04-04T07:59:46.999Z</time></trkpt><trkpt lat="44.0090248011904" lon="10.748903017020238"><ele>953.8</ele><time>2026-04-04T07:59:47.999Z</time></trkpt><trkpt lat="44.00891088816022" lon="10.748941768346084"><ele>954.5999999999999</ele><time>2026-04-04T07:59:48.998Z</time></trkpt><trkpt lat="44.00878829057769" lon="10.748995342269815"><ele>955.4000000000001</ele><time>2026-04-04T07:59:49.998Z</time></trkpt><trkpt lat="44.00868957293364" lon="10.749037504045537"><ele>956.2</ele><time>2026-04-04T07:59:50.998Z</time></trkpt><trkpt lat="44.00861356863366" lon="10.749065575570404"><ele>957.0</ele><time>2026-04-04T07:59:51.998Z</time></trkpt><trkpt lat="44.008540170454516" lon="10.749061328462727"><ele>957.0</ele><time>2026-04-04T07:59:52.998Z</time></trkpt><trkpt lat="44.00840339284557" lon="10.749014956040515"><ele>957.0</ele><time>2026-04-04T07:59:54.998Z</time></trkpt><trkpt lat="44.008325058000665" lon="10.748973576821507"><ele>957.0</ele><time>2026-04-04T07:59:55.998Z</time></trkpt><trkpt lat="44.008228449021914" lon="10.748891186474049"><ele>957.0</ele><time>2026-04-04T07:59:56.998Z</time></trkpt><trkpt lat="44.008128644881126" lon="10.748783918647973"><ele>953.4000000000001</ele><time>2026-04-04T07:59:57.998Z</time></trkpt><trkpt lat="44.00806209824754" lon="10.748686322858514"><ele>949.8000000000001</ele><time>2026-04-04T07:59:58.998Z</time></trkpt><trkpt lat="44.00801909292875" lon="10.74858364129846"><ele>946.2</ele><time>2026-04-04T07:59:59.998Z</time></trkpt><trkpt lat="44.00796581666806" lon="10.748488998366975"><ele>942.6</ele><time>2026-04-04T08:00:00.998Z</time></trkpt><trkpt lat="44.00791759426469" lon="10.748370063755853"><ele>939.0</ele><time>2026-04-04T08:00:01.998Z</time></trkpt><trkpt lat="44.00788977889114" lon="10.748241965290301"><ele>939.0</ele><time>2026-04-04T08:00:02.998Z</time></trkpt><trkpt lat="44.00785563598734" lon="10.748107896546042"><ele>939.0000000000001</ele><time>2026-04-04T08:00:03.998Z</time></trkpt><trkpt lat="44.00781265610368" lon="10.74799399414785"><ele>939.0000000000001</ele><time>2026-04-04T08:00:04.998Z</time></trkpt><trkpt lat="44.00774733431134" lon="10.747893662279317"><ele>939.0</ele><time>2026-04-04T08:00:05.998Z</time></trkpt><trkpt lat="44.00766123767142" lon="10.747787437683705"><ele>939.0</ele><time>2026-04-04T08:00:06.998Z</time></trkpt><trkpt lat="44.007578986383294" lon="10.74768103999979"><ele>937.0</ele><time>2026-04-04T08:00:07.998Z</time></trkpt><trkpt lat="44.007467359619085" lon="10.747579876143563"><ele>935.0</ele><time>2026-04-04T08:00:08.998Z</time></trkpt><trkpt lat="44.00736834640871" lon="10.747466805640325"><ele>933.0</ele><time>2026-04-04T08:00:09.998Z</time></trkpt><trkpt lat="44.00725386026921" lon="10.747364651578426"><ele>931.0</ele><time>2026-04-04T08:00:10.998Z</time></trkpt><trkpt lat="44.00715457460044" lon="10.747254944653129"><ele>931.0</ele><time>2026-04-04T08:00:11.998Z</time></trkpt><trkpt lat="44.007059743548076" lon="10.747163518599317"><ele>931.0</ele><time>2026-04-04T08:00:12.998Z</time></trkpt><trkpt lat="44.00698107389897" lon="10.747047139251114"><ele>931.0</ele><time>2026-04-04T08:00:13.998Z</time></trkpt><trkpt lat="44.006909216502756" lon="10.746926529686164"><ele>931.0</ele><time>2026-04-04T08:00:14.998Z</time></trkpt><trkpt lat="44.00686162880207" lon="10.746793838073131"><ele>934.1999999999999</ele><time>2026-04-04T08:00:15.998Z</time></trkpt><trkpt lat="44.00681136787092" lon="10.746697300729098"><ele>937.3999999999999</ele><time>2026-04-04T08:00:16.998Z</time></trkpt><trkpt lat="44.00674654300879" lon="10.746632156275677"><ele>940.6</ele><time>2026-04-04T08:00:17.998Z</time></trkpt><trkpt lat="44.00664968233859" lon="10.74657680810784"><ele>943.8</ele><time>2026-04-04T08:00:18.998Z</time></trkpt><trkpt lat="44.00650569215859" lon="10.746586583047156"><ele>947.0</ele><time>2026-04-04T08:00:19.998Z</time></trkpt><trkpt lat="44.00638462816513" lon="10.746570784261046"><ele>947.8333333333334</ele><time>2026-04-04T08:00:20.998Z</time></trkpt><trkpt lat="44.00629811020297" lon="10.746541102042068"><ele>948.6666666666667</ele><time>2026-04-04T08:00:21.998Z</time></trkpt><trkpt lat="44.00622795956154" lon="10.746495745006158"><ele>949.5</ele><time>2026-04-04T08:00:22.998Z</time></trkpt><trkpt lat="44.00616356254697" lon="10.74647208688256"><ele>950.3333333333333</ele><time>2026-04-04T08:00:23.998Z</time></trkpt><trkpt lat="44.006089302803005" lon="10.746519369210057"><ele>951.1666666666666</ele><time>2026-04-04T08:00:25.998Z</time></trkpt><trkpt lat="44.006029898381854" lon="10.746671111686478"><ele>952.0</ele><time>2026-04-04T08:00:27.998Z</time></trkpt><trkpt lat="44.0059915715422" lon="10.746758390232298"><ele>952.0</ele><time>2026-04-04T08:00:28.998Z</time></trkpt><trkpt lat="44.00595247079457" lon="10.746857394120303"><ele>952.0</ele><time>2026-04-04T08:00:29.998Z</time></trkpt><trkpt lat="44.00589690176693" lon="10.746938591228757"><ele>952.0</ele><time>2026-04-04T08:00:30.998Z</time></trkpt><trkpt lat="44.00583789540445" lon="10.747040643396947"><ele>952.0</ele><time>2026-04-04T08:00:31.998Z</time></trkpt><trkpt lat="44.005782522030806" lon="10.747165897685457"><ele>952.0</ele><time>2026-04-04T08:00:32.998Z</time></trkpt><trkpt lat="44.005734099719476" lon="10.747283567946662"><ele>953.1666666666666</ele><time>2026-04-04T08:00:33.998Z</time></trkpt><trkpt lat="44.00568896686591" lon="10.747399677282239"><ele>954.3333333333333</ele><time>2026-04-04T08:00:34.998Z</time></trkpt><trkpt lat="44.00566150399338" lon="10.747491146796799"><ele>955.5</ele><time>2026-04-04T08:00:35.999Z</time></trkpt><trkpt lat="44.00563948088336" lon="10.747574717004232"><ele>956.6666666666667</ele><time>2026-04-04T08:00:37.998Z</time></trkpt><trkpt lat="44.00560601043137" lon="10.747683321083372"><ele>957.8333333333334</ele><time>2026-04-04T08:00:39.999Z</time></trkpt><trkpt lat="44.005552458005006" lon="10.74783201346762"><ele>959.0</ele><time>2026-04-04T08:00:41.998Z</time></trkpt><trkpt lat="44.005513952610315" lon="10.747922711299502"><ele>955.5000000000001</ele><time>2026-04-04T08:00:42.999Z</time></trkpt><trkpt lat="44.00545972106403" lon="10.748016897913402"><ele>952.0</ele><time>2026-04-04T08:00:43.999Z</time></trkpt><trkpt lat="44.00540187191533" lon="10.748081108396558"><ele>948.5</ele><time>2026-04-04T08:00:44.998Z</time></trkpt><trkpt lat="44.005336771210835" lon="10.748127974540855"><ele>945.0</ele><time>2026-04-04T08:00:45.998Z</time></trkpt><trkpt lat="44.005266673315305" lon="10.748148950788448"><ele>941.5000000000001</ele><time>2026-04-04T08:00:46.998Z</time></trkpt><trkpt lat="44.00519513700655" lon="10.748166043505954"><ele>938.0</ele><time>2026-04-04T08:00:47.998Z</time></trkpt><trkpt lat="44.00511700235011" lon="10.748165508475203"><ele>938.0000000000001</ele><time>2026-04-04T08:00:48.998Z</time></trkpt><trkpt lat="44.00504372587519" lon="10.748156856204599"><ele>938.0</ele><time>2026-04-04T08:00:49.998Z</time></trkpt><trkpt lat="44.004953943429086" lon="10.748172073590114"><ele>938.0</ele><time>2026-04-04T08:00:51.998Z</time></trkpt><trkpt lat="44.00490616656284" lon="10.748236434032023"><ele>938.0</ele><time>2026-04-04T08:00:52.998Z</time></trkpt><trkpt lat="44.004882895789336" lon="10.748337634281494"><ele>938.0000000000001</ele><time>2026-04-04T08:00:53.998Z</time></trkpt><trkpt lat="44.004849260455096" lon="10.748490810322796"><ele>938.0</ele><time>2026-04-04T08:00:54.998Z</time></trkpt><trkpt lat="44.00484072650268" lon="10.748625613826622"><ele>940.25</ele><time>2026-04-04T08:00:55.998Z</time></trkpt><trkpt lat="44.004826604584736" lon="10.748774771367534"><ele>942.5</ele><time>2026-04-04T08:00:56.998Z</time></trkpt><trkpt lat="44.004813301881924" lon="10.748958744226202"><ele>944.75</ele><time>2026-04-04T08:00:57.998Z</time></trkpt><trkpt lat="44.00478587261981" lon="10.749142604078576"><ele>947.0</ele><time>2026-04-04T08:00:58.998Z</time></trkpt><trkpt lat="44.004747757603106" lon="10.749275734599792"><ele>944.8</ele><time>2026-04-04T08:00:59.998Z</time></trkpt><trkpt lat="44.004725632695035" lon="10.749407728369349"><ele>942.6</ele><time>2026-04-04T08:01:00.998Z</time></trkpt><trkpt lat="44.00470744883329" lon="10.749543446823058"><ele>940.3999999999999</ele><time>2026-04-04T08:01:01.998Z</time></trkpt><trkpt lat="44.00468193324839" lon="10.749673688700117"><ele>938.1999999999999</ele><time>2026-04-04T08:01:02.998Z</time></trkpt><trkpt lat="44.004664611985184" lon="10.749809287008084"><ele>936.0</ele><time>2026-04-04T08:01:03.998Z</time></trkpt><trkpt lat="44.00464322360518" lon="10.749948685663753"><ele>936.0</ele><time>2026-04-04T08:01:04.998Z</time></trkpt><trkpt lat="44.004625382305846" lon="10.750080876137119"><ele>935.9999999999999</ele><time>2026-04-04T08:01:05.998Z</time></trkpt><trkpt lat="44.004611141450766" lon="10.750231213373773"><ele>935.9999999999999</ele><time>2026-04-04T08:01:06.998Z</time></trkpt><trkpt lat="44.00458790633999" lon="10.750377638353894"><ele>936.0</ele><time>2026-04-04T08:01:07.998Z</time></trkpt><trkpt lat="44.00455701854986" lon="10.750513574281266"><ele>936.0</ele><time>2026-04-04T08:01:08.998Z</time></trkpt><trkpt lat="44.0045332027266" lon="10.750630893077654"><ele>934.3333333333334</ele><time>2026-04-04T08:01:09.998Z</time></trkpt><trkpt lat="44.00451221551955" lon="10.7507542326092"><ele>932.6666666666667</ele><time>2026-04-04T08:01:10.998Z</time></trkpt><trkpt lat="44.00447419003117" lon="10.75084543394097"><ele>931.0</ele><time>2026-04-04T08:01:11.998Z</time></trkpt><trkpt lat="44.00443497376455" lon="10.75093860595654"><ele>929.3333333333334</ele><time>2026-04-04T08:01:12.998Z</time></trkpt><trkpt lat="44.00438819407668" lon="10.751015261304275"><ele>927.6666666666667</ele><time>2026-04-04T08:01:13.998Z</time></trkpt><trkpt lat="44.0043397470827" lon="10.75108216984351"><ele>926.0</ele><time>2026-04-04T08:01:14.998Z</time></trkpt><trkpt lat="44.004258275872544" lon="10.75122391306143"><ele>924.4285714285713</ele><time>2026-04-04T08:01:16.998Z</time></trkpt><trkpt lat="44.00421072823902" lon="10.751295432780033"><ele>922.8571428571428</ele><time>2026-04-04T08:01:17.998Z</time></trkpt><trkpt lat="44.004159670199826" lon="10.751358077992078"><ele>921.2857142857142</ele><time>2026-04-04T08:01:18.998Z</time></trkpt><trkpt lat="44.00411685761477" lon="10.7514407653531"><ele>919.7142857142858</ele><time>2026-04-04T08:01:19.998Z</time></trkpt><trkpt lat="44.004083894557006" lon="10.751517556586416"><ele>918.1428571428572</ele><time>2026-04-04T08:01:20.998Z</time></trkpt><trkpt lat="44.00404829387827" lon="10.751594753477663"><ele>916.5714285714287</ele><time>2026-04-04T08:01:21.998Z</time></trkpt><trkpt lat="44.003992695776255" lon="10.751676074576642"><ele>915.0</ele><time>2026-04-04T08:01:23.998Z</time></trkpt><trkpt lat="44.00393701835737" lon="10.751743017210336"><ele>915.0</ele><time>2026-04-04T08:01:25.998Z</time></trkpt><trkpt lat="44.00385712348157" lon="10.751850032864226"><ele>915.0</ele><time>2026-04-04T08:01:27.998Z</time></trkpt><trkpt lat="44.0038085437599" lon="10.7519179043984"><ele>915.0</ele><time>2026-04-04T08:01:28.998Z</time></trkpt><trkpt lat="44.00374149904916" lon="10.751985277482781"><ele>915.0</ele><time>2026-04-04T08:01:29.998Z</time></trkpt><trkpt lat="44.00370267571833" lon="10.752080588010083"><ele>915.0</ele><time>2026-04-04T08:01:30.998Z</time></trkpt><trkpt lat="44.00364282573386" lon="10.752141716179553"><ele>915.0</ele><time>2026-04-04T08:01:31.998Z</time></trkpt><trkpt lat="44.00359661723085" lon="10.75222575552128"><ele>915.0</ele><time>2026-04-04T08:01:32.998Z</time></trkpt><trkpt lat="44.00355077163677" lon="10.75231223227134"><ele>915.0</ele><time>2026-04-04T08:01:33.998Z</time></trkpt><trkpt lat="44.0035017222972" lon="10.752401302670856"><ele>915.0</ele><time>2026-04-04T08:01:34.998Z</time></trkpt><trkpt lat="44.003459979346594" lon="10.752486006371774"><ele>915.0</ele><time>2026-04-04T08:01:35.998Z</time></trkpt><trkpt lat="44.00341351279609" lon="10.752569172154613"><ele>915.0</ele><time>2026-04-04T08:01:36.998Z</time></trkpt><trkpt lat="44.00337791515334" lon="10.752652776257854"><ele>915.0</ele><time>2026-04-04T08:01:37.998Z</time></trkpt><trkpt lat="44.003298779833905" lon="10.752759070187874"><ele>912.4</ele><time>2026-04-04T08:01:39.998Z</time></trkpt><trkpt lat="44.00322168945519" lon="10.752865130387482"><ele>909.8</ele><time>2026-04-04T08:01:41.998Z</time></trkpt><trkpt lat="44.00314139497275" lon="10.75297757131182"><ele>907.2</ele><time>2026-04-04T08:01:43.998Z</time></trkpt><trkpt lat="44.00306587924262" lon="10.753122063536997"><ele>904.6</ele><time>2026-04-04T08:01:45.998Z</time></trkpt><trkpt lat="44.00302551522419" lon="10.753204079351548"><ele>902.0</ele><time>2026-04-04T08:01:46.998Z</time></trkpt><trkpt lat="44.00299566832424" lon="10.75332039032846"><ele>902.0</ele><time>2026-04-04T08:01:47.998Z</time></trkpt><trkpt lat="44.0029405444146" lon="10.753421624814122"><ele>902.0</ele><time>2026-04-04T08:01:48.998Z</time></trkpt><trkpt lat="44.00288449498087" lon="10.753559819352692"><ele>902.0</ele><time>2026-04-04T08:01:49.998Z</time></trkpt><trkpt lat="44.002817277139286" lon="10.753709484879561"><ele>902.0</ele><time>2026-04-04T08:01:50.998Z</time></trkpt><trkpt lat="44.002755109837146" lon="10.753874087831884"><ele>902.25</ele><time>2026-04-04T08:01:51.998Z</time></trkpt><trkpt lat="44.00270784999684" lon="10.754046305051075"><ele>902.5</ele><time>2026-04-04T08:01:52.998Z</time></trkpt><trkpt lat="44.00267148380215" lon="10.754202195333937"><ele>902.75</ele><time>2026-04-04T08:01:53.998Z</time></trkpt><trkpt lat="44.002624186040755" lon="10.754341869691473"><ele>903.0</ele><time>2026-04-04T08:01:54.998Z</time></trkpt><trkpt lat="44.00257940321043" lon="10.754504664648353"><ele>903.0</ele><time>2026-04-04T08:01:55.998Z</time></trkpt><trkpt lat="44.00251679282584" lon="10.75462816018845"><ele>903.0</ele><time>2026-04-04T08:01:56.998Z</time></trkpt><trkpt lat="44.00246921120427" lon="10.75475825466929"><ele>903.0</ele><time>2026-04-04T08:01:57.998Z</time></trkpt><trkpt lat="44.00241516285599" lon="10.754885077545945"><ele>903.0</ele><time>2026-04-04T08:01:58.998Z</time></trkpt><trkpt lat="44.00235572468864" lon="10.755012784429239"><ele>903.0</ele><time>2026-04-04T08:01:59.998Z</time></trkpt><trkpt lat="44.00228687134753" lon="10.755156586811687"><ele>902.4</ele><time>2026-04-04T08:02:00.998Z</time></trkpt><trkpt lat="44.00223621212024" lon="10.755289131410782"><ele>901.8</ele><time>2026-04-04T08:02:01.998Z</time></trkpt><trkpt lat="44.00219351639735" lon="10.755422471741486"><ele>901.2</ele><time>2026-04-04T08:02:02.998Z</time></trkpt><trkpt lat="44.00216400328405" lon="10.75556106050756"><ele>900.6</ele><time>2026-04-04T08:02:03.998Z</time></trkpt><trkpt lat="44.00213619772746" lon="10.755702600204366"><ele>900.0</ele><time>2026-04-04T08:02:04.998Z</time></trkpt><trkpt lat="44.00210819212665" lon="10.755845402183786"><ele>900.0</ele><time>2026-04-04T08:02:05.998Z</time></trkpt><trkpt lat="44.00207997377816" lon="10.756005240444237"><ele>900.0</ele><time>2026-04-04T08:02:06.998Z</time></trkpt><trkpt lat="44.00204498607995" lon="10.756152509814568"><ele>900.0</ele><time>2026-04-04T08:02:07.998Z</time></trkpt><trkpt lat="44.0020060000379" lon="10.75629607980043"><ele>900.0</ele><time>2026-04-04T08:02:08.998Z</time></trkpt><trkpt lat="44.00196430555408" lon="10.756428528831659"><ele>900.0</ele><time>2026-04-04T08:02:09.998Z</time></trkpt><trkpt lat="44.0019350956598" lon="10.756542986985052"><ele>899.6666666666666</ele><time>2026-04-04T08:02:10.998Z</time></trkpt><trkpt lat="44.00189399022408" lon="10.756658508512224"><ele>899.3333333333333</ele><time>2026-04-04T08:02:11.998Z</time></trkpt><trkpt lat="44.00184999579329" lon="10.756756858154407"><ele>899.0</ele><time>2026-04-04T08:02:12.998Z</time></trkpt><trkpt lat="44.001798236346744" lon="10.756845842113108"><ele>898.6666666666666</ele><time>2026-04-04T08:02:13.998Z</time></trkpt><trkpt lat="44.001731013332005" lon="10.756924085234791"><ele>898.3333333333333</ele><time>2026-04-04T08:02:14.998Z</time></trkpt><trkpt lat="44.00167672902576" lon="10.756997510017438"><ele>898.0</ele><time>2026-04-04T08:02:15.998Z</time></trkpt><trkpt lat="44.00162707419741" lon="10.757077419324684"><ele>894.5999999999999</ele><time>2026-04-04T08:02:16.998Z</time></trkpt><trkpt lat="44.00156734855558" lon="10.75714873249739"><ele>891.1999999999999</ele><time>2026-04-04T08:02:17.998Z</time></trkpt><trkpt lat="44.001520025433116" lon="10.757250953437588"><ele>887.8</ele><time>2026-04-04T08:02:18.998Z</time></trkpt><trkpt lat="44.00146450092191" lon="10.757379369217402"><ele>884.4</ele><time>2026-04-04T08:02:19.998Z</time></trkpt><trkpt lat="44.00142837671429" lon="10.757505993550923"><ele>881.0</ele><time>2026-04-04T08:02:20.998Z</time></trkpt><trkpt lat="44.00137122418647" lon="10.757599818066659"><ele>882.5000000000001</ele><time>2026-04-04T08:02:21.998Z</time></trkpt><trkpt lat="44.001346001308725" lon="10.757715848345855"><ele>884.0</ele><time>2026-04-04T08:02:22.998Z</time></trkpt><trkpt lat="44.001303022708406" lon="10.75781287837445"><ele>885.5</ele><time>2026-04-04T08:02:23.998Z</time></trkpt><trkpt lat="44.001278125051414" lon="10.757902930057298"><ele>887.0</ele><time>2026-04-04T08:02:24.998Z</time></trkpt><trkpt lat="44.00125484079525" lon="10.757988621377779"><ele>888.5000000000001</ele><time>2026-04-04T08:02:25.998Z</time></trkpt><trkpt lat="44.00120799114663" lon="10.758134186857276"><ele>890.0</ele><time>2026-04-04T08:02:27.998Z</time></trkpt><trkpt lat="44.001178573078036" lon="10.758268607280698"><ele>890.0</ele><time>2026-04-04T08:02:29.998Z</time></trkpt><trkpt lat="44.0011247679466" lon="10.758384343299555"><ele>890.0</ele><time>2026-04-04T08:02:31.998Z</time></trkpt><trkpt lat="44.0010835074369" lon="10.758508380160078"><ele>890.0</ele><time>2026-04-04T08:02:33.998Z</time></trkpt><trkpt lat="44.00103790112493" lon="10.758655279877617"><ele>890.0</ele><time>2026-04-04T08:02:35.998Z</time></trkpt><trkpt lat="44.001012201561146" lon="10.758761975074469"><ele>890.0</ele><time>2026-04-04T08:02:37.998Z</time></trkpt><trkpt lat="44.00100233044422" lon="10.75885422608733"><ele>890.0000000000001</ele><time>2026-04-04T08:02:39.998Z</time></trkpt><trkpt lat="44.00096975881549" lon="10.758935858833002"><ele>890.0</ele><time>2026-04-04T08:02:41.999Z</time></trkpt><trkpt lat="44.00099060131131" lon="10.75880261928352"><ele>890.0</ele><time>2026-04-04T08:02:56.998Z</time></trkpt><trkpt lat="44.00101670090475" lon="10.75870872226548"><ele>890.0</ele><time>2026-04-04T08:02:58.998Z</time></trkpt><trkpt lat="44.00104433811072" lon="10.758615574292437"><ele>890.0000000000001</ele><time>2026-04-04T08:03:01.998Z</time></trkpt><trkpt lat="44.00107152029709" lon="10.758524231782914"><ele>890.0</ele><time>2026-04-04T08:03:05.998Z</time></trkpt><trkpt lat="44.001098129437864" lon="10.758434815308537"><ele>890.0</ele><time>2026-04-04T08:03:10.998Z</time></trkpt><trkpt lat="44.000973988341045" lon="10.758305928468015"><ele>890.0</ele><time>2026-04-04T08:03:20.998Z</time></trkpt><trkpt lat="44.00091079038863" lon="10.75828292873052"><ele>890.0</ele><time>2026-04-04T08:03:27.998Z</time></trkpt><trkpt lat="44.00090711837531" lon="10.758382574632732"><ele>890.0</ele><time>2026-04-04T08:03:30.998Z</time></trkpt><trkpt lat="44.00089988590985" lon="10.758526760438995"><ele>890.0</ele><time>2026-04-04T08:03:32.998Z</time></trkpt><trkpt lat="44.00088947998622" lon="10.758623570947671"><ele>890.1666666666667</ele><time>2026-04-04T08:03:33.998Z</time></trkpt><trkpt lat="44.000890246300415" lon="10.758714135925542"><ele>890.3333333333334</ele><time>2026-04-04T08:03:34.998Z</time></trkpt><trkpt lat="44.00087719926349" lon="10.758818392099746"><ele>890.5</ele><time>2026-04-04T08:03:35.998Z</time></trkpt><trkpt lat="44.000877215169965" lon="10.758911116952723"><ele>890.6666666666667</ele><time>2026-04-04T08:03:36.998Z</time></trkpt><trkpt lat="44.00086893122383" lon="10.759021943153112"><ele>890.8333333333334</ele><time>2026-04-04T08:03:38.998Z</time></trkpt><trkpt lat="44.00085883504163" lon="10.75913416208532"><ele>891.0</ele><time>2026-04-04T08:03:41.998Z</time></trkpt><trkpt lat="44.00082514820327" lon="10.759252290382662"><ele>888.8571428571429</ele><time>2026-04-04T08:03:43.998Z</time></trkpt><trkpt lat="44.00077517015741" lon="10.759313876972955"><ele>886.7142857142858</ele><time>2026-04-04T08:03:45.998Z</time></trkpt><trkpt lat="44.000708593210675" lon="10.759337056978566"><ele>884.5714285714287</ele><time>2026-04-04T08:03:57.998Z</time></trkpt><trkpt lat="44.000690884965586" lon="10.75942842304439"><ele>882.4285714285714</ele><time>2026-04-04T08:04:11.998Z</time></trkpt><trkpt lat="44.000693212501446" lon="10.759339181559465"><ele>880.2857142857142</ele><time>2026-04-04T08:04:49.998Z</time></trkpt><trkpt lat="44.00063926964155" lon="10.75929125414077"><ele>878.1428571428572</ele><time>2026-04-04T08:04:54.998Z</time></trkpt><trkpt lat="44.0005725040067" lon="10.759265610286546"><ele>876.0</ele><time>2026-04-04T08:05:02.998Z</time></trkpt><trkpt lat="44.000584791493765" lon="10.759173414982275"><ele>874.6666666666666</ele><time>2026-04-04T08:05:11.998Z</time></trkpt><trkpt lat="44.00060872335748" lon="10.75908222352417"><ele>873.3333333333333</ele><time>2026-04-04T08:06:35.998Z</time></trkpt><trkpt lat="44.000715548501766" lon="10.759103411934717"><ele>872.0</ele><time>2026-04-04T08:06:48.998Z</time></trkpt><trkpt lat="44.00080934287586" lon="10.759064346281598"><ele>870.6666666666666</ele><time>2026-04-04T08:07:24.998Z</time></trkpt><trkpt lat="44.00077258967452" lon="10.758992129655647"><ele>869.3333333333333</ele><time>2026-04-04T08:08:42.998Z</time></trkpt><trkpt lat="44.000825067833816" lon="10.759047184429667"><ele>868.0</ele><time>2026-04-04T08:09:37.998Z</time></trkpt><trkpt lat="44.00076108126009" lon="10.759044511769284"><ele>868.0</ele><time>2026-04-04T08:10:05.998Z</time></trkpt><trkpt lat="44.00082348990941" lon="10.759059261919743"><ele>868.0</ele><time>2026-04-04T08:12:57.998Z</time></trkpt><trkpt lat="44.00076127882224" lon="10.75907715290007"><ele>868.0</ele><time>2026-04-04T08:13:07.998Z</time></trkpt><trkpt lat="44.000701691247954" lon="10.759106869221844"><ele>868.0</ele><time>2026-04-04T08:13:26.998Z</time></trkpt><trkpt lat="44.00065118664743" lon="10.759179096330373"><ele>868.0</ele><time>2026-04-04T08:13:33.998Z</time></trkpt><trkpt lat="44.000641096332394" lon="10.759268628890279"><ele>868.0</ele><time>2026-04-04T08:13:40.998Z</time></trkpt><trkpt lat="44.00069212835539" lon="10.75932100616305"><ele>868.0</ele><time>2026-04-04T08:13:53.998Z</time></trkpt><trkpt lat="44.00066583324955" lon="10.759414753684885"><ele>869.3333333333333</ele><time>2026-04-04T08:14:22.998Z</time></trkpt><trkpt lat="44.000728739180424" lon="10.759404452312042"><ele>870.6666666666666</ele><time>2026-04-04T08:15:12.998Z</time></trkpt><trkpt lat="44.00075982004476" lon="10.759485535682614"><ele>872.0</ele><time>2026-04-04T08:15:47.997Z</time></trkpt><trkpt lat="44.000714562400205" lon="10.759554358547264"><ele>873.3333333333333</ele><time>2026-04-04T08:15:48.997Z</time></trkpt><trkpt lat="44.000658089372095" lon="10.759667954509458"><ele>874.6666666666666</ele><time>2026-04-04T08:15:49.997Z</time></trkpt><trkpt lat="44.00058321880181" lon="10.759797143017034"><ele>876.0</ele><time>2026-04-04T08:15:50.997Z</time></trkpt><trkpt lat="44.00048298312715" lon="10.759953391722938"><ele>876.0</ele><time>2026-04-04T08:15:51.997Z</time></trkpt><trkpt lat="44.00041285542989" lon="10.760030235538483"><ele>876.0</ele><time>2026-04-04T08:15:52.997Z</time></trkpt><trkpt lat="44.00033590088714" lon="10.760113556170593"><ele>876.0</ele><time>2026-04-04T08:15:53.997Z</time></trkpt><trkpt lat="44.00027327597772" lon="10.760196601409213"><ele>876.0</ele><time>2026-04-04T08:15:54.997Z</time></trkpt><trkpt lat="44.00022118336548" lon="10.760263330393697"><ele>876.0</ele><time>2026-04-04T08:15:55.997Z</time></trkpt><trkpt lat="44.000179698786255" lon="10.760345493898145"><ele>876.0</ele><time>2026-04-04T08:15:56.997Z</time></trkpt><trkpt lat="44.00014392960575" lon="10.760442387519603"><ele>876.2857142857143</ele><time>2026-04-04T08:15:57.997Z</time></trkpt><trkpt lat="44.00009910930672" lon="10.760521840553507"><ele>876.5714285714286</ele><time>2026-04-04T08:15:58.997Z</time></trkpt><trkpt lat="44.000066437613675" lon="10.760609656313237"><ele>876.8571428571429</ele><time>2026-04-04T08:15:59.997Z</time></trkpt><trkpt lat="44.00001742442603" lon="10.760680834773833"><ele>877.1428571428571</ele><time>2026-04-04T08:16:00.997Z</time></trkpt><trkpt lat="43.999959397241994" lon="10.760750318866219"><ele>877.4285714285713</ele><time>2026-04-04T08:16:01.997Z</time></trkpt><trkpt lat="43.999900910863936" lon="10.760809266366564"><ele>877.7142857142857</ele><time>2026-04-04T08:16:02.997Z</time></trkpt><trkpt lat="43.99982889393116" lon="10.760844019779768"><ele>878.0</ele><time>2026-04-04T08:16:03.997Z</time></trkpt><trkpt lat="43.99974784830919" lon="10.760833790844536"><ele>878.0000000000001</ele><time>2026-04-04T08:16:04.997Z</time></trkpt><trkpt lat="43.999660413215466" lon="10.760814793719327"><ele>878.0</ele><time>2026-04-04T08:16:05.997Z</time></trkpt><trkpt lat="43.99957580838316" lon="10.760810268758368"><ele>878.0</ele><time>2026-04-04T08:16:06.997Z</time></trkpt><trkpt lat="43.9994847649414" lon="10.760800621127286"><ele>878.0</ele><time>2026-04-04T08:16:07.997Z</time></trkpt><trkpt lat="43.999388327487935" lon="10.760785992785408"><ele>878.0000000000001</ele><time>2026-04-04T08:16:08.997Z</time></trkpt><trkpt lat="43.99930306565554" lon="10.760779991473727"><ele>878.0</ele><time>2026-04-04T08:16:09.997Z</time></trkpt><trkpt lat="43.999231534799485" lon="10.760755165953219"><ele>875.0000000000001</ele><time>2026-04-04T08:16:10.997Z</time></trkpt><trkpt lat="43.99915310572792" lon="10.760751564407427"><ele>872.0</ele><time>2026-04-04T08:16:11.997Z</time></trkpt><trkpt lat="43.999077826673094" lon="10.760765311795044"><ele>869.0</ele><time>2026-04-04T08:16:12.997Z</time></trkpt><trkpt lat="43.99899339369087" lon="10.760756447022201"><ele>866.0</ele><time>2026-04-04T08:16:14.997Z</time></trkpt><trkpt lat="43.9989477731035" lon="10.76081713216164"><ele>863.0000000000001</ele><time>2026-04-04T08:16:16.997Z</time></trkpt><trkpt lat="43.99897703328011" lon="10.76094756832102"><ele>860.0</ele><time>2026-04-04T08:16:18.997Z</time></trkpt><trkpt lat="43.99900820252512" lon="10.761065349105728"><ele>859.0</ele><time>2026-04-04T08:16:19.997Z</time></trkpt><trkpt lat="43.99904798619091" lon="10.761202915941976"><ele>858.0</ele><time>2026-04-04T08:16:20.997Z</time></trkpt><trkpt lat="43.99909001260063" lon="10.76137189694066"><ele>857.0</ele><time>2026-04-04T08:16:21.997Z</time></trkpt><trkpt lat="43.999132428431146" lon="10.761546726277789"><ele>856.0</ele><time>2026-04-04T08:16:22.997Z</time></trkpt><trkpt lat="43.99919076974947" lon="10.761737355621007"><ele>857.75</ele><time>2026-04-04T08:16:23.997Z</time></trkpt><trkpt lat="43.99924457964986" lon="10.761918539504816"><ele>859.5</ele><time>2026-04-04T08:16:24.997Z</time></trkpt><trkpt lat="43.99929662454321" lon="10.762094081863426"><ele>861.25</ele><time>2026-04-04T08:16:25.997Z</time></trkpt><trkpt lat="43.99936529756309" lon="10.762260751663872"><ele>863.0</ele><time>2026-04-04T08:16:26.997Z</time></trkpt><trkpt lat="43.99944910227781" lon="10.76243675883242"><ele>863.0</ele><time>2026-04-04T08:16:27.997Z</time></trkpt><trkpt lat="43.99954851674929" lon="10.762614654381586"><ele>863.0</ele><time>2026-04-04T08:16:28.997Z</time></trkpt><trkpt lat="43.99964951128053" lon="10.762787573632773"><ele>863.0</ele><time>2026-04-04T08:16:29.997Z</time></trkpt><trkpt lat="43.999755521568545" lon="10.762949439153878"><ele>858.75</ele><time>2026-04-04T08:16:30.997Z</time></trkpt><trkpt lat="43.99985199831276" lon="10.763091458197406"><ele>854.5</ele><time>2026-04-04T08:16:31.997Z</time></trkpt><trkpt lat="43.999953989988555" lon="10.763231674992706"><ele>850.25</ele><time>2026-04-04T08:16:32.997Z</time></trkpt><trkpt lat="44.00005063888788" lon="10.763384832209168"><ele>846.0</ele><time>2026-04-04T08:16:33.997Z</time></trkpt><trkpt lat="44.00013657180968" lon="10.763529869905806"><ele>843.75</ele><time>2026-04-04T08:16:34.997Z</time></trkpt><trkpt lat="44.00021795759564" lon="10.763645661274875"><ele>841.5</ele><time>2026-04-04T08:16:35.997Z</time></trkpt><trkpt lat="44.0003134105309" lon="10.763762905558167"><ele>839.25</ele><time>2026-04-04T08:16:36.997Z</time></trkpt><trkpt lat="44.00041947106539" lon="10.763844283477567"><ele>837.0</ele><time>2026-04-04T08:16:37.997Z</time></trkpt><trkpt lat="44.00053257130402" lon="10.76392066176479"><ele>837.0</ele><time>2026-04-04T08:16:38.997Z</time></trkpt><trkpt lat="44.000645439554056" lon="10.763990554931134"><ele>837.0</ele><time>2026-04-04T08:16:39.997Z</time></trkpt><trkpt lat="44.00073771190223" lon="10.764062737406073"><ele>837.0</ele><time>2026-04-04T08:16:40.997Z</time></trkpt><trkpt lat="44.00082773103352" lon="10.764156677822305"><ele>837.0</ele><time>2026-04-04T08:16:41.997Z</time></trkpt><trkpt lat="44.00090180751345" lon="10.764295575814344"><ele>834.2</ele><time>2026-04-04T08:16:42.997Z</time></trkpt><trkpt lat="44.00096497387119" lon="10.764447340961754"><ele>831.4000000000001</ele><time>2026-04-04T08:16:43.997Z</time></trkpt><trkpt lat="44.00101205695142" lon="10.76458414636127"><ele>828.5999999999999</ele><time>2026-04-04T08:16:44.997Z</time></trkpt><trkpt lat="44.00106655844135" lon="10.764705146170106"><ele>825.8</ele><time>2026-04-04T08:16:45.997Z</time></trkpt><trkpt lat="44.00112218239381" lon="10.764780685466095"><ele>823.0</ele><time>2026-04-04T08:16:46.997Z</time></trkpt><trkpt lat="44.00120076643776" lon="10.764830581423718"><ele>823.0</ele><time>2026-04-04T08:16:47.997Z</time></trkpt><trkpt lat="44.00130006238756" lon="10.764858024665996"><ele>823.0</ele><time>2026-04-04T08:16:48.997Z</time></trkpt><trkpt lat="44.00138650504547" lon="10.764829946858566"><ele>823.0</ele><time>2026-04-04T08:16:49.997Z</time></trkpt><trkpt lat="44.00148304092074" lon="10.764787123136148"><ele>823.0</ele><time>2026-04-04T08:16:50.997Z</time></trkpt><trkpt lat="44.001584066930654" lon="10.764746193632584"><ele>823.0</ele><time>2026-04-04T08:16:51.997Z</time></trkpt><trkpt lat="44.00168442189703" lon="10.764685764684392"><ele>821.8</ele><time>2026-04-04T08:16:52.997Z</time></trkpt><trkpt lat="44.00176526432598" lon="10.76461179456518"><ele>820.5999999999999</ele><time>2026-04-04T08:16:53.997Z</time></trkpt><trkpt lat="44.00185636541086" lon="10.76455704212793"><ele>819.4000000000001</ele><time>2026-04-04T08:16:54.997Z</time></trkpt><trkpt lat="44.00193738832359" lon="10.764534794638191"><ele>818.2</ele><time>2026-04-04T08:16:55.997Z</time></trkpt><trkpt lat="44.00206944090234" lon="10.76460534031461"><ele>817.0</ele><time>2026-04-04T08:16:57.997Z</time></trkpt><trkpt lat="44.00214255345648" lon="10.764695576159259"><ele>817.0</ele><time>2026-04-04T08:16:58.997Z</time></trkpt><trkpt lat="44.00219986458395" lon="10.764802090962897"><ele>817.0</ele><time>2026-04-04T08:16:59.997Z</time></trkpt><trkpt lat="44.002276081131896" lon="10.76494465139278"><ele>817.0</ele><time>2026-04-04T08:17:00.997Z</time></trkpt><trkpt lat="44.002332005117" lon="10.765088153430167"><ele>817.0</ele><time>2026-04-04T08:17:01.997Z</time></trkpt><trkpt lat="44.00236858378163" lon="10.765259034125284"><ele>812.6666666666666</ele><time>2026-04-04T08:17:02.997Z</time></trkpt><trkpt lat="44.002411373462344" lon="10.765467999565177"><ele>808.3333333333333</ele><time>2026-04-04T08:17:03.997Z</time></trkpt><trkpt lat="44.002437420426794" lon="10.765676538315686"><ele>804.0</ele><time>2026-04-04T08:17:04.997Z</time></trkpt><trkpt lat="44.0024624117229" lon="10.765881641324263"><ele>802.2</ele><time>2026-04-04T08:17:05.997Z</time></trkpt><trkpt lat="44.00249754439461" lon="10.766067064699326"><ele>800.4000000000001</ele><time>2026-04-04T08:17:06.997Z</time></trkpt><trkpt lat="44.0025166126469" lon="10.766235610286104"><ele>798.6</ele><time>2026-04-04T08:17:07.997Z</time></trkpt><trkpt lat="44.00253512953353" lon="10.766345771599017"><ele>796.8</ele><time>2026-04-04T08:17:08.997Z</time></trkpt><trkpt lat="44.002576003806205" lon="10.766442312213117"><ele>795.0</ele><time>2026-04-04T08:17:09.997Z</time></trkpt><trkpt lat="44.00262244463198" lon="10.766545203512427"><ele>794.4</ele><time>2026-04-04T08:17:10.997Z</time></trkpt><trkpt lat="44.002706440058915" lon="10.766621930610594"><ele>793.8</ele><time>2026-04-04T08:17:11.997Z</time></trkpt><trkpt lat="44.00278286984545" lon="10.766665941264169"><ele>793.2</ele><time>2026-04-04T08:17:12.997Z</time></trkpt><trkpt lat="44.00286040952706" lon="10.76669757968676"><ele>792.6</ele><time>2026-04-04T08:17:13.997Z</time></trkpt><trkpt lat="44.00296723445851" lon="10.76668088098997"><ele>792.0</ele><time>2026-04-04T08:17:14.997Z</time></trkpt><trkpt lat="44.00308298145761" lon="10.766656016999853"><ele>792.0</ele><time>2026-04-04T08:17:15.997Z</time></trkpt><trkpt lat="44.00319053510739" lon="10.766605944704658"><ele>792.0</ele><time>2026-04-04T08:17:16.997Z</time></trkpt><trkpt lat="44.0033059821243" lon="10.766501765467373"><ele>792.0</ele><time>2026-04-04T08:17:17.997Z</time></trkpt><trkpt lat="44.00340971396886" lon="10.766412110273365"><ele>792.0</ele><time>2026-04-04T08:17:18.997Z</time></trkpt><trkpt lat="44.003524366431286" lon="10.766336456949833"><ele>791.8</ele><time>2026-04-04T08:17:19.997Z</time></trkpt><trkpt lat="44.003601718247374" lon="10.766254542046596"><ele>791.6</ele><time>2026-04-04T08:17:20.997Z</time></trkpt><trkpt lat="44.003680707462195" lon="10.766163598763484"><ele>791.4</ele><time>2026-04-04T08:17:21.997Z</time></trkpt><trkpt lat="44.003737784702736" lon="10.766035204715248"><ele>791.1999999999999</ele><time>2026-04-04T08:17:22.997Z</time></trkpt><trkpt lat="44.00378184984625" lon="10.765876197547534"><ele>791.0</ele><time>2026-04-04T08:17:23.998Z</time></trkpt><trkpt lat="44.00380437852838" lon="10.765671199577763"><ele>796.0</ele><time>2026-04-04T08:17:24.997Z</time></trkpt><trkpt lat="44.00383290358983" lon="10.765457304080998"><ele>801.0</ele><time>2026-04-04T08:17:25.997Z</time></trkpt><trkpt lat="44.00386071545077" lon="10.765287015185168"><ele>806.0</ele><time>2026-04-04T08:17:26.997Z</time></trkpt><trkpt lat="44.00388521028681" lon="10.765148106938591"><ele>811.0</ele><time>2026-04-04T08:17:27.997Z</time></trkpt><trkpt lat="44.00392194154414" lon="10.765053640362574"><ele>813.4</ele><time>2026-04-04T08:17:28.997Z</time></trkpt><trkpt lat="44.00399254282458" lon="10.764938878485827"><ele>815.8</ele><time>2026-04-04T08:17:29.997Z</time></trkpt><trkpt lat="44.00408564790694" lon="10.764847749485607"><ele>818.1999999999999</ele><time>2026-04-04T08:17:30.997Z</time></trkpt><trkpt lat="44.00419131525365" lon="10.76478072037084"><ele>820.5999999999999</ele><time>2026-04-04T08:17:31.997Z</time></trkpt><trkpt lat="44.00428684821382" lon="10.764715337591975"><ele>823.0</ele><time>2026-04-04T08:17:32.997Z</time></trkpt><trkpt lat="44.004366880601616" lon="10.764628327731094"><ele>816.25</ele><time>2026-04-04T08:17:33.997Z</time></trkpt><trkpt lat="44.00442534002397" lon="10.764539164763256"><ele>809.5</ele><time>2026-04-04T08:17:34.997Z</time></trkpt><trkpt lat="44.00445736824293" lon="10.764409995880973"><ele>802.75</ele><time>2026-04-04T08:17:35.997Z</time></trkpt><trkpt lat="44.00447039733756" lon="10.764232491693782"><ele>796.0</ele><time>2026-04-04T08:17:36.997Z</time></trkpt><trkpt lat="44.00448129765247" lon="10.764028038182264"><ele>796.0</ele><time>2026-04-04T08:17:37.997Z</time></trkpt><trkpt lat="44.004466153818846" lon="10.763820204522661"><ele>796.0</ele><time>2026-04-04T08:17:38.997Z</time></trkpt><trkpt lat="44.00443215910955" lon="10.763627997467607"><ele>796.0</ele><time>2026-04-04T08:17:39.997Z</time></trkpt><trkpt lat="44.004372458856935" lon="10.763439939619346"><ele>796.0</ele><time>2026-04-04T08:17:40.997Z</time></trkpt><trkpt lat="44.004308648411644" lon="10.763252726763243"><ele>795.25</ele><time>2026-04-04T08:17:41.997Z</time></trkpt><trkpt lat="44.00425228428211" lon="10.763064201033258"><ele>794.5</ele><time>2026-04-04T08:17:42.997Z</time></trkpt><trkpt lat="44.004196887037935" lon="10.762879685591553"><ele>793.75</ele><time>2026-04-04T08:17:43.997Z</time></trkpt><trkpt lat="44.00414809926641" lon="10.762702606578733"><ele>793.0</ele><time>2026-04-04T08:17:44.997Z</time></trkpt><trkpt lat="44.004109712384356" lon="10.762563050342582"><ele>790.8</ele><time>2026-04-04T08:17:45.997Z</time></trkpt><trkpt lat="44.004078734865054" lon="10.762462053410053"><ele>788.5999999999999</ele><time>2026-04-04T08:17:46.997Z</time></trkpt><trkpt lat="44.00404272362228" lon="10.762375154513768"><ele>786.4000000000001</ele><time>2026-04-04T08:17:47.997Z</time></trkpt><trkpt lat="44.00405930598833" lon="10.76218905593382"><ele>784.2</ele><time>2026-04-04T08:17:49.997Z</time></trkpt><trkpt lat="44.00409424662206" lon="10.762094357655334"><ele>782.0</ele><time>2026-04-04T08:17:50.997Z</time></trkpt><trkpt lat="44.00423700186386" lon="10.762066643904298"><ele>782.0</ele><time>2026-04-04T08:17:52.997Z</time></trkpt><trkpt lat="44.004318288078586" lon="10.762126077662503"><ele>782.0</ele><time>2026-04-04T08:17:53.997Z</time></trkpt><trkpt lat="44.00440310583147" lon="10.76223623397342"><ele>782.0</ele><time>2026-04-04T08:17:54.997Z</time></trkpt><trkpt lat="44.004494264296774" lon="10.762395956180017"><ele>782.0</ele><time>2026-04-04T08:17:55.997Z</time></trkpt><trkpt lat="44.004560032008236" lon="10.762563298861558"><ele>784.75</ele><time>2026-04-04T08:17:56.997Z</time></trkpt><trkpt lat="44.00461555450728" lon="10.762747491881901"><ele>787.5</ele><time>2026-04-04T08:17:57.997Z</time></trkpt><trkpt lat="44.004664222408806" lon="10.762934165800043"><ele>790.25</ele><time>2026-04-04T08:17:58.997Z</time></trkpt><trkpt lat="44.00471873548893" lon="10.76312620785429"><ele>793.0</ele><time>2026-04-04T08:17:59.997Z</time></trkpt><trkpt lat="44.004789776613" lon="10.763283983123214"><ele>793.0</ele><time>2026-04-04T08:18:00.997Z</time></trkpt><trkpt lat="44.00485195282724" lon="10.763414199215322"><ele>793.0</ele><time>2026-04-04T08:18:01.997Z</time></trkpt><trkpt lat="44.00491483447006" lon="10.763534125549496"><ele>793.0</ele><time>2026-04-04T08:18:02.997Z</time></trkpt><trkpt lat="44.00493530927773" lon="10.763648736109163"><ele>793.0</ele><time>2026-04-04T08:18:03.997Z</time></trkpt><trkpt lat="44.004925492013264" lon="10.763781405801703"><ele>793.0</ele><time>2026-04-04T08:18:04.997Z</time></trkpt><trkpt lat="44.004894215987214" lon="10.763964846114837"><ele>793.5999999999999</ele><time>2026-04-04T08:18:05.997Z</time></trkpt><trkpt lat="44.00488091553086" lon="10.76415590901472"><ele>794.1999999999999</ele><time>2026-04-04T08:18:06.997Z</time></trkpt><trkpt lat="44.00487437293706" lon="10.76428617240319"><ele>794.8</ele><time>2026-04-04T08:18:07.997Z</time></trkpt><trkpt lat="44.00489851273425" lon="10.764412986182975"><ele>795.4</ele><time>2026-04-04T08:18:08.997Z</time></trkpt><trkpt lat="44.00495789696488" lon="10.764497631989533"><ele>796.0</ele><time>2026-04-04T08:18:09.997Z</time></trkpt><trkpt lat="44.005007458323945" lon="10.764563795115494"><ele>788.4</ele><time>2026-04-04T08:18:10.997Z</time></trkpt><trkpt lat="44.0050644551878" lon="10.764602439665582"><ele>780.8</ele><time>2026-04-04T08:18:11.997Z</time></trkpt><trkpt lat="44.00513255934791" lon="10.764585002069003"><ele>773.1999999999999</ele><time>2026-04-04T08:18:12.997Z</time></trkpt><trkpt lat="44.005219139250784" lon="10.76452393642074"><ele>765.5999999999999</ele><time>2026-04-04T08:18:13.997Z</time></trkpt><trkpt lat="44.00529814456831" lon="10.764408223783274"><ele>758.0</ele><time>2026-04-04T08:18:14.997Z</time></trkpt><trkpt lat="44.0053680708712" lon="10.76427158496107"><ele>758.0</ele><time>2026-04-04T08:18:15.997Z</time></trkpt><trkpt lat="44.00541207011866" lon="10.76409783897731"><ele>758.0</ele><time>2026-04-04T08:18:16.997Z</time></trkpt><trkpt lat="44.005415757634246" lon="10.763930679620369"><ele>758.0</ele><time>2026-04-04T08:18:17.997Z</time></trkpt><trkpt lat="44.005361413063845" lon="10.763746452046295"><ele>758.0</ele><time>2026-04-04T08:18:18.997Z</time></trkpt><trkpt lat="44.00531357208685" lon="10.763565236642641"><ele>757.5</ele><time>2026-04-04T08:18:19.997Z</time></trkpt><trkpt lat="44.0052434805651" lon="10.763388456982787"><ele>757.0</ele><time>2026-04-04T08:18:20.997Z</time></trkpt><trkpt lat="44.00516973905779" lon="10.763230208214708"><ele>756.5</ele><time>2026-04-04T08:18:21.997Z</time></trkpt><trkpt lat="44.005123633565574" lon="10.763056074691631"><ele>756.0</ele><time>2026-04-04T08:18:22.997Z</time></trkpt><trkpt lat="44.00510239726888" lon="10.762840361788259"><ele>753.3333333333334</ele><time>2026-04-04T08:18:23.997Z</time></trkpt><trkpt lat="44.00508989707595" lon="10.762618450175289"><ele>750.6666666666667</ele><time>2026-04-04T08:18:24.997Z</time></trkpt><trkpt lat="44.005082211969786" lon="10.762403514590936"><ele>748.0</ele><time>2026-04-04T08:18:25.997Z</time></trkpt><trkpt lat="44.00505908432154" lon="10.762191492532263"><ele>748.0</ele><time>2026-04-04T08:18:26.997Z</time></trkpt><trkpt lat="44.005014374963174" lon="10.76199863664944"><ele>748.0</ele><time>2026-04-04T08:18:27.997Z</time></trkpt><trkpt lat="44.004986035462785" lon="10.761835535621112"><ele>748.0</ele><time>2026-04-04T08:18:28.997Z</time></trkpt><trkpt lat="44.00494598026176" lon="10.761702715200107"><ele>748.0</ele><time>2026-04-04T08:18:29.997Z</time></trkpt><trkpt lat="44.00493129970202" lon="10.761579516247998"><ele>746.0</ele><time>2026-04-04T08:18:30.997Z</time></trkpt><trkpt lat="44.00493544652484" lon="10.7614583614037"><ele>744.0</ele><time>2026-04-04T08:18:31.997Z</time></trkpt><trkpt lat="44.004961626729944" lon="10.761335578277924"><ele>742.0</ele><time>2026-04-04T08:18:32.997Z</time></trkpt><trkpt lat="44.00503826174108" lon="10.761250567680756"><ele>740.0</ele><time>2026-04-04T08:18:33.997Z</time></trkpt><trkpt lat="44.00511206394712" lon="10.761211226945607"><ele>738.0</ele><time>2026-04-04T08:18:34.997Z</time></trkpt><trkpt lat="44.00518883752217" lon="10.761201834471745"><ele>736.0</ele><time>2026-04-04T08:18:35.997Z</time></trkpt><trkpt lat="44.00527803353188" lon="10.761267057867046"><ele>736.0</ele><time>2026-04-04T08:18:36.997Z</time></trkpt><trkpt lat="44.00535710398189" lon="10.76137881831567"><ele>736.0</ele><time>2026-04-04T08:18:37.997Z</time></trkpt><trkpt lat="44.00543569131097" lon="10.76151427334769"><ele>736.0</ele><time>2026-04-04T08:18:38.997Z</time></trkpt><trkpt lat="44.00550712555617" lon="10.761669394737254"><ele>736.0</ele><time>2026-04-04T08:18:39.997Z</time></trkpt><trkpt lat="44.00557606632051" lon="10.761814102924037"><ele>739.0</ele><time>2026-04-04T08:18:40.997Z</time></trkpt><trkpt lat="44.00565453981762" lon="10.761964347681424"><ele>742.0</ele><time>2026-04-04T08:18:41.997Z</time></trkpt><trkpt lat="44.00571688003794" lon="10.762110261021329"><ele>745.0</ele><time>2026-04-04T08:18:42.997Z</time></trkpt><trkpt lat="44.00576364383099" lon="10.762261258518082"><ele>748.0</ele><time>2026-04-04T08:18:43.997Z</time></trkpt><trkpt lat="44.00577885514171" lon="10.762420426532321"><ele>748.0</ele><time>2026-04-04T08:18:44.997Z</time></trkpt><trkpt lat="44.00578990283415" lon="10.76260803524614"><ele>748.0</ele><time>2026-04-04T08:18:45.997Z</time></trkpt><trkpt lat="44.00580330850471" lon="10.762794483014094"><ele>748.0</ele><time>2026-04-04T08:18:46.997Z</time></trkpt><trkpt lat="44.00580798140955" lon="10.762975932967198"><ele>748.0</ele><time>2026-04-04T08:18:47.997Z</time></trkpt><trkpt lat="44.00582116232235" lon="10.763147485670627"><ele>741.5</ele><time>2026-04-04T08:18:48.997Z</time></trkpt><trkpt lat="44.005857095602856" lon="10.763311549801495"><ele>735.0</ele><time>2026-04-04T08:18:49.997Z</time></trkpt><trkpt lat="44.00593502547223" lon="10.763467857933305"><ele>728.5</ele><time>2026-04-04T08:18:50.997Z</time></trkpt><trkpt lat="44.00601102893844" lon="10.763599372014733"><ele>722.0</ele><time>2026-04-04T08:18:51.997Z</time></trkpt><trkpt lat="44.0060591370544" lon="10.763736380155606"><ele>721.5</ele><time>2026-04-04T08:18:52.997Z</time></trkpt><trkpt lat="44.006107701292" lon="10.763884336742128"><ele>721.0</ele><time>2026-04-04T08:18:53.997Z</time></trkpt><trkpt lat="44.00612276213585" lon="10.764069915307623"><ele>720.5</ele><time>2026-04-04T08:18:54.997Z</time></trkpt><trkpt lat="44.00612538434632" lon="10.764267684865715"><ele>720.0</ele><time>2026-04-04T08:18:55.997Z</time></trkpt><trkpt lat="44.00613772456132" lon="10.764443628607301"><ele>718.6</ele><time>2026-04-04T08:18:56.997Z</time></trkpt><trkpt lat="44.006141617425584" lon="10.764585312982126"><ele>717.2</ele><time>2026-04-04T08:18:57.997Z</time></trkpt><trkpt lat="44.00615910427985" lon="10.764709749103712"><ele>715.8</ele><time>2026-04-04T08:18:58.997Z</time></trkpt><trkpt lat="44.00615090587901" lon="10.764828429980897"><ele>714.4</ele><time>2026-04-04T08:18:59.997Z</time></trkpt><trkpt lat="44.00610645192832" lon="10.764964043566149"><ele>713.0</ele><time>2026-04-04T08:19:00.997Z</time></trkpt><trkpt lat="44.00602944338165" lon="10.765091724174821"><ele>709.5</ele><time>2026-04-04T08:19:01.997Z</time></trkpt><trkpt lat="44.00595773169238" lon="10.765237213602285"><ele>706.0</ele><time>2026-04-04T08:19:02.997Z</time></trkpt><trkpt lat="44.0059151987152" lon="10.76540815794682"><ele>702.5</ele><time>2026-04-04T08:19:03.997Z</time></trkpt><trkpt lat="44.00591845072213" lon="10.765618618162529"><ele>699.0</ele><time>2026-04-04T08:19:04.997Z</time></trkpt><trkpt lat="44.005937394396796" lon="10.765809708579757"><ele>699.0</ele><time>2026-04-04T08:19:05.997Z</time></trkpt><trkpt lat="44.00595101903831" lon="10.765971550100398"><ele>699.0</ele><time>2026-04-04T08:19:06.997Z</time></trkpt><trkpt lat="44.00596560477988" lon="10.766117729642428"><ele>699.0</ele><time>2026-04-04T08:19:07.997Z</time></trkpt><trkpt lat="44.00597310256408" lon="10.76627183447127"><ele>699.0</ele><time>2026-04-04T08:19:08.997Z</time></trkpt><trkpt lat="44.005919332515944" lon="10.76640209901562"><ele>699.0</ele><time>2026-04-04T08:19:09.997Z</time></trkpt><trkpt lat="44.005849066065956" lon="10.76652347937859"><ele>702.25</ele><time>2026-04-04T08:19:10.997Z</time></trkpt><trkpt lat="44.00574533224687" lon="10.766644178666073"><ele>705.5</ele><time>2026-04-04T08:19:11.997Z</time></trkpt><trkpt lat="44.0056334513942" lon="10.76678218241585"><ele>708.75</ele><time>2026-04-04T08:19:12.997Z</time></trkpt><trkpt lat="44.0055505815155" lon="10.766946610273633"><ele>712.0</ele><time>2026-04-04T08:19:13.997Z</time></trkpt><trkpt lat="44.00550710290974" lon="10.767102819787997"><ele>712.0</ele><time>2026-04-04T08:19:14.997Z</time></trkpt><trkpt lat="44.00549740227956" lon="10.767252208589131"><ele>712.0</ele><time>2026-04-04T08:19:15.997Z</time></trkpt><trkpt lat="44.00551818410693" lon="10.767451371475547"><ele>712.0</ele><time>2026-04-04T08:19:16.997Z</time></trkpt><trkpt lat="44.005546347628155" lon="10.767646883774514"><ele>712.0</ele><time>2026-04-04T08:19:17.997Z</time></trkpt><trkpt lat="44.005593034737146" lon="10.767836556754814"><ele>707.25</ele><time>2026-04-04T08:19:18.997Z</time></trkpt><trkpt lat="44.00562298626457" lon="10.767994680835923"><ele>702.5</ele><time>2026-04-04T08:19:19.997Z</time></trkpt><trkpt lat="44.00563685060804" lon="10.768145047755104"><ele>697.75</ele><time>2026-04-04T08:19:20.997Z</time></trkpt><trkpt lat="44.00561578911612" lon="10.768301008963098"><ele>693.0</ele><time>2026-04-04T08:19:21.997Z</time></trkpt><trkpt lat="44.00556047333683" lon="10.7684346866618"><ele>684.5</ele><time>2026-04-04T08:19:22.997Z</time></trkpt><trkpt lat="44.0054731866491" lon="10.768546810549623"><ele>676.0</ele><time>2026-04-04T08:19:23.997Z</time></trkpt><trkpt lat="44.00533905183166" lon="10.768636701839284"><ele>667.5</ele><time>2026-04-04T08:19:24.997Z</time></trkpt><trkpt lat="44.005197849834296" lon="10.768725995340796"><ele>659.0</ele><time>2026-04-04T08:19:25.997Z</time></trkpt><trkpt lat="44.0050703882905" lon="10.768797821305967"><ele>662.0</ele><time>2026-04-04T08:19:26.997Z</time></trkpt><trkpt lat="44.00491930884109" lon="10.768869200281934"><ele>665.0</ele><time>2026-04-04T08:19:27.997Z</time></trkpt><trkpt lat="44.004781575814576" lon="10.768956036792513"><ele>668.0</ele><time>2026-04-04T08:19:28.997Z</time></trkpt><trkpt lat="44.00465068829501" lon="10.769009828460563"><ele>671.0</ele><time>2026-04-04T08:19:29.997Z</time></trkpt><trkpt lat="44.00452220513613" lon="10.769081488560765"><ele>671.0</ele><time>2026-04-04T08:19:30.997Z</time></trkpt><trkpt lat="44.00439113755994" lon="10.769153299018406"><ele>671.0</ele><time>2026-04-04T08:19:31.997Z</time></trkpt><trkpt lat="44.00427123690806" lon="10.769224476737689"><ele>671.0</ele><time>2026-04-04T08:19:32.997Z</time></trkpt><trkpt lat="44.00414785795703" lon="10.76929205008418"><ele>671.0</ele><time>2026-04-04T08:19:33.997Z</time></trkpt><trkpt lat="44.004022437521826" lon="10.769374406358718"><ele>669.1999999999999</ele><time>2026-04-04T08:19:34.997Z</time></trkpt><trkpt lat="44.00392329874445" lon="10.76945621490999"><ele>667.4</ele><time>2026-04-04T08:19:35.997Z</time></trkpt><trkpt lat="44.00383042975292" lon="10.769557277068527"><ele>665.6</ele><time>2026-04-04T08:19:36.996Z</time></trkpt><trkpt lat="44.003755382140575" lon="10.769647565798987"><ele>663.8</ele><time>2026-04-04T08:19:37.996Z</time></trkpt><trkpt lat="44.00368965791287" lon="10.76973093883657"><ele>662.0</ele><time>2026-04-04T08:19:38.996Z</time></trkpt><trkpt lat="44.0036441690016" lon="10.769848214168153"><ele>662.0</ele><time>2026-04-04T08:19:39.997Z</time></trkpt><trkpt lat="44.00366304302999" lon="10.769967753979417"><ele>662.0</ele><time>2026-04-04T08:19:40.997Z</time></trkpt><trkpt lat="44.003714151969994" lon="10.770085304178217"><ele>662.0</ele><time>2026-04-04T08:19:41.997Z</time></trkpt><trkpt lat="44.003750830957934" lon="10.770175657263332"><ele>662.0</ele><time>2026-04-04T08:19:42.997Z</time></trkpt><trkpt lat="44.00379707911573" lon="10.770257981007166"><ele>662.0</ele><time>2026-04-04T08:19:43.997Z</time></trkpt><trkpt lat="44.00387501165619" lon="10.770317935784423"><ele>662.0</ele><time>2026-04-04T08:19:44.997Z</time></trkpt><trkpt lat="44.00395823023529" lon="10.770356409267821"><ele>666.2</ele><time>2026-04-04T08:19:45.997Z</time></trkpt><trkpt lat="44.00404284230602" lon="10.770389190590162"><ele>670.4000000000001</ele><time>2026-04-04T08:19:46.997Z</time></trkpt><trkpt lat="44.004134017966415" lon="10.770420290655878"><ele>674.5999999999999</ele><time>2026-04-04T08:19:47.997Z</time></trkpt><trkpt lat="44.00422342600295" lon="10.770441871295803"><ele>678.8</ele><time>2026-04-04T08:19:48.997Z</time></trkpt><trkpt lat="44.00434172431815" lon="10.770439611974547"><ele>683.0</ele><time>2026-04-04T08:19:49.997Z</time></trkpt><trkpt lat="44.0044867811489" lon="10.770408588530406"><ele>683.6666666666666</ele><time>2026-04-04T08:19:50.997Z</time></trkpt><trkpt lat="44.004663031975625" lon="10.770337760683173"><ele>684.3333333333334</ele><time>2026-04-04T08:19:51.997Z</time></trkpt><trkpt lat="44.00481004831736" lon="10.770281436006062"><ele>685.0</ele><time>2026-04-04T08:19:52.997Z</time></trkpt><trkpt lat="44.00495353531495" lon="10.77022853570023"><ele>677.5</ele><time>2026-04-04T08:19:53.997Z</time></trkpt><trkpt lat="44.005086218972686" lon="10.770160582238372"><ele>670.0</ele><time>2026-04-04T08:19:54.997Z</time></trkpt><trkpt lat="44.00521597485523" lon="10.770068568267865"><ele>662.5</ele><time>2026-04-04T08:19:55.997Z</time></trkpt><trkpt lat="44.00531434459224" lon="10.769992573500357"><ele>655.0</ele><time>2026-04-04T08:19:56.997Z</time></trkpt><trkpt lat="44.005447256808466" lon="10.769926130411505"><ele>655.0</ele><time>2026-04-04T08:19:57.997Z</time></trkpt><trkpt lat="44.00557446504093" lon="10.769886777670978"><ele>655.0</ele><time>2026-04-04T08:19:58.997Z</time></trkpt><trkpt lat="44.00570110851176" lon="10.7698633043296"><ele>655.0</ele><time>2026-04-04T08:19:59.997Z</time></trkpt><trkpt lat="44.00584373947485" lon="10.769875361121773"><ele>655.0</ele><time>2026-04-04T08:20:00.997Z</time></trkpt><trkpt lat="44.00597828289497" lon="10.769869750579062"><ele>657.25</ele><time>2026-04-04T08:20:01.997Z</time></trkpt><trkpt lat="44.006133212798616" lon="10.769819848034293"><ele>659.5</ele><time>2026-04-04T08:20:02.997Z</time></trkpt><trkpt lat="44.006269961485266" lon="10.769733733086898"><ele>661.75</ele><time>2026-04-04T08:20:03.997Z</time></trkpt><trkpt lat="44.00639419538795" lon="10.76967174035684"><ele>664.0</ele><time>2026-04-04T08:20:04.997Z</time></trkpt><trkpt lat="44.006495660534924" lon="10.769616818308092"><ele>664.0</ele><time>2026-04-04T08:20:05.997Z</time></trkpt><trkpt lat="44.006591050501804" lon="10.769541397135878"><ele>664.0</ele><time>2026-04-04T08:20:06.997Z</time></trkpt><trkpt lat="44.00667676042727" lon="10.769387741300076"><ele>664.0</ele><time>2026-04-04T08:20:07.997Z</time></trkpt><trkpt lat="44.006773290005555" lon="10.769226675559151"><ele>664.0</ele><time>2026-04-04T08:20:08.997Z</time></trkpt><trkpt lat="44.00685433236969" lon="10.769053503196805"><ele>661.25</ele><time>2026-04-04T08:20:09.997Z</time></trkpt><trkpt lat="44.00694739639511" lon="10.768895639469005"><ele>658.5</ele><time>2026-04-04T08:20:10.997Z</time></trkpt><trkpt lat="44.007049559893446" lon="10.768762244206865"><ele>655.75</ele><time>2026-04-04T08:20:11.997Z</time></trkpt><trkpt lat="44.00715110457434" lon="10.768644005911336"><ele>653.0</ele><time>2026-04-04T08:20:12.997Z</time></trkpt><trkpt lat="44.007249745610444" lon="10.768551156786605"><ele>654.75</ele><time>2026-04-04T08:20:13.997Z</time></trkpt><trkpt lat="44.00734500706703" lon="10.76840026996366"><ele>656.5</ele><time>2026-04-04T08:20:14.997Z</time></trkpt><trkpt lat="44.00743114449831" lon="10.768245372555835"><ele>658.25</ele><time>2026-04-04T08:20:15.997Z</time></trkpt><trkpt lat="44.00750837089287" lon="10.768069946095787"><ele>660.0</ele><time>2026-04-04T08:20:16.997Z</time></trkpt><trkpt lat="44.007585271243144" lon="10.767879670835471"><ele>655.0</ele><time>2026-04-04T08:20:17.997Z</time></trkpt><trkpt lat="44.00766972036574" lon="10.767690841493843"><ele>650.0</ele><time>2026-04-04T08:20:18.997Z</time></trkpt><trkpt lat="44.00775857814675" lon="10.7675337955626"><ele>645.0</ele><time>2026-04-04T08:20:19.997Z</time></trkpt><trkpt lat="44.00784420089855" lon="10.76737573082217"><ele>640.0</ele><time>2026-04-04T08:20:20.997Z</time></trkpt><trkpt lat="44.007945555198674" lon="10.767226920685326"><ele>640.0</ele><time>2026-04-04T08:20:21.997Z</time></trkpt><trkpt lat="44.00805015217461" lon="10.76708042054982"><ele>640.0</ele><time>2026-04-04T08:20:22.997Z</time></trkpt><trkpt lat="44.008186293195784" lon="10.766965405350353"><ele>640.0</ele><time>2026-04-04T08:20:23.997Z</time></trkpt><trkpt lat="44.00832408215295" lon="10.766839554634977"><ele>641.0</ele><time>2026-04-04T08:20:24.997Z</time></trkpt><trkpt lat="44.00846953238874" lon="10.766721584317766"><ele>642.0</ele><time>2026-04-04T08:20:25.997Z</time></trkpt><trkpt lat="44.00861160464192" lon="10.766593232581847"><ele>643.0</ele><time>2026-04-04T08:20:26.997Z</time></trkpt><trkpt lat="44.00873944877182" lon="10.766475257309452"><ele>643.0</ele><time>2026-04-04T08:20:27.997Z</time></trkpt><trkpt lat="44.00885803862331" lon="10.766359470965087"><ele>643.0</ele><time>2026-04-04T08:20:28.997Z</time></trkpt><trkpt lat="44.008991632659615" lon="10.766264828390257"><ele>643.0</ele><time>2026-04-04T08:20:29.997Z</time></trkpt><trkpt lat="44.009138139019896" lon="10.766161880853035"><ele>639.6666666666667</ele><time>2026-04-04T08:20:30.997Z</time></trkpt><trkpt lat="44.00927440182131" lon="10.766045991961825"><ele>636.3333333333334</ele><time>2026-04-04T08:20:31.997Z</time></trkpt><trkpt lat="44.00939733897094" lon="10.765906897063767"><ele>633.0</ele><time>2026-04-04T08:20:32.997Z</time></trkpt><trkpt lat="44.00952819807489" lon="10.765799014600237"><ele>633.0</ele><time>2026-04-04T08:20:33.997Z</time></trkpt><trkpt lat="44.00964754793564" lon="10.765676896894135"><ele>633.0</ele><time>2026-04-04T08:20:34.997Z</time></trkpt><trkpt lat="44.00978098818782" lon="10.765577472250138"><ele>633.0</ele><time>2026-04-04T08:20:35.997Z</time></trkpt><trkpt lat="44.00991365003103" lon="10.765505414776863"><ele>633.0</ele><time>2026-04-04T08:20:36.997Z</time></trkpt><trkpt lat="44.01005376371001" lon="10.765456448112198"><ele>638.75</ele><time>2026-04-04T08:20:37.997Z</time></trkpt><trkpt lat="44.01018866903694" lon="10.765426003539025"><ele>644.5</ele><time>2026-04-04T08:20:38.997Z</time></trkpt><trkpt lat="44.010331845628066" lon="10.76542327780603"><ele>650.25</ele><time>2026-04-04T08:20:39.997Z</time></trkpt><trkpt lat="44.01048143907664" lon="10.765458339939032"><ele>656.0</ele><time>2026-04-04T08:20:40.997Z</time></trkpt><trkpt lat="44.01062647086299" lon="10.765485237153845"><ele>656.0</ele><time>2026-04-04T08:20:41.997Z</time></trkpt><trkpt lat="44.010782140151164" lon="10.765524702883987"><ele>656.0</ele><time>2026-04-04T08:20:42.997Z</time></trkpt><trkpt lat="44.01092944243426" lon="10.76557233357874"><ele>656.0</ele><time>2026-04-04T08:20:43.997Z</time></trkpt><trkpt lat="44.01108977397889" lon="10.765619805802336"><ele>658.6666666666666</ele><time>2026-04-04T08:20:44.997Z</time></trkpt><trkpt lat="44.01123895229009" lon="10.765655266550116"><ele>661.3333333333334</ele><time>2026-04-04T08:20:45.997Z</time></trkpt><trkpt lat="44.01138964238691" lon="10.765666190993414"><ele>664.0</ele><time>2026-04-04T08:20:46.997Z</time></trkpt><trkpt lat="44.01155012572216" lon="10.765663890252824"><ele>663.3333333333334</ele><time>2026-04-04T08:20:47.997Z</time></trkpt><trkpt lat="44.01171509075099" lon="10.765611169920561"><ele>662.6666666666666</ele><time>2026-04-04T08:20:48.997Z</time></trkpt><trkpt lat="44.011885871745214" lon="10.76558325595466"><ele>662.0</ele><time>2026-04-04T08:20:49.997Z</time></trkpt><trkpt lat="44.01206026388112" lon="10.765560588682998"><ele>662.0</ele><time>2026-04-04T08:20:50.997Z</time></trkpt><trkpt lat="44.01224798708642" lon="10.765543435422105"><ele>662.0</ele><time>2026-04-04T08:20:51.997Z</time></trkpt><trkpt lat="44.01243057064892" lon="10.765519983558187"><ele>662.0</ele><time>2026-04-04T08:20:52.997Z</time></trkpt><trkpt lat="44.0125966852297" lon="10.765488308762679"><ele>662.75</ele><time>2026-04-04T08:20:53.997Z</time></trkpt><trkpt lat="44.01275187001205" lon="10.765512716965182"><ele>663.5</ele><time>2026-04-04T08:20:54.997Z</time></trkpt><trkpt lat="44.01289683510081" lon="10.765497033138084"><ele>664.25</ele><time>2026-04-04T08:20:55.997Z</time></trkpt><trkpt lat="44.01301674503722" lon="10.765491339896128"><ele>665.0</ele><time>2026-04-04T08:20:56.997Z</time></trkpt><trkpt lat="44.01313209097611" lon="10.765515090695686"><ele>665.0</ele><time>2026-04-04T08:20:57.997Z</time></trkpt><trkpt lat="44.013255829570895" lon="10.765576864009919"><ele>665.0</ele><time>2026-04-04T08:20:58.997Z</time></trkpt><trkpt lat="44.01339932567509" lon="10.765635497459346"><ele>665.0</ele><time>2026-04-04T08:20:59.997Z</time></trkpt><trkpt lat="44.01354618237315" lon="10.765681809641483"><ele>665.0</ele><time>2026-04-04T08:21:00.997Z</time></trkpt><trkpt lat="44.01369339754262" lon="10.76572495417128"><ele>665.25</ele><time>2026-04-04T08:21:01.997Z</time></trkpt><trkpt lat="44.01381734379568" lon="10.765770933615034"><ele>665.5</ele><time>2026-04-04T08:21:02.997Z</time></trkpt><trkpt lat="44.013952492648684" lon="10.765825855275386"><ele>665.75</ele><time>2026-04-04T08:21:03.997Z</time></trkpt><trkpt lat="44.01408722696119" lon="10.7658683115667"><ele>666.0</ele><time>2026-04-04T08:21:04.997Z</time></trkpt><trkpt lat="44.014222926696554" lon="10.765929594121433"><ele>667.75</ele><time>2026-04-04T08:21:05.997Z</time></trkpt><trkpt lat="44.01435544185471" lon="10.765977809103509"><ele>669.5</ele><time>2026-04-04T08:21:06.997Z</time></trkpt><trkpt lat="44.01447307699164" lon="10.766025152290437"><ele>671.25</ele><time>2026-04-04T08:21:07.997Z</time></trkpt><trkpt lat="44.0146015199553" lon="10.766077299304339"><ele>673.0</ele><time>2026-04-04T08:21:08.997Z</time></trkpt><trkpt lat="44.014737857229946" lon="10.7661247951558"><ele>673.0</ele><time>2026-04-04T08:21:09.997Z</time></trkpt><trkpt lat="44.014866516256184" lon="10.766175416393098"><ele>673.0</ele><time>2026-04-04T08:21:10.997Z</time></trkpt><trkpt lat="44.01498149001616" lon="10.766215066990892"><ele>673.0</ele><time>2026-04-04T08:21:11.997Z</time></trkpt><trkpt lat="44.01510070475947" lon="10.766273190787786"><ele>673.0</ele><time>2026-04-04T08:21:12.997Z</time></trkpt><trkpt lat="44.01522249341329" lon="10.766336178923396"><ele>670.3333333333334</ele><time>2026-04-04T08:21:13.997Z</time></trkpt><trkpt lat="44.01533459249578" lon="10.766372605185015"><ele>667.6666666666667</ele><time>2026-04-04T08:21:14.997Z</time></trkpt><trkpt lat="44.01541124458365" lon="10.76638797653374"><ele>665.0</ele><time>2026-04-04T08:21:15.997Z</time></trkpt><trkpt lat="44.01547665762924" lon="10.766402097364455"><ele>662.3333333333334</ele><time>2026-04-04T08:21:16.997Z</time></trkpt><trkpt lat="44.01555039037372" lon="10.76637488354041"><ele>659.6666666666666</ele><time>2026-04-04T08:21:17.997Z</time></trkpt><trkpt lat="44.015624358563215" lon="10.76631156390964"><ele>657.0</ele><time>2026-04-04T08:21:18.997Z</time></trkpt><trkpt lat="44.01567287468003" lon="10.766230838705406"><ele>657.0</ele><time>2026-04-04T08:21:19.997Z</time></trkpt><trkpt lat="44.01567782506507" lon="10.766110005541773"><ele>657.0</ele><time>2026-04-04T08:21:20.997Z</time></trkpt><trkpt lat="44.01564613753621" lon="10.76596790314502"><ele>657.0</ele><time>2026-04-04T08:21:21.997Z</time></trkpt><trkpt lat="44.01558268905555" lon="10.765842972850752"><ele>657.0</ele><time>2026-04-04T08:21:22.997Z</time></trkpt><trkpt lat="44.01548928214269" lon="10.765719362095572"><ele>657.0</ele><time>2026-04-04T08:21:23.997Z</time></trkpt><trkpt lat="44.01538684682143" lon="10.765613789802668"><ele>655.5</ele><time>2026-04-04T08:21:24.997Z</time></trkpt><trkpt lat="44.01527509763024" lon="10.765526735787708"><ele>654.0</ele><time>2026-04-04T08:21:25.997Z</time></trkpt><trkpt lat="44.01515669523727" lon="10.765457561471077"><ele>652.5</ele><time>2026-04-04T08:21:26.997Z</time></trkpt><trkpt lat="44.015028467692936" lon="10.765397786281941"><ele>651.0</ele><time>2026-04-04T08:21:27.997Z</time></trkpt><trkpt lat="44.014912366676484" lon="10.765357046990895"><ele>651.0</ele><time>2026-04-04T08:21:28.997Z</time></trkpt><trkpt lat="44.01478760088536" lon="10.76530957412339"><ele>651.0</ele><time>2026-04-04T08:21:29.997Z</time></trkpt><trkpt lat="44.01466123825566" lon="10.765264568227153"><ele>651.0</ele><time>2026-04-04T08:21:30.997Z</time></trkpt><trkpt lat="44.01453407258819" lon="10.76521550143103"><ele>651.0</ele><time>2026-04-04T08:21:31.997Z</time></trkpt><trkpt lat="44.01442115176548" lon="10.765175148738688"><ele>647.6666666666666</ele><time>2026-04-04T08:21:32.997Z</time></trkpt><trkpt lat="44.0143201196613" lon="10.765149733481477"><ele>644.3333333333334</ele><time>2026-04-04T08:21:33.996Z</time></trkpt><trkpt lat="44.01421712380845" lon="10.765127115672913"><ele>641.0</ele><time>2026-04-04T08:21:34.996Z</time></trkpt><trkpt lat="44.014131903668854" lon="10.765101455717938"><ele>637.6666666666667</ele><time>2026-04-04T08:21:35.997Z</time></trkpt><trkpt lat="44.01407266490677" lon="10.765064152873336"><ele>634.3333333333334</ele><time>2026-04-04T08:21:36.996Z</time></trkpt><trkpt lat="44.01402060536868" lon="10.765010035861836"><ele>631.0</ele><time>2026-04-04T08:21:37.996Z</time></trkpt><trkpt lat="44.01399490584497" lon="10.76491267282693"><ele>631.0</ele><time>2026-04-04T08:21:38.996Z</time></trkpt><trkpt lat="44.01401767245162" lon="10.764806839118503"><ele>631.0</ele><time>2026-04-04T08:21:39.997Z</time></trkpt><trkpt lat="44.01406792534324" lon="10.764727017524828"><ele>631.0</ele><time>2026-04-04T08:21:40.997Z</time></trkpt><trkpt lat="44.014129588464804" lon="10.76468003391112"><ele>631.0</ele><time>2026-04-04T08:21:41.997Z</time></trkpt><trkpt lat="44.01420544418782" lon="10.764665655902679"><ele>631.0</ele><time>2026-04-04T08:21:42.997Z</time></trkpt><trkpt lat="44.01428980108641" lon="10.764711606672773"><ele>631.0</ele><time>2026-04-04T08:21:43.997Z</time></trkpt><trkpt lat="44.01438797499284" lon="10.764776596347412"><ele>629.25</ele><time>2026-04-04T08:21:44.996Z</time></trkpt><trkpt lat="44.01451048562263" lon="10.764861218554913"><ele>627.5</ele><time>2026-04-04T08:21:45.996Z</time></trkpt><trkpt lat="44.01464653186133" lon="10.764920378921492"><ele>625.75</ele><time>2026-04-04T08:21:46.996Z</time></trkpt><trkpt lat="44.014799440534155" lon="10.764949836947636"><ele>624.0</ele><time>2026-04-04T08:21:47.996Z</time></trkpt><trkpt lat="44.01496714269151" lon="10.764968267141695"><ele>619.6666666666666</ele><time>2026-04-04T08:21:48.996Z</time></trkpt><trkpt lat="44.01513738622474" lon="10.764979807891832"><ele>615.3333333333333</ele><time>2026-04-04T08:21:49.996Z</time></trkpt><trkpt lat="44.0153384817981" lon="10.765014793725229"><ele>611.0</ele><time>2026-04-04T08:21:50.996Z</time></trkpt><trkpt lat="44.015512457225064" lon="10.765028991505622"><ele>611.0</ele><time>2026-04-04T08:21:51.996Z</time></trkpt><trkpt lat="44.01568219298743" lon="10.765081577171106"><ele>611.0</ele><time>2026-04-04T08:21:52.996Z</time></trkpt><trkpt lat="44.01584816043591" lon="10.765108348998156"><ele>611.0</ele><time>2026-04-04T08:21:53.996Z</time></trkpt><trkpt lat="44.01600378551242" lon="10.765143049712952"><ele>607.75</ele><time>2026-04-04T08:21:54.996Z</time></trkpt><trkpt lat="44.016151690691274" lon="10.765157551324332"><ele>604.5</ele><time>2026-04-04T08:21:55.996Z</time></trkpt><trkpt lat="44.01629847166836" lon="10.765184543530491"><ele>601.25</ele><time>2026-04-04T08:21:56.996Z</time></trkpt><trkpt lat="44.01643213291969" lon="10.765224792049509"><ele>598.0</ele><time>2026-04-04T08:21:57.996Z</time></trkpt><trkpt lat="44.016564042079594" lon="10.76526147270477"><ele>599.0</ele><time>2026-04-04T08:21:58.996Z</time></trkpt><trkpt lat="44.01670237627744" lon="10.765304457662422"><ele>600.0</ele><time>2026-04-04T08:21:59.996Z</time></trkpt><trkpt lat="44.01683723870634" lon="10.7653811068559"><ele>601.0</ele><time>2026-04-04T08:22:00.996Z</time></trkpt><trkpt lat="44.01696476749822" lon="10.765482146949324"><ele>602.0</ele><time>2026-04-04T08:22:01.996Z</time></trkpt><trkpt lat="44.017078252633915" lon="10.76556171437296"><ele>602.0</ele><time>2026-04-04T08:22:02.996Z</time></trkpt><trkpt lat="44.017185513434455" lon="10.765659648062794"><ele>602.0</ele><time>2026-04-04T08:22:03.996Z</time></trkpt><trkpt lat="44.01728296029167" lon="10.765733244007931"><ele>602.0</ele><time>2026-04-04T08:22:04.996Z</time></trkpt><trkpt lat="44.01736608993348" lon="10.765829879452646"><ele>602.0</ele><time>2026-04-04T08:22:05.996Z</time></trkpt><trkpt lat="44.01744568392179" lon="10.765968808522443"><ele>599.5</ele><time>2026-04-04T08:22:06.996Z</time></trkpt><trkpt lat="44.01750852259373" lon="10.766137413855391"><ele>597.0</ele><time>2026-04-04T08:22:07.996Z</time></trkpt><trkpt lat="44.017563088162234" lon="10.76632633763728"><ele>594.5</ele><time>2026-04-04T08:22:08.996Z</time></trkpt><trkpt lat="44.01764175807338" lon="10.76651668455685"><ele>592.0</ele><time>2026-04-04T08:22:09.996Z</time></trkpt><trkpt lat="44.01771015492047" lon="10.766724206047085"><ele>597.3333333333334</ele><time>2026-04-04T08:22:10.996Z</time></trkpt><trkpt lat="44.017796691515066" lon="10.76693991070692"><ele>602.6666666666666</ele><time>2026-04-04T08:22:11.996Z</time></trkpt><trkpt lat="44.01787905868787" lon="10.767147285186116"><ele>608.0</ele><time>2026-04-04T08:22:12.996Z</time></trkpt><trkpt lat="44.01794761209545" lon="10.767338380332294"><ele>608.0</ele><time>2026-04-04T08:22:13.996Z</time></trkpt><trkpt lat="44.01800276167802" lon="10.767518268167018"><ele>608.0</ele><time>2026-04-04T08:22:14.996Z</time></trkpt><trkpt lat="44.018061861045716" lon="10.767670681989893"><ele>608.0</ele><time>2026-04-04T08:22:15.996Z</time></trkpt><trkpt lat="44.01810727017178" lon="10.767818490211463"><ele>608.0</ele><time>2026-04-04T08:22:16.996Z</time></trkpt><trkpt lat="44.01815295498838" lon="10.767954862657907"><ele>607.8</ele><time>2026-04-04T08:22:17.996Z</time></trkpt><trkpt lat="44.01820061188308" lon="10.768082160903488"><ele>607.5999999999999</ele><time>2026-04-04T08:22:18.996Z</time></trkpt><trkpt lat="44.018242558511446" lon="10.76820830216941"><ele>607.4000000000001</ele><time>2026-04-04T08:22:19.996Z</time></trkpt><trkpt lat="44.01824229923937" lon="10.768369056706554"><ele>607.2</ele><time>2026-04-04T08:22:20.996Z</time></trkpt><trkpt lat="44.01823625451349" lon="10.768541465279432"><ele>607.0</ele><time>2026-04-04T08:22:21.996Z</time></trkpt><trkpt lat="44.0181771140676" lon="10.768717175536917"><ele>605.6</ele><time>2026-04-04T08:22:22.996Z</time></trkpt><trkpt lat="44.01811001372194" lon="10.768869264974278"><ele>604.2</ele><time>2026-04-04T08:22:23.996Z</time></trkpt><trkpt lat="44.01806892740754" lon="10.768979888619942"><ele>602.8</ele><time>2026-04-04T08:22:24.996Z</time></trkpt><trkpt lat="44.01805655700934" lon="10.769089578767018"><ele>601.4</ele><time>2026-04-04T08:22:25.996Z</time></trkpt><trkpt lat="44.01809868304958" lon="10.769215158616253"><ele>600.0</ele><time>2026-04-04T08:22:26.996Z</time></trkpt><trkpt lat="44.01818011165858" lon="10.769331032080645"><ele>599.25</ele><time>2026-04-04T08:22:27.996Z</time></trkpt><trkpt lat="44.01828815228913" lon="10.769446360688805"><ele>598.5</ele><time>2026-04-04T08:22:28.996Z</time></trkpt><trkpt lat="44.01839246582566" lon="10.769573840885073"><ele>597.75</ele><time>2026-04-04T08:22:29.996Z</time></trkpt><trkpt lat="44.01850059989928" lon="10.769706261628228"><ele>597.0</ele><time>2026-04-04T08:22:30.996Z</time></trkpt><trkpt lat="44.018610457167995" lon="10.769853693363384"><ele>601.0</ele><time>2026-04-04T08:22:31.996Z</time></trkpt><trkpt lat="44.01874264573937" lon="10.770030355761033"><ele>605.0</ele><time>2026-04-04T08:22:32.996Z</time></trkpt><trkpt lat="44.018855919681116" lon="10.770203074770695"><ele>609.0</ele><time>2026-04-04T08:22:33.996Z</time></trkpt><trkpt lat="44.01896958173171" lon="10.77037694462408"><ele>609.0</ele><time>2026-04-04T08:22:34.996Z</time></trkpt><trkpt lat="44.01908038492778" lon="10.770534448038124"><ele>609.0</ele><time>2026-04-04T08:22:35.996Z</time></trkpt><trkpt lat="44.019172249155844" lon="10.770680626156524"><ele>609.0</ele><time>2026-04-04T08:22:36.996Z</time></trkpt><trkpt lat="44.01926797418415" lon="10.770811565373917"><ele>609.0</ele><time>2026-04-04T08:22:37.996Z</time></trkpt><trkpt lat="44.01936239291706" lon="10.770919459962583"><ele>610.1666666666666</ele><time>2026-04-04T08:22:38.996Z</time></trkpt><trkpt lat="44.01943187242478" lon="10.771008738897233"><ele>611.3333333333334</ele><time>2026-04-04T08:22:39.996Z</time></trkpt><trkpt lat="44.01949140318023" lon="10.77108791387312"><ele>612.5</ele><time>2026-04-04T08:22:40.996Z</time></trkpt><trkpt lat="44.019558158127346" lon="10.771117859135524"><ele>613.6666666666667</ele><time>2026-04-04T08:22:41.996Z</time></trkpt><trkpt lat="44.01965442340788" lon="10.77105506087246"><ele>614.8333333333334</ele><time>2026-04-04T08:22:43.996Z</time></trkpt><trkpt lat="44.019703864711104" lon="10.770971047403028"><ele>616.0</ele><time>2026-04-04T08:22:44.996Z</time></trkpt><trkpt lat="44.01974084186325" lon="10.770866536970248"><ele>609.5</ele><time>2026-04-04T08:22:45.996Z</time></trkpt><trkpt lat="44.0197413579584" lon="10.770717209054274"><ele>603.0</ele><time>2026-04-04T08:22:46.996Z</time></trkpt><trkpt lat="44.019720237079646" lon="10.770523045629474"><ele>596.5</ele><time>2026-04-04T08:22:47.996Z</time></trkpt><trkpt lat="44.01965514334488" lon="10.770309112397982"><ele>590.0</ele><time>2026-04-04T08:22:48.996Z</time></trkpt><trkpt lat="44.01958398224008" lon="10.770117102602438"><ele>585.3333333333333</ele><time>2026-04-04T08:22:49.996Z</time></trkpt><trkpt lat="44.01949340251427" lon="10.769934542320176"><ele>580.6666666666666</ele><time>2026-04-04T08:22:50.996Z</time></trkpt><trkpt lat="44.019391262851265" lon="10.769771379743519"><ele>576.0</ele><time>2026-04-04T08:22:51.996Z</time></trkpt><trkpt lat="44.01929152638133" lon="10.769626305302904"><ele>576.0</ele><time>2026-04-04T08:22:52.996Z</time></trkpt><trkpt lat="44.0192563244833" lon="10.769490032114865"><ele>576.0</ele><time>2026-04-04T08:22:53.996Z</time></trkpt><trkpt lat="44.0192565260217" lon="10.769344632509656"><ele>576.0</ele><time>2026-04-04T08:22:54.996Z</time></trkpt><trkpt lat="44.019303156546044" lon="10.769218469956051"><ele>576.0</ele><time>2026-04-04T08:22:55.996Z</time></trkpt><trkpt lat="44.01938534328383" lon="10.769123522585376"><ele>576.0</ele><time>2026-04-04T08:22:56.996Z</time></trkpt><trkpt lat="44.0194877425318" lon="10.769053643121024"><ele>575.8</ele><time>2026-04-04T08:22:57.996Z</time></trkpt><trkpt lat="44.019586084373906" lon="10.769006229567957"><ele>575.6</ele><time>2026-04-04T08:22:58.996Z</time></trkpt><trkpt lat="44.01968148204697" lon="10.768967639630867"><ele>575.4</ele><time>2026-04-04T08:22:59.996Z</time></trkpt><trkpt lat="44.0197239078336" lon="10.768865804211359"><ele>575.2</ele><time>2026-04-04T08:23:00.996Z</time></trkpt><trkpt lat="44.01973464751851" lon="10.768724387604918"><ele>575.0</ele><time>2026-04-04T08:23:01.996Z</time></trkpt><trkpt lat="44.019712953073395" lon="10.768537270534505"><ele>571.0</ele><time>2026-04-04T08:23:02.996Z</time></trkpt><trkpt lat="44.01969502920707" lon="10.768348867828395"><ele>567.0</ele><time>2026-04-04T08:23:03.996Z</time></trkpt><trkpt lat="44.019733926456965" lon="10.768129406647942"><ele>563.0</ele><time>2026-04-04T08:23:04.996Z</time></trkpt><trkpt lat="44.01975883647573" lon="10.76791408924384"><ele>561.0</ele><time>2026-04-04T08:23:05.996Z</time></trkpt><trkpt lat="44.0197682641815" lon="10.767685004809254"><ele>559.0</ele><time>2026-04-04T08:23:06.996Z</time></trkpt><trkpt lat="44.01976827011042" lon="10.767463340602523"><ele>557.0</ele><time>2026-04-04T08:23:07.996Z</time></trkpt><trkpt lat="44.019776045953584" lon="10.767228799069308"><ele>557.0</ele><time>2026-04-04T08:23:08.996Z</time></trkpt><trkpt lat="44.0197818734592" lon="10.767024470032517"><ele>557.0</ele><time>2026-04-04T08:23:09.996Z</time></trkpt><trkpt lat="44.01980594003666" lon="10.766878523281969"><ele>557.0</ele><time>2026-04-04T08:23:10.996Z</time></trkpt><trkpt lat="44.01988708281722" lon="10.76673559329613"><ele>557.0</ele><time>2026-04-04T08:23:11.996Z</time></trkpt><trkpt lat="44.019986073181364" lon="10.76658152213115"><ele>568.5</ele><time>2026-04-04T08:23:12.996Z</time></trkpt><trkpt lat="44.02006649150518" lon="10.766421374670951"><ele>580.0</ele><time>2026-04-04T08:23:13.996Z</time></trkpt><trkpt lat="44.020132401699186" lon="10.766276592763656"><ele>591.5</ele><time>2026-04-04T08:23:14.996Z</time></trkpt><trkpt lat="44.020188982820954" lon="10.766149195117622"><ele>603.0</ele><time>2026-04-04T08:23:15.996Z</time></trkpt><trkpt lat="44.02027082557859" lon="10.766073283958757"><ele>603.0</ele><time>2026-04-04T08:23:16.996Z</time></trkpt><trkpt lat="44.0203735034791" lon="10.76604679111143"><ele>603.0</ele><time>2026-04-04T08:23:17.996Z</time></trkpt><trkpt lat="44.02045650808788" lon="10.766074342942307"><ele>603.0</ele><time>2026-04-04T08:23:18.996Z</time></trkpt><trkpt lat="44.02053909052568" lon="10.766124608781551"><ele>603.0</ele><time>2026-04-04T08:23:19.996Z</time></trkpt><trkpt lat="44.02062048354042" lon="10.766195795389178"><ele>603.0</ele><time>2026-04-04T08:23:20.996Z</time></trkpt><trkpt lat="44.020715404281844" lon="10.76626670096651"><ele>603.0</ele><time>2026-04-04T08:23:21.996Z</time></trkpt><trkpt lat="44.02081160978155" lon="10.766336238072224"><ele>603.0</ele><time>2026-04-04T08:23:22.996Z</time></trkpt><trkpt lat="44.020901350686835" lon="10.76640209369358"><ele>603.0</ele><time>2026-04-04T08:23:23.996Z</time></trkpt><trkpt lat="44.02100390562766" lon="10.766467638555346"><ele>603.0</ele><time>2026-04-04T08:23:24.996Z</time></trkpt><trkpt lat="44.02112719100903" lon="10.76649853540374"><ele>603.0</ele><time>2026-04-04T08:23:25.996Z</time></trkpt><trkpt lat="44.02127889235639" lon="10.766533713356171"><ele>612.0</ele><time>2026-04-04T08:23:26.996Z</time></trkpt><trkpt lat="44.02142446343349" lon="10.766560899802567"><ele>621.0</ele><time>2026-04-04T08:23:27.996Z</time></trkpt><trkpt lat="44.02157119110519" lon="10.766581461154303"><ele>630.0</ele><time>2026-04-04T08:23:28.996Z</time></trkpt><trkpt lat="44.02171678481304" lon="10.766600305852807"><ele>639.0</ele><time>2026-04-04T08:23:29.996Z</time></trkpt><trkpt lat="44.02184693771534" lon="10.76657937362736"><ele>639.0</ele><time>2026-04-04T08:23:30.996Z</time></trkpt><trkpt lat="44.02196554992134" lon="10.766514507018176"><ele>639.0</ele><time>2026-04-04T08:23:31.996Z</time></trkpt><trkpt lat="44.02209280075098" lon="10.766397686976095"><ele>639.0</ele><time>2026-04-04T08:23:32.996Z</time></trkpt><trkpt lat="44.02219531791001" lon="10.766237863394075"><ele>639.0</ele><time>2026-04-04T08:23:33.996Z</time></trkpt><trkpt lat="44.02229120997582" lon="10.766119895703333"><ele>636.2</ele><time>2026-04-04T08:23:34.996Z</time></trkpt><trkpt lat="44.02236784959463" lon="10.766026915076756"><ele>633.4</ele><time>2026-04-04T08:23:35.996Z</time></trkpt><trkpt lat="44.02243100019514" lon="10.765895550425128"><ele>630.6</ele><time>2026-04-04T08:23:36.996Z</time></trkpt><trkpt lat="44.02250194249538" lon="10.765779459466035"><ele>627.8</ele><time>2026-04-04T08:23:37.996Z</time></trkpt><trkpt lat="44.02259168825814" lon="10.765711605884082"><ele>625.0</ele><time>2026-04-04T08:23:38.997Z</time></trkpt><trkpt lat="44.02270249817299" lon="10.765683079293535"><ele>625.0</ele><time>2026-04-04T08:23:39.996Z</time></trkpt><trkpt lat="44.02280287586572" lon="10.765689562137464"><ele>625.0</ele><time>2026-04-04T08:23:40.996Z</time></trkpt><trkpt lat="44.02290125081425" lon="10.76567961741152"><ele>625.0</ele><time>2026-04-04T08:23:41.997Z</time></trkpt><trkpt lat="44.02299384300171" lon="10.765655188508866"><ele>625.0</ele><time>2026-04-04T08:23:42.997Z</time></trkpt><trkpt lat="44.023056952977015" lon="10.7655743409444"><ele>625.0</ele><time>2026-04-04T08:23:43.997Z</time></trkpt><trkpt lat="44.02310401859272" lon="10.765441524398662"><ele>625.0</ele><time>2026-04-04T08:23:44.996Z</time></trkpt><trkpt lat="44.02314264058118" lon="10.765280700714667"><ele>625.0</ele><time>2026-04-04T08:23:45.997Z</time></trkpt><trkpt lat="44.02319313556774" lon="10.765128958306867"><ele>625.0</ele><time>2026-04-04T08:23:46.997Z</time></trkpt><trkpt lat="44.02326435759133" lon="10.764976678506267"><ele>625.0</ele><time>2026-04-04T08:23:47.996Z</time></trkpt><trkpt lat="44.02336837165888" lon="10.764865360342956"><ele>627.75</ele><time>2026-04-04T08:23:48.996Z</time></trkpt><trkpt lat="44.02347514420974" lon="10.764734812070953"><ele>630.5</ele><time>2026-04-04T08:23:49.996Z</time></trkpt><trkpt lat="44.023568183292774" lon="10.764580258198345"><ele>633.25</ele><time>2026-04-04T08:23:50.996Z</time></trkpt><trkpt lat="44.02364471407866" lon="10.764447619199197"><ele>636.0</ele><time>2026-04-04T08:23:51.996Z</time></trkpt><trkpt lat="44.023718968950476" lon="10.764338045361919"><ele>639.8</ele><time>2026-04-04T08:23:52.996Z</time></trkpt><trkpt lat="44.02379610224777" lon="10.764266662825014"><ele>643.6</ele><time>2026-04-04T08:23:53.996Z</time></trkpt><trkpt lat="44.023879944455516" lon="10.76423842934343"><ele>647.4</ele><time>2026-04-04T08:23:54.996Z</time></trkpt><trkpt lat="44.023973436879245" lon="10.764273277972388"><ele>651.2</ele><time>2026-04-04T08:23:55.996Z</time></trkpt><trkpt lat="44.024061847031554" lon="10.764352775696885"><ele>655.0</ele><time>2026-04-04T08:23:56.996Z</time></trkpt><trkpt lat="44.024150900710616" lon="10.76447603251482"><ele>655.0</ele><time>2026-04-04T08:23:57.996Z</time></trkpt><trkpt lat="44.02422848552074" lon="10.764604891861081"><ele>655.0</ele><time>2026-04-04T08:23:58.996Z</time></trkpt><trkpt lat="44.02429799518056" lon="10.764733896849103"><ele>655.0</ele><time>2026-04-04T08:23:59.996Z</time></trkpt><trkpt lat="44.024368754094425" lon="10.76489235765141"><ele>655.0</ele><time>2026-04-04T08:24:00.996Z</time></trkpt><trkpt lat="44.02447399316732" lon="10.765040802187961"><ele>655.0</ele><time>2026-04-04T08:24:01.996Z</time></trkpt><trkpt lat="44.02456801151267" lon="10.765191840523414"><ele>655.0</ele><time>2026-04-04T08:24:02.996Z</time></trkpt><trkpt lat="44.024671674112376" lon="10.7653411306345"><ele>655.0</ele><time>2026-04-04T08:24:03.996Z</time></trkpt><trkpt lat="44.024753265065144" lon="10.76548287656855"><ele>655.0</ele><time>2026-04-04T08:24:04.996Z</time></trkpt><trkpt lat="44.0248587759258" lon="10.765588690389148"><ele>655.0</ele><time>2026-04-04T08:24:05.996Z</time></trkpt><trkpt lat="44.02496266395446" lon="10.765691516131758"><ele>655.0</ele><time>2026-04-04T08:24:06.996Z</time></trkpt><trkpt lat="44.02510124741858" lon="10.76578060878767"><ele>655.0</ele><time>2026-04-04T08:24:07.996Z</time></trkpt><trkpt lat="44.02521655994694" lon="10.765881457400361"><ele>655.0</ele><time>2026-04-04T08:24:08.996Z</time></trkpt><trkpt lat="44.02532850530198" lon="10.76598865646469"><ele>661.75</ele><time>2026-04-04T08:24:09.996Z</time></trkpt><trkpt lat="44.025439728042464" lon="10.766062466666819"><ele>668.5</ele><time>2026-04-04T08:24:10.996Z</time></trkpt><trkpt lat="44.02555267668248" lon="10.766100616704847"><ele>675.25</ele><time>2026-04-04T08:24:11.996Z</time></trkpt><trkpt lat="44.02566403582725" lon="10.766102056772102"><ele>682.0</ele><time>2026-04-04T08:24:12.996Z</time></trkpt><trkpt lat="44.025775476903945" lon="10.766074129831662"><ele>674.6</ele><time>2026-04-04T08:24:13.996Z</time></trkpt><trkpt lat="44.02586405582978" lon="10.766025753177981"><ele>667.2</ele><time>2026-04-04T08:24:14.996Z</time></trkpt><trkpt lat="44.02595185809446" lon="10.765955321397461"><ele>659.8</ele><time>2026-04-04T08:24:15.996Z</time></trkpt><trkpt lat="44.02603761641302" lon="10.765867090517458"><ele>652.4</ele><time>2026-04-04T08:24:16.996Z</time></trkpt><trkpt lat="44.026116575447475" lon="10.765793970089147"><ele>645.0</ele><time>2026-04-04T08:24:17.996Z</time></trkpt><trkpt lat="44.02619368416703" lon="10.765753286057791"><ele>645.0</ele><time>2026-04-04T08:24:18.996Z</time></trkpt><trkpt lat="44.02626391325866" lon="10.765717212476744"><ele>645.0</ele><time>2026-04-04T08:24:19.996Z</time></trkpt><trkpt lat="44.0263414825312" lon="10.765723368158094"><ele>645.0</ele><time>2026-04-04T08:24:20.996Z</time></trkpt><trkpt lat="44.026427812324705" lon="10.765757812310175"><ele>645.0</ele><time>2026-04-04T08:24:21.996Z</time></trkpt><trkpt lat="44.02650439395338" lon="10.765827735895572"><ele>645.0</ele><time>2026-04-04T08:24:22.995Z</time></trkpt><trkpt lat="44.02658016321047" lon="10.765854270790872"><ele>645.0</ele><time>2026-04-04T08:24:23.995Z</time></trkpt><trkpt lat="44.02664558657349" lon="10.765832559293447"><ele>645.0</ele><time>2026-04-04T08:24:24.995Z</time></trkpt><trkpt lat="44.02669818566582" lon="10.76576506870587"><ele>645.0</ele><time>2026-04-04T08:24:25.995Z</time></trkpt><trkpt lat="44.02674592644998" lon="10.76565703855409"><ele>645.0</ele><time>2026-04-04T08:24:26.995Z</time></trkpt><trkpt lat="44.02676718262004" lon="10.765508337740377"><ele>645.0</ele><time>2026-04-04T08:24:27.995Z</time></trkpt><trkpt lat="44.0267820737087" lon="10.765347048983838"><ele>645.0</ele><time>2026-04-04T08:24:28.994Z</time></trkpt><trkpt lat="44.026805958736496" lon="10.765179661000383"><ele>645.0</ele><time>2026-04-04T08:24:29.994Z</time></trkpt><trkpt lat="44.02680605749163" lon="10.76500340226522"><ele>645.0</ele><time>2026-04-04T08:24:30.994Z</time></trkpt><trkpt lat="44.02684125820635" lon="10.764853986262397"><ele>645.0</ele><time>2026-04-04T08:24:31.994Z</time></trkpt><trkpt lat="44.026893075280505" lon="10.764722614969386"><ele>645.0</ele><time>2026-04-04T08:24:32.994Z</time></trkpt><trkpt lat="44.026961085910386" lon="10.764588059189165"><ele>645.0</ele><time>2026-04-04T08:24:33.994Z</time></trkpt><trkpt lat="44.02702973798657" lon="10.764455944587572"><ele>645.0</ele><time>2026-04-04T08:24:34.994Z</time></trkpt><trkpt lat="44.02708145361569" lon="10.764304959045933"><ele>645.0</ele><time>2026-04-04T08:24:35.994Z</time></trkpt><trkpt lat="44.0271188178224" lon="10.764148427062073"><ele>645.0</ele><time>2026-04-04T08:24:36.994Z</time></trkpt><trkpt lat="44.02714127190324" lon="10.763999866187767"><ele>644.2</ele><time>2026-04-04T08:24:37.993Z</time></trkpt><trkpt lat="44.027178196942096" lon="10.763852133020572"><ele>643.4</ele><time>2026-04-04T08:24:38.993Z</time></trkpt><trkpt lat="44.02723028146918" lon="10.763725101163265"><ele>642.5999999999999</ele><time>2026-04-04T08:24:39.993Z</time></trkpt><trkpt lat="44.02728589610618" lon="10.76361015831867"><ele>641.8</ele><time>2026-04-04T08:24:40.993Z</time></trkpt><trkpt lat="44.02734492375781" lon="10.763523256348748"><ele>641.0</ele><time>2026-04-04T08:24:41.993Z</time></trkpt><trkpt lat="44.02742637691921" lon="10.763402149977349"><ele>643.3333333333333</ele><time>2026-04-04T08:24:43.993Z</time></trkpt><trkpt lat="44.02751976657714" lon="10.763360553922395"><ele>645.6666666666666</ele><time>2026-04-04T08:24:45.993Z</time></trkpt><trkpt lat="44.02758740564712" lon="10.763317805775326"><ele>648.0</ele><time>2026-04-04T08:24:47.993Z</time></trkpt><trkpt lat="44.02764015776301" lon="10.763243226270548"><ele>650.3333333333334</ele><time>2026-04-04T08:24:50.993Z</time></trkpt><trkpt lat="44.02770411331216" lon="10.763184643346358"><ele>652.6666666666667</ele><time>2026-04-04T08:24:55.993Z</time></trkpt><trkpt lat="44.027769017598835" lon="10.7631597419469"><ele>655.0</ele><time>2026-04-04T08:24:59.993Z</time></trkpt><trkpt lat="44.02775867391196" lon="10.76307091864486"><ele>655.0</ele><time>2026-04-04T08:25:03.992Z</time></trkpt><trkpt lat="44.02769435515203" lon="10.763093661452354"><ele>655.0</ele><time>2026-04-04T08:25:06.992Z</time></trkpt><trkpt lat="44.02762787308226" lon="10.763127624484694"><ele>655.0</ele><time>2026-04-04T08:25:36.992Z</time></trkpt><trkpt lat="44.02763570640256" lon="10.76321807104071"><ele>655.0</ele><time>2026-04-04T08:27:28.993Z</time></trkpt><trkpt lat="44.02772268765563" lon="10.763187483358765"><ele>655.0</ele><time>2026-04-04T08:27:30.993Z</time></trkpt><trkpt lat="44.02778084936485" lon="10.763133278329809"><ele>655.0</ele><time>2026-04-04T08:27:31.993Z</time></trkpt><trkpt lat="44.0278497504849" lon="10.763088119818836"><ele>655.0</ele><time>2026-04-04T08:27:32.993Z</time></trkpt><trkpt lat="44.027929705090216" lon="10.763047264243227"><ele>655.0</ele><time>2026-04-04T08:27:33.993Z</time></trkpt><trkpt lat="44.028007722839895" lon="10.763036159107735"><ele>655.0</ele><time>2026-04-04T08:27:34.993Z</time></trkpt><trkpt lat="44.02809308062192" lon="10.763060647552132"><ele>655.0</ele><time>2026-04-04T08:27:35.993Z</time></trkpt><trkpt lat="44.028161937321464" lon="10.763110645778752"><ele>655.0</ele><time>2026-04-04T08:27:36.993Z</time></trkpt><trkpt lat="44.0282113848766" lon="10.763174970453653"><ele>655.0</ele><time>2026-04-04T08:27:37.993Z</time></trkpt><trkpt lat="44.02827030570804" lon="10.763219949855255"><ele>655.0</ele><time>2026-04-04T08:27:38.993Z</time></trkpt><trkpt lat="44.0283807213433" lon="10.763305177836685"><ele>655.4</ele><time>2026-04-04T08:27:40.993Z</time></trkpt><trkpt lat="44.028436072182515" lon="10.763349727216236"><ele>655.8</ele><time>2026-04-04T08:27:41.993Z</time></trkpt><trkpt lat="44.02854702214608" lon="10.76343401200777"><ele>656.2</ele><time>2026-04-04T08:27:43.993Z</time></trkpt><trkpt lat="44.028626157358254" lon="10.763478869895764"><ele>656.6</ele><time>2026-04-04T08:27:44.993Z</time></trkpt><trkpt lat="44.02871300763333" lon="10.76354308223547"><ele>657.0</ele><time>2026-04-04T08:27:45.993Z</time></trkpt><trkpt lat="44.02880535458485" lon="10.76357949554811"><ele>659.8</ele><time>2026-04-04T08:27:46.993Z</time></trkpt><trkpt lat="44.02890801729183" lon="10.763612861288353"><ele>662.6</ele><time>2026-04-04T08:27:47.993Z</time></trkpt><trkpt lat="44.028987536888884" lon="10.763668675717518"><ele>665.4</ele><time>2026-04-04T08:27:48.993Z</time></trkpt><trkpt lat="44.029031296458506" lon="10.763855099316526"><ele>668.1999999999999</ele><time>2026-04-04T08:27:50.992Z</time></trkpt><trkpt lat="44.029061186688615" lon="10.76397528068238"><ele>671.0</ele><time>2026-04-04T08:27:51.992Z</time></trkpt><trkpt lat="44.02905830848107" lon="10.76416329349234"><ele>673.0</ele><time>2026-04-04T08:27:52.992Z</time></trkpt><trkpt lat="44.02903806755318" lon="10.764383943460173"><ele>675.0</ele><time>2026-04-04T08:27:53.992Z</time></trkpt><trkpt lat="44.029031482065356" lon="10.764599442221137"><ele>677.0</ele><time>2026-04-04T08:27:54.992Z</time></trkpt><trkpt lat="44.029012467464426" lon="10.764804698259026"><ele>677.0</ele><time>2026-04-04T08:27:55.992Z</time></trkpt><trkpt lat="44.02899214041061" lon="10.765013026804207"><ele>677.0</ele><time>2026-04-04T08:27:56.992Z</time></trkpt><trkpt lat="44.02897543109897" lon="10.765208569091277"><ele>677.0</ele><time>2026-04-04T08:27:57.992Z</time></trkpt><trkpt lat="44.02896442389371" lon="10.765391313896274"><ele>677.0</ele><time>2026-04-04T08:27:58.992Z</time></trkpt><trkpt lat="44.02893546280716" lon="10.765540294916697"><ele>676.5</ele><time>2026-04-04T08:27:59.992Z</time></trkpt><trkpt lat="44.028925261845345" lon="10.765696895064028"><ele>676.0</ele><time>2026-04-04T08:28:00.992Z</time></trkpt><trkpt lat="44.02892850361441" lon="10.765856710357221"><ele>675.5</ele><time>2026-04-04T08:28:01.992Z</time></trkpt><trkpt lat="44.02898655941083" lon="10.766037799208336"><ele>675.0</ele><time>2026-04-04T08:28:02.993Z</time></trkpt><trkpt lat="44.029069532307375" lon="10.766235745335054"><ele>669.25</ele><time>2026-04-04T08:28:03.992Z</time></trkpt><trkpt lat="44.02914583561539" lon="10.76644413916504"><ele>663.5</ele><time>2026-04-04T08:28:04.992Z</time></trkpt><trkpt lat="44.029207895797086" lon="10.766629613248304"><ele>657.75</ele><time>2026-04-04T08:28:05.992Z</time></trkpt><trkpt lat="44.02923735682934" lon="10.766800289970877"><ele>652.0</ele><time>2026-04-04T08:28:06.992Z</time></trkpt><trkpt lat="44.02925603176712" lon="10.766961776218064"><ele>651.8</ele><time>2026-04-04T08:28:07.992Z</time></trkpt><trkpt lat="44.02925580192808" lon="10.767107615502335"><ele>651.6</ele><time>2026-04-04T08:28:08.992Z</time></trkpt><trkpt lat="44.029259153449026" lon="10.767245802539158"><ele>651.4</ele><time>2026-04-04T08:28:09.992Z</time></trkpt><trkpt lat="44.029213789043546" lon="10.767374404055511"><ele>651.1999999999999</ele><time>2026-04-04T08:28:10.992Z</time></trkpt><trkpt lat="44.029159147178106" lon="10.76750818330977"><ele>651.0</ele><time>2026-04-04T08:28:11.992Z</time></trkpt><trkpt lat="44.029075532256876" lon="10.767642133511512"><ele>658.5</ele><time>2026-04-04T08:28:12.992Z</time></trkpt><trkpt lat="44.02900022430048" lon="10.767788989812367"><ele>666.0</ele><time>2026-04-04T08:28:13.992Z</time></trkpt><trkpt lat="44.028918759243446" lon="10.767952217546423"><ele>673.5</ele><time>2026-04-04T08:28:14.992Z</time></trkpt><trkpt lat="44.02884606291744" lon="10.768122811033438"><ele>681.0</ele><time>2026-04-04T08:28:15.992Z</time></trkpt><trkpt lat="44.028796810708606" lon="10.768292195434224"><ele>681.0</ele><time>2026-04-04T08:28:16.992Z</time></trkpt><trkpt lat="44.02876063727407" lon="10.76849136560981"><ele>681.0</ele><time>2026-04-04T08:28:17.992Z</time></trkpt><trkpt lat="44.0287442716593" lon="10.768688446266783"><ele>681.0</ele><time>2026-04-04T08:28:18.992Z</time></trkpt><trkpt lat="44.02872915247686" lon="10.768873289456323"><ele>681.0</ele><time>2026-04-04T08:28:19.992Z</time></trkpt><trkpt lat="44.028704768111155" lon="10.76905006553314"><ele>681.5999999999999</ele><time>2026-04-04T08:28:20.992Z</time></trkpt><trkpt lat="44.028687526072986" lon="10.769206062837805"><ele>682.2</ele><time>2026-04-04T08:28:21.992Z</time></trkpt><trkpt lat="44.02867216876453" lon="10.769358143700115"><ele>682.8</ele><time>2026-04-04T08:28:22.992Z</time></trkpt><trkpt lat="44.02865743428539" lon="10.769501715900605"><ele>683.4000000000001</ele><time>2026-04-04T08:28:23.992Z</time></trkpt><trkpt lat="44.02867426147445" lon="10.769632257696705"><ele>684.0</ele><time>2026-04-04T08:28:24.992Z</time></trkpt><trkpt lat="44.02871197743177" lon="10.769710689609349"><ele>684.0</ele><time>2026-04-04T08:28:25.992Z</time></trkpt><trkpt lat="44.02874820578544" lon="10.769794314818625"><ele>684.0</ele><time>2026-04-04T08:28:26.992Z</time></trkpt><trkpt lat="44.02881388744948" lon="10.76985315829186"><ele>684.0</ele><time>2026-04-04T08:28:27.992Z</time></trkpt><trkpt lat="44.028905702349896" lon="10.769907859510552"><ele>684.0</ele><time>2026-04-04T08:28:28.992Z</time></trkpt><trkpt lat="44.02902722945892" lon="10.76998549273128"><ele>684.0</ele><time>2026-04-04T08:28:29.992Z</time></trkpt><trkpt lat="44.02918025091143" lon="10.77006775291459"><ele>680.5</ele><time>2026-04-04T08:28:30.992Z</time></trkpt><trkpt lat="44.029315568680666" lon="10.77015599379593"><ele>677.0</ele><time>2026-04-04T08:28:31.992Z</time></trkpt><trkpt lat="44.02944854386284" lon="10.77025393748738"><ele>673.5</ele><time>2026-04-04T08:28:32.992Z</time></trkpt><trkpt lat="44.02956201467932" lon="10.770355274048342"><ele>670.0</ele><time>2026-04-04T08:28:33.992Z</time></trkpt><trkpt lat="44.02969549586" lon="10.77045214061905"><ele>670.0</ele><time>2026-04-04T08:28:34.992Z</time></trkpt><trkpt lat="44.0298269841094" lon="10.770542773565007"><ele>670.0</ele><time>2026-04-04T08:28:35.992Z</time></trkpt><trkpt lat="44.02994437966891" lon="10.770616826925139"><ele>670.0</ele><time>2026-04-04T08:28:36.992Z</time></trkpt><trkpt lat="44.03005881585795" lon="10.770661398928201"><ele>670.0</ele><time>2026-04-04T08:28:37.992Z</time></trkpt><trkpt lat="44.030152718444" lon="10.770672567514938"><ele>670.0</ele><time>2026-04-04T08:28:38.992Z</time></trkpt><trkpt lat="44.03023814423476" lon="10.770672387083078"><ele>670.0</ele><time>2026-04-04T08:28:39.992Z</time></trkpt><trkpt lat="44.03033493393795" lon="10.770653436321533"><ele>670.0</ele><time>2026-04-04T08:28:40.992Z</time></trkpt><trkpt lat="44.03042176399823" lon="10.770604369444362"><ele>670.0</ele><time>2026-04-04T08:28:41.992Z</time></trkpt><trkpt lat="44.030497033078845" lon="10.770500174930264"><ele>670.0</ele><time>2026-04-04T08:28:42.992Z</time></trkpt><trkpt lat="44.03056494760329" lon="10.770341517908362"><ele>670.0</ele><time>2026-04-04T08:28:43.992Z</time></trkpt><trkpt lat="44.03064627187449" lon="10.770203310881028"><ele>670.0</ele><time>2026-04-04T08:28:44.992Z</time></trkpt><trkpt lat="44.030733205014265" lon="10.7700605480171"><ele>670.0</ele><time>2026-04-04T08:28:45.992Z</time></trkpt><trkpt lat="44.03082645274691" lon="10.76995139156627"><ele>670.0</ele><time>2026-04-04T08:28:46.992Z</time></trkpt><trkpt lat="44.030920508968805" lon="10.769835209988303"><ele>669.75</ele><time>2026-04-04T08:28:47.992Z</time></trkpt><trkpt lat="44.031025165092444" lon="10.769756081293139"><ele>669.5</ele><time>2026-04-04T08:28:48.992Z</time></trkpt><trkpt lat="44.03112669950824" lon="10.769655508359618"><ele>669.25</ele><time>2026-04-04T08:28:49.992Z</time></trkpt><trkpt lat="44.03123487469447" lon="10.769553222624994"><ele>669.0</ele><time>2026-04-04T08:28:50.992Z</time></trkpt><trkpt lat="44.03134258868778" lon="10.76942452235048"><ele>669.3333333333334</ele><time>2026-04-04T08:28:51.992Z</time></trkpt><trkpt lat="44.03145333809884" lon="10.769273952450787"><ele>669.6666666666667</ele><time>2026-04-04T08:28:52.992Z</time></trkpt><trkpt lat="44.03155965939098" lon="10.769124500053941"><ele>670.0</ele><time>2026-04-04T08:28:53.992Z</time></trkpt><trkpt lat="44.03165428917834" lon="10.768961206822524"><ele>670.0</ele><time>2026-04-04T08:28:54.992Z</time></trkpt><trkpt lat="44.03173283273735" lon="10.76879808177524"><ele>670.0</ele><time>2026-04-04T08:28:55.992Z</time></trkpt><trkpt lat="44.031815080849434" lon="10.768682151596648"><ele>670.0</ele><time>2026-04-04T08:28:56.992Z</time></trkpt><trkpt lat="44.031883243358685" lon="10.768559415779082"><ele>670.0</ele><time>2026-04-04T08:28:57.992Z</time></trkpt><trkpt lat="44.0319418545687" lon="10.768434416939227"><ele>667.5</ele><time>2026-04-04T08:28:58.992Z</time></trkpt><trkpt lat="44.03199714152719" lon="10.768332296432991"><ele>665.0</ele><time>2026-04-04T08:28:59.992Z</time></trkpt><trkpt lat="44.03206146759628" lon="10.768259354332292"><ele>662.5</ele><time>2026-04-04T08:29:00.992Z</time></trkpt><trkpt lat="44.03214311052616" lon="10.768230686245499"><ele>660.0</ele><time>2026-04-04T08:29:01.992Z</time></trkpt><trkpt lat="44.03222008029269" lon="10.76824132409053"><ele>657.5</ele><time>2026-04-04T08:29:02.992Z</time></trkpt><trkpt lat="44.03230846995454" lon="10.768277753489887"><ele>655.0</ele><time>2026-04-04T08:29:03.992Z</time></trkpt><trkpt lat="44.032390574460514" lon="10.768311889483593"><ele>655.0</ele><time>2026-04-04T08:29:04.992Z</time></trkpt><trkpt lat="44.032467042570026" lon="10.768367519784551"><ele>655.0</ele><time>2026-04-04T08:29:05.992Z</time></trkpt><trkpt lat="44.03253365892096" lon="10.768423822232457"><ele>655.0</ele><time>2026-04-04T08:29:06.992Z</time></trkpt><trkpt lat="44.03260510118929" lon="10.768483680385504"><ele>655.0</ele><time>2026-04-04T08:29:07.992Z</time></trkpt><trkpt lat="44.032693060634266" lon="10.768533731164819"><ele>655.0</ele><time>2026-04-04T08:29:08.992Z</time></trkpt><trkpt lat="44.032784546666996" lon="10.768582033481168"><ele>655.0</ele><time>2026-04-04T08:29:09.992Z</time></trkpt><trkpt lat="44.03287885240977" lon="10.768622485591623"><ele>659.6</ele><time>2026-04-04T08:29:10.992Z</time></trkpt><trkpt lat="44.03296469482247" lon="10.768661004583919"><ele>664.2</ele><time>2026-04-04T08:29:11.992Z</time></trkpt><trkpt lat="44.0330445638687" lon="10.76868955719313"><ele>668.8</ele><time>2026-04-04T08:29:12.992Z</time></trkpt><trkpt lat="44.03312060055276" lon="10.76870462635743"><ele>673.4</ele><time>2026-04-04T08:29:13.992Z</time></trkpt><trkpt lat="44.03324392098942" lon="10.768705100064349"><ele>678.0</ele><time>2026-04-04T08:29:15.992Z</time></trkpt><trkpt lat="44.03334243658805" lon="10.768723739078135"><ele>678.0</ele><time>2026-04-04T08:29:17.992Z</time></trkpt><trkpt lat="44.03342096994261" lon="10.768737901141"><ele>678.0</ele><time>2026-04-04T08:29:19.992Z</time></trkpt><trkpt lat="44.03350529159562" lon="10.768749832296384"><ele>678.0</ele><time>2026-04-04T08:29:22.992Z</time></trkpt><trkpt lat="44.03354953350122" lon="10.76881857636572"><ele>678.0</ele><time>2026-04-04T08:30:24.991Z</time></trkpt><trkpt lat="44.03351315551066" lon="10.768733014546035"><ele>678.0</ele><time>2026-04-04T08:30:57.991Z</time></trkpt><trkpt lat="44.03359779383447" lon="10.768729794186989"><ele>678.0</ele><time>2026-04-04T08:31:36.991Z</time></trkpt><trkpt lat="44.03371285224032" lon="10.768753438480811"><ele>678.0</ele><time>2026-04-04T08:31:38.991Z</time></trkpt><trkpt lat="44.03378976721618" lon="10.76874212482484"><ele>678.0</ele><time>2026-04-04T08:31:39.991Z</time></trkpt><trkpt lat="44.0338870233144" lon="10.768757793633037"><ele>678.0</ele><time>2026-04-04T08:31:40.991Z</time></trkpt><trkpt lat="44.03397768031812" lon="10.768770683151144"><ele>678.0</ele><time>2026-04-04T08:31:41.991Z</time></trkpt><trkpt lat="44.03407377043317" lon="10.76877425990865"><ele>678.0</ele><time>2026-04-04T08:31:42.991Z</time></trkpt><trkpt lat="44.03418542442803" lon="10.76878654503119"><ele>678.4</ele><time>2026-04-04T08:31:43.991Z</time></trkpt><trkpt lat="44.034302231521366" lon="10.768793216159013"><ele>678.8</ele><time>2026-04-04T08:31:44.991Z</time></trkpt><trkpt lat="44.03439685092836" lon="10.768795120306434"><ele>679.2</ele><time>2026-04-04T08:31:45.991Z</time></trkpt><trkpt lat="44.03447143255481" lon="10.768800766902187"><ele>679.6</ele><time>2026-04-04T08:31:46.991Z</time></trkpt><trkpt lat="44.03457226628731" lon="10.768784083180616"><ele>680.0</ele><time>2026-04-04T08:31:48.991Z</time></trkpt><trkpt lat="44.034673873249055" lon="10.76874860997387"><ele>680.0</ele><time>2026-04-04T08:31:51.991Z</time></trkpt><trkpt lat="44.03474222831971" lon="10.768687120725069"><ele>680.0</ele><time>2026-04-04T08:31:52.991Z</time></trkpt><trkpt lat="44.03480236443406" lon="10.76860161311251"><ele>680.0</ele><time>2026-04-04T08:31:53.991Z</time></trkpt><trkpt lat="44.03487293661361" lon="10.768517722420112"><ele>680.0</ele><time>2026-04-04T08:31:54.991Z</time></trkpt><trkpt lat="44.034956836535336" lon="10.768455041260728"><ele>680.0</ele><time>2026-04-04T08:31:55.991Z</time></trkpt><trkpt lat="44.035045473765464" lon="10.768364010802644"><ele>678.2</ele><time>2026-04-04T08:31:56.991Z</time></trkpt><trkpt lat="44.03514238955471" lon="10.768312933598754"><ele>676.4</ele><time>2026-04-04T08:31:57.991Z</time></trkpt><trkpt lat="44.03523196072996" lon="10.768298207153537"><ele>674.5999999999999</ele><time>2026-04-04T08:31:58.991Z</time></trkpt><trkpt lat="44.03529683201066" lon="10.768306783461655"><ele>672.8</ele><time>2026-04-04T08:31:59.991Z</time></trkpt><trkpt lat="44.03544364680759" lon="10.768310394717762"><ele>671.0</ele><time>2026-04-04T08:32:01.991Z</time></trkpt><trkpt lat="44.035544534835566" lon="10.768355175327804"><ele>671.0</ele><time>2026-04-04T08:32:02.991Z</time></trkpt><trkpt lat="44.03565118986193" lon="10.768410539127172"><ele>671.0</ele><time>2026-04-04T08:32:03.99Z</time></trkpt><trkpt lat="44.03577926855408" lon="10.768473707845432"><ele>671.0</ele><time>2026-04-04T08:32:04.99Z</time></trkpt><trkpt lat="44.035921994648255" lon="10.768520804691478"><ele>671.0</ele><time>2026-04-04T08:32:05.991Z</time></trkpt><trkpt lat="44.0360606255867" lon="10.768524559792295"><ele>670.5</ele><time>2026-04-04T08:32:06.991Z</time></trkpt><trkpt lat="44.036184941278684" lon="10.768507605293193"><ele>670.0</ele><time>2026-04-04T08:32:07.991Z</time></trkpt><trkpt lat="44.03630866643444" lon="10.768487331729007"><ele>669.5</ele><time>2026-04-04T08:32:08.991Z</time></trkpt><trkpt lat="44.036389981023525" lon="10.76843763419234"><ele>669.0</ele><time>2026-04-04T08:32:09.991Z</time></trkpt><trkpt lat="44.03651147128452" lon="10.76834813610446"><ele>669.25</ele><time>2026-04-04T08:32:10.991Z</time></trkpt><trkpt lat="44.03664703429081" lon="10.76826576039497"><ele>669.5</ele><time>2026-04-04T08:32:11.991Z</time></trkpt><trkpt lat="44.03676367985685" lon="10.76818639423857"><ele>669.75</ele><time>2026-04-04T08:32:12.991Z</time></trkpt><trkpt lat="44.03686586750546" lon="10.768104349725489"><ele>670.0</ele><time>2026-04-04T08:32:13.991Z</time></trkpt><trkpt lat="44.03696118974925" lon="10.768084425247334"><ele>670.0</ele><time>2026-04-04T08:32:14.992Z</time></trkpt><trkpt lat="44.037034589082126" lon="10.768029959270928"><ele>670.0</ele><time>2026-04-04T08:32:15.991Z</time></trkpt><trkpt lat="44.03716408938745" lon="10.768014820007851"><ele>670.0</ele><time>2026-04-04T08:32:16.991Z</time></trkpt><trkpt lat="44.03727034807338" lon="10.768089273305648"><ele>670.0</ele><time>2026-04-04T08:32:17.991Z</time></trkpt><trkpt lat="44.03734596009263" lon="10.768168657679162"><ele>670.0</ele><time>2026-04-04T08:32:18.991Z</time></trkpt><trkpt lat="44.03742377721166" lon="10.768254021300455"><ele>669.8</ele><time>2026-04-04T08:32:19.991Z</time></trkpt><trkpt lat="44.03751524490249" lon="10.768326620044531"><ele>669.6</ele><time>2026-04-04T08:32:20.991Z</time></trkpt><trkpt lat="44.037584408453185" lon="10.768369595550247"><ele>669.4000000000001</ele><time>2026-04-04T08:32:21.991Z</time></trkpt><trkpt lat="44.03770509094387" lon="10.768324004693746"><ele>669.2</ele><time>2026-04-04T08:32:22.991Z</time></trkpt><trkpt lat="44.037846658707" lon="10.768293464975638"><ele>669.0</ele><time>2026-04-04T08:32:23.991Z</time></trkpt><trkpt lat="44.03799245912086" lon="10.768199701839558"><ele>669.0</ele><time>2026-04-04T08:32:24.991Z</time></trkpt><trkpt lat="44.0381281589218" lon="10.76809954605342"><ele>669.0</ele><time>2026-04-04T08:32:25.991Z</time></trkpt><trkpt lat="44.038260239717225" lon="10.76801085735969"><ele>669.0</ele><time>2026-04-04T08:32:26.991Z</time></trkpt><trkpt lat="44.038384762362895" lon="10.767939230042618"><ele>669.0</ele><time>2026-04-04T08:32:27.991Z</time></trkpt><trkpt lat="44.038494805659816" lon="10.767909841721128"><ele>670.0</ele><time>2026-04-04T08:32:28.991Z</time></trkpt><trkpt lat="44.03860379297245" lon="10.7678666178536"><ele>671.0</ele><time>2026-04-04T08:32:29.991Z</time></trkpt><trkpt lat="44.038717111420546" lon="10.767821052558796"><ele>672.0</ele><time>2026-04-04T08:32:30.991Z</time></trkpt><trkpt lat="44.0388296921522" lon="10.767689324148098"><ele>673.0</ele><time>2026-04-04T08:32:31.991Z</time></trkpt><trkpt lat="44.038913668045566" lon="10.767496589422283"><ele>666.5</ele><time>2026-04-04T08:32:32.991Z</time></trkpt><trkpt lat="44.038980472862825" lon="10.76731324711713"><ele>660.0</ele><time>2026-04-04T08:32:33.991Z</time></trkpt><trkpt lat="44.03905698589288" lon="10.767135860368457"><ele>653.5</ele><time>2026-04-04T08:32:34.991Z</time></trkpt><trkpt lat="44.039118825671544" lon="10.766972265663188"><ele>647.0</ele><time>2026-04-04T08:32:35.991Z</time></trkpt><trkpt lat="44.039194013822055" lon="10.766843306033651"><ele>644.5</ele><time>2026-04-04T08:32:36.991Z</time></trkpt><trkpt lat="44.03927745726959" lon="10.766739638015283"><ele>642.0</ele><time>2026-04-04T08:32:37.991Z</time></trkpt><trkpt lat="44.03937642321303" lon="10.766686897573196"><ele>639.5</ele><time>2026-04-04T08:32:38.991Z</time></trkpt><trkpt lat="44.03949524294851" lon="10.766678600602784"><ele>637.0</ele><time>2026-04-04T08:32:39.991Z</time></trkpt><trkpt lat="44.03962425370133" lon="10.766698613460854"><ele>637.0</ele><time>2026-04-04T08:32:40.991Z</time></trkpt><trkpt lat="44.03975194123555" lon="10.766726931222825"><ele>637.0</ele><time>2026-04-04T08:32:41.991Z</time></trkpt><trkpt lat="44.03988906214898" lon="10.766785391717569"><ele>637.0</ele><time>2026-04-04T08:32:42.991Z</time></trkpt><trkpt lat="44.04003580279147" lon="10.766888978762143"><ele>637.0</ele><time>2026-04-04T08:32:43.991Z</time></trkpt><trkpt lat="44.04016923738953" lon="10.767022717324705"><ele>643.75</ele><time>2026-04-04T08:32:44.991Z</time></trkpt><trkpt lat="44.04029357011496" lon="10.767122055993449"><ele>650.5</ele><time>2026-04-04T08:32:45.991Z</time></trkpt><trkpt lat="44.04041388273211" lon="10.767212583630222"><ele>657.25</ele><time>2026-04-04T08:32:46.991Z</time></trkpt><trkpt lat="44.04053334227209" lon="10.767280811204987"><ele>664.0</ele><time>2026-04-04T08:32:47.991Z</time></trkpt><trkpt lat="44.040658611613196" lon="10.7673214758434"><ele>664.0</ele><time>2026-04-04T08:32:48.991Z</time></trkpt><trkpt lat="44.04078573595264" lon="10.767342207251007"><ele>664.0</ele><time>2026-04-04T08:32:49.991Z</time></trkpt><trkpt lat="44.0409405374714" lon="10.767358665530292"><ele>664.0</ele><time>2026-04-04T08:32:50.991Z</time></trkpt><trkpt lat="44.0410985797273" lon="10.76736638932865"><ele>664.0</ele><time>2026-04-04T08:32:51.991Z</time></trkpt><trkpt lat="44.0412454526337" lon="10.76736710042262"><ele>659.75</ele><time>2026-04-04T08:32:52.991Z</time></trkpt><trkpt lat="44.04137974461258" lon="10.767337751480193"><ele>655.5</ele><time>2026-04-04T08:32:53.991Z</time></trkpt><trkpt lat="44.04150644287208" lon="10.767297337889534"><ele>651.25</ele><time>2026-04-04T08:32:54.991Z</time></trkpt><trkpt lat="44.041648440221735" lon="10.767207518041687"><ele>647.0</ele><time>2026-04-04T08:32:55.991Z</time></trkpt><trkpt lat="44.041799907521636" lon="10.767091373351986"><ele>645.6</ele><time>2026-04-04T08:32:56.991Z</time></trkpt><trkpt lat="44.04191892815556" lon="10.767005955513161"><ele>644.2</ele><time>2026-04-04T08:32:57.991Z</time></trkpt><trkpt lat="44.042021081833774" lon="10.766966244570662"><ele>642.8</ele><time>2026-04-04T08:32:58.991Z</time></trkpt><trkpt lat="44.042119504018636" lon="10.766908073777925"><ele>641.4</ele><time>2026-04-04T08:32:59.991Z</time></trkpt><trkpt lat="44.042197334080676" lon="10.766823394417301"><ele>640.0</ele><time>2026-04-04T08:33:00.991Z</time></trkpt><trkpt lat="44.04228375589646" lon="10.766708775477525"><ele>633.25</ele><time>2026-04-04T08:33:01.991Z</time></trkpt><trkpt lat="44.042348970380964" lon="10.766532037809418"><ele>626.5</ele><time>2026-04-04T08:33:02.991Z</time></trkpt><trkpt lat="44.04239588633405" lon="10.766338742164862"><ele>619.75</ele><time>2026-04-04T08:33:03.991Z</time></trkpt><trkpt lat="44.042426010384354" lon="10.766124349071216"><ele>613.0</ele><time>2026-04-04T08:33:04.991Z</time></trkpt><trkpt lat="44.0424454593062" lon="10.765946224690108"><ele>613.1999999999999</ele><time>2026-04-04T08:33:05.991Z</time></trkpt><trkpt lat="44.042464971502625" lon="10.765781133312222"><ele>613.4</ele><time>2026-04-04T08:33:06.991Z</time></trkpt><trkpt lat="44.04248537273469" lon="10.765625043313536"><ele>613.5999999999999</ele><time>2026-04-04T08:33:07.991Z</time></trkpt><trkpt lat="44.04250600560553" lon="10.765491125240887"><ele>613.8</ele><time>2026-04-04T08:33:08.991Z</time></trkpt><trkpt lat="44.042525235556425" lon="10.765352419226618"><ele>614.0</ele><time>2026-04-04T08:33:09.991Z</time></trkpt><trkpt lat="44.04259632288119" lon="10.765254655636104"><ele>614.0</ele><time>2026-04-04T08:33:10.991Z</time></trkpt><trkpt lat="44.04269996158744" lon="10.765203919666925"><ele>614.0</ele><time>2026-04-04T08:33:11.991Z</time></trkpt><trkpt lat="44.04281875179188" lon="10.765195267649382"><ele>614.0</ele><time>2026-04-04T08:33:12.991Z</time></trkpt><trkpt lat="44.04295504809164" lon="10.765202638593381"><ele>614.0</ele><time>2026-04-04T08:33:13.991Z</time></trkpt><trkpt lat="44.043077603523464" lon="10.76523009039414"><ele>614.0</ele><time>2026-04-04T08:33:14.991Z</time></trkpt><trkpt lat="44.04320814310706" lon="10.765301070963163"><ele>614.0</ele><time>2026-04-04T08:33:15.991Z</time></trkpt><trkpt lat="44.04334474146485" lon="10.765381858899614"><ele>614.0</ele><time>2026-04-04T08:33:16.991Z</time></trkpt><trkpt lat="44.04347114069293" lon="10.765452296762955"><ele>614.0</ele><time>2026-04-04T08:33:17.991Z</time></trkpt><trkpt lat="44.04357532459881" lon="10.765506111583841"><ele>613.6</ele><time>2026-04-04T08:33:18.991Z</time></trkpt><trkpt lat="44.04365964649395" lon="10.765585939805062"><ele>613.2</ele><time>2026-04-04T08:33:19.991Z</time></trkpt><trkpt lat="44.04372123885872" lon="10.765687061219502"><ele>612.8000000000001</ele><time>2026-04-04T08:33:20.991Z</time></trkpt><trkpt lat="44.043760801651274" lon="10.765803337772573"><ele>612.4</ele><time>2026-04-04T08:33:21.991Z</time></trkpt><trkpt lat="44.043768427090406" lon="10.765944898292059"><ele>612.0</ele><time>2026-04-04T08:33:22.991Z</time></trkpt><trkpt lat="44.043751853421895" lon="10.766099341091197"><ele>613.25</ele><time>2026-04-04T08:33:23.991Z</time></trkpt><trkpt lat="44.04371469440239" lon="10.76628272185973"><ele>614.5</ele><time>2026-04-04T08:33:24.991Z</time></trkpt><trkpt lat="44.04371256518908" lon="10.766474216556421"><ele>615.75</ele><time>2026-04-04T08:33:25.991Z</time></trkpt><trkpt lat="44.04372690210475" lon="10.766656927326876"><ele>617.0</ele><time>2026-04-04T08:33:26.991Z</time></trkpt><trkpt lat="44.04375286815576" lon="10.766803199296866"><ele>617.8333333333333</ele><time>2026-04-04T08:33:27.991Z</time></trkpt><trkpt lat="44.043790802080686" lon="10.766957195201998"><ele>618.6666666666666</ele><time>2026-04-04T08:33:28.991Z</time></trkpt><trkpt lat="44.043838011203086" lon="10.767045685873187"><ele>619.5</ele><time>2026-04-04T08:33:29.991Z</time></trkpt><trkpt lat="44.04391799482872" lon="10.76710359860274"><ele>620.3333333333334</ele><time>2026-04-04T08:33:30.991Z</time></trkpt><trkpt lat="44.04399365260781" lon="10.767121122175835"><ele>621.1666666666667</ele><time>2026-04-04T08:33:31.991Z</time></trkpt><trkpt lat="44.044064808858664" lon="10.767079985457096"><ele>622.0</ele><time>2026-04-04T08:33:32.991Z</time></trkpt><trkpt lat="44.04412768184405" lon="10.766999995330872"><ele>620.75</ele><time>2026-04-04T08:33:33.991Z</time></trkpt><trkpt lat="44.04415927911987" lon="10.766881576254749"><ele>619.5</ele><time>2026-04-04T08:33:34.991Z</time></trkpt><trkpt lat="44.04417832550567" lon="10.766733763950166"><ele>618.25</ele><time>2026-04-04T08:33:35.991Z</time></trkpt><trkpt lat="44.0441301604848" lon="10.766570325431784"><ele>617.0</ele><time>2026-04-04T08:33:36.991Z</time></trkpt><trkpt lat="44.044093661684045" lon="10.76639048913142"><ele>617.0</ele><time>2026-04-04T08:33:37.991Z</time></trkpt><trkpt lat="44.044091405095365" lon="10.766225004937517"><ele>617.0</ele><time>2026-04-04T08:33:38.991Z</time></trkpt><trkpt lat="44.0441260942329" lon="10.766056704972762"><ele>617.0</ele><time>2026-04-04T08:33:39.991Z</time></trkpt><trkpt lat="44.04417062987564" lon="10.765879364447382"><ele>617.0</ele><time>2026-04-04T08:33:40.991Z</time></trkpt><trkpt lat="44.044186212716" lon="10.765716470066547"><ele>615.75</ele><time>2026-04-04T08:33:41.991Z</time></trkpt><trkpt lat="44.04416434193039" lon="10.765550234673906"><ele>614.5</ele><time>2026-04-04T08:33:42.991Z</time></trkpt><trkpt lat="44.044103824395926" lon="10.765407331687973"><ele>613.25</ele><time>2026-04-04T08:33:43.991Z</time></trkpt><trkpt lat="44.04401295675412" lon="10.765289335628747"><ele>612.0</ele><time>2026-04-04T08:33:44.991Z</time></trkpt><trkpt lat="44.043908102348624" lon="10.765188625006706"><ele>607.0</ele><time>2026-04-04T08:33:45.991Z</time></trkpt><trkpt lat="44.043787084858444" lon="10.765079402474418"><ele>602.0</ele><time>2026-04-04T08:33:46.991Z</time></trkpt><trkpt lat="44.0436634980299" lon="10.764971802863432"><ele>597.0</ele><time>2026-04-04T08:33:47.991Z</time></trkpt><trkpt lat="44.04353651688908" lon="10.764861248000908"><ele>592.0</ele><time>2026-04-04T08:33:48.991Z</time></trkpt><trkpt lat="44.04340327260749" lon="10.764746623042019"><ele>592.5</ele><time>2026-04-04T08:33:49.991Z</time></trkpt><trkpt lat="44.04327789812588" lon="10.764644675774148"><ele>593.0</ele><time>2026-04-04T08:33:50.991Z</time></trkpt><trkpt lat="44.04316596693882" lon="10.764562591411464"><ele>593.5</ele><time>2026-04-04T08:33:51.991Z</time></trkpt><trkpt lat="44.043046528105904" lon="10.764493701642564"><ele>594.0</ele><time>2026-04-04T08:33:52.991Z</time></trkpt><trkpt lat="44.04293681466468" lon="10.764453300399442"><ele>594.0</ele><time>2026-04-04T08:33:53.991Z</time></trkpt><trkpt lat="44.042813364781686" lon="10.764453720564875"><ele>594.0</ele><time>2026-04-04T08:33:54.991Z</time></trkpt><trkpt lat="44.042707633336036" lon="10.764454764217849"><ele>594.0</ele><time>2026-04-04T08:33:55.991Z</time></trkpt><trkpt lat="44.042585684432936" lon="10.764464213903267"><ele>594.0</ele><time>2026-04-04T08:33:56.991Z</time></trkpt><trkpt lat="44.04245783975554" lon="10.764515941799159"><ele>590.5</ele><time>2026-04-04T08:33:57.991Z</time></trkpt><trkpt lat="44.042332035246304" lon="10.764585820528186"><ele>587.0</ele><time>2026-04-04T08:33:58.991Z</time></trkpt><trkpt lat="44.042195125926696" lon="10.764683979703848"><ele>583.5</ele><time>2026-04-04T08:33:59.991Z</time></trkpt><trkpt lat="44.042055967209" lon="10.764759034860951"><ele>580.0</ele><time>2026-04-04T08:34:00.991Z</time></trkpt><trkpt lat="44.04193152393305" lon="10.764809552856095"><ele>580.0</ele><time>2026-04-04T08:34:01.991Z</time></trkpt><trkpt lat="44.041794751522794" lon="10.764833655677904"><ele>580.0</ele><time>2026-04-04T08:34:02.991Z</time></trkpt><trkpt lat="44.041646327627305" lon="10.7648374635435"><ele>580.0</ele><time>2026-04-04T08:34:03.991Z</time></trkpt><trkpt lat="44.04149520661503" lon="10.764868339060573"><ele>580.0</ele><time>2026-04-04T08:34:04.991Z</time></trkpt><trkpt lat="44.041378443538285" lon="10.764865127438544"><ele>578.6666666666667</ele><time>2026-04-04T08:34:05.991Z</time></trkpt><trkpt lat="44.04129287583197" lon="10.764851111517023"><ele>577.3333333333334</ele><time>2026-04-04T08:34:06.991Z</time></trkpt><trkpt lat="44.04120976133103" lon="10.764838118554046"><ele>576.0</ele><time>2026-04-04T08:34:07.991Z</time></trkpt><trkpt lat="44.04114697267102" lon="10.764806287964356"><ele>574.6666666666666</ele><time>2026-04-04T08:34:08.991Z</time></trkpt><trkpt lat="44.04110994717068" lon="10.764690218908298"><ele>573.3333333333333</ele><time>2026-04-04T08:34:09.991Z</time></trkpt><trkpt lat="44.041099149381786" lon="10.764574235531313"><ele>572.0</ele><time>2026-04-04T08:34:10.991Z</time></trkpt><trkpt lat="44.04114356802387" lon="10.76447527442518"><ele>572.0</ele><time>2026-04-04T08:34:11.991Z</time></trkpt><trkpt lat="44.041239163367635" lon="10.76440565741053"><ele>572.0</ele><time>2026-04-04T08:34:12.991Z</time></trkpt><trkpt lat="44.041364003337364" lon="10.764399830801135"><ele>572.0</ele><time>2026-04-04T08:34:13.991Z</time></trkpt><trkpt lat="44.04148554413483" lon="10.76444081505456"><ele>572.0</ele><time>2026-04-04T08:34:14.991Z</time></trkpt><trkpt lat="44.04161501322129" lon="10.764461756753953"><ele>574.0</ele><time>2026-04-04T08:34:15.991Z</time></trkpt><trkpt lat="44.04175382370533" lon="10.764462185305076"><ele>576.0</ele><time>2026-04-04T08:34:16.991Z</time></trkpt><trkpt lat="44.04188389734883" lon="10.764456562375067"><ele>578.0</ele><time>2026-04-04T08:34:17.991Z</time></trkpt><trkpt lat="44.04202593892613" lon="10.764421261752082"><ele>580.0</ele><time>2026-04-04T08:34:18.991Z</time></trkpt><trkpt lat="44.04215747494046" lon="10.76434556639409"><ele>576.25</ele><time>2026-04-04T08:34:19.991Z</time></trkpt><trkpt lat="44.04229031659814" lon="10.764269085521045"><ele>572.5</ele><time>2026-04-04T08:34:20.991Z</time></trkpt><trkpt lat="44.04242937127325" lon="10.764220757663933"><ele>568.75</ele><time>2026-04-04T08:34:21.991Z</time></trkpt><trkpt lat="44.042549648461716" lon="10.7641629312029"><ele>565.0</ele><time>2026-04-04T08:34:22.991Z</time></trkpt><trkpt lat="44.04267963863375" lon="10.764147655784598"><ele>565.0</ele><time>2026-04-04T08:34:23.991Z</time></trkpt><trkpt lat="44.04282555613243" lon="10.76410411030118"><ele>565.0</ele><time>2026-04-04T08:34:24.991Z</time></trkpt><trkpt lat="44.042975070502834" lon="10.76408174233353"><ele>565.0</ele><time>2026-04-04T08:34:25.991Z</time></trkpt><trkpt lat="44.04310104552041" lon="10.764068891497088"><ele>565.0</ele><time>2026-04-04T08:34:26.991Z</time></trkpt><trkpt lat="44.04322367437198" lon="10.764062281591483"><ele>564.25</ele><time>2026-04-04T08:34:27.991Z</time></trkpt><trkpt lat="44.043341916409894" lon="10.76406220110793"><ele>563.5</ele><time>2026-04-04T08:34:28.991Z</time></trkpt><trkpt lat="44.043477201679416" lon="10.76407466633074"><ele>562.75</ele><time>2026-04-04T08:34:29.991Z</time></trkpt><trkpt lat="44.04358661733968" lon="10.764145161380922"><ele>562.0</ele><time>2026-04-04T08:34:30.991Z</time></trkpt><trkpt lat="44.04370301355065" lon="10.764242819517989"><ele>563.25</ele><time>2026-04-04T08:34:31.991Z</time></trkpt><trkpt lat="44.043819001431885" lon="10.764374603158918"><ele>564.5</ele><time>2026-04-04T08:34:32.991Z</time></trkpt><trkpt lat="44.04393922779163" lon="10.764486615765962"><ele>565.75</ele><time>2026-04-04T08:34:33.991Z</time></trkpt><trkpt lat="44.044055153078205" lon="10.764593618687407"><ele>567.0</ele><time>2026-04-04T08:34:34.991Z</time></trkpt><trkpt lat="44.04416078466759" lon="10.7646682983245"><ele>567.0</ele><time>2026-04-04T08:34:35.991Z</time></trkpt><trkpt lat="44.04425542906447" lon="10.764726413580645"><ele>567.0</ele><time>2026-04-04T08:34:36.991Z</time></trkpt><trkpt lat="44.04437466194646" lon="10.764754524683543"><ele>567.0</ele><time>2026-04-04T08:34:37.991Z</time></trkpt><trkpt lat="44.04450227584562" lon="10.764789567035429"><ele>567.0</ele><time>2026-04-04T08:34:38.991Z</time></trkpt><trkpt lat="44.04462810737069" lon="10.7648293092828"><ele>567.0</ele><time>2026-04-04T08:34:39.991Z</time></trkpt><trkpt lat="44.04476908193974" lon="10.764872777188199"><ele>567.0</ele><time>2026-04-04T08:34:40.991Z</time></trkpt><trkpt lat="44.04491163747569" lon="10.764967184502664"><ele>567.0</ele><time>2026-04-04T08:34:41.991Z</time></trkpt><trkpt lat="44.0450374187531" lon="10.76508763972571"><ele>567.75</ele><time>2026-04-04T08:34:42.991Z</time></trkpt><trkpt lat="44.04514604124871" lon="10.765214531919959"><ele>568.5</ele><time>2026-04-04T08:34:43.991Z</time></trkpt><trkpt lat="44.04527550023718" lon="10.76526352250565"><ele>569.25</ele><time>2026-04-04T08:34:44.991Z</time></trkpt><trkpt lat="44.04539108805895" lon="10.765294260766339"><ele>570.0</ele><time>2026-04-04T08:34:45.991Z</time></trkpt><trkpt lat="44.04551830346842" lon="10.765273110285454"><ele>570.0</ele><time>2026-04-04T08:34:46.991Z</time></trkpt><trkpt lat="44.04565878199207" lon="10.765264560099224"><ele>570.0</ele><time>2026-04-04T08:34:47.991Z</time></trkpt><trkpt lat="44.045766040059405" lon="10.76520496038854"><ele>570.0</ele><time>2026-04-04T08:34:48.991Z</time></trkpt><trkpt lat="44.04585094248801" lon="10.76514893734787"><ele>570.0</ele><time>2026-04-04T08:34:49.991Z</time></trkpt><trkpt lat="44.04594282338551" lon="10.765144125143326"><ele>570.0</ele><time>2026-04-04T08:34:50.991Z</time></trkpt><trkpt lat="44.04604464070392" lon="10.765201022519303"><ele>566.75</ele><time>2026-04-04T08:34:51.991Z</time></trkpt><trkpt lat="44.04614016158344" lon="10.765323520038413"><ele>563.5</ele><time>2026-04-04T08:34:52.991Z</time></trkpt><trkpt lat="44.04622614084474" lon="10.765480679620234"><ele>560.25</ele><time>2026-04-04T08:34:53.991Z</time></trkpt><trkpt lat="44.04629686408625" lon="10.765654675824914"><ele>557.0</ele><time>2026-04-04T08:34:54.991Z</time></trkpt><trkpt lat="44.04635020357794" lon="10.765847802345235"><ele>559.25</ele><time>2026-04-04T08:34:55.991Z</time></trkpt><trkpt lat="44.0464074817298" lon="10.766037326866382"><ele>561.5</ele><time>2026-04-04T08:34:56.991Z</time></trkpt><trkpt lat="44.0464851501582" lon="10.766202551462941"><ele>563.75</ele><time>2026-04-04T08:34:57.991Z</time></trkpt><trkpt lat="44.04658127312276" lon="10.766352017092384"><ele>566.0</ele><time>2026-04-04T08:34:58.991Z</time></trkpt><trkpt lat="44.046691738409" lon="10.766522555804679"><ele>565.0</ele><time>2026-04-04T08:34:59.991Z</time></trkpt><trkpt lat="44.04679923607497" lon="10.766691432573229"><ele>564.0</ele><time>2026-04-04T08:35:00.991Z</time></trkpt><trkpt lat="44.046921210004456" lon="10.766824429318005"><ele>563.0</ele><time>2026-04-04T08:35:01.991Z</time></trkpt><trkpt lat="44.047041254011326" lon="10.766938500881484"><ele>563.0</ele><time>2026-04-04T08:35:02.991Z</time></trkpt><trkpt lat="44.047165934605275" lon="10.767086288055902"><ele>563.0</ele><time>2026-04-04T08:35:03.991Z</time></trkpt><trkpt lat="44.04727172359776" lon="10.767254856580303"><ele>563.0</ele><time>2026-04-04T08:35:04.991Z</time></trkpt><trkpt lat="44.0473822691679" lon="10.767394802834815"><ele>562.6666666666666</ele><time>2026-04-04T08:35:05.991Z</time></trkpt><trkpt lat="44.047498392526236" lon="10.76751385043797"><ele>562.3333333333334</ele><time>2026-04-04T08:35:06.991Z</time></trkpt><trkpt lat="44.047628810030716" lon="10.767628099500678"><ele>562.0</ele><time>2026-04-04T08:35:07.991Z</time></trkpt><trkpt lat="44.047768178692024" lon="10.767723432007443"><ele>562.0</ele><time>2026-04-04T08:35:08.991Z</time></trkpt><trkpt lat="44.047906138956144" lon="10.76781972087648"><ele>562.0</ele><time>2026-04-04T08:35:09.991Z</time></trkpt><trkpt lat="44.048046144048726" lon="10.767885811715297"><ele>562.0</ele><time>2026-04-04T08:35:10.991Z</time></trkpt><trkpt lat="44.04820307442906" lon="10.767916008942862"><ele>553.0</ele><time>2026-04-04T08:35:11.991Z</time></trkpt><trkpt lat="44.04836190510197" lon="10.767929141942377"><ele>544.0</ele><time>2026-04-04T08:35:12.991Z</time></trkpt><trkpt lat="44.04854118406597" lon="10.76795082513497"><ele>535.0</ele><time>2026-04-04T08:35:13.991Z</time></trkpt><trkpt lat="44.04871189423243" lon="10.767972028998493"><ele>535.0</ele><time>2026-04-04T08:35:14.991Z</time></trkpt><trkpt lat="44.04886689136953" lon="10.767984481864445"><ele>535.0</ele><time>2026-04-04T08:35:15.991Z</time></trkpt><trkpt lat="44.04902686409662" lon="10.767985183900459"><ele>535.0</ele><time>2026-04-04T08:35:16.991Z</time></trkpt><trkpt lat="44.04918272455494" lon="10.767947213820465"><ele>529.3333333333334</ele><time>2026-04-04T08:35:17.991Z</time></trkpt><trkpt lat="44.049340609733285" lon="10.767895108302316"><ele>523.6666666666666</ele><time>2026-04-04T08:35:18.991Z</time></trkpt><trkpt lat="44.04949983941796" lon="10.767852323646744"><ele>518.0</ele><time>2026-04-04T08:35:19.991Z</time></trkpt><trkpt lat="44.049653839187" lon="10.767853911741609"><ele>518.0</ele><time>2026-04-04T08:35:20.991Z</time></trkpt><trkpt lat="44.04979286417586" lon="10.767862904269338"><ele>518.0</ele><time>2026-04-04T08:35:21.991Z</time></trkpt><trkpt lat="44.04992457574886" lon="10.76788772981045"><ele>518.0</ele><time>2026-04-04T08:35:22.991Z</time></trkpt><trkpt lat="44.050049293772865" lon="10.767947618010172"><ele>518.0</ele><time>2026-04-04T08:35:23.991Z</time></trkpt><trkpt lat="44.05019079397116" lon="10.768036899383224"><ele>516.5</ele><time>2026-04-04T08:35:24.991Z</time></trkpt><trkpt lat="44.050309776237924" lon="10.76817218934987"><ele>515.0</ele><time>2026-04-04T08:35:25.991Z</time></trkpt><trkpt lat="44.05042716270658" lon="10.768301022789554"><ele>513.5</ele><time>2026-04-04T08:35:26.991Z</time></trkpt><trkpt lat="44.050536837198784" lon="10.768409976250611"><ele>512.0</ele><time>2026-04-04T08:35:27.991Z</time></trkpt><trkpt lat="44.05063261284201" lon="10.76850734438595"><ele>513.0</ele><time>2026-04-04T08:35:28.991Z</time></trkpt><trkpt lat="44.050711992399975" lon="10.76859673899157"><ele>514.0</ele><time>2026-04-04T08:35:29.991Z</time></trkpt><trkpt lat="44.050784155149934" lon="10.76867629619456"><ele>515.0</ele><time>2026-04-04T08:35:30.991Z</time></trkpt><trkpt lat="44.050828103364324" lon="10.76876863141725"><ele>516.0</ele><time>2026-04-04T08:35:31.991Z</time></trkpt><trkpt lat="44.05082705096904" lon="10.768892424998333"><ele>517.0</ele><time>2026-04-04T08:35:32.991Z</time></trkpt><trkpt lat="44.0507922208229" lon="10.769028776060766"><ele>517.0</ele><time>2026-04-04T08:35:33.991Z</time></trkpt><trkpt lat="44.05073600562472" lon="10.769173678034305"><ele>517.0</ele><time>2026-04-04T08:35:34.991Z</time></trkpt><trkpt lat="44.0506977460504" lon="10.769323321395436"><ele>517.0</ele><time>2026-04-04T08:35:35.991Z</time></trkpt><trkpt lat="44.05068267045776" lon="10.769472296149234"><ele>517.0</ele><time>2026-04-04T08:35:36.991Z</time></trkpt><trkpt lat="44.05071105938006" lon="10.769645126646152"><ele>516.0</ele><time>2026-04-04T08:35:37.991Z</time></trkpt><trkpt lat="44.050758048086806" lon="10.76983273650513"><ele>515.0</ele><time>2026-04-04T08:35:38.991Z</time></trkpt><trkpt lat="44.05079632618189" lon="10.770013895217092"><ele>514.0</ele><time>2026-04-04T08:35:39.991Z</time></trkpt><trkpt lat="44.050847823298014" lon="10.770182675834308"><ele>513.0</ele><time>2026-04-04T08:35:40.991Z</time></trkpt><trkpt lat="44.05093742211316" lon="10.770339084644752"><ele>510.25</ele><time>2026-04-04T08:35:41.991Z</time></trkpt><trkpt lat="44.05104251712595" lon="10.770481177223902"><ele>507.5</ele><time>2026-04-04T08:35:42.991Z</time></trkpt><trkpt lat="44.05115407344459" lon="10.770604922679405"><ele>504.75</ele><time>2026-04-04T08:35:43.991Z</time></trkpt><trkpt lat="44.051255054663535" lon="10.770713282982904"><ele>502.0</ele><time>2026-04-04T08:35:44.991Z</time></trkpt><trkpt lat="44.05135172801684" lon="10.770806740456973"><ele>502.0</ele><time>2026-04-04T08:35:45.991Z</time></trkpt><trkpt lat="44.05143856179071" lon="10.770909248950511"><ele>502.00000000000006</ele><time>2026-04-04T08:35:46.991Z</time></trkpt><trkpt lat="44.05147358960203" lon="10.77102867674426"><ele>502.00000000000006</ele><time>2026-04-04T08:35:47.991Z</time></trkpt><trkpt lat="44.05146114440963" lon="10.771182260331534"><ele>502.0</ele><time>2026-04-04T08:35:48.991Z</time></trkpt><trkpt lat="44.05143654839667" lon="10.771323001265092"><ele>502.0</ele><time>2026-04-04T08:35:49.991Z</time></trkpt><trkpt lat="44.05137612517623" lon="10.771456315008031"><ele>503.25</ele><time>2026-04-04T08:35:50.991Z</time></trkpt><trkpt lat="44.05129882296361" lon="10.771590989425789"><ele>504.5</ele><time>2026-04-04T08:35:51.991Z</time></trkpt><trkpt lat="44.05121908430276" lon="10.771749972186837"><ele>505.75</ele><time>2026-04-04T08:35:52.991Z</time></trkpt><trkpt lat="44.05115112045909" lon="10.771916354792234"><ele>507.0</ele><time>2026-04-04T08:35:53.991Z</time></trkpt><trkpt lat="44.05109999034516" lon="10.772121819206077"><ele>507.0</ele><time>2026-04-04T08:35:54.991Z</time></trkpt><trkpt lat="44.051055440749685" lon="10.772340750479522"><ele>507.0</ele><time>2026-04-04T08:35:55.991Z</time></trkpt><trkpt lat="44.051011961620034" lon="10.772535721883076"><ele>507.0</ele><time>2026-04-04T08:35:56.991Z</time></trkpt><trkpt lat="44.050969689991696" lon="10.772698491305317"><ele>507.0</ele><time>2026-04-04T08:35:57.991Z</time></trkpt><trkpt lat="44.05094315994619" lon="10.77284153435157"><ele>503.0</ele><time>2026-04-04T08:35:58.991Z</time></trkpt><trkpt lat="44.05091908678095" lon="10.772937648221236"><ele>499.00000000000006</ele><time>2026-04-04T08:35:59.991Z</time></trkpt><trkpt lat="44.05092449435793" lon="10.773093986744524"><ele>495.00000000000006</ele><time>2026-04-04T08:36:01.991Z</time></trkpt><trkpt lat="44.05097241749845" lon="10.773181061167865"><ele>491.0</ele><time>2026-04-04T08:36:02.991Z</time></trkpt><trkpt lat="44.051043271605906" lon="10.773244734476416"><ele>487.0</ele><time>2026-04-04T08:36:03.991Z</time></trkpt><trkpt lat="44.051131852882904" lon="10.77333532790141"><ele>487.00000000000006</ele><time>2026-04-04T08:36:04.991Z</time></trkpt><trkpt lat="44.051220874357135" lon="10.77343127685969"><ele>487.0</ele><time>2026-04-04T08:36:05.991Z</time></trkpt><trkpt lat="44.051300598051114" lon="10.773517263526076"><ele>487.0</ele><time>2026-04-04T08:36:06.991Z</time></trkpt><trkpt lat="44.05136407693991" lon="10.773573249985228"><ele>487.0</ele><time>2026-04-04T08:36:07.991Z</time></trkpt><trkpt lat="44.051429661645" lon="10.773603283664261"><ele>487.00000000000006</ele><time>2026-04-04T08:36:08.991Z</time></trkpt><trkpt lat="44.05149801254952" lon="10.773521321246763"><ele>487.0</ele><time>2026-04-04T08:36:09.991Z</time></trkpt><trkpt lat="44.05156976949248" lon="10.77341387999392"><ele>486.25</ele><time>2026-04-04T08:36:10.991Z</time></trkpt><trkpt lat="44.05163487859566" lon="10.773268123294997"><ele>485.5</ele><time>2026-04-04T08:36:11.991Z</time></trkpt><trkpt lat="44.05170829679081" lon="10.773123463870643"><ele>484.75</ele><time>2026-04-04T08:36:12.991Z</time></trkpt><trkpt lat="44.051774627589865" lon="10.772980900244637"><ele>484.0</ele><time>2026-04-04T08:36:13.991Z</time></trkpt><trkpt lat="44.05184593801292" lon="10.772879198187695"><ele>484.0</ele><time>2026-04-04T08:36:14.99Z</time></trkpt><trkpt lat="44.05191205498484" lon="10.772803511238187"><ele>484.0</ele><time>2026-04-04T08:36:15.99Z</time></trkpt><trkpt lat="44.05201612841424" lon="10.772772734828353"><ele>484.0</ele><time>2026-04-04T08:36:16.99Z</time></trkpt><trkpt lat="44.05211645176097" lon="10.772737290997787"><ele>484.0</ele><time>2026-04-04T08:36:17.99Z</time></trkpt><trkpt lat="44.05223991834972" lon="10.772705748222617"><ele>484.0</ele><time>2026-04-04T08:36:18.99Z</time></trkpt><trkpt lat="44.05235877529927" lon="10.772634212649937"><ele>483.0</ele><time>2026-04-04T08:36:19.99Z</time></trkpt><trkpt lat="44.05248197002979" lon="10.772556108246759"><ele>482.0</ele><time>2026-04-04T08:36:20.99Z</time></trkpt><trkpt lat="44.05261417222641" lon="10.772487076565282"><ele>481.0</ele><time>2026-04-04T08:36:21.991Z</time></trkpt><trkpt lat="44.05273806139356" lon="10.772401852953116"><ele>480.0</ele><time>2026-04-04T08:36:22.991Z</time></trkpt><trkpt lat="44.05288039766449" lon="10.772308004052816"><ele>480.0</ele><time>2026-04-04T08:36:23.991Z</time></trkpt><trkpt lat="44.0529919989968" lon="10.772146378514485"><ele>480.0</ele><time>2026-04-04T08:36:24.99Z</time></trkpt><trkpt lat="44.05308197983739" lon="10.77200455495405"><ele>480.0</ele><time>2026-04-04T08:36:25.99Z</time></trkpt><trkpt lat="44.05315909535919" lon="10.77187968386074"><ele>480.0</ele><time>2026-04-04T08:36:26.99Z</time></trkpt><trkpt lat="44.053255949163415" lon="10.771833275748971"><ele>487.5</ele><time>2026-04-04T08:36:27.991Z</time></trkpt><trkpt lat="44.05336882994828" lon="10.771857273039082"><ele>495.0</ele><time>2026-04-04T08:36:28.991Z</time></trkpt><trkpt lat="44.0534861615326" lon="10.771868805061503"><ele>502.5</ele><time>2026-04-04T08:36:29.991Z</time></trkpt><trkpt lat="44.053600806020945" lon="10.771856887160459"><ele>510.0</ele><time>2026-04-04T08:36:30.991Z</time></trkpt><trkpt lat="44.05373587953513" lon="10.77187907774587"><ele>510.0</ele><time>2026-04-04T08:36:31.991Z</time></trkpt><trkpt lat="44.0538668679416" lon="10.771885232179512"><ele>510.0</ele><time>2026-04-04T08:36:32.991Z</time></trkpt><trkpt lat="44.05401078048322" lon="10.771892027444888"><ele>510.0</ele><time>2026-04-04T08:36:33.991Z</time></trkpt><trkpt lat="44.05415141109964" lon="10.771875340210473"><ele>510.0</ele><time>2026-04-04T08:36:34.991Z</time></trkpt><trkpt lat="44.05426425014204" lon="10.771894227669385"><ele>511.2</ele><time>2026-04-04T08:36:35.991Z</time></trkpt><trkpt lat="44.05434332861318" lon="10.771915753038098"><ele>512.4</ele><time>2026-04-04T08:36:36.991Z</time></trkpt><trkpt lat="44.0544668140219" lon="10.772006672185189"><ele>513.6</ele><time>2026-04-04T08:36:38.991Z</time></trkpt><trkpt lat="44.05454472338281" lon="10.77209923830285"><ele>514.8</ele><time>2026-04-04T08:36:39.991Z</time></trkpt><trkpt lat="44.05462508470117" lon="10.772195723046483"><ele>516.0</ele><time>2026-04-04T08:36:40.991Z</time></trkpt><trkpt lat="44.05471768664433" lon="10.772265309642355"><ele>516.0</ele><time>2026-04-04T08:36:41.991Z</time></trkpt><trkpt lat="44.05483123853568" lon="10.772297335562056"><ele>516.0</ele><time>2026-04-04T08:36:42.991Z</time></trkpt><trkpt lat="44.05495666316" lon="10.772255735380863"><ele>516.0</ele><time>2026-04-04T08:36:43.991Z</time></trkpt><trkpt lat="44.05508454263337" lon="10.77219741705959"><ele>516.0</ele><time>2026-04-04T08:36:44.991Z</time></trkpt><trkpt lat="44.055223893717326" lon="10.772151547040364"><ele>515.0</ele><time>2026-04-04T08:36:45.991Z</time></trkpt><trkpt lat="44.055373636535016" lon="10.772100802138972"><ele>514.0</ele><time>2026-04-04T08:36:46.991Z</time></trkpt><trkpt lat="44.055535120222004" lon="10.772052878869156"><ele>513.0</ele><time>2026-04-04T08:36:47.991Z</time></trkpt><trkpt lat="44.0556880724846" lon="10.771994793271192"><ele>515.3333333333334</ele><time>2026-04-04T08:36:48.991Z</time></trkpt><trkpt lat="44.0558521667796" lon="10.771923030944903"><ele>517.6666666666667</ele><time>2026-04-04T08:36:49.991Z</time></trkpt><trkpt lat="44.05601860456122" lon="10.77185223682735"><ele>520.0</ele><time>2026-04-04T08:36:50.991Z</time></trkpt><trkpt lat="44.056194168079585" lon="10.771767821333194"><ele>518.6666666666667</ele><time>2026-04-04T08:36:51.991Z</time></trkpt><trkpt lat="44.0563700142731" lon="10.771704306077277"><ele>517.3333333333334</ele><time>2026-04-04T08:36:52.991Z</time></trkpt><trkpt lat="44.05653179611092" lon="10.77165403443023"><ele>516.0</ele><time>2026-04-04T08:36:53.991Z</time></trkpt><trkpt lat="44.05667119368617" lon="10.771604349165212"><ele>516.0</ele><time>2026-04-04T08:36:54.991Z</time></trkpt><trkpt lat="44.05679594551697" lon="10.771556848391805"><ele>516.0</ele><time>2026-04-04T08:36:55.991Z</time></trkpt><trkpt lat="44.056904180021775" lon="10.77152437075863"><ele>516.0</ele><time>2026-04-04T08:36:56.991Z</time></trkpt><trkpt lat="44.05699810342347" lon="10.771504652933777"><ele>516.0</ele><time>2026-04-04T08:36:57.991Z</time></trkpt><trkpt lat="44.05709484375714" lon="10.771475363176869"><ele>516.0</ele><time>2026-04-04T08:36:58.991Z</time></trkpt><trkpt lat="44.0571851250743" lon="10.771441841987716"><ele>516.0</ele><time>2026-04-04T08:36:59.991Z</time></trkpt><trkpt lat="44.05726478235784" lon="10.771409949269847"><ele>516.0</ele><time>2026-04-04T08:37:00.991Z</time></trkpt><trkpt lat="44.057345506575274" lon="10.771370929914163"><ele>516.0</ele><time>2026-04-04T08:37:01.991Z</time></trkpt><trkpt lat="44.057409026371516" lon="10.771345044364619"><ele>516.0</ele><time>2026-04-04T08:37:02.991Z</time></trkpt><trkpt lat="44.05749626614827" lon="10.771371094730531"><ele>516.0</ele><time>2026-04-04T08:37:04.991Z</time></trkpt><trkpt lat="44.05752534157705" lon="10.771471730999702"><ele>516.0</ele><time>2026-04-04T08:37:06.991Z</time></trkpt><trkpt lat="44.05744124726176" lon="10.771587119873216"><ele>516.0</ele><time>2026-04-04T08:37:08.991Z</time></trkpt><trkpt lat="44.05736782476208" lon="10.771693102372913"><ele>516.0</ele><time>2026-04-04T08:37:09.991Z</time></trkpt><trkpt lat="44.05729383291259" lon="10.771802320293018"><ele>516.0</ele><time>2026-04-04T08:37:10.991Z</time></trkpt><trkpt lat="44.05721613681361" lon="10.77193948542306"><ele>516.0</ele><time>2026-04-04T08:37:11.991Z</time></trkpt><trkpt lat="44.057137261004996" lon="10.772089804980412"><ele>519.0</ele><time>2026-04-04T08:37:12.991Z</time></trkpt><trkpt lat="44.05705702279522" lon="10.772269970596431"><ele>522.0</ele><time>2026-04-04T08:37:13.991Z</time></trkpt><trkpt lat="44.0569901166271" lon="10.772445935480231"><ele>525.0</ele><time>2026-04-04T08:37:14.991Z</time></trkpt><trkpt lat="44.05692879391056" lon="10.772632707564325"><ele>528.0</ele><time>2026-04-04T08:37:15.991Z</time></trkpt><trkpt lat="44.05685892642859" lon="10.772800505833224"><ele>530.75</ele><time>2026-04-04T08:37:16.991Z</time></trkpt><trkpt lat="44.05677447671778" lon="10.772924158189857"><ele>533.5</ele><time>2026-04-04T08:37:17.991Z</time></trkpt><trkpt lat="44.05666723131587" lon="10.773024667398566"><ele>536.25</ele><time>2026-04-04T08:37:18.991Z</time></trkpt><trkpt lat="44.056538865111676" lon="10.773072388079731"><ele>539.0</ele><time>2026-04-04T08:37:19.991Z</time></trkpt><trkpt lat="44.05640173637389" lon="10.773095059236589"><ele>539.0</ele><time>2026-04-04T08:37:20.991Z</time></trkpt><trkpt lat="44.056292037215066" lon="10.773137644215636"><ele>539.0</ele><time>2026-04-04T08:37:21.991Z</time></trkpt><trkpt lat="44.056216284810425" lon="10.773217061704488"><ele>539.0</ele><time>2026-04-04T08:37:22.991Z</time></trkpt><trkpt lat="44.056164315401766" lon="10.773313363207102"><ele>539.0</ele><time>2026-04-04T08:37:23.991Z</time></trkpt><trkpt lat="44.056161546193636" lon="10.77344882567622"><ele>539.0</ele><time>2026-04-04T08:37:24.991Z</time></trkpt><trkpt lat="44.05620180358615" lon="10.773597833219375"><ele>542.5</ele><time>2026-04-04T08:37:25.991Z</time></trkpt><trkpt lat="44.056250978182575" lon="10.7737536521739"><ele>546.0</ele><time>2026-04-04T08:37:26.991Z</time></trkpt><trkpt lat="44.056315291188675" lon="10.773892173978409"><ele>549.5</ele><time>2026-04-04T08:37:27.991Z</time></trkpt><trkpt lat="44.056397467424965" lon="10.774035270511925"><ele>553.0</ele><time>2026-04-04T08:37:28.991Z</time></trkpt><trkpt lat="44.05648797261809" lon="10.774171792544296"><ele>553.0</ele><time>2026-04-04T08:37:29.991Z</time></trkpt><trkpt lat="44.05658458315768" lon="10.774280946213901"><ele>553.0</ele><time>2026-04-04T08:37:30.991Z</time></trkpt><trkpt lat="44.056689631571636" lon="10.77436765612846"><ele>553.0</ele><time>2026-04-04T08:37:31.991Z</time></trkpt><trkpt lat="44.056791823323266" lon="10.774406373592763"><ele>553.0</ele><time>2026-04-04T08:37:32.991Z</time></trkpt><trkpt lat="44.05690770518338" lon="10.774389652032772"><ele>552.75</ele><time>2026-04-04T08:37:33.991Z</time></trkpt><trkpt lat="44.05703929131791" lon="10.774290799499314"><ele>552.5</ele><time>2026-04-04T08:37:34.991Z</time></trkpt><trkpt lat="44.05714862885904" lon="10.774154068658806"><ele>552.25</ele><time>2026-04-04T08:37:35.991Z</time></trkpt><trkpt lat="44.057252785647044" lon="10.774043124512707"><ele>552.0</ele><time>2026-04-04T08:37:36.991Z</time></trkpt><trkpt lat="44.05736697313281" lon="10.774003741946904"><ele>553.75</ele><time>2026-04-04T08:37:37.991Z</time></trkpt><trkpt lat="44.05747467465703" lon="10.774042158717391"><ele>555.5</ele><time>2026-04-04T08:37:38.991Z</time></trkpt><trkpt lat="44.057572393707254" lon="10.774145539976006"><ele>557.25</ele><time>2026-04-04T08:37:39.991Z</time></trkpt><trkpt lat="44.057634078300225" lon="10.774299388035042"><ele>559.0</ele><time>2026-04-04T08:37:40.991Z</time></trkpt><trkpt lat="44.057667921364214" lon="10.774473579219018"><ele>560.25</ele><time>2026-04-04T08:37:41.991Z</time></trkpt><trkpt lat="44.05768139062999" lon="10.774637895869693"><ele>561.5</ele><time>2026-04-04T08:37:42.991Z</time></trkpt><trkpt lat="44.05770030374209" lon="10.774800447889826"><ele>562.75</ele><time>2026-04-04T08:37:43.991Z</time></trkpt><trkpt lat="44.0577320284422" lon="10.774978986586369"><ele>564.0</ele><time>2026-04-04T08:37:44.991Z</time></trkpt><trkpt lat="44.05774971217829" lon="10.77516909862431"><ele>570.5</ele><time>2026-04-04T08:37:45.991Z</time></trkpt><trkpt lat="44.05773951433727" lon="10.775342627970797"><ele>577.0</ele><time>2026-04-04T08:37:46.991Z</time></trkpt><trkpt lat="44.05768561906285" lon="10.775492536353308"><ele>583.5</ele><time>2026-04-04T08:37:47.991Z</time></trkpt><trkpt lat="44.05759004148105" lon="10.775607559236386"><ele>590.0</ele><time>2026-04-04T08:37:48.991Z</time></trkpt><trkpt lat="44.05743014494472" lon="10.775640565567564"><ele>591.3333333333333</ele><time>2026-04-04T08:37:49.991Z</time></trkpt><trkpt lat="44.05728428591947" lon="10.775649781329863"><ele>592.6666666666666</ele><time>2026-04-04T08:37:50.991Z</time></trkpt><trkpt lat="44.05712411354787" lon="10.775628518187075"><ele>594.0</ele><time>2026-04-04T08:37:51.991Z</time></trkpt><trkpt lat="44.056977255312404" lon="10.775604535355706"><ele>594.0</ele><time>2026-04-04T08:37:52.991Z</time></trkpt><trkpt lat="44.05682294819621" lon="10.775561777073829"><ele>594.0</ele><time>2026-04-04T08:37:53.991Z</time></trkpt><trkpt lat="44.05665999482122" lon="10.775512511161443"><ele>594.0</ele><time>2026-04-04T08:37:54.991Z</time></trkpt><trkpt lat="44.056490931272116" lon="10.775482764939456"><ele>597.6666666666666</ele><time>2026-04-04T08:37:55.991Z</time></trkpt><trkpt lat="44.05631587643741" lon="10.775466623839238"><ele>601.3333333333333</ele><time>2026-04-04T08:37:56.991Z</time></trkpt><trkpt lat="44.056138522400424" lon="10.775479384558407"><ele>605.0</ele><time>2026-04-04T08:37:57.991Z</time></trkpt><trkpt lat="44.0559585907412" lon="10.775462474288195"><ele>605.0</ele><time>2026-04-04T08:37:58.991Z</time></trkpt><trkpt lat="44.05579875872595" lon="10.77542822466174"><ele>605.0</ele><time>2026-04-04T08:37:59.991Z</time></trkpt><trkpt lat="44.05562711190101" lon="10.775411428159082"><ele>605.0</ele><time>2026-04-04T08:38:00.991Z</time></trkpt><trkpt lat="44.05546145931944" lon="10.775363643521338"><ele>603.25</ele><time>2026-04-04T08:38:01.991Z</time></trkpt><trkpt lat="44.0552977638065" lon="10.775349381704888"><ele>601.5</ele><time>2026-04-04T08:38:02.991Z</time></trkpt><trkpt lat="44.05514984039798" lon="10.77531729583176"><ele>599.75</ele><time>2026-04-04T08:38:03.991Z</time></trkpt><trkpt lat="44.055027178752546" lon="10.77525089572948"><ele>598.0</ele><time>2026-04-04T08:38:04.991Z</time></trkpt><trkpt lat="44.05491603982311" lon="10.775212649974238"><ele>590.0</ele><time>2026-04-04T08:38:05.991Z</time></trkpt><trkpt lat="44.054807894417685" lon="10.77519913722297"><ele>582.0</ele><time>2026-04-04T08:38:06.991Z</time></trkpt><trkpt lat="44.05473137921239" lon="10.775204011132434"><ele>574.0</ele><time>2026-04-04T08:38:07.991Z</time></trkpt><trkpt lat="44.054676973064296" lon="10.775284517206359"><ele>566.0</ele><time>2026-04-04T08:38:08.991Z</time></trkpt><trkpt lat="44.05464313733547" lon="10.775414585666393"><ele>558.0</ele><time>2026-04-04T08:38:09.991Z</time></trkpt><trkpt lat="44.05461243997871" lon="10.77553745018257"><ele>558.0</ele><time>2026-04-04T08:38:10.991Z</time></trkpt><trkpt lat="44.05465378434719" lon="10.775699028469871"><ele>558.0</ele><time>2026-04-04T08:38:11.991Z</time></trkpt><trkpt lat="44.05468422993766" lon="10.775839188218137"><ele>558.0</ele><time>2026-04-04T08:38:12.991Z</time></trkpt><trkpt lat="44.05475349921844" lon="10.776003580419198"><ele>558.0</ele><time>2026-04-04T08:38:13.991Z</time></trkpt><trkpt lat="44.0548037572747" lon="10.776169938383505"><ele>550.6666666666666</ele><time>2026-04-04T08:38:14.991Z</time></trkpt><trkpt lat="44.05486770929306" lon="10.776355708376304"><ele>543.3333333333333</ele><time>2026-04-04T08:38:15.991Z</time></trkpt><trkpt lat="44.05494524252579" lon="10.776547755137944"><ele>536.0</ele><time>2026-04-04T08:38:16.991Z</time></trkpt><trkpt lat="44.05501879049506" lon="10.776750514751033"><ele>548.6666666666666</ele><time>2026-04-04T08:38:17.991Z</time></trkpt><trkpt lat="44.05511189247241" lon="10.776937186003158"><ele>561.3333333333334</ele><time>2026-04-04T08:38:18.991Z</time></trkpt><trkpt lat="44.05521311695948" lon="10.777102097969447"><ele>574.0</ele><time>2026-04-04T08:38:19.991Z</time></trkpt><trkpt lat="44.0553527100585" lon="10.777238566435734"><ele>574.0</ele><time>2026-04-04T08:38:20.99Z</time></trkpt><trkpt lat="44.055495877319316" lon="10.777405728201312"><ele>574.0</ele><time>2026-04-04T08:38:21.99Z</time></trkpt><trkpt lat="44.0556270070721" lon="10.777584292231953"><ele>574.0</ele><time>2026-04-04T08:38:22.991Z</time></trkpt><trkpt lat="44.055753078245644" lon="10.777747422554981"><ele>581.6666666666667</ele><time>2026-04-04T08:38:23.991Z</time></trkpt><trkpt lat="44.05588333028169" lon="10.777914940925822"><ele>589.3333333333334</ele><time>2026-04-04T08:38:24.991Z</time></trkpt><trkpt lat="44.056016371968006" lon="10.778094251696476"><ele>597.0</ele><time>2026-04-04T08:38:25.991Z</time></trkpt><trkpt lat="44.05613791251592" lon="10.778303111422384"><ele>590.6666666666666</ele><time>2026-04-04T08:38:26.99Z</time></trkpt><trkpt lat="44.05625157937078" lon="10.778534994185508"><ele>584.3333333333333</ele><time>2026-04-04T08:38:27.99Z</time></trkpt><trkpt lat="44.05635399838659" lon="10.778756511724854"><ele>578.0</ele><time>2026-04-04T08:38:28.99Z</time></trkpt><trkpt lat="44.05646527623353" lon="10.7789749094236"><ele>578.0</ele><time>2026-04-04T08:38:29.99Z</time></trkpt><trkpt lat="44.0565937462694" lon="10.77917357271381"><ele>578.0</ele><time>2026-04-04T08:38:30.99Z</time></trkpt><trkpt lat="44.05671466915584" lon="10.779360200379559"><ele>578.0</ele><time>2026-04-04T08:38:31.99Z</time></trkpt><trkpt lat="44.05686262804442" lon="10.779559742462226"><ele>586.3333333333333</ele><time>2026-04-04T08:38:32.99Z</time></trkpt><trkpt lat="44.05702067883731" lon="10.779730229546885"><ele>594.6666666666666</ele><time>2026-04-04T08:38:33.99Z</time></trkpt><trkpt lat="44.057176919776715" lon="10.779896778644149"><ele>603.0</ele><time>2026-04-04T08:38:34.99Z</time></trkpt><trkpt lat="44.05731405975057" lon="10.780044751434959"><ele>603.0</ele><time>2026-04-04T08:38:35.99Z</time></trkpt><trkpt lat="44.057425279073634" lon="10.780178291764672"><ele>603.0</ele><time>2026-04-04T08:38:36.99Z</time></trkpt><trkpt lat="44.05752683420636" lon="10.780287661288678"><ele>603.0</ele><time>2026-04-04T08:38:37.99Z</time></trkpt><trkpt lat="44.057604395553945" lon="10.780411817652814"><ele>603.0</ele><time>2026-04-04T08:38:38.99Z</time></trkpt><trkpt lat="44.05763787861659" lon="10.780536966242499"><ele>606.0</ele><time>2026-04-04T08:38:39.99Z</time></trkpt><trkpt lat="44.05763187505492" lon="10.780676775767361"><ele>609.0</ele><time>2026-04-04T08:38:40.99Z</time></trkpt><trkpt lat="44.05756819621604" lon="10.78081641795655"><ele>612.0</ele><time>2026-04-04T08:38:41.99Z</time></trkpt><trkpt lat="44.05749366103268" lon="10.780941980123085"><ele>615.0</ele><time>2026-04-04T08:38:42.99Z</time></trkpt><trkpt lat="44.05739871038619" lon="10.781077739447523"><ele>615.0</ele><time>2026-04-04T08:38:43.99Z</time></trkpt><trkpt lat="44.0572855104328" lon="10.781233085707825"><ele>615.0</ele><time>2026-04-04T08:38:44.99Z</time></trkpt><trkpt lat="44.05716423142344" lon="10.78141222133641"><ele>615.0</ele><time>2026-04-04T08:38:45.99Z</time></trkpt><trkpt lat="44.057042207322056" lon="10.78156486953903"><ele>615.0</ele><time>2026-04-04T08:38:46.99Z</time></trkpt><trkpt lat="44.056920678203355" lon="10.781703122427164"><ele>615.0</ele><time>2026-04-04T08:38:47.99Z</time></trkpt><trkpt lat="44.05679817556724" lon="10.781859345575272"><ele>615.0</ele><time>2026-04-04T08:38:48.99Z</time></trkpt><trkpt lat="44.05669231112499" lon="10.78200116712625"><ele>612.5</ele><time>2026-04-04T08:38:49.99Z</time></trkpt><trkpt lat="44.05660085646982" lon="10.782141321673006"><ele>610.0</ele><time>2026-04-04T08:38:50.99Z</time></trkpt><trkpt lat="44.05653485382527" lon="10.78232291087904"><ele>607.5</ele><time>2026-04-04T08:38:51.99Z</time></trkpt><trkpt lat="44.056488730656" lon="10.782511072705693"><ele>605.0</ele><time>2026-04-04T08:38:52.99Z</time></trkpt><trkpt lat="44.056463677215156" lon="10.782713866183991"><ele>605.0</ele><time>2026-04-04T08:38:53.99Z</time></trkpt><trkpt lat="44.05646155246787" lon="10.782926322012672"><ele>605.0</ele><time>2026-04-04T08:38:54.99Z</time></trkpt><trkpt lat="44.05651045402286" lon="10.783191145321052"><ele>605.0</ele><time>2026-04-04T08:38:55.99Z</time></trkpt><trkpt lat="44.05656935085201" lon="10.783437227944116"><ele>606.3333333333333</ele><time>2026-04-04T08:38:56.99Z</time></trkpt><trkpt lat="44.056617799316285" lon="10.783690398319093"><ele>607.6666666666666</ele><time>2026-04-04T08:38:57.99Z</time></trkpt><trkpt lat="44.05665827686722" lon="10.78390762005614"><ele>609.0</ele><time>2026-04-04T08:38:58.99Z</time></trkpt><trkpt lat="44.05667077654677" lon="10.784121846493658"><ele>610.25</ele><time>2026-04-04T08:38:59.99Z</time></trkpt><trkpt lat="44.05666567067774" lon="10.784306054758634"><ele>611.5</ele><time>2026-04-04T08:39:00.99Z</time></trkpt><trkpt lat="44.056627204233685" lon="10.784491719659895"><ele>612.75</ele><time>2026-04-04T08:39:01.99Z</time></trkpt><trkpt lat="44.056553833672965" lon="10.784683021894397"><ele>614.0</ele><time>2026-04-04T08:39:02.99Z</time></trkpt><trkpt lat="44.056437508848795" lon="10.784857139173539"><ele>614.0</ele><time>2026-04-04T08:39:03.99Z</time></trkpt><trkpt lat="44.05632614830838" lon="10.785032569578034"><ele>614.0</ele><time>2026-04-04T08:39:04.99Z</time></trkpt><trkpt lat="44.056217222740166" lon="10.785213086150785"><ele>614.0</ele><time>2026-04-04T08:39:05.99Z</time></trkpt><trkpt lat="44.056088305002504" lon="10.785374459622288"><ele>610.75</ele><time>2026-04-04T08:39:06.99Z</time></trkpt><trkpt lat="44.05594858914223" lon="10.785498482702602"><ele>607.5</ele><time>2026-04-04T08:39:07.99Z</time></trkpt><trkpt lat="44.05582278594073" lon="10.785589920858285"><ele>604.25</ele><time>2026-04-04T08:39:08.99Z</time></trkpt><trkpt lat="44.05571953735956" lon="10.785702743488255"><ele>601.0</ele><time>2026-04-04T08:39:09.99Z</time></trkpt><trkpt lat="44.05566508612611" lon="10.785853544261645"><ele>604.25</ele><time>2026-04-04T08:39:10.99Z</time></trkpt><trkpt lat="44.055624444313736" lon="10.78602705021555"><ele>607.5</ele><time>2026-04-04T08:39:11.99Z</time></trkpt><trkpt lat="44.05561407026711" lon="10.786215361345256"><ele>610.75</ele><time>2026-04-04T08:39:12.99Z</time></trkpt><trkpt lat="44.055636333347394" lon="10.786445713249151"><ele>614.0</ele><time>2026-04-04T08:39:13.99Z</time></trkpt><trkpt lat="44.05565406791951" lon="10.78670368627247"><ele>614.3333333333333</ele><time>2026-04-04T08:39:14.99Z</time></trkpt><trkpt lat="44.0556497654001" lon="10.786937644764762"><ele>614.6666666666666</ele><time>2026-04-04T08:39:15.99Z</time></trkpt><trkpt lat="44.055636063898675" lon="10.787168051996511"><ele>615.0</ele><time>2026-04-04T08:39:16.99Z</time></trkpt><trkpt lat="44.055631861654824" lon="10.78740273466569"><ele>615.0</ele><time>2026-04-04T08:39:17.99Z</time></trkpt><trkpt lat="44.05562369478124" lon="10.78761237935281"><ele>615.0</ele><time>2026-04-04T08:39:18.99Z</time></trkpt><trkpt lat="44.055614574575905" lon="10.78781408757465"><ele>615.0</ele><time>2026-04-04T08:39:19.99Z</time></trkpt><trkpt lat="44.055608184896805" lon="10.788001623186915"><ele>615.0</ele><time>2026-04-04T08:39:20.99Z</time></trkpt><trkpt lat="44.05559945009729" lon="10.788177945847654"><ele>614.75</ele><time>2026-04-04T08:39:21.99Z</time></trkpt><trkpt lat="44.05559159998259" lon="10.788353513966012"><ele>614.5</ele><time>2026-04-04T08:39:22.99Z</time></trkpt><trkpt lat="44.05558434409278" lon="10.788526749727618"><ele>614.25</ele><time>2026-04-04T08:39:23.99Z</time></trkpt><trkpt lat="44.05558234891139" lon="10.788700909347174"><ele>614.0</ele><time>2026-04-04T08:39:24.99Z</time></trkpt><trkpt lat="44.055577986135816" lon="10.788895400590501"><ele>614.0</ele><time>2026-04-04T08:39:25.99Z</time></trkpt><trkpt lat="44.05558331618129" lon="10.789055983179416"><ele>614.0</ele><time>2026-04-04T08:39:26.99Z</time></trkpt><trkpt lat="44.055580032944725" lon="10.78920494101247"><ele>614.0</ele><time>2026-04-04T08:39:27.99Z</time></trkpt><trkpt lat="44.055571770337856" lon="10.789351397798601"><ele>614.0</ele><time>2026-04-04T08:39:28.99Z</time></trkpt><trkpt lat="44.055562431950904" lon="10.78951663071801"><ele>614.0</ele><time>2026-04-04T08:39:29.99Z</time></trkpt><trkpt lat="44.055555467357806" lon="10.789683193518519"><ele>614.75</ele><time>2026-04-04T08:39:30.99Z</time></trkpt><trkpt lat="44.0555597994214" lon="10.789860682379702"><ele>615.5</ele><time>2026-04-04T08:39:31.99Z</time></trkpt><trkpt lat="44.05554326002878" lon="10.790032705003446"><ele>616.25</ele><time>2026-04-04T08:39:32.99Z</time></trkpt><trkpt lat="44.05552504917853" lon="10.790204452397635"><ele>617.0</ele><time>2026-04-04T08:39:33.99Z</time></trkpt><trkpt lat="44.05552615617473" lon="10.790363388906515"><ele>618.0</ele><time>2026-04-04T08:39:34.99Z</time></trkpt><trkpt lat="44.05551519101874" lon="10.790507096936008"><ele>619.0</ele><time>2026-04-04T08:39:35.99Z</time></trkpt><trkpt lat="44.0555040668656" lon="10.79064174945026"><ele>620.0</ele><time>2026-04-04T08:39:36.99Z</time></trkpt><trkpt lat="44.0554933746195" lon="10.790770107531117"><ele>621.0</ele><time>2026-04-04T08:39:37.99Z</time></trkpt><trkpt lat="44.05547279916441" lon="10.790873049970681"><ele>622.0</ele><time>2026-04-04T08:39:38.99Z</time></trkpt><trkpt lat="44.055461639991044" lon="10.790969555797158"><ele>623.0</ele><time>2026-04-04T08:39:39.99Z</time></trkpt><trkpt lat="44.055475176569686" lon="10.791067243537162"><ele>623.0</ele><time>2026-04-04T08:39:40.99Z</time></trkpt><trkpt lat="44.05551171488083" lon="10.791168258879988"><ele>623.0</ele><time>2026-04-04T08:39:41.99Z</time></trkpt><trkpt lat="44.055561600663616" lon="10.79126655671816"><ele>623.0</ele><time>2026-04-04T08:39:42.99Z</time></trkpt><trkpt lat="44.055635846707816" lon="10.791387149168207"><ele>623.0</ele><time>2026-04-04T08:39:43.99Z</time></trkpt><trkpt lat="44.05566811431652" lon="10.79154614781233"><ele>623.0</ele><time>2026-04-04T08:39:44.99Z</time></trkpt><trkpt lat="44.055693355447644" lon="10.791679873814056"><ele>623.0</ele><time>2026-04-04T08:39:45.99Z</time></trkpt><trkpt lat="44.05572143038653" lon="10.791825858393457"><ele>623.0</ele><time>2026-04-04T08:39:46.99Z</time></trkpt><trkpt lat="44.05575264047434" lon="10.791985068009145"><ele>623.0</ele><time>2026-04-04T08:39:47.99Z</time></trkpt><trkpt lat="44.05579392805702" lon="10.792160045071535"><ele>623.0</ele><time>2026-04-04T08:39:48.99Z</time></trkpt><trkpt lat="44.05584305597385" lon="10.792349881580236"><ele>622.0</ele><time>2026-04-04T08:39:49.99Z</time></trkpt><trkpt lat="44.05589440876415" lon="10.792551524028733"><ele>621.0</ele><time>2026-04-04T08:39:50.99Z</time></trkpt><trkpt lat="44.055943599007165" lon="10.792747219511396"><ele>620.0</ele><time>2026-04-04T08:39:51.99Z</time></trkpt><trkpt lat="44.05599202930578" lon="10.792942472776886"><ele>619.75</ele><time>2026-04-04T08:39:52.99Z</time></trkpt><trkpt lat="44.0560414467962" lon="10.793137093795984"><ele>619.5</ele><time>2026-04-04T08:39:53.99Z</time></trkpt><trkpt lat="44.05609182652234" lon="10.793326338370342"><ele>619.25</ele><time>2026-04-04T08:39:54.99Z</time></trkpt><trkpt lat="44.05613906117801" lon="10.793504432942392"><ele>619.0</ele><time>2026-04-04T08:39:55.99Z</time></trkpt><trkpt lat="44.05618378504701" lon="10.793669354753213"><ele>619.0</ele><time>2026-04-04T08:39:56.99Z</time></trkpt><trkpt lat="44.056231250591736" lon="10.793827645697636"><ele>619.0</ele><time>2026-04-04T08:39:57.99Z</time></trkpt><trkpt lat="44.056250727933765" lon="10.793987756347203"><ele>619.0</ele><time>2026-04-04T08:39:58.99Z</time></trkpt><trkpt lat="44.05625625667242" lon="10.794160864530106"><ele>619.0</ele><time>2026-04-04T08:39:59.99Z</time></trkpt><trkpt lat="44.0562249786428" lon="10.79434586135459"><ele>620.25</ele><time>2026-04-04T08:40:00.99Z</time></trkpt><trkpt lat="44.056195099246885" lon="10.794524493366849"><ele>621.5</ele><time>2026-04-04T08:40:01.99Z</time></trkpt><trkpt lat="44.05614003264041" lon="10.794691473083196"><ele>622.75</ele><time>2026-04-04T08:40:02.99Z</time></trkpt><trkpt lat="44.056083631774186" lon="10.794864698605457"><ele>624.0</ele><time>2026-04-04T08:40:03.99Z</time></trkpt><trkpt lat="44.05602667768986" lon="10.795064581602247"><ele>627.3333333333334</ele><time>2026-04-04T08:40:04.99Z</time></trkpt><trkpt lat="44.055952794523854" lon="10.795266214217724"><ele>630.6666666666667</ele><time>2026-04-04T08:40:05.99Z</time></trkpt><trkpt lat="44.05588758972737" lon="10.795445915584578"><ele>634.0</ele><time>2026-04-04T08:40:06.99Z</time></trkpt><trkpt lat="44.055826208307195" lon="10.795656792841653"><ele>633.6666666666667</ele><time>2026-04-04T08:40:07.99Z</time></trkpt><trkpt lat="44.055782595291824" lon="10.795903011930086"><ele>633.3333333333334</ele><time>2026-04-04T08:40:08.99Z</time></trkpt><trkpt lat="44.055808455341385" lon="10.796161504988183"><ele>633.0</ele><time>2026-04-04T08:40:09.99Z</time></trkpt><trkpt lat="44.05579187635131" lon="10.796412534027532"><ele>627.6666666666666</ele><time>2026-04-04T08:40:10.99Z</time></trkpt><trkpt lat="44.05577839158273" lon="10.796671754650584"><ele>622.3333333333333</ele><time>2026-04-04T08:40:11.99Z</time></trkpt><trkpt lat="44.05574634733672" lon="10.796926153728624"><ele>617.0</ele><time>2026-04-04T08:40:12.99Z</time></trkpt><trkpt lat="44.05566929088956" lon="10.797163877638924"><ele>617.0</ele><time>2026-04-04T08:40:13.99Z</time></trkpt><trkpt lat="44.055642430682255" lon="10.79741172112292"><ele>617.0</ele><time>2026-04-04T08:40:14.99Z</time></trkpt><trkpt lat="44.055619712789216" lon="10.797636562607726"><ele>617.0</ele><time>2026-04-04T08:40:15.99Z</time></trkpt><trkpt lat="44.05556426604588" lon="10.797859466858586"><ele>620.6666666666666</ele><time>2026-04-04T08:40:16.99Z</time></trkpt><trkpt lat="44.05547743849715" lon="10.798066547604776"><ele>624.3333333333334</ele><time>2026-04-04T08:40:17.99Z</time></trkpt><trkpt lat="44.05537344509138" lon="10.798286232105353"><ele>628.0</ele><time>2026-04-04T08:40:18.99Z</time></trkpt><trkpt lat="44.0552701086603" lon="10.798490103809154"><ele>627.0</ele><time>2026-04-04T08:40:19.99Z</time></trkpt><trkpt lat="44.0551656633395" lon="10.798688294182053"><ele>626.0</ele><time>2026-04-04T08:40:20.99Z</time></trkpt><trkpt lat="44.055050872982" lon="10.798884078868564"><ele>625.0</ele><time>2026-04-04T08:40:21.99Z</time></trkpt><trkpt lat="44.05492420314579" lon="10.799052169686666"><ele>625.0</ele><time>2026-04-04T08:40:22.99Z</time></trkpt><trkpt lat="44.054781472206315" lon="10.799205277689495"><ele>625.0</ele><time>2026-04-04T08:40:23.99Z</time></trkpt><trkpt lat="44.05463344737074" lon="10.799349764083109"><ele>625.0</ele><time>2026-04-04T08:40:24.99Z</time></trkpt><trkpt lat="44.054494416766246" lon="10.799489317028833"><ele>628.6666666666667</ele><time>2026-04-04T08:40:25.99Z</time></trkpt><trkpt lat="44.05439001758665" lon="10.79966290456229"><ele>632.3333333333334</ele><time>2026-04-04T08:40:26.99Z</time></trkpt><trkpt lat="44.054291865645624" lon="10.799832157073363"><ele>636.0</ele><time>2026-04-04T08:40:27.99Z</time></trkpt><trkpt lat="44.054211021305626" lon="10.80001810535571"><ele>637.6666666666666</ele><time>2026-04-04T08:40:28.99Z</time></trkpt><trkpt lat="44.05413848609754" lon="10.800211369633946"><ele>639.3333333333333</ele><time>2026-04-04T08:40:29.99Z</time></trkpt><trkpt lat="44.054042458535996" lon="10.800403078943127"><ele>641.0</ele><time>2026-04-04T08:40:30.99Z</time></trkpt><trkpt lat="44.05395738373288" lon="10.800601387202159"><ele>639.3333333333333</ele><time>2026-04-04T08:40:31.99Z</time></trkpt><trkpt lat="44.053877034469146" lon="10.800809708936177"><ele>637.6666666666666</ele><time>2026-04-04T08:40:32.99Z</time></trkpt><trkpt lat="44.05381469439545" lon="10.801013656108898"><ele>636.0</ele><time>2026-04-04T08:40:33.99Z</time></trkpt><trkpt lat="44.05374853842355" lon="10.801208912401725"><ele>636.0</ele><time>2026-04-04T08:40:34.99Z</time></trkpt><trkpt lat="44.05366172272075" lon="10.801390074183876"><ele>636.0</ele><time>2026-04-04T08:40:35.99Z</time></trkpt><trkpt lat="44.05356460707694" lon="10.801534435080411"><ele>636.0</ele><time>2026-04-04T08:40:36.99Z</time></trkpt><trkpt lat="44.05344291647091" lon="10.80165607751773"><ele>636.0</ele><time>2026-04-04T08:40:37.99Z</time></trkpt><trkpt lat="44.05331731549696" lon="10.801797413916209"><ele>636.0</ele><time>2026-04-04T08:40:38.99Z</time></trkpt><trkpt lat="44.053192920626394" lon="10.801943256791835"><ele>636.0</ele><time>2026-04-04T08:40:39.99Z</time></trkpt><trkpt lat="44.053090189948264" lon="10.802114699758727"><ele>636.0</ele><time>2026-04-04T08:40:40.99Z</time></trkpt><trkpt lat="44.05298689660963" lon="10.802279398470654"><ele>636.0</ele><time>2026-04-04T08:40:41.99Z</time></trkpt><trkpt lat="44.05289061143416" lon="10.80244585029924"><ele>636.0</ele><time>2026-04-04T08:40:42.99Z</time></trkpt><trkpt lat="44.052764780415394" lon="10.802571484023998"><ele>636.0</ele><time>2026-04-04T08:40:43.99Z</time></trkpt><trkpt lat="44.052636834634114" lon="10.80272816744982"><ele>637.6666666666666</ele><time>2026-04-04T08:40:44.99Z</time></trkpt><trkpt lat="44.052540370641005" lon="10.802921317751808"><ele>639.3333333333333</ele><time>2026-04-04T08:40:45.99Z</time></trkpt><trkpt lat="44.052463858879584" lon="10.803112812041375"><ele>641.0</ele><time>2026-04-04T08:40:46.99Z</time></trkpt><trkpt lat="44.052396287612694" lon="10.803291407987967"><ele>639.5</ele><time>2026-04-04T08:40:47.99Z</time></trkpt><trkpt lat="44.05233116528225" lon="10.80346353114849"><ele>638.0</ele><time>2026-04-04T08:40:48.99Z</time></trkpt><trkpt lat="44.05227379977176" lon="10.803620524630631"><ele>636.5</ele><time>2026-04-04T08:40:49.99Z</time></trkpt><trkpt lat="44.05222040124926" lon="10.803784369031831"><ele>635.0</ele><time>2026-04-04T08:40:50.99Z</time></trkpt><trkpt lat="44.05218884365568" lon="10.803961151606748"><ele>635.0</ele><time>2026-04-04T08:40:51.99Z</time></trkpt><trkpt lat="44.05215029548991" lon="10.804130151480347"><ele>635.0</ele><time>2026-04-04T08:40:52.99Z</time></trkpt><trkpt lat="44.05207911102133" lon="10.804283563192884"><ele>635.0</ele><time>2026-04-04T08:40:53.99Z</time></trkpt><trkpt lat="44.051991499376726" lon="10.804423356724046"><ele>635.0</ele><time>2026-04-04T08:40:54.99Z</time></trkpt><trkpt lat="44.0518914896925" lon="10.80454999785973"><ele>637.0</ele><time>2026-04-04T08:40:55.99Z</time></trkpt><trkpt lat="44.05181529026047" lon="10.804679648988165"><ele>639.0</ele><time>2026-04-04T08:40:56.99Z</time></trkpt><trkpt lat="44.05171934575342" lon="10.80476995005189"><ele>641.0</ele><time>2026-04-04T08:40:57.99Z</time></trkpt><trkpt lat="44.051618290018546" lon="10.804856767075318"><ele>643.0</ele><time>2026-04-04T08:40:58.99Z</time></trkpt><trkpt lat="44.051519482520845" lon="10.804958819797374"><ele>643.0</ele><time>2026-04-04T08:40:59.99Z</time></trkpt><trkpt lat="44.05142508845004" lon="10.805035923517071"><ele>643.0</ele><time>2026-04-04T08:41:00.99Z</time></trkpt><trkpt lat="44.05132972883816" lon="10.805086430343948"><ele>643.0</ele><time>2026-04-04T08:41:01.99Z</time></trkpt><trkpt lat="44.05121639975006" lon="10.80510362227274"><ele>643.0</ele><time>2026-04-04T08:41:02.99Z</time></trkpt><trkpt lat="44.05110541149278" lon="10.805069099271398"><ele>643.0</ele><time>2026-04-04T08:41:03.99Z</time></trkpt><trkpt lat="44.05098782401436" lon="10.80507180784986"><ele>643.0</ele><time>2026-04-04T08:41:04.99Z</time></trkpt><trkpt lat="44.05086246192569" lon="10.80508534989366"><ele>643.0</ele><time>2026-04-04T08:41:05.99Z</time></trkpt><trkpt lat="44.05072968958271" lon="10.805147635756708"><ele>643.0</ele><time>2026-04-04T08:41:06.99Z</time></trkpt><trkpt lat="44.05061134378831" lon="10.805262831442448"><ele>643.0</ele><time>2026-04-04T08:41:07.99Z</time></trkpt><trkpt lat="44.050510745456336" lon="10.805405619098723"><ele>642.0</ele><time>2026-04-04T08:41:08.99Z</time></trkpt><trkpt lat="44.05041887968817" lon="10.805571403237414"><ele>641.0</ele><time>2026-04-04T08:41:09.99Z</time></trkpt><trkpt lat="44.05034041467813" lon="10.805751656623087"><ele>640.0</ele><time>2026-04-04T08:41:10.99Z</time></trkpt><trkpt lat="44.050274183224694" lon="10.805925131647841"><ele>639.0</ele><time>2026-04-04T08:41:11.99Z</time></trkpt><trkpt lat="44.05021152373058" lon="10.806088246145428"><ele>641.25</ele><time>2026-04-04T08:41:12.99Z</time></trkpt><trkpt lat="44.050153788751715" lon="10.806254782276822"><ele>643.5</ele><time>2026-04-04T08:41:13.99Z</time></trkpt><trkpt lat="44.05009862779196" lon="10.806405081816088"><ele>645.75</ele><time>2026-04-04T08:41:14.99Z</time></trkpt><trkpt lat="44.05004163084386" lon="10.80654885707603"><ele>648.0</ele><time>2026-04-04T08:41:15.99Z</time></trkpt><trkpt lat="44.049967035877195" lon="10.80665827633384"><ele>646.25</ele><time>2026-04-04T08:41:16.99Z</time></trkpt><trkpt lat="44.049867501576315" lon="10.806747276711592"><ele>644.5</ele><time>2026-04-04T08:41:17.99Z</time></trkpt><trkpt lat="44.04975667221437" lon="10.806822020367015"><ele>642.75</ele><time>2026-04-04T08:41:18.99Z</time></trkpt><trkpt lat="44.04964572940749" lon="10.806894917662676"><ele>641.0</ele><time>2026-04-04T08:41:19.99Z</time></trkpt><trkpt lat="44.04952965064273" lon="10.806954303753452"><ele>641.0</ele><time>2026-04-04T08:41:20.99Z</time></trkpt><trkpt lat="44.049400395326224" lon="10.806985154399676"><ele>641.0</ele><time>2026-04-04T08:41:21.99Z</time></trkpt><trkpt lat="44.049278436025226" lon="10.806979538634794"><ele>641.0</ele><time>2026-04-04T08:41:22.99Z</time></trkpt><trkpt lat="44.04915154157844" lon="10.806976309607819"><ele>641.0</ele><time>2026-04-04T08:41:23.99Z</time></trkpt><trkpt lat="44.04902552566977" lon="10.806985426636473"><ele>640.1999999999999</ele><time>2026-04-04T08:41:24.99Z</time></trkpt><trkpt lat="44.048914800799906" lon="10.806988946545658"><ele>639.4</ele><time>2026-04-04T08:41:25.99Z</time></trkpt><trkpt lat="44.04881743458632" lon="10.807026462763643"><ele>638.6</ele><time>2026-04-04T08:41:26.99Z</time></trkpt><trkpt lat="44.048726270198074" lon="10.807088033227014"><ele>637.8</ele><time>2026-04-04T08:41:27.99Z</time></trkpt><trkpt lat="44.04866583468392" lon="10.80720906501823"><ele>637.0</ele><time>2026-04-04T08:41:28.99Z</time></trkpt><trkpt lat="44.04861000026188" lon="10.80733958565773"><ele>637.0</ele><time>2026-04-04T08:41:29.99Z</time></trkpt><trkpt lat="44.048555590393995" lon="10.807486848209617"><ele>637.0</ele><time>2026-04-04T08:41:30.99Z</time></trkpt><trkpt lat="44.04851730079719" lon="10.807646035883474"><ele>637.0</ele><time>2026-04-04T08:41:31.99Z</time></trkpt><trkpt lat="44.048450050949704" lon="10.807784765896079"><ele>637.0</ele><time>2026-04-04T08:41:32.99Z</time></trkpt><trkpt lat="44.048399457684354" lon="10.807930849722894"><ele>636.6</ele><time>2026-04-04T08:41:33.99Z</time></trkpt><trkpt lat="44.048352679418734" lon="10.80806591744357"><ele>636.2</ele><time>2026-04-04T08:41:34.99Z</time></trkpt><trkpt lat="44.04830922016105" lon="10.808190517859577"><ele>635.8</ele><time>2026-04-04T08:41:35.99Z</time></trkpt><trkpt lat="44.0482624078033" lon="10.808307477582977"><ele>635.4</ele><time>2026-04-04T08:41:36.99Z</time></trkpt><trkpt lat="44.04819291367969" lon="10.808395645934178"><ele>635.0</ele><time>2026-04-04T08:41:37.99Z</time></trkpt><trkpt lat="44.04809419116598" lon="10.80844752339772"><ele>633.25</ele><time>2026-04-04T08:41:38.99Z</time></trkpt><trkpt lat="44.04798747738335" lon="10.808416216550599"><ele>631.5</ele><time>2026-04-04T08:41:39.99Z</time></trkpt><trkpt lat="44.04786035330888" lon="10.808401301730637"><ele>629.75</ele><time>2026-04-04T08:41:40.99Z</time></trkpt><trkpt lat="44.047730994650834" lon="10.808388970939964"><ele>628.0</ele><time>2026-04-04T08:41:41.99Z</time></trkpt><trkpt lat="44.047584048687106" lon="10.808374726510069"><ele>629.75</ele><time>2026-04-04T08:41:42.99Z</time></trkpt><trkpt lat="44.047441394701714" lon="10.808360898128628"><ele>631.5</ele><time>2026-04-04T08:41:43.989Z</time></trkpt><trkpt lat="44.04730603239055" lon="10.808347363958124"><ele>633.25</ele><time>2026-04-04T08:41:44.989Z</time></trkpt><trkpt lat="44.04718652305735" lon="10.808334085387294"><ele>635.0</ele><time>2026-04-04T08:41:45.989Z</time></trkpt><trkpt lat="44.04707676318645" lon="10.808331799825678"><ele>635.0</ele><time>2026-04-04T08:41:46.989Z</time></trkpt><trkpt lat="44.04698178362353" lon="10.808341123387992"><ele>635.0</ele><time>2026-04-04T08:41:47.989Z</time></trkpt><trkpt lat="44.04688500202926" lon="10.808380429116877"><ele>635.0</ele><time>2026-04-04T08:41:48.989Z</time></trkpt><trkpt lat="44.04681985959592" lon="10.808508911860212"><ele>635.0</ele><time>2026-04-04T08:41:49.989Z</time></trkpt><trkpt lat="44.04677172397334" lon="10.808647852250882"><ele>635.0</ele><time>2026-04-04T08:41:50.989Z</time></trkpt><trkpt lat="44.04682238717403" lon="10.808826570212426"><ele>636.25</ele><time>2026-04-04T08:41:51.989Z</time></trkpt><trkpt lat="44.046864738547626" lon="10.808988410662717"><ele>637.5</ele><time>2026-04-04T08:41:52.989Z</time></trkpt><trkpt lat="44.04690572430423" lon="10.809148761681163"><ele>638.75</ele><time>2026-04-04T08:41:53.989Z</time></trkpt><trkpt lat="44.0469453584082" lon="10.809296165456198"><ele>640.0</ele><time>2026-04-04T08:41:54.989Z</time></trkpt><trkpt lat="44.046957421053946" lon="10.809439300387202"><ele>640.75</ele><time>2026-04-04T08:41:55.989Z</time></trkpt><trkpt lat="44.04690998415195" lon="10.809584280156527"><ele>641.5</ele><time>2026-04-04T08:41:56.989Z</time></trkpt><trkpt lat="44.04685956788444" lon="10.809724457042826"><ele>642.25</ele><time>2026-04-04T08:41:57.989Z</time></trkpt><trkpt lat="44.046815011836884" lon="10.809872033492411"><ele>643.0</ele><time>2026-04-04T08:41:58.989Z</time></trkpt><trkpt lat="44.04674585837555" lon="10.810000473108436"><ele>643.0</ele><time>2026-04-04T08:41:59.989Z</time></trkpt><trkpt lat="44.04665926952723" lon="10.810108216509846"><ele>643.0</ele><time>2026-04-04T08:42:00.989Z</time></trkpt><trkpt lat="44.0465622301125" lon="10.81019588503409"><ele>643.0</ele><time>2026-04-04T08:42:01.989Z</time></trkpt><trkpt lat="44.04643521571376" lon="10.81025330897747"><ele>643.0</ele><time>2026-04-04T08:42:02.989Z</time></trkpt><trkpt lat="44.04629811948174" lon="10.81033603508727"><ele>646.0</ele><time>2026-04-04T08:42:03.989Z</time></trkpt><trkpt lat="44.04614738926534" lon="10.810425688301617"><ele>649.0</ele><time>2026-04-04T08:42:04.989Z</time></trkpt><trkpt lat="44.04599135717069" lon="10.81053568265338"><ele>652.0</ele><time>2026-04-04T08:42:05.989Z</time></trkpt><trkpt lat="44.0458243254634" lon="10.810629713287035"><ele>656.3333333333334</ele><time>2026-04-04T08:42:06.989Z</time></trkpt><trkpt lat="44.045669562488705" lon="10.81073245626211"><ele>660.6666666666666</ele><time>2026-04-04T08:42:07.989Z</time></trkpt><trkpt lat="44.04554631484165" lon="10.810837639380283"><ele>665.0</ele><time>2026-04-04T08:42:08.989Z</time></trkpt><trkpt lat="44.04542042736528" lon="10.810946682836228"><ele>662.6666666666666</ele><time>2026-04-04T08:42:09.989Z</time></trkpt><trkpt lat="44.0452882658128" lon="10.81104459421606"><ele>660.3333333333334</ele><time>2026-04-04T08:42:10.989Z</time></trkpt><trkpt lat="44.04515529846607" lon="10.811154960975031"><ele>658.0</ele><time>2026-04-04T08:42:11.989Z</time></trkpt><trkpt lat="44.045039537510384" lon="10.811276343461268"><ele>663.3333333333334</ele><time>2026-04-04T08:42:12.989Z</time></trkpt><trkpt lat="44.044894619466746" lon="10.81137390436025"><ele>668.6666666666666</ele><time>2026-04-04T08:42:13.989Z</time></trkpt><trkpt lat="44.04475410799301" lon="10.811491989480682"><ele>674.0</ele><time>2026-04-04T08:42:14.989Z</time></trkpt><trkpt lat="44.04460949165006" lon="10.811597531931742"><ele>674.0</ele><time>2026-04-04T08:42:15.989Z</time></trkpt><trkpt lat="44.04449032149084" lon="10.811709968831263"><ele>674.0</ele><time>2026-04-04T08:42:16.989Z</time></trkpt><trkpt lat="44.04439888903195" lon="10.811850019352043"><ele>674.0</ele><time>2026-04-04T08:42:17.989Z</time></trkpt><trkpt lat="44.04432399035583" lon="10.812014024283384"><ele>674.0</ele><time>2026-04-04T08:42:18.989Z</time></trkpt><trkpt lat="44.04427522205513" lon="10.812193124265093"><ele>673.0</ele><time>2026-04-04T08:42:19.989Z</time></trkpt><trkpt lat="44.04424529589283" lon="10.8123697192504"><ele>672.0</ele><time>2026-04-04T08:42:20.989Z</time></trkpt><trkpt lat="44.04425922840456" lon="10.812538384583577"><ele>671.0</ele><time>2026-04-04T08:42:21.989Z</time></trkpt><trkpt lat="44.04431462323095" lon="10.81269963723569"><ele>670.0</ele><time>2026-04-04T08:42:22.989Z</time></trkpt><trkpt lat="44.04440870053303" lon="10.812854044483124"><ele>673.0</ele><time>2026-04-04T08:42:23.989Z</time></trkpt><trkpt lat="44.04452358595418" lon="10.812956970104352"><ele>676.0</ele><time>2026-04-04T08:42:24.989Z</time></trkpt><trkpt lat="44.04467028619585" lon="10.813044028850374"><ele>679.0</ele><time>2026-04-04T08:42:25.989Z</time></trkpt><trkpt lat="44.044830390359515" lon="10.813113573881562"><ele>678.3333333333334</ele><time>2026-04-04T08:42:26.989Z</time></trkpt><trkpt lat="44.044990879272476" lon="10.813192917892534"><ele>677.6666666666666</ele><time>2026-04-04T08:42:27.989Z</time></trkpt><trkpt lat="44.0451617786559" lon="10.813282109754622"><ele>677.0</ele><time>2026-04-04T08:42:28.989Z</time></trkpt><trkpt lat="44.045292994247056" lon="10.813368091147186"><ele>677.0</ele><time>2026-04-04T08:42:29.989Z</time></trkpt><trkpt lat="44.045390138308875" lon="10.813483439717174"><ele>677.0</ele><time>2026-04-04T08:42:30.989Z</time></trkpt><trkpt lat="44.045456984877205" lon="10.813645262981854"><ele>677.0</ele><time>2026-04-04T08:42:31.989Z</time></trkpt><trkpt lat="44.04547668302689" lon="10.813815436579516"><ele>677.0</ele><time>2026-04-04T08:42:32.99Z</time></trkpt><trkpt lat="44.04544646091485" lon="10.813994461182471"><ele>679.5</ele><time>2026-04-04T08:42:33.99Z</time></trkpt><trkpt lat="44.04536344563631" lon="10.814148022885924"><ele>682.0</ele><time>2026-04-04T08:42:34.99Z</time></trkpt><trkpt lat="44.04526825768816" lon="10.814297750430654"><ele>684.5</ele><time>2026-04-04T08:42:35.989Z</time></trkpt><trkpt lat="44.045161368208205" lon="10.814469248631022"><ele>687.0</ele><time>2026-04-04T08:42:36.989Z</time></trkpt><trkpt lat="44.04506349354795" lon="10.814659839527724"><ele>690.6666666666666</ele><time>2026-04-04T08:42:37.99Z</time></trkpt><trkpt lat="44.044916468786255" lon="10.814828003502642"><ele>694.3333333333333</ele><time>2026-04-04T08:42:38.989Z</time></trkpt><trkpt lat="44.044794261137596" lon="10.815025804672471"><ele>698.0</ele><time>2026-04-04T08:42:39.989Z</time></trkpt><trkpt lat="44.04467512175483" lon="10.81521416795374"><ele>699.6666666666666</ele><time>2026-04-04T08:42:40.99Z</time></trkpt><trkpt lat="44.044547914053354" lon="10.815409040274764"><ele>701.3333333333334</ele><time>2026-04-04T08:42:41.99Z</time></trkpt><trkpt lat="44.044428714014394" lon="10.815600924060142"><ele>703.0</ele><time>2026-04-04T08:42:42.99Z</time></trkpt><trkpt lat="44.04431732515012" lon="10.815820765180387"><ele>701.3333333333334</ele><time>2026-04-04T08:42:43.99Z</time></trkpt><trkpt lat="44.044236779898625" lon="10.8160539035281"><ele>699.6666666666666</ele><time>2026-04-04T08:42:44.99Z</time></trkpt><trkpt lat="44.04417551735936" lon="10.816308226659139"><ele>698.0</ele><time>2026-04-04T08:42:45.99Z</time></trkpt><trkpt lat="44.044121990138535" lon="10.816572249449935"><ele>703.6666666666666</ele><time>2026-04-04T08:42:46.99Z</time></trkpt><trkpt lat="44.04407118483834" lon="10.816845577180485"><ele>709.3333333333334</ele><time>2026-04-04T08:42:47.99Z</time></trkpt><trkpt lat="44.04402532122039" lon="10.81713692757599"><ele>715.0</ele><time>2026-04-04T08:42:48.99Z</time></trkpt><trkpt lat="44.043965649961905" lon="10.817416986555076"><ele>715.6666666666667</ele><time>2026-04-04T08:42:49.99Z</time></trkpt><trkpt lat="44.0439129802991" lon="10.817711523821378"><ele>716.3333333333334</ele><time>2026-04-04T08:42:50.99Z</time></trkpt><trkpt lat="44.043855399236435" lon="10.817998405843767"><ele>717.0</ele><time>2026-04-04T08:42:51.99Z</time></trkpt><trkpt lat="44.0437988853054" lon="10.818292729675537"><ele>718.3333333333334</ele><time>2026-04-04T08:42:52.99Z</time></trkpt><trkpt lat="44.043734450645815" lon="10.81856579687573"><ele>719.6666666666667</ele><time>2026-04-04T08:42:53.99Z</time></trkpt><trkpt lat="44.043679435295985" lon="10.81881693391476"><ele>721.0</ele><time>2026-04-04T08:42:54.99Z</time></trkpt><trkpt lat="44.043632652639815" lon="10.819038388190675"><ele>721.0</ele><time>2026-04-04T08:42:55.99Z</time></trkpt><trkpt lat="44.04360197834179" lon="10.81924566800345"><ele>721.0</ele><time>2026-04-04T08:42:56.99Z</time></trkpt><trkpt lat="44.04362078797168" lon="10.819436401660887"><ele>721.0</ele><time>2026-04-04T08:42:57.99Z</time></trkpt><trkpt lat="44.04368369436644" lon="10.819618688449175"><ele>721.0</ele><time>2026-04-04T08:42:58.99Z</time></trkpt><trkpt lat="44.04375971605867" lon="10.81982686801323"><ele>722.6666666666667</ele><time>2026-04-04T08:42:59.99Z</time></trkpt><trkpt lat="44.04379971406077" lon="10.82008643832914"><ele>724.3333333333334</ele><time>2026-04-04T08:43:00.99Z</time></trkpt><trkpt lat="44.04379342665967" lon="10.82035444402522"><ele>726.0</ele><time>2026-04-04T08:43:01.99Z</time></trkpt><trkpt lat="44.043789479620926" lon="10.820592820450408"><ele>728.6666666666666</ele><time>2026-04-04T08:43:02.99Z</time></trkpt><trkpt lat="44.04380142084173" lon="10.820810832709334"><ele>731.3333333333333</ele><time>2026-04-04T08:43:03.99Z</time></trkpt><trkpt lat="44.04384151652778" lon="10.821015730563154"><ele>734.0</ele><time>2026-04-04T08:43:04.99Z</time></trkpt><trkpt lat="44.04392321242191" lon="10.821201798727671"><ele>735.25</ele><time>2026-04-04T08:43:05.99Z</time></trkpt><trkpt lat="44.04400648962276" lon="10.82136703923921"><ele>736.5</ele><time>2026-04-04T08:43:06.99Z</time></trkpt><trkpt lat="44.0440219881805" lon="10.821552306922403"><ele>737.75</ele><time>2026-04-04T08:43:07.99Z</time></trkpt><trkpt lat="44.04399963170855" lon="10.82173981828033"><ele>739.0</ele><time>2026-04-04T08:43:08.99Z</time></trkpt><trkpt lat="44.0439093455665" lon="10.821935298453838"><ele>740.0</ele><time>2026-04-04T08:43:09.99Z</time></trkpt><trkpt lat="44.04382124762648" lon="10.8221411491972"><ele>741.0</ele><time>2026-04-04T08:43:10.99Z</time></trkpt><trkpt lat="44.043747571127795" lon="10.822368890316554"><ele>742.0</ele><time>2026-04-04T08:43:11.99Z</time></trkpt><trkpt lat="44.043690510062525" lon="10.822614439400338"><ele>743.3333333333334</ele><time>2026-04-04T08:43:12.99Z</time></trkpt><trkpt lat="44.04362808020717" lon="10.822861490068837"><ele>744.6666666666666</ele><time>2026-04-04T08:43:13.99Z</time></trkpt><trkpt lat="44.04357811446665" lon="10.823088360563322"><ele>746.0</ele><time>2026-04-04T08:43:14.99Z</time></trkpt><trkpt lat="44.04353086630374" lon="10.823342924835615"><ele>746.0</ele><time>2026-04-04T08:43:15.99Z</time></trkpt><trkpt lat="44.04349550439794" lon="10.823576767414812"><ele>746.0</ele><time>2026-04-04T08:43:16.99Z</time></trkpt><trkpt lat="44.04344894138676" lon="10.823791810786334"><ele>746.0</ele><time>2026-04-04T08:43:17.99Z</time></trkpt><trkpt lat="44.04344538110044" lon="10.824006804077872"><ele>746.0</ele><time>2026-04-04T08:43:18.99Z</time></trkpt><trkpt lat="44.043508660660734" lon="10.824215723363686"><ele>746.0</ele><time>2026-04-04T08:43:19.99Z</time></trkpt><trkpt lat="44.0435744064633" lon="10.824406663138571"><ele>746.0</ele><time>2026-04-04T08:43:20.99Z</time></trkpt><trkpt lat="44.0435999865961" lon="10.8246525856118"><ele>747.3333333333333</ele><time>2026-04-04T08:43:21.99Z</time></trkpt><trkpt lat="44.04361146740292" lon="10.824890514065567"><ele>748.6666666666666</ele><time>2026-04-04T08:43:22.99Z</time></trkpt><trkpt lat="44.04360473567189" lon="10.825091983965068"><ele>750.0</ele><time>2026-04-04T08:43:23.99Z</time></trkpt><trkpt lat="44.04356627480715" lon="10.825269896719313"><ele>750.25</ele><time>2026-04-04T08:43:24.99Z</time></trkpt><trkpt lat="44.043497140747846" lon="10.825416083080576"><ele>750.5</ele><time>2026-04-04T08:43:25.99Z</time></trkpt><trkpt lat="44.04339641333376" lon="10.825533378300912"><ele>750.75</ele><time>2026-04-04T08:43:26.99Z</time></trkpt><trkpt lat="44.0432745043072" lon="10.825678276460936"><ele>751.0</ele><time>2026-04-04T08:43:27.99Z</time></trkpt><trkpt lat="44.04315115428309" lon="10.82582858904921"><ele>753.6666666666667</ele><time>2026-04-04T08:43:28.99Z</time></trkpt><trkpt lat="44.0430179965406" lon="10.826000334126682"><ele>756.3333333333334</ele><time>2026-04-04T08:43:29.99Z</time></trkpt><trkpt lat="44.042893575894176" lon="10.82618743479642"><ele>759.0</ele><time>2026-04-04T08:43:30.99Z</time></trkpt><trkpt lat="44.04276973236736" lon="10.826365270234149"><ele>759.0</ele><time>2026-04-04T08:43:31.99Z</time></trkpt><trkpt lat="44.042657001935034" lon="10.826543129166428"><ele>759.0</ele><time>2026-04-04T08:43:32.99Z</time></trkpt><trkpt lat="44.042552762331965" lon="10.826717116741044"><ele>759.0</ele><time>2026-04-04T08:43:33.99Z</time></trkpt><trkpt lat="44.04246289522521" lon="10.826870449324675"><ele>765.5</ele><time>2026-04-04T08:43:34.99Z</time></trkpt><trkpt lat="44.04237969112595" lon="10.827012623862998"><ele>772.0</ele><time>2026-04-04T08:43:35.99Z</time></trkpt><trkpt lat="44.04230174620746" lon="10.827149148779123"><ele>778.5</ele><time>2026-04-04T08:43:36.99Z</time></trkpt><trkpt lat="44.042212840083984" lon="10.827286401247875"><ele>785.0</ele><time>2026-04-04T08:43:37.99Z</time></trkpt><trkpt lat="44.04213300100268" lon="10.827454169240566"><ele>785.0</ele><time>2026-04-04T08:43:38.99Z</time></trkpt><trkpt lat="44.042062875458114" lon="10.827650199780471"><ele>785.0</ele><time>2026-04-04T08:43:39.99Z</time></trkpt><trkpt lat="44.04201201588055" lon="10.827861023475203"><ele>785.0</ele><time>2026-04-04T08:43:40.99Z</time></trkpt><trkpt lat="44.041984834977285" lon="10.828105767186319"><ele>785.0</ele><time>2026-04-04T08:43:41.99Z</time></trkpt><trkpt lat="44.04198687354871" lon="10.828368762553923"><ele>785.0</ele><time>2026-04-04T08:43:42.99Z</time></trkpt><trkpt lat="44.04202100591314" lon="10.828624889894881"><ele>785.0</ele><time>2026-04-04T08:43:43.99Z</time></trkpt><trkpt lat="44.04208601554286" lon="10.828850460141352"><ele>786.6666666666667</ele><time>2026-04-04T08:43:44.99Z</time></trkpt><trkpt lat="44.04212843560873" lon="10.82908967430722"><ele>788.3333333333333</ele><time>2026-04-04T08:43:45.99Z</time></trkpt><trkpt lat="44.04215962546908" lon="10.829332546883412"><ele>790.0</ele><time>2026-04-04T08:43:46.99Z</time></trkpt><trkpt lat="44.042158995829276" lon="10.82957954483651"><ele>791.6666666666666</ele><time>2026-04-04T08:43:47.99Z</time></trkpt><trkpt lat="44.04212663758907" lon="10.829824067090122"><ele>793.3333333333333</ele><time>2026-04-04T08:43:48.99Z</time></trkpt><trkpt lat="44.042070489918494" lon="10.830061039865402"><ele>795.0</ele><time>2026-04-04T08:43:49.99Z</time></trkpt><trkpt lat="44.04201087978136" lon="10.830290231638415"><ele>795.0</ele><time>2026-04-04T08:43:50.99Z</time></trkpt><trkpt lat="44.041945021234284" lon="10.830494990204434"><ele>795.0</ele><time>2026-04-04T08:43:51.99Z</time></trkpt><trkpt lat="44.041923565310036" lon="10.830703939374215"><ele>795.0</ele><time>2026-04-04T08:43:52.99Z</time></trkpt><trkpt lat="44.0419426472207" lon="10.830893818462634"><ele>795.5</ele><time>2026-04-04T08:43:53.99Z</time></trkpt><trkpt lat="44.04199541249208" lon="10.831060090716406"><ele>796.0</ele><time>2026-04-04T08:43:54.99Z</time></trkpt><trkpt lat="44.0420305601401" lon="10.831207970602064"><ele>796.5</ele><time>2026-04-04T08:43:55.99Z</time></trkpt><trkpt lat="44.04212813265523" lon="10.831291636444476"><ele>797.0</ele><time>2026-04-04T08:43:56.99Z</time></trkpt><trkpt lat="44.04224063883295" lon="10.831337262080556"><ele>797.0</ele><time>2026-04-04T08:43:57.99Z</time></trkpt><trkpt lat="44.04237520982234" lon="10.83136079920082"><ele>797.0</ele><time>2026-04-04T08:43:58.99Z</time></trkpt><trkpt lat="44.04250144276904" lon="10.831397414052063"><ele>797.0</ele><time>2026-04-04T08:43:59.99Z</time></trkpt><trkpt lat="44.042639845031616" lon="10.831467134327859"><ele>797.0</ele><time>2026-04-04T08:44:00.99Z</time></trkpt><trkpt lat="44.04276160388827" lon="10.831561165032419"><ele>798.0</ele><time>2026-04-04T08:44:01.99Z</time></trkpt><trkpt lat="44.04284119342227" lon="10.831692194482065"><ele>799.0</ele><time>2026-04-04T08:44:02.99Z</time></trkpt><trkpt lat="44.04286191482136" lon="10.831843142841546"><ele>800.0</ele><time>2026-04-04T08:44:03.99Z</time></trkpt><trkpt lat="44.04288949063314" lon="10.832018133898817"><ele>801.0</ele><time>2026-04-04T08:44:04.99Z</time></trkpt><trkpt lat="44.042914625279515" lon="10.83219425388617"><ele>801.0</ele><time>2026-04-04T08:44:05.99Z</time></trkpt><trkpt lat="44.04294094531901" lon="10.832389607557316"><ele>801.0</ele><time>2026-04-04T08:44:06.99Z</time></trkpt><trkpt lat="44.042972658884466" lon="10.832600401395185"><ele>801.0</ele><time>2026-04-04T08:44:07.99Z</time></trkpt><trkpt lat="44.043004298011404" lon="10.83280383263056"><ele>801.0</ele><time>2026-04-04T08:44:08.99Z</time></trkpt><trkpt lat="44.04302799932915" lon="10.83300968327782"><ele>802.25</ele><time>2026-04-04T08:44:09.99Z</time></trkpt><trkpt lat="44.043048485651184" lon="10.833217419287262"><ele>803.5</ele><time>2026-04-04T08:44:10.99Z</time></trkpt><trkpt lat="44.043052979637636" lon="10.83342205940122"><ele>804.75</ele><time>2026-04-04T08:44:11.99Z</time></trkpt><trkpt lat="44.04304442483642" lon="10.833632119023456"><ele>806.0</ele><time>2026-04-04T08:44:12.99Z</time></trkpt><trkpt lat="44.04300822670402" lon="10.833814766597078"><ele>807.0</ele><time>2026-04-04T08:44:13.99Z</time></trkpt><trkpt lat="44.042965025441376" lon="10.833973752884093"><ele>808.0</ele><time>2026-04-04T08:44:14.99Z</time></trkpt><trkpt lat="44.04292238845865" lon="10.834123334940744"><ele>809.0</ele><time>2026-04-04T08:44:15.99Z</time></trkpt><trkpt lat="44.04288284664665" lon="10.834270218559976"><ele>810.0</ele><time>2026-04-04T08:44:16.99Z</time></trkpt><trkpt lat="44.04285029855509" lon="10.834412954756662"><ele>812.0</ele><time>2026-04-04T08:44:17.99Z</time></trkpt><trkpt lat="44.04282696311854" lon="10.8345464760391"><ele>814.0</ele><time>2026-04-04T08:44:18.99Z</time></trkpt><trkpt lat="44.04281729062429" lon="10.834680424636126"><ele>816.0</ele><time>2026-04-04T08:44:19.99Z</time></trkpt><trkpt lat="44.04282555479325" lon="10.83481676367602"><ele>818.0</ele><time>2026-04-04T08:44:20.99Z</time></trkpt><trkpt lat="44.04284282890911" lon="10.83496830540586"><ele>820.0</ele><time>2026-04-04T08:44:21.99Z</time></trkpt><trkpt lat="44.042863678418406" lon="10.83511620481667"><ele>821.4</ele><time>2026-04-04T08:44:22.99Z</time></trkpt><trkpt lat="44.042858465815684" lon="10.83526339711354"><ele>822.8</ele><time>2026-04-04T08:44:23.99Z</time></trkpt><trkpt lat="44.04287813865786" lon="10.83540972208429"><ele>824.2</ele><time>2026-04-04T08:44:24.99Z</time></trkpt><trkpt lat="44.0428927273294" lon="10.835543204299073"><ele>825.6</ele><time>2026-04-04T08:44:25.99Z</time></trkpt><trkpt lat="44.042912179897755" lon="10.835674142632838"><ele>827.0</ele><time>2026-04-04T08:44:26.99Z</time></trkpt><trkpt lat="44.04292392130665" lon="10.835792313923276"><ele>827.0000000000001</ele><time>2026-04-04T08:44:27.99Z</time></trkpt><trkpt lat="44.0429351160244" lon="10.835902627118868"><ele>827.0</ele><time>2026-04-04T08:44:28.99Z</time></trkpt><trkpt lat="44.04295808425934" lon="10.836009719711784"><ele>827.0</ele><time>2026-04-04T08:44:29.99Z</time></trkpt><trkpt lat="44.04302299237417" lon="10.836089420908522"><ele>827.0</ele><time>2026-04-04T08:44:30.99Z</time></trkpt><trkpt lat="44.04308499438629" lon="10.836166121836543"><ele>827.0000000000001</ele><time>2026-04-04T08:44:31.99Z</time></trkpt><trkpt lat="44.0431341650283" lon="10.836256027274823"><ele>827.0</ele><time>2026-04-04T08:44:32.99Z</time></trkpt><trkpt lat="44.04318019220436" lon="10.836367733843025"><ele>826.8</ele><time>2026-04-04T08:44:33.99Z</time></trkpt><trkpt lat="44.04320761419833" lon="10.83650404760402"><ele>826.6</ele><time>2026-04-04T08:44:34.99Z</time></trkpt><trkpt lat="44.04322965823061" lon="10.8366501553422"><ele>826.4</ele><time>2026-04-04T08:44:35.99Z</time></trkpt><trkpt lat="44.043252715803426" lon="10.836782475666793"><ele>826.1999999999999</ele><time>2026-04-04T08:44:36.99Z</time></trkpt><trkpt lat="44.04328957138294" lon="10.836913589557845"><ele>826.0</ele><time>2026-04-04T08:44:37.989Z</time></trkpt><trkpt lat="44.04333639363118" lon="10.837034066352153"><ele>826.0</ele><time>2026-04-04T08:44:38.989Z</time></trkpt><trkpt lat="44.04340989354229" lon="10.837165858149053"><ele>826.0</ele><time>2026-04-04T08:44:39.989Z</time></trkpt><trkpt lat="44.043494555852995" lon="10.83729108339106"><ele>826.0</ele><time>2026-04-04T08:44:40.989Z</time></trkpt><trkpt lat="44.043586869926614" lon="10.83742393065377"><ele>826.0</ele><time>2026-04-04T08:44:41.989Z</time></trkpt><trkpt lat="44.043679045080395" lon="10.837581875425522"><ele>823.3333333333333</ele><time>2026-04-04T08:44:42.989Z</time></trkpt><trkpt lat="44.0437804698972" lon="10.83773797378943"><ele>820.6666666666667</ele><time>2026-04-04T08:44:43.989Z</time></trkpt><trkpt lat="44.04389156998243" lon="10.837905595187362"><ele>818.0</ele><time>2026-04-04T08:44:44.989Z</time></trkpt><trkpt lat="44.043995586870714" lon="10.838060992513213"><ele>818.0</ele><time>2026-04-04T08:44:45.989Z</time></trkpt><trkpt lat="44.044104686849714" lon="10.838220143167284"><ele>818.0</ele><time>2026-04-04T08:44:46.989Z</time></trkpt><trkpt lat="44.044226339666764" lon="10.838376549298106"><ele>818.0</ele><time>2026-04-04T08:44:47.99Z</time></trkpt><trkpt lat="44.04435809381727" lon="10.838511447944805"><ele>821.0</ele><time>2026-04-04T08:44:48.99Z</time></trkpt><trkpt lat="44.044499912582374" lon="10.83863129689118"><ele>824.0</ele><time>2026-04-04T08:44:49.989Z</time></trkpt><trkpt lat="44.04465052174503" lon="10.838745132153223"><ele>827.0</ele><time>2026-04-04T08:44:50.989Z</time></trkpt><trkpt lat="44.04480935082771" lon="10.838849828196087"><ele>827.0</ele><time>2026-04-04T08:44:51.989Z</time></trkpt><trkpt lat="44.04496040774585" lon="10.838961802713568"><ele>827.0</ele><time>2026-04-04T08:44:52.989Z</time></trkpt><trkpt lat="44.045126020233276" lon="10.839028777544272"><ele>827.0</ele><time>2026-04-04T08:44:53.989Z</time></trkpt><trkpt lat="44.04528054214692" lon="10.839085631399483"><ele>830.3333333333334</ele><time>2026-04-04T08:44:54.989Z</time></trkpt><trkpt lat="44.045439258147276" lon="10.839104950603398"><ele>833.6666666666667</ele><time>2026-04-04T08:44:55.989Z</time></trkpt><trkpt lat="44.045605172267635" lon="10.839109460256008"><ele>837.0</ele><time>2026-04-04T08:44:56.989Z</time></trkpt><trkpt lat="44.04576652389897" lon="10.839109316882157"><ele>838.0</ele><time>2026-04-04T08:44:57.989Z</time></trkpt><trkpt lat="44.045931157360855" lon="10.839106878471556"><ele>839.0</ele><time>2026-04-04T08:44:58.989Z</time></trkpt><trkpt lat="44.04607643001862" lon="10.839089964847933"><ele>840.0</ele><time>2026-04-04T08:44:59.989Z</time></trkpt><trkpt lat="44.04621094839592" lon="10.83909502200386"><ele>841.0</ele><time>2026-04-04T08:45:00.989Z</time></trkpt><trkpt lat="44.046335086513146" lon="10.839128152688573"><ele>841.0</ele><time>2026-04-04T08:45:01.989Z</time></trkpt><trkpt lat="44.046449674988764" lon="10.83920034055164"><ele>841.0</ele><time>2026-04-04T08:45:02.989Z</time></trkpt><trkpt lat="44.046559705227786" lon="10.839292805106334"><ele>841.0</ele><time>2026-04-04T08:45:03.989Z</time></trkpt><trkpt lat="44.04664662291269" lon="10.839406044913519"><ele>841.0</ele><time>2026-04-04T08:45:04.989Z</time></trkpt><trkpt lat="44.04672534753182" lon="10.839492421545199"><ele>841.1999999999999</ele><time>2026-04-04T08:45:05.989Z</time></trkpt><trkpt lat="44.04680137182456" lon="10.839568863431644"><ele>841.4</ele><time>2026-04-04T08:45:06.989Z</time></trkpt><trkpt lat="44.046888112708636" lon="10.839608727871004"><ele>841.6</ele><time>2026-04-04T08:45:07.989Z</time></trkpt><trkpt lat="44.04698329607557" lon="10.839611831064476"><ele>841.8</ele><time>2026-04-04T08:45:08.989Z</time></trkpt><trkpt lat="44.04707751515806" lon="10.839588718043263"><ele>842.0</ele><time>2026-04-04T08:45:09.989Z</time></trkpt><trkpt lat="44.04717810288207" lon="10.839526774990771"><ele>842.0</ele><time>2026-04-04T08:45:10.989Z</time></trkpt><trkpt lat="44.04727264495262" lon="10.839475261578304"><ele>842.0</ele><time>2026-04-04T08:45:11.989Z</time></trkpt><trkpt lat="44.0473541994697" lon="10.839401627473782"><ele>842.0</ele><time>2026-04-04T08:45:12.989Z</time></trkpt><trkpt lat="44.04744785904599" lon="10.839307557805066"><ele>842.0</ele><time>2026-04-04T08:45:13.989Z</time></trkpt><trkpt lat="44.04754910513474" lon="10.839199017681416"><ele>842.0</ele><time>2026-04-04T08:45:14.989Z</time></trkpt><trkpt lat="44.04766553849973" lon="10.839067092845271"><ele>843.6666666666667</ele><time>2026-04-04T08:45:15.989Z</time></trkpt><trkpt lat="44.04777458626352" lon="10.838914432417447"><ele>845.3333333333333</ele><time>2026-04-04T08:45:16.989Z</time></trkpt><trkpt lat="44.04789873982458" lon="10.838780196727189"><ele>847.0</ele><time>2026-04-04T08:45:17.989Z</time></trkpt><trkpt lat="44.04802189993599" lon="10.838635874833894"><ele>847.0</ele><time>2026-04-04T08:45:18.989Z</time></trkpt><trkpt lat="44.04813640532659" lon="10.838488432442418"><ele>847.0</ele><time>2026-04-04T08:45:19.989Z</time></trkpt><trkpt lat="44.048239513441224" lon="10.838364071506573"><ele>847.0</ele><time>2026-04-04T08:45:20.989Z</time></trkpt><trkpt lat="44.04835266050361" lon="10.838268105931052"><ele>847.0</ele><time>2026-04-04T08:45:21.989Z</time></trkpt><trkpt lat="44.0484688949097" lon="10.838212247864151"><ele>847.25</ele><time>2026-04-04T08:45:22.989Z</time></trkpt><trkpt lat="44.048592557495425" lon="10.838203390409758"><ele>847.5</ele><time>2026-04-04T08:45:23.989Z</time></trkpt><trkpt lat="44.04871487269683" lon="10.83823102161643"><ele>847.75</ele><time>2026-04-04T08:45:24.989Z</time></trkpt><trkpt lat="44.04882873825926" lon="10.838271741801266"><ele>848.0</ele><time>2026-04-04T08:45:25.989Z</time></trkpt><trkpt lat="44.04893090706743" lon="10.838302584903468"><ele>848.0</ele><time>2026-04-04T08:45:26.989Z</time></trkpt><trkpt lat="44.04902529955757" lon="10.838289200316527"><ele>848.0</ele><time>2026-04-04T08:45:27.989Z</time></trkpt><trkpt lat="44.049121961505804" lon="10.838246126138777"><ele>848.0</ele><time>2026-04-04T08:45:28.989Z</time></trkpt><trkpt lat="44.049214069245664" lon="10.838178347929132"><ele>848.0</ele><time>2026-04-04T08:45:29.989Z</time></trkpt><trkpt lat="44.04927811342071" lon="10.83815114492091"><ele>848.0</ele><time>2026-04-04T08:45:30.989Z</time></trkpt><trkpt lat="44.049355822239264" lon="10.83819185329134"><ele>848.8333333333334</ele><time>2026-04-04T08:45:32.989Z</time></trkpt><trkpt lat="44.04940068103155" lon="10.838341154085843"><ele>849.6666666666667</ele><time>2026-04-04T08:45:34.989Z</time></trkpt><trkpt lat="44.049408195791" lon="10.838435060222912"><ele>850.5</ele><time>2026-04-04T08:45:35.989Z</time></trkpt><trkpt lat="44.04941627875952" lon="10.838528411521786"><ele>851.3333333333333</ele><time>2026-04-04T08:45:36.989Z</time></trkpt><trkpt lat="44.049429331474016" lon="10.838640966475086"><ele>852.1666666666666</ele><time>2026-04-04T08:45:37.989Z</time></trkpt><trkpt lat="44.04944299410804" lon="10.838784349642701"><ele>853.0</ele><time>2026-04-04T08:45:38.989Z</time></trkpt><trkpt lat="44.04946482370283" lon="10.838925204100022"><ele>854.6666666666666</ele><time>2026-04-04T08:45:39.989Z</time></trkpt><trkpt lat="44.049520164583114" lon="10.839088303775714"><ele>856.3333333333333</ele><time>2026-04-04T08:45:40.989Z</time></trkpt><trkpt lat="44.04959855929748" lon="10.839277677329619"><ele>858.0</ele><time>2026-04-04T08:45:41.989Z</time></trkpt><trkpt lat="44.049683762649984" lon="10.83947603457227"><ele>857.3333333333333</ele><time>2026-04-04T08:45:42.989Z</time></trkpt><trkpt lat="44.049772083663164" lon="10.839672081245125"><ele>856.6666666666666</ele><time>2026-04-04T08:45:43.989Z</time></trkpt><trkpt lat="44.04988437803719" lon="10.839873536685669"><ele>856.0</ele><time>2026-04-04T08:45:44.989Z</time></trkpt><trkpt lat="44.04998788996781" lon="10.84007197687057"><ele>857.25</ele><time>2026-04-04T08:45:45.989Z</time></trkpt><trkpt lat="44.05005193789947" lon="10.840232026016848"><ele>858.5</ele><time>2026-04-04T08:45:46.989Z</time></trkpt><trkpt lat="44.050106694041084" lon="10.84034945701673"><ele>859.75</ele><time>2026-04-04T08:45:47.989Z</time></trkpt><trkpt lat="44.05019682916803" lon="10.840460553566386"><ele>861.0</ele><time>2026-04-04T08:45:48.989Z</time></trkpt><trkpt lat="44.050298393102196" lon="10.840563003551924"><ele>861.0</ele><time>2026-04-04T08:45:49.989Z</time></trkpt><trkpt lat="44.05039822174534" lon="10.840615420762097"><ele>861.0</ele><time>2026-04-04T08:45:50.989Z</time></trkpt><trkpt lat="44.05048698215782" lon="10.84066123590644"><ele>861.0</ele><time>2026-04-04T08:45:51.989Z</time></trkpt><trkpt lat="44.05060598612824" lon="10.840664373432578"><ele>861.0</ele><time>2026-04-04T08:45:52.989Z</time></trkpt><trkpt lat="44.0507510836724" lon="10.84062267906544"><ele>855.0</ele><time>2026-04-04T08:45:53.989Z</time></trkpt><trkpt lat="44.050890161706775" lon="10.840541257991495"><ele>849.0</ele><time>2026-04-04T08:45:54.989Z</time></trkpt><trkpt lat="44.05102143420642" lon="10.840503704122519"><ele>843.0</ele><time>2026-04-04T08:45:55.989Z</time></trkpt><trkpt lat="44.05114598828738" lon="10.840522470278778"><ele>837.0</ele><time>2026-04-04T08:45:56.989Z</time></trkpt><trkpt lat="44.05124526626821" lon="10.840623895147058"><ele>837.0</ele><time>2026-04-04T08:45:57.989Z</time></trkpt><trkpt lat="44.051332065043226" lon="10.84071476939785"><ele>837.0</ele><time>2026-04-04T08:45:58.989Z</time></trkpt><trkpt lat="44.05138991441827" lon="10.840855224643603"><ele>837.0</ele><time>2026-04-04T08:45:59.989Z</time></trkpt><trkpt lat="44.05143893288056" lon="10.841034661586404"><ele>837.0</ele><time>2026-04-04T08:46:00.989Z</time></trkpt><trkpt lat="44.05144320231338" lon="10.841250651910697"><ele>838.6666666666667</ele><time>2026-04-04T08:46:01.989Z</time></trkpt><trkpt lat="44.05141830852798" lon="10.841460449240065"><ele>840.3333333333334</ele><time>2026-04-04T08:46:02.988Z</time></trkpt><trkpt lat="44.05135803559776" lon="10.841679364925124"><ele>842.0</ele><time>2026-04-04T08:46:03.986Z</time></trkpt><trkpt lat="44.05130647065183" lon="10.841893733511887"><ele>845.0</ele><time>2026-04-04T08:46:04.984Z</time></trkpt><trkpt lat="44.05127572241688" lon="10.842084210679099"><ele>848.0</ele><time>2026-04-04T08:46:05.981Z</time></trkpt><trkpt lat="44.05125771872568" lon="10.842261183533143"><ele>851.0</ele><time>2026-04-04T08:46:06.979Z</time></trkpt><trkpt lat="44.051259788896004" lon="10.842430649378255"><ele>854.0</ele><time>2026-04-04T08:46:07.977Z</time></trkpt><trkpt lat="44.051308156874114" lon="10.842581567450928"><ele>855.3333333333334</ele><time>2026-04-04T08:46:08.976Z</time></trkpt><trkpt lat="44.05138284158192" lon="10.842750213713467"><ele>856.6666666666667</ele><time>2026-04-04T08:46:09.974Z</time></trkpt><trkpt lat="44.05147680743382" lon="10.842935308699612"><ele>858.0</ele><time>2026-04-04T08:46:10.972Z</time></trkpt><trkpt lat="44.051584652490696" lon="10.843122630072841"><ele>849.6666666666667</ele><time>2026-04-04T08:46:11.971Z</time></trkpt><trkpt lat="44.051709320797926" lon="10.843309599038216"><ele>841.3333333333334</ele><time>2026-04-04T08:46:12.969Z</time></trkpt><trkpt lat="44.05181881048689" lon="10.84349996525772"><ele>833.0</ele><time>2026-04-04T08:46:13.968Z</time></trkpt><trkpt lat="44.05191446389828" lon="10.843666902406973"><ele>833.0</ele><time>2026-04-04T08:46:14.967Z</time></trkpt><trkpt lat="44.052000431052925" lon="10.84382721742206"><ele>833.0</ele><time>2026-04-04T08:46:15.966Z</time></trkpt><trkpt lat="44.05208323687683" lon="10.843993622679161"><ele>833.0</ele><time>2026-04-04T08:46:16.965Z</time></trkpt><trkpt lat="44.05215911646154" lon="10.844161583239478"><ele>833.0</ele><time>2026-04-04T08:46:17.964Z</time></trkpt><trkpt lat="44.05222403893359" lon="10.844346869684575"><ele>834.3333333333334</ele><time>2026-04-04T08:46:18.963Z</time></trkpt><trkpt lat="44.05228021689746" lon="10.844544073093148"><ele>835.6666666666667</ele><time>2026-04-04T08:46:19.962Z</time></trkpt><trkpt lat="44.052313813392026" lon="10.844760308956303"><ele>837.0</ele><time>2026-04-04T08:46:20.961Z</time></trkpt><trkpt lat="44.05235332643896" lon="10.844960272157827"><ele>834.5</ele><time>2026-04-04T08:46:21.96Z</time></trkpt><trkpt lat="44.05236049831868" lon="10.845154159339954"><ele>832.0</ele><time>2026-04-04T08:46:22.959Z</time></trkpt><trkpt lat="44.052344162891515" lon="10.845341254088215"><ele>829.5</ele><time>2026-04-04T08:46:23.959Z</time></trkpt><trkpt lat="44.05231846121606" lon="10.845567926673182"><ele>827.0</ele><time>2026-04-04T08:46:24.958Z</time></trkpt><trkpt lat="44.05227306503425" lon="10.845795421177865"><ele>818.3333333333334</ele><time>2026-04-04T08:46:25.958Z</time></trkpt><trkpt lat="44.0522010725248" lon="10.846009518636071"><ele>809.6666666666667</ele><time>2026-04-04T08:46:26.957Z</time></trkpt><trkpt lat="44.052136054470935" lon="10.846225346935373"><ele>801.0</ele><time>2026-04-04T08:46:27.956Z</time></trkpt><trkpt lat="44.05204098085669" lon="10.846418496381805"><ele>801.0</ele><time>2026-04-04T08:46:28.956Z</time></trkpt><trkpt lat="44.0519365930386" lon="10.84660377187681"><ele>801.0</ele><time>2026-04-04T08:46:29.955Z</time></trkpt><trkpt lat="44.05179894179286" lon="10.846775156046673"><ele>801.0</ele><time>2026-04-04T08:46:30.955Z</time></trkpt><trkpt lat="44.05163665875701" lon="10.846912839153243"><ele>798.0</ele><time>2026-04-04T08:46:31.955Z</time></trkpt><trkpt lat="44.051473978039766" lon="10.847061985945263"><ele>795.0</ele><time>2026-04-04T08:46:32.954Z</time></trkpt><trkpt lat="44.051315151025186" lon="10.847194622545977"><ele>792.0</ele><time>2026-04-04T08:46:33.954Z</time></trkpt><trkpt lat="44.05115437460021" lon="10.847316740012324"><ele>792.0</ele><time>2026-04-04T08:46:34.953Z</time></trkpt><trkpt lat="44.05099918320375" lon="10.847449132484407"><ele>792.0</ele><time>2026-04-04T08:46:35.953Z</time></trkpt><trkpt lat="44.050856534558136" lon="10.847592307595638"><ele>792.0</ele><time>2026-04-04T08:46:36.953Z</time></trkpt><trkpt lat="44.05073791074495" lon="10.847682953332935"><ele>788.25</ele><time>2026-04-04T08:46:37.953Z</time></trkpt><trkpt lat="44.05062533441753" lon="10.847796273859275"><ele>784.5</ele><time>2026-04-04T08:46:38.952Z</time></trkpt><trkpt lat="44.05053258551133" lon="10.847936657719673"><ele>780.75</ele><time>2026-04-04T08:46:39.952Z</time></trkpt><trkpt lat="44.05045753916762" lon="10.848114406418292"><ele>777.0</ele><time>2026-04-04T08:46:40.952Z</time></trkpt><trkpt lat="44.05039317103683" lon="10.848316017855359"><ele>773.6666666666666</ele><time>2026-04-04T08:46:41.952Z</time></trkpt><trkpt lat="44.050357606402756" lon="10.848550299355662"><ele>770.3333333333333</ele><time>2026-04-04T08:46:42.952Z</time></trkpt><trkpt lat="44.05034711098355" lon="10.848791022948044"><ele>767.0</ele><time>2026-04-04T08:46:43.951Z</time></trkpt><trkpt lat="44.05036025423748" lon="10.849049370515363"><ele>766.3333333333333</ele><time>2026-04-04T08:46:44.951Z</time></trkpt><trkpt lat="44.050385924528264" lon="10.849330382616042"><ele>765.6666666666666</ele><time>2026-04-04T08:46:45.951Z</time></trkpt><trkpt lat="44.050398181064274" lon="10.849598738764692"><ele>765.0</ele><time>2026-04-04T08:46:46.95Z</time></trkpt><trkpt lat="44.05040328101745" lon="10.849854302697583"><ele>765.0</ele><time>2026-04-04T08:46:47.95Z</time></trkpt><trkpt lat="44.050398365081826" lon="10.850091620162504"><ele>765.0</ele><time>2026-04-04T08:46:48.95Z</time></trkpt><trkpt lat="44.05039808157476" lon="10.85033783682952"><ele>765.0</ele><time>2026-04-04T08:46:49.95Z</time></trkpt><trkpt lat="44.050404321409005" lon="10.85059550268508"><ele>765.3333333333334</ele><time>2026-04-04T08:46:50.95Z</time></trkpt><trkpt lat="44.05041039406108" lon="10.850842206262039"><ele>765.6666666666667</ele><time>2026-04-04T08:46:51.95Z</time></trkpt><trkpt lat="44.05041719007834" lon="10.851062098744888"><ele>766.0</ele><time>2026-04-04T08:46:52.95Z</time></trkpt><trkpt lat="44.0504225327472" lon="10.851252983027187"><ele>766.5999999999999</ele><time>2026-04-04T08:46:53.95Z</time></trkpt><trkpt lat="44.05042235038223" lon="10.851422402101297"><ele>767.2</ele><time>2026-04-04T08:46:54.95Z</time></trkpt><trkpt lat="44.050408713310084" lon="10.851577719034328"><ele>767.8</ele><time>2026-04-04T08:46:55.95Z</time></trkpt><trkpt lat="44.050401726349186" lon="10.851705846397795"><ele>768.4000000000001</ele><time>2026-04-04T08:46:56.95Z</time></trkpt><trkpt lat="44.05039305649952" lon="10.851801892598703"><ele>769.0</ele><time>2026-04-04T08:46:57.949Z</time></trkpt><trkpt lat="44.05036973425142" lon="10.851898275564908"><ele>770.0</ele><time>2026-04-04T08:46:58.949Z</time></trkpt><trkpt lat="44.05032641634903" lon="10.851994089997131"><ele>771.0</ele><time>2026-04-04T08:46:59.949Z</time></trkpt><trkpt lat="44.05026312173855" lon="10.852099976609686"><ele>772.0</ele><time>2026-04-04T08:47:00.949Z</time></trkpt><trkpt lat="44.05016903067562" lon="10.85217668465295"><ele>773.0</ele><time>2026-04-04T08:47:01.949Z</time></trkpt><trkpt lat="44.05005214566509" lon="10.852261665484791"><ele>774.0</ele><time>2026-04-04T08:47:02.949Z</time></trkpt><trkpt lat="44.04991250491508" lon="10.852354893732311"><ele>770.6666666666666</ele><time>2026-04-04T08:47:03.949Z</time></trkpt><trkpt lat="44.049781544226995" lon="10.852456449113172"><ele>767.3333333333333</ele><time>2026-04-04T08:47:04.949Z</time></trkpt><trkpt lat="44.04964320682043" lon="10.852578886256415"><ele>764.0</ele><time>2026-04-04T08:47:05.949Z</time></trkpt><trkpt lat="44.04949254216426" lon="10.852699298636628"><ele>764.0</ele><time>2026-04-04T08:47:06.949Z</time></trkpt><trkpt lat="44.04933772246466" lon="10.852808524623743"><ele>764.0</ele><time>2026-04-04T08:47:07.949Z</time></trkpt><trkpt lat="44.0491889804921" lon="10.852944921438896"><ele>764.0</ele><time>2026-04-04T08:47:08.949Z</time></trkpt><trkpt lat="44.04904749783828" lon="10.853067536294239"><ele>760.3333333333333</ele><time>2026-04-04T08:47:09.949Z</time></trkpt><trkpt lat="44.048907083288825" lon="10.85317589097252"><ele>756.6666666666666</ele><time>2026-04-04T08:47:10.949Z</time></trkpt><trkpt lat="44.04876550066497" lon="10.853284296597385"><ele>753.0</ele><time>2026-04-04T08:47:11.949Z</time></trkpt><trkpt lat="44.04861242514955" lon="10.853412111246577"><ele>754.6666666666666</ele><time>2026-04-04T08:47:12.949Z</time></trkpt><trkpt lat="44.04846321423341" lon="10.853533478254903"><ele>756.3333333333333</ele><time>2026-04-04T08:47:13.949Z</time></trkpt><trkpt lat="44.048317754766806" lon="10.853655785894734"><ele>758.0</ele><time>2026-04-04T08:47:14.948Z</time></trkpt><trkpt lat="44.0481817958307" lon="10.853755684713335"><ele>754.6666666666666</ele><time>2026-04-04T08:47:15.948Z</time></trkpt><trkpt lat="44.04805107979457" lon="10.853871494002744"><ele>751.3333333333334</ele><time>2026-04-04T08:47:16.948Z</time></trkpt><trkpt lat="44.047916376673214" lon="10.853972898656144"><ele>748.0</ele><time>2026-04-04T08:47:17.948Z</time></trkpt><trkpt lat="44.04778339951877" lon="10.85408293341929"><ele>748.0</ele><time>2026-04-04T08:47:18.948Z</time></trkpt><trkpt lat="44.047639129282274" lon="10.85418433718011"><ele>748.0</ele><time>2026-04-04T08:47:19.948Z</time></trkpt><trkpt lat="44.04748001059037" lon="10.854275319231121"><ele>748.0</ele><time>2026-04-04T08:47:20.948Z</time></trkpt><trkpt lat="44.04732016138106" lon="10.854364443337374"><ele>745.3333333333334</ele><time>2026-04-04T08:47:21.948Z</time></trkpt><trkpt lat="44.04717449988154" lon="10.854435270721785"><ele>742.6666666666666</ele><time>2026-04-04T08:47:22.948Z</time></trkpt><trkpt lat="44.04702653017936" lon="10.85449538294229"><ele>740.0</ele><time>2026-04-04T08:47:23.948Z</time></trkpt><trkpt lat="44.0468859753973" lon="10.854558299106015"><ele>740.0</ele><time>2026-04-04T08:47:24.948Z</time></trkpt><trkpt lat="44.0467514937224" lon="10.854602087924869"><ele>740.0</ele><time>2026-04-04T08:47:25.948Z</time></trkpt><trkpt lat="44.04662496302939" lon="10.85465332106001"><ele>740.0</ele><time>2026-04-04T08:47:26.948Z</time></trkpt><trkpt lat="44.046508181054705" lon="10.854735075089806"><ele>740.0</ele><time>2026-04-04T08:47:27.948Z</time></trkpt><trkpt lat="44.04640914240921" lon="10.85485150350514"><ele>739.75</ele><time>2026-04-04T08:47:28.948Z</time></trkpt><trkpt lat="44.04631253853229" lon="10.854994115096014"><ele>739.5</ele><time>2026-04-04T08:47:29.948Z</time></trkpt><trkpt lat="44.04622450244949" lon="10.855149599347126"><ele>739.25</ele><time>2026-04-04T08:47:30.948Z</time></trkpt><trkpt lat="44.04615745305365" lon="10.855329978557265"><ele>739.0</ele><time>2026-04-04T08:47:31.948Z</time></trkpt><trkpt lat="44.046063376135926" lon="10.855466060076166"><ele>738.4000000000001</ele><time>2026-04-04T08:47:32.948Z</time></trkpt><trkpt lat="44.04597215634705" lon="10.85555261094675"><ele>737.8</ele><time>2026-04-04T08:47:33.948Z</time></trkpt><trkpt lat="44.04587193793161" lon="10.855631690584671"><ele>737.2</ele><time>2026-04-04T08:47:34.948Z</time></trkpt><trkpt lat="44.04577144545395" lon="10.855669600277155"><ele>736.5999999999999</ele><time>2026-04-04T08:47:35.948Z</time></trkpt><trkpt lat="44.04567368408814" lon="10.855660845357791"><ele>736.0</ele><time>2026-04-04T08:47:36.948Z</time></trkpt><trkpt lat="44.0455551698403" lon="10.855617622068083"><ele>735.5999999999999</ele><time>2026-04-04T08:47:37.948Z</time></trkpt><trkpt lat="44.04543258964975" lon="10.855536954559872"><ele>735.2</ele><time>2026-04-04T08:47:38.948Z</time></trkpt><trkpt lat="44.045351261666625" lon="10.855535552475473"><ele>734.8</ele><time>2026-04-04T08:47:39.948Z</time></trkpt><trkpt lat="44.0452698397161" lon="10.855568611605227"><ele>734.4000000000001</ele><time>2026-04-04T08:47:40.948Z</time></trkpt><trkpt lat="44.0451810317392" lon="10.855660531751061"><ele>734.0</ele><time>2026-04-04T08:47:41.948Z</time></trkpt><trkpt lat="44.0450862246011" lon="10.85577887099623"><ele>734.0</ele><time>2026-04-04T08:47:42.948Z</time></trkpt><trkpt lat="44.04498350649385" lon="10.855891159310605"><ele>734.0</ele><time>2026-04-04T08:47:43.948Z</time></trkpt><trkpt lat="44.0448791002468" lon="10.856010330630548"><ele>734.0</ele><time>2026-04-04T08:47:44.948Z</time></trkpt><trkpt lat="44.04476660938892" lon="10.856126376260107"><ele>734.0</ele><time>2026-04-04T08:47:45.948Z</time></trkpt><trkpt lat="44.04463641448894" lon="10.856225533426358"><ele>733.0</ele><time>2026-04-04T08:47:46.948Z</time></trkpt><trkpt lat="44.0445068900379" lon="10.856322859285886"><ele>732.0</ele><time>2026-04-04T08:47:47.948Z</time></trkpt><trkpt lat="44.04439635244207" lon="10.856413776849962"><ele>731.0</ele><time>2026-04-04T08:47:48.948Z</time></trkpt><trkpt lat="44.04429009990895" lon="10.856502656918918"><ele>730.0</ele><time>2026-04-04T08:47:49.948Z</time></trkpt><trkpt lat="44.04418085427969" lon="10.856596818921057"><ele>729.5</ele><time>2026-04-04T08:47:50.948Z</time></trkpt><trkpt lat="44.04407677597743" lon="10.856679966334433"><ele>729.0</ele><time>2026-04-04T08:47:51.948Z</time></trkpt><trkpt lat="44.043981374841614" lon="10.856770776499928"><ele>728.5</ele><time>2026-04-04T08:47:52.948Z</time></trkpt><trkpt lat="44.04387856235576" lon="10.856832454764886"><ele>728.0</ele><time>2026-04-04T08:47:53.948Z</time></trkpt><trkpt lat="44.04376948423684" lon="10.856879041681223"><ele>728.0</ele><time>2026-04-04T08:47:54.948Z</time></trkpt><trkpt lat="44.0436484963719" lon="10.856929291422741"><ele>728.0</ele><time>2026-04-04T08:47:55.948Z</time></trkpt><trkpt lat="44.04352839138676" lon="10.856964486519708"><ele>728.0</ele><time>2026-04-04T08:47:56.948Z</time></trkpt><trkpt lat="44.043416708350904" lon="10.857025200556924"><ele>728.0</ele><time>2026-04-04T08:47:57.948Z</time></trkpt><trkpt lat="44.04331990338915" lon="10.85707279504919"><ele>728.2</ele><time>2026-04-04T08:47:58.948Z</time></trkpt><trkpt lat="44.04323253865155" lon="10.857103668641715"><ele>728.4</ele><time>2026-04-04T08:47:59.948Z</time></trkpt><trkpt lat="44.0431538779785" lon="10.857184907784932"><ele>728.6</ele><time>2026-04-04T08:48:00.948Z</time></trkpt><trkpt lat="44.04307736190833" lon="10.85728044899421"><ele>728.8000000000001</ele><time>2026-04-04T08:48:01.948Z</time></trkpt><trkpt lat="44.04299766452751" lon="10.857380387774683"><ele>729.0</ele><time>2026-04-04T08:48:02.948Z</time></trkpt><trkpt lat="44.04292491192922" lon="10.857501461890307"><ele>727.0</ele><time>2026-04-04T08:48:03.947Z</time></trkpt><trkpt lat="44.042851588373715" lon="10.857638600892388"><ele>725.0</ele><time>2026-04-04T08:48:04.947Z</time></trkpt><trkpt lat="44.04277689963077" lon="10.857741136904979"><ele>723.0</ele><time>2026-04-04T08:48:05.947Z</time></trkpt><trkpt lat="44.042712477698934" lon="10.857856876587888"><ele>721.0</ele><time>2026-04-04T08:48:06.947Z</time></trkpt><trkpt lat="44.04264657502191" lon="10.857973370529622"><ele>719.0</ele><time>2026-04-04T08:48:07.947Z</time></trkpt><trkpt lat="44.04258003306647" lon="10.858074824406977"><ele>719.0</ele><time>2026-04-04T08:48:08.947Z</time></trkpt><trkpt lat="44.04249446112912" lon="10.85814134277506"><ele>719.0</ele><time>2026-04-04T08:48:09.947Z</time></trkpt><trkpt lat="44.04239849987576" lon="10.858165085570906"><ele>719.0</ele><time>2026-04-04T08:48:10.947Z</time></trkpt><trkpt lat="44.04232221218897" lon="10.85816779617289"><ele>719.0</ele><time>2026-04-04T08:48:11.947Z</time></trkpt><trkpt lat="44.042253959100826" lon="10.85815294138381"><ele>719.0</ele><time>2026-04-04T08:48:12.947Z</time></trkpt><trkpt lat="44.04217259686796" lon="10.858152978441307"><ele>719.0</ele><time>2026-04-04T08:48:13.947Z</time></trkpt><trkpt lat="44.04208767533941" lon="10.858163695787171"><ele>719.4000000000001</ele><time>2026-04-04T08:48:14.947Z</time></trkpt><trkpt lat="44.04200777589662" lon="10.858184877779685"><ele>719.8</ele><time>2026-04-04T08:48:15.947Z</time></trkpt><trkpt lat="44.041923485913856" lon="10.858199514697965"><ele>720.2</ele><time>2026-04-04T08:48:16.947Z</time></trkpt><trkpt lat="44.041839225932705" lon="10.858239901213704"><ele>720.5999999999999</ele><time>2026-04-04T08:48:17.947Z</time></trkpt><trkpt lat="44.041742834790305" lon="10.858297843239233"><ele>721.0</ele><time>2026-04-04T08:48:18.947Z</time></trkpt><trkpt lat="44.041645552765466" lon="10.858359715677691"><ele>721.1999999999999</ele><time>2026-04-04T08:48:19.947Z</time></trkpt><trkpt lat="44.041556402156715" lon="10.85840775677092"><ele>721.4</ele><time>2026-04-04T08:48:20.947Z</time></trkpt><trkpt lat="44.04144545875327" lon="10.858444184659394"><ele>721.6</ele><time>2026-04-04T08:48:21.947Z</time></trkpt><trkpt lat="44.04134660262461" lon="10.8585122927417"><ele>721.8</ele><time>2026-04-04T08:48:22.947Z</time></trkpt><trkpt lat="44.041260389285384" lon="10.858576022260216"><ele>722.0</ele><time>2026-04-04T08:48:23.947Z</time></trkpt><trkpt lat="44.041167819725395" lon="10.85861651116013"><ele>722.0</ele><time>2026-04-04T08:48:24.947Z</time></trkpt><trkpt lat="44.04109055449323" lon="10.858663936447618"><ele>722.0</ele><time>2026-04-04T08:48:25.947Z</time></trkpt><trkpt lat="44.04101587043701" lon="10.858700011807528"><ele>722.0</ele><time>2026-04-04T08:48:26.947Z</time></trkpt><trkpt lat="44.040956739398084" lon="10.858733448633775"><ele>722.0</ele><time>2026-04-04T08:48:27.947Z</time></trkpt><trkpt lat="44.04084652900997" lon="10.858768037379276"><ele>722.0</ele><time>2026-04-04T08:48:29.947Z</time></trkpt><trkpt lat="44.04078103429649" lon="10.858781408931135"><ele>722.0</ele><time>2026-04-04T08:48:31.947Z</time></trkpt><trkpt lat="44.04078939359603" lon="10.858875516286863"><ele>719.0</ele><time>2026-04-04T08:48:35.947Z</time></trkpt><trkpt lat="44.040663116797695" lon="10.858775597911622"><ele>716.0</ele><time>2026-04-04T08:49:48.518Z</time></trkpt><trkpt lat="44.04073727423124" lon="10.85882114782727"><ele>713.0</ele><time>2026-04-04T08:50:01.946Z</time></trkpt><trkpt lat="44.04076425028788" lon="10.858912652453613"><ele>710.0</ele><time>2026-04-04T08:50:31.945Z</time></trkpt><trkpt lat="44.04077996816144" lon="10.858815534485228"><ele>707.0</ele><time>2026-04-04T08:50:53.945Z</time></trkpt><trkpt lat="44.04079744537541" lon="10.858921082483775"><ele>704.0</ele><time>2026-04-04T08:51:02.945Z</time></trkpt><trkpt lat="44.04073260715821" lon="10.85888271164824"><ele>704.0</ele><time>2026-04-04T08:52:04.944Z</time></trkpt><trkpt lat="44.04065562905465" lon="10.85883216122587"><ele>704.0</ele><time>2026-04-04T08:52:13.943Z</time></trkpt><trkpt lat="44.04058426261875" lon="10.858823815812102"><ele>704.0</ele><time>2026-04-04T08:52:15.943Z</time></trkpt><trkpt lat="44.04047702011274" lon="10.858837511503298"><ele>704.0</ele><time>2026-04-04T08:52:17.943Z</time></trkpt><trkpt lat="44.04038765520306" lon="10.858861751458713"><ele>704.0</ele><time>2026-04-04T08:52:18.943Z</time></trkpt><trkpt lat="44.040276620239624" lon="10.85887470721029"><ele>704.0</ele><time>2026-04-04T08:52:19.943Z</time></trkpt><trkpt lat="44.04016043242137" lon="10.85890606303968"><ele>704.0</ele><time>2026-04-04T08:52:20.943Z</time></trkpt><trkpt lat="44.040060453850906" lon="10.8589501513275"><ele>704.0</ele><time>2026-04-04T08:52:21.943Z</time></trkpt><trkpt lat="44.03999126172287" lon="10.858930810582642"><ele>704.0</ele><time>2026-04-04T08:52:22.943Z</time></trkpt><trkpt lat="44.039931591234094" lon="10.859118388999214"><ele>704.0</ele><time>2026-04-04T08:52:23.943Z</time></trkpt><trkpt lat="44.03987956409065" lon="10.859251882788085"><ele>701.0</ele><time>2026-04-04T08:52:24.943Z</time></trkpt><trkpt lat="44.03984729883306" lon="10.85940321401214"><ele>698.0</ele><time>2026-04-04T08:52:25.943Z</time></trkpt><trkpt lat="44.03985096916456" lon="10.859580821597477"><ele>695.0</ele><time>2026-04-04T08:52:26.943Z</time></trkpt><trkpt lat="44.0398469080594" lon="10.859738579269811"><ele>692.0</ele><time>2026-04-04T08:52:27.943Z</time></trkpt><trkpt lat="44.03983317632068" lon="10.859892690118214"><ele>692.0</ele><time>2026-04-04T08:52:28.943Z</time></trkpt><trkpt lat="44.03982765329126" lon="10.86003226590602"><ele>692.0</ele><time>2026-04-04T08:52:29.943Z</time></trkpt><trkpt lat="44.03981532927266" lon="10.860165003457713"><ele>692.0</ele><time>2026-04-04T08:52:30.943Z</time></trkpt><trkpt lat="44.03979500957683" lon="10.860277299177701"><ele>692.0</ele><time>2026-04-04T08:52:31.943Z</time></trkpt><trkpt lat="44.039763355380366" lon="10.860382068120943"><ele>692.0</ele><time>2026-04-04T08:52:32.943Z</time></trkpt><trkpt lat="44.039709988952744" lon="10.860473888698806"><ele>692.0</ele><time>2026-04-04T08:52:33.943Z</time></trkpt><trkpt lat="44.039645145964116" lon="10.860568244892645"><ele>693.25</ele><time>2026-04-04T08:52:34.943Z</time></trkpt><trkpt lat="44.03955049321783" lon="10.86063624161989"><ele>694.5</ele><time>2026-04-04T08:52:35.943Z</time></trkpt><trkpt lat="44.03943590252278" lon="10.860703887656415"><ele>695.75</ele><time>2026-04-04T08:52:36.943Z</time></trkpt><trkpt lat="44.039332647637465" lon="10.86075783586952"><ele>697.0</ele><time>2026-04-04T08:52:37.943Z</time></trkpt><trkpt lat="44.03922409712198" lon="10.860796852958105"><ele>697.0</ele><time>2026-04-04T08:52:38.943Z</time></trkpt><trkpt lat="44.03914752772813" lon="10.86083384498208"><ele>697.0</ele><time>2026-04-04T08:52:39.943Z</time></trkpt><trkpt lat="44.03908379836866" lon="10.860876112683423"><ele>697.0</ele><time>2026-04-04T08:52:40.943Z</time></trkpt><trkpt lat="44.03901003874128" lon="10.860935457131232"><ele>697.0</ele><time>2026-04-04T08:52:42.943Z</time></trkpt><trkpt lat="44.038936281135335" lon="10.86097047595158"><ele>697.0</ele><time>2026-04-04T08:52:46.943Z</time></trkpt><trkpt lat="44.03889321850664" lon="10.861056929824585"><ele>697.0</ele><time>2026-04-04T08:52:47.943Z</time></trkpt><trkpt lat="44.03884280402013" lon="10.861177553683708"><ele>696.0</ele><time>2026-04-04T08:52:48.943Z</time></trkpt><trkpt lat="44.03880425599302" lon="10.861308459568102"><ele>695.0</ele><time>2026-04-04T08:52:49.943Z</time></trkpt><trkpt lat="44.03875842100551" lon="10.861435644358806"><ele>694.0</ele><time>2026-04-04T08:52:50.943Z</time></trkpt><trkpt lat="44.03870637588432" lon="10.861603831263604"><ele>693.0</ele><time>2026-04-04T08:52:51.943Z</time></trkpt><trkpt lat="44.038675488865664" lon="10.861762329186634"><ele>693.25</ele><time>2026-04-04T08:52:52.943Z</time></trkpt><trkpt lat="44.03865079483067" lon="10.861928581434345"><ele>693.5</ele><time>2026-04-04T08:52:53.943Z</time></trkpt><trkpt lat="44.0386371836694" lon="10.86210610837866"><ele>693.75</ele><time>2026-04-04T08:52:54.943Z</time></trkpt><trkpt lat="44.03864606911821" lon="10.862286880549618"><ele>694.0</ele><time>2026-04-04T08:52:55.943Z</time></trkpt><trkpt lat="44.038684078030194" lon="10.862479364767834"><ele>694.5</ele><time>2026-04-04T08:52:56.943Z</time></trkpt><trkpt lat="44.03871926245918" lon="10.862667736171149"><ele>695.0</ele><time>2026-04-04T08:52:57.943Z</time></trkpt><trkpt lat="44.03875028068721" lon="10.862841876652856"><ele>695.5</ele><time>2026-04-04T08:52:58.943Z</time></trkpt><trkpt lat="44.038771196283626" lon="10.862999862409469"><ele>696.0</ele><time>2026-04-04T08:52:59.943Z</time></trkpt><trkpt lat="44.03879308120188" lon="10.86314373177004"><ele>696.0</ele><time>2026-04-04T08:53:00.944Z</time></trkpt><trkpt lat="44.03878310934062" lon="10.86328728295902"><ele>696.0</ele><time>2026-04-04T08:53:01.943Z</time></trkpt><trkpt lat="44.03876320113284" lon="10.86342833998922"><ele>696.0</ele><time>2026-04-04T08:53:02.943Z</time></trkpt><trkpt lat="44.03874530627847" lon="10.863567077240118"><ele>696.0</ele><time>2026-04-04T08:53:03.944Z</time></trkpt><trkpt lat="44.038732943143486" lon="10.863675402193838"><ele>696.0</ele><time>2026-04-04T08:53:04.943Z</time></trkpt><trkpt lat="44.03870908795038" lon="10.863839795765724"><ele>696.4</ele><time>2026-04-04T08:53:06.944Z</time></trkpt><trkpt lat="44.03870852059038" lon="10.863942310645257"><ele>696.8</ele><time>2026-04-04T08:53:07.943Z</time></trkpt><trkpt lat="44.038699676822404" lon="10.864056993602654"><ele>697.1999999999999</ele><time>2026-04-04T08:53:08.943Z</time></trkpt><trkpt lat="44.038675810699274" lon="10.864186023760377"><ele>697.5999999999999</ele><time>2026-04-04T08:53:09.943Z</time></trkpt><trkpt lat="44.03864348293149" lon="10.864344816533968"><ele>698.0</ele><time>2026-04-04T08:53:10.943Z</time></trkpt><trkpt lat="44.038628599513835" lon="10.864516463918363"><ele>698.0</ele><time>2026-04-04T08:53:11.943Z</time></trkpt><trkpt lat="44.03860932387624" lon="10.864694130697659"><ele>698.0</ele><time>2026-04-04T08:53:12.943Z</time></trkpt><trkpt lat="44.03859033919016" lon="10.864875322593006"><ele>698.0</ele><time>2026-04-04T08:53:13.943Z</time></trkpt><trkpt lat="44.03857015235292" lon="10.86505325656928"><ele>698.0</ele><time>2026-04-04T08:53:14.943Z</time></trkpt><trkpt lat="44.038549629485786" lon="10.865220944968765"><ele>698.0</ele><time>2026-04-04T08:53:15.943Z</time></trkpt><trkpt lat="44.038527665548884" lon="10.865406704329114"><ele>698.0</ele><time>2026-04-04T08:53:16.943Z</time></trkpt><trkpt lat="44.038506575674134" lon="10.865598545624705"><ele>698.0</ele><time>2026-04-04T08:53:17.943Z</time></trkpt><trkpt lat="44.0384884866638" lon="10.865783953549037"><ele>698.0</ele><time>2026-04-04T08:53:18.943Z</time></trkpt><trkpt lat="44.0384749359645" lon="10.865956833690356"><ele>698.25</ele><time>2026-04-04T08:53:19.943Z</time></trkpt><trkpt lat="44.038454596403604" lon="10.866116384021657"><ele>698.5</ele><time>2026-04-04T08:53:20.943Z</time></trkpt><trkpt lat="44.03842988701087" lon="10.866270418723653"><ele>698.75</ele><time>2026-04-04T08:53:21.943Z</time></trkpt><trkpt lat="44.038415368500885" lon="10.86643041204456"><ele>699.0</ele><time>2026-04-04T08:53:22.943Z</time></trkpt><trkpt lat="44.03839033592831" lon="10.866583206130677"><ele>699.0</ele><time>2026-04-04T08:53:23.943Z</time></trkpt><trkpt lat="44.03836691807037" lon="10.866741925590517"><ele>699.0</ele><time>2026-04-04T08:53:24.943Z</time></trkpt><trkpt lat="44.03835438379053" lon="10.866893356759125"><ele>699.0</ele><time>2026-04-04T08:53:25.943Z</time></trkpt><trkpt lat="44.038334048526266" lon="10.867033164979134"><ele>699.0</ele><time>2026-04-04T08:53:26.943Z</time></trkpt><trkpt lat="44.03831897455797" lon="10.867156070134955"><ele>699.0</ele><time>2026-04-04T08:53:27.943Z</time></trkpt><trkpt lat="44.038300456274214" lon="10.86727026412139"><ele>699.0</ele><time>2026-04-04T08:53:28.943Z</time></trkpt><trkpt lat="44.038277191378306" lon="10.86738127238673"><ele>699.0</ele><time>2026-04-04T08:53:29.943Z</time></trkpt><trkpt lat="44.03825984690249" lon="10.867490690088161"><ele>699.0</ele><time>2026-04-04T08:53:30.943Z</time></trkpt><trkpt lat="44.03824270952641" lon="10.867600382686591"><ele>699.0</ele><time>2026-04-04T08:53:31.943Z</time></trkpt><trkpt lat="44.03822369576706" lon="10.867689662403468"><ele>699.0</ele><time>2026-04-04T08:53:32.943Z</time></trkpt><trkpt lat="44.03818579827968" lon="10.867839881000931"><ele>699.0</ele><time>2026-04-04T08:53:34.943Z</time></trkpt><trkpt lat="44.038199968170105" lon="10.867951238443846"><ele>697.7142857142857</ele><time>2026-04-04T08:53:36.943Z</time></trkpt><trkpt lat="44.03825219357953" lon="10.868023981231811"><ele>696.4285714285714</ele><time>2026-04-04T08:53:39.943Z</time></trkpt><trkpt lat="44.03831384437384" lon="10.868049381459963"><ele>695.1428571428571</ele><time>2026-04-04T08:53:41.943Z</time></trkpt><trkpt lat="44.038373728256765" lon="10.868078683396657"><ele>693.8571428571429</ele><time>2026-04-04T08:53:44.943Z</time></trkpt><trkpt lat="44.038423885058556" lon="10.868159960316639"><ele>692.5714285714286</ele><time>2026-04-04T08:53:48.942Z</time></trkpt><trkpt lat="44.038377924848405" lon="10.868077385948759"><ele>691.2857142857143</ele><time>2026-04-04T08:53:57.942Z</time></trkpt><trkpt lat="44.03829005073756" lon="10.86803497051951"><ele>690.0</ele><time>2026-04-04T08:53:59.942Z</time></trkpt><trkpt lat="44.03827947634446" lon="10.867935204682581"><ele>690.0</ele><time>2026-04-04T08:54:02.942Z</time></trkpt><trkpt lat="44.03825278552312" lon="10.867841518343887"><ele>690.0</ele><time>2026-04-04T08:54:08.942Z</time></trkpt><trkpt lat="44.03826628653315" lon="10.86769653343011"><ele>690.0</ele><time>2026-04-04T08:54:10.942Z</time></trkpt><trkpt lat="44.03829946225226" lon="10.867584702356142"><ele>690.0</ele><time>2026-04-04T08:54:11.942Z</time></trkpt><trkpt lat="44.03831703594867" lon="10.867454619382416"><ele>690.0</ele><time>2026-04-04T08:54:12.942Z</time></trkpt><trkpt lat="44.03832700022476" lon="10.86731587644737"><ele>691.0</ele><time>2026-04-04T08:54:13.942Z</time></trkpt><trkpt lat="44.03835346853795" lon="10.867160593313843"><ele>692.0</ele><time>2026-04-04T08:54:14.942Z</time></trkpt><trkpt lat="44.03836460011574" lon="10.866990524061658"><ele>693.0</ele><time>2026-04-04T08:54:15.942Z</time></trkpt><trkpt lat="44.038389336880336" lon="10.866808839800557"><ele>694.0</ele><time>2026-04-04T08:54:16.942Z</time></trkpt><trkpt lat="44.038402555295995" lon="10.866610368529045"><ele>695.6666666666667</ele><time>2026-04-04T08:54:17.942Z</time></trkpt><trkpt lat="44.03841515407181" lon="10.866401384576356"><ele>697.3333333333334</ele><time>2026-04-04T08:54:18.942Z</time></trkpt><trkpt lat="44.038432665391" lon="10.866201341602187"><ele>699.0</ele><time>2026-04-04T08:54:19.942Z</time></trkpt><trkpt lat="44.038464866084766" lon="10.865990846958928"><ele>698.6666666666666</ele><time>2026-04-04T08:54:20.942Z</time></trkpt><trkpt lat="44.03849590916401" lon="10.865776273110937"><ele>698.3333333333333</ele><time>2026-04-04T08:54:21.942Z</time></trkpt><trkpt lat="44.03852812015896" lon="10.865568401261473"><ele>698.0</ele><time>2026-04-04T08:54:22.942Z</time></trkpt><trkpt lat="44.038547064584584" lon="10.865370493200631"><ele>698.0</ele><time>2026-04-04T08:54:23.942Z</time></trkpt><trkpt lat="44.03857544472017" lon="10.86517041928833"><ele>698.0</ele><time>2026-04-04T08:54:24.942Z</time></trkpt><trkpt lat="44.03860264060315" lon="10.864974614815353"><ele>698.0</ele><time>2026-04-04T08:54:25.942Z</time></trkpt><trkpt lat="44.03862945820158" lon="10.864778533757761"><ele>698.0</ele><time>2026-04-04T08:54:26.942Z</time></trkpt><trkpt lat="44.03865473907094" lon="10.864605524285171"><ele>698.0</ele><time>2026-04-04T08:54:27.942Z</time></trkpt><trkpt lat="44.03866253034578" lon="10.864443951487297"><ele>698.0</ele><time>2026-04-04T08:54:28.942Z</time></trkpt><trkpt lat="44.0386806886346" lon="10.864292266344714"><ele>698.0</ele><time>2026-04-04T08:54:29.942Z</time></trkpt><trkpt lat="44.03870058465664" lon="10.86415662668138"><ele>698.0</ele><time>2026-04-04T08:54:30.942Z</time></trkpt><trkpt lat="44.03871975351888" lon="10.864039083063846"><ele>698.0</ele><time>2026-04-04T08:54:31.942Z</time></trkpt><trkpt lat="44.03872558592223" lon="10.863930800489523"><ele>698.0</ele><time>2026-04-04T08:54:32.942Z</time></trkpt><trkpt lat="44.038734249472476" lon="10.863828954766758"><ele>698.0</ele><time>2026-04-04T08:54:33.942Z</time></trkpt><trkpt lat="44.03873639239582" lon="10.863717303826322"><ele>698.0</ele><time>2026-04-04T08:54:34.942Z</time></trkpt><trkpt lat="44.038745360541675" lon="10.86361065439866"><ele>698.0</ele><time>2026-04-04T08:54:35.942Z</time></trkpt><trkpt lat="44.038751084304465" lon="10.86348880676614"><ele>698.0</ele><time>2026-04-04T08:54:36.942Z</time></trkpt><trkpt lat="44.03876419592031" lon="10.863362058132765"><ele>698.0</ele><time>2026-04-04T08:54:37.942Z</time></trkpt><trkpt lat="44.03877880964127" lon="10.86325763937929"><ele>697.6666666666666</ele><time>2026-04-04T08:54:38.942Z</time></trkpt><trkpt lat="44.03877845735953" lon="10.863127427981176"><ele>697.3333333333333</ele><time>2026-04-04T08:54:40.942Z</time></trkpt><trkpt lat="44.03877451927025" lon="10.863007597787771"><ele>697.0</ele><time>2026-04-04T08:54:42.942Z</time></trkpt><trkpt lat="44.03876849057043" lon="10.862897885720075"><ele>696.6666666666666</ele><time>2026-04-04T08:54:44.942Z</time></trkpt><trkpt lat="44.03874458342383" lon="10.862771211393428"><ele>696.3333333333334</ele><time>2026-04-04T08:54:46.942Z</time></trkpt><trkpt lat="44.03872539536175" lon="10.862645912679081"><ele>696.0</ele><time>2026-04-04T08:54:48.942Z</time></trkpt><trkpt lat="44.038711318646556" lon="10.862459058761896"><ele>695.5999999999999</ele><time>2026-04-04T08:54:50.942Z</time></trkpt><trkpt lat="44.03869973458957" lon="10.862343307199778"><ele>695.2</ele><time>2026-04-04T08:54:51.942Z</time></trkpt><trkpt lat="44.03868322329917" lon="10.86222666207569"><ele>694.8</ele><time>2026-04-04T08:54:52.942Z</time></trkpt><trkpt lat="44.03866468501325" lon="10.862087481485663"><ele>694.4000000000001</ele><time>2026-04-04T08:54:53.942Z</time></trkpt><trkpt lat="44.03866446575488" lon="10.861947704870763"><ele>694.0</ele><time>2026-04-04T08:54:54.942Z</time></trkpt><trkpt lat="44.03868588860798" lon="10.861812337797238"><ele>693.8000000000001</ele><time>2026-04-04T08:54:55.942Z</time></trkpt><trkpt lat="44.038712242464136" lon="10.861666106179133"><ele>693.6</ele><time>2026-04-04T08:54:56.942Z</time></trkpt><trkpt lat="44.03876439197921" lon="10.861533051266067"><ele>693.4</ele><time>2026-04-04T08:54:57.942Z</time></trkpt><trkpt lat="44.03880793235612" lon="10.861407164124138"><ele>693.2</ele><time>2026-04-04T08:54:58.942Z</time></trkpt><trkpt lat="44.03885265514166" lon="10.861293938370583"><ele>693.0</ele><time>2026-04-04T08:54:59.942Z</time></trkpt><trkpt lat="44.03889402135608" lon="10.86118704270204"><ele>693.0</ele><time>2026-04-04T08:55:00.942Z</time></trkpt><trkpt lat="44.038929066510704" lon="10.861087719053799"><ele>693.0</ele><time>2026-04-04T08:55:01.942Z</time></trkpt><trkpt lat="44.03896760708672" lon="10.861013822044276"><ele>693.0</ele><time>2026-04-04T08:55:02.942Z</time></trkpt><trkpt lat="44.039010811329334" lon="10.860942278599351"><ele>693.0</ele><time>2026-04-04T08:55:03.942Z</time></trkpt><trkpt lat="44.03908212575947" lon="10.86091093400067"><ele>693.0</ele><time>2026-04-04T08:55:04.941Z</time></trkpt><trkpt lat="44.039142805527455" lon="10.860873594951379"><ele>693.0</ele><time>2026-04-04T08:55:05.941Z</time></trkpt><trkpt lat="44.039219252440766" lon="10.860815648962843"><ele>693.0</ele><time>2026-04-04T08:55:06.942Z</time></trkpt><trkpt lat="44.03931182224883" lon="10.860768635632821"><ele>693.8</ele><time>2026-04-04T08:55:07.941Z</time></trkpt><trkpt lat="44.03942891542467" lon="10.8607065818361"><ele>694.5999999999999</ele><time>2026-04-04T08:55:08.941Z</time></trkpt><trkpt lat="44.03953442673666" lon="10.860630512648124"><ele>695.4000000000001</ele><time>2026-04-04T08:55:09.942Z</time></trkpt><trkpt lat="44.039617247035274" lon="10.860566734112167"><ele>696.2</ele><time>2026-04-04T08:55:10.941Z</time></trkpt><trkpt lat="44.039703051289656" lon="10.860495288643806"><ele>697.0</ele><time>2026-04-04T08:55:11.941Z</time></trkpt><trkpt lat="44.03977641189468" lon="10.860378002099978"><ele>697.0</ele><time>2026-04-04T08:55:12.942Z</time></trkpt><trkpt lat="44.039834764353564" lon="10.86023968146316"><ele>697.0</ele><time>2026-04-04T08:55:13.941Z</time></trkpt><trkpt lat="44.0398596796685" lon="10.860082923470644"><ele>697.0</ele><time>2026-04-04T08:55:14.941Z</time></trkpt><trkpt lat="44.03987925462046" lon="10.859905246183411"><ele>697.0</ele><time>2026-04-04T08:55:15.941Z</time></trkpt><trkpt lat="44.03989693032105" lon="10.859729790221271"><ele>696.4000000000001</ele><time>2026-04-04T08:55:16.941Z</time></trkpt><trkpt lat="44.03990770784215" lon="10.859555223614596"><ele>695.8000000000001</ele><time>2026-04-04T08:55:17.941Z</time></trkpt><trkpt lat="44.039921096734744" lon="10.859405655258781"><ele>695.2</ele><time>2026-04-04T08:55:18.942Z</time></trkpt><trkpt lat="44.03994367054983" lon="10.859274415384892"><ele>694.6</ele><time>2026-04-04T08:55:19.942Z</time></trkpt><trkpt lat="44.03998125789341" lon="10.859150279412361"><ele>694.0</ele><time>2026-04-04T08:55:20.942Z</time></trkpt><trkpt lat="44.040039611549915" lon="10.859048496787388"><ele>696.0</ele><time>2026-04-04T08:55:21.942Z</time></trkpt><trkpt lat="44.04011384953016" lon="10.858959352687247"><ele>698.0</ele><time>2026-04-04T08:55:22.942Z</time></trkpt><trkpt lat="44.04021250075676" lon="10.858904023561943"><ele>700.0</ele><time>2026-04-04T08:55:23.942Z</time></trkpt><trkpt lat="44.04032077865996" lon="10.858877184190046"><ele>702.0</ele><time>2026-04-04T08:55:24.942Z</time></trkpt><trkpt lat="44.04042691370753" lon="10.858861433012711"><ele>704.0</ele><time>2026-04-04T08:55:25.942Z</time></trkpt><trkpt lat="44.040525470493186" lon="10.85886204265477"><ele>704.0</ele><time>2026-04-04T08:55:26.942Z</time></trkpt><trkpt lat="44.04059880286834" lon="10.858870751526482"><ele>704.0</ele><time>2026-04-04T08:55:27.942Z</time></trkpt><trkpt lat="44.04069171164385" lon="10.858845237079908"><ele>704.0</ele><time>2026-04-04T08:55:29.942Z</time></trkpt><trkpt lat="44.04077139427376" lon="10.85883761526043"><ele>704.0</ele><time>2026-04-04T08:55:32.942Z</time></trkpt></trkseg></trk></gpx>